<?xml version="1.0" encoding="UTF-8" standalone="no" ?>
<gpx xmlns="http://www.topografix.com/GPX/1/1" xmlns:xsi="http://www.w3.org/2001/XMLSchema-instance" xsi:schemaLocation="http://www.topografix.com/GPX/1/1 http://www.topografix.com/GPX/1/1/gpx.xsd" version="1.1" creator="VisuGPX - https://www.visugpx.com">
  <metadata>
    <name>le Mesnil de louvigny</name>
    <desc><![CDATA[ballade dans la plaine]]></desc>
  </metadata>
  <trk>
    <name><![CDATA[2012-01-13-01]]></name>
    <trkseg>
      <trkpt lat="49.17308" lon="-0.40476">
        <ele>28.8</ele>
        <time>2012-01-13T13:09:50Z</time>
      </trkpt>
      <trkpt lat="49.17308" lon="-0.40476">
        <ele>28.8</ele>
        <time>2012-01-13T13:09:51Z</time>
      </trkpt>
      <trkpt lat="49.17308" lon="-0.40476">
        <ele>28.7</ele>
        <time>2012-01-13T13:09:52Z</time>
      </trkpt>
      <trkpt lat="49.17308" lon="-0.40476">
        <ele>28.7</ele>
        <time>2012-01-13T13:09:53Z</time>
      </trkpt>
      <trkpt lat="49.17308" lon="-0.40477">
        <ele>29.1</ele>
        <time>2012-01-13T13:09:54Z</time>
      </trkpt>
      <trkpt lat="49.17308" lon="-0.40477">
        <ele>29.2</ele>
        <time>2012-01-13T13:09:55Z</time>
      </trkpt>
      <trkpt lat="49.17308" lon="-0.40477">
        <ele>29.5</ele>
        <time>2012-01-13T13:09:56Z</time>
      </trkpt>
      <trkpt lat="49.17308" lon="-0.40477">
        <ele>29.6</ele>
        <time>2012-01-13T13:09:57Z</time>
      </trkpt>
      <trkpt lat="49.17308" lon="-0.40477">
        <ele>29.6</ele>
        <time>2012-01-13T13:09:58Z</time>
      </trkpt>
      <trkpt lat="49.17308" lon="-0.40477">
        <ele>29.7</ele>
        <time>2012-01-13T13:09:59Z</time>
      </trkpt>
      <trkpt lat="49.17308" lon="-0.40477">
        <ele>29.7</ele>
        <time>2012-01-13T13:10:00Z</time>
      </trkpt>
      <trkpt lat="49.17308" lon="-0.40477">
        <ele>30.1</ele>
        <time>2012-01-13T13:10:01Z</time>
      </trkpt>
      <trkpt lat="49.17308" lon="-0.40477">
        <ele>30.2</ele>
        <time>2012-01-13T13:10:02Z</time>
      </trkpt>
      <trkpt lat="49.17308" lon="-0.40477">
        <ele>30.2</ele>
        <time>2012-01-13T13:10:03Z</time>
      </trkpt>
      <trkpt lat="49.17308" lon="-0.40477">
        <ele>30.7</ele>
        <time>2012-01-13T13:10:04Z</time>
      </trkpt>
      <trkpt lat="49.17308" lon="-0.40477">
        <ele>31</ele>
        <time>2012-01-13T13:10:05Z</time>
      </trkpt>
      <trkpt lat="49.17308" lon="-0.40477">
        <ele>31</ele>
        <time>2012-01-13T13:10:06Z</time>
      </trkpt>
      <trkpt lat="49.17308" lon="-0.40477">
        <ele>31.2</ele>
        <time>2012-01-13T13:10:07Z</time>
      </trkpt>
      <trkpt lat="49.17307" lon="-0.40477">
        <ele>31.7</ele>
        <time>2012-01-13T13:10:09Z</time>
      </trkpt>
      <trkpt lat="49.17306" lon="-0.40477">
        <ele>32</ele>
        <time>2012-01-13T13:10:10Z</time>
      </trkpt>
      <trkpt lat="49.17305" lon="-0.40478">
        <ele>32</ele>
        <time>2012-01-13T13:10:11Z</time>
      </trkpt>
      <trkpt lat="49.17304" lon="-0.40479">
        <ele>32.2</ele>
        <time>2012-01-13T13:10:12Z</time>
      </trkpt>
      <trkpt lat="49.17303" lon="-0.40479">
        <ele>32.4</ele>
        <time>2012-01-13T13:10:13Z</time>
      </trkpt>
      <trkpt lat="49.17302" lon="-0.4048">
        <ele>33</ele>
        <time>2012-01-13T13:10:14Z</time>
      </trkpt>
      <trkpt lat="49.17301" lon="-0.40481">
        <ele>34</ele>
        <time>2012-01-13T13:10:15Z</time>
      </trkpt>
      <trkpt lat="49.173" lon="-0.40481">
        <ele>34.5</ele>
        <time>2012-01-13T13:10:16Z</time>
      </trkpt>
      <trkpt lat="49.17299" lon="-0.4048">
        <ele>34.5</ele>
        <time>2012-01-13T13:10:17Z</time>
      </trkpt>
      <trkpt lat="49.17299" lon="-0.4048">
        <ele>35</ele>
        <time>2012-01-13T13:10:18Z</time>
      </trkpt>
      <trkpt lat="49.17298" lon="-0.40481">
        <ele>35.7</ele>
        <time>2012-01-13T13:10:19Z</time>
      </trkpt>
      <trkpt lat="49.17297" lon="-0.40481">
        <ele>35.2</ele>
        <time>2012-01-13T13:10:20Z</time>
      </trkpt>
      <trkpt lat="49.17296" lon="-0.40481">
        <ele>34.5</ele>
        <time>2012-01-13T13:10:21Z</time>
      </trkpt>
      <trkpt lat="49.17296" lon="-0.40481">
        <ele>33.5</ele>
        <time>2012-01-13T13:10:22Z</time>
      </trkpt>
      <trkpt lat="49.17295" lon="-0.40482">
        <ele>33.4</ele>
        <time>2012-01-13T13:10:23Z</time>
      </trkpt>
      <trkpt lat="49.17293" lon="-0.40483">
        <ele>32.7</ele>
        <time>2012-01-13T13:10:24Z</time>
      </trkpt>
      <trkpt lat="49.17292" lon="-0.40484">
        <ele>32.5</ele>
        <time>2012-01-13T13:10:25Z</time>
      </trkpt>
      <trkpt lat="49.17291" lon="-0.40485">
        <ele>32</ele>
        <time>2012-01-13T13:10:26Z</time>
      </trkpt>
      <trkpt lat="49.1729" lon="-0.40486">
        <ele>31.6</ele>
        <time>2012-01-13T13:10:27Z</time>
      </trkpt>
      <trkpt lat="49.17289" lon="-0.40487">
        <ele>31.2</ele>
        <time>2012-01-13T13:10:28Z</time>
      </trkpt>
      <trkpt lat="49.17288" lon="-0.40488">
        <ele>31</ele>
        <time>2012-01-13T13:10:29Z</time>
      </trkpt>
      <trkpt lat="49.17287" lon="-0.40489">
        <ele>30.6</ele>
        <time>2012-01-13T13:10:30Z</time>
      </trkpt>
      <trkpt lat="49.17286" lon="-0.4049">
        <ele>30.1</ele>
        <time>2012-01-13T13:10:31Z</time>
      </trkpt>
      <trkpt lat="49.17285" lon="-0.4049">
        <ele>29.7</ele>
        <time>2012-01-13T13:10:32Z</time>
      </trkpt>
      <trkpt lat="49.17283" lon="-0.40491">
        <ele>29.5</ele>
        <time>2012-01-13T13:10:33Z</time>
      </trkpt>
      <trkpt lat="49.17283" lon="-0.40491">
        <ele>29.2</ele>
        <time>2012-01-13T13:10:34Z</time>
      </trkpt>
      <trkpt lat="49.17282" lon="-0.40492">
        <ele>29.1</ele>
        <time>2012-01-13T13:10:35Z</time>
      </trkpt>
      <trkpt lat="49.17281" lon="-0.40492">
        <ele>28.7</ele>
        <time>2012-01-13T13:10:36Z</time>
      </trkpt>
      <trkpt lat="49.1728" lon="-0.40492">
        <ele>28.7</ele>
        <time>2012-01-13T13:10:37Z</time>
      </trkpt>
      <trkpt lat="49.17279" lon="-0.40493">
        <ele>28.6</ele>
        <time>2012-01-13T13:10:38Z</time>
      </trkpt>
      <trkpt lat="49.17279" lon="-0.40493">
        <ele>28.7</ele>
        <time>2012-01-13T13:10:39Z</time>
      </trkpt>
      <trkpt lat="49.17278" lon="-0.40493">
        <ele>28.2</ele>
        <time>2012-01-13T13:10:40Z</time>
      </trkpt>
      <trkpt lat="49.17277" lon="-0.40494">
        <ele>27.7</ele>
        <time>2012-01-13T13:10:41Z</time>
      </trkpt>
      <trkpt lat="49.17276" lon="-0.40494">
        <ele>27.1</ele>
        <time>2012-01-13T13:10:42Z</time>
      </trkpt>
      <trkpt lat="49.17275" lon="-0.40495">
        <ele>26.7</ele>
        <time>2012-01-13T13:10:43Z</time>
      </trkpt>
      <trkpt lat="49.17273" lon="-0.40495">
        <ele>27</ele>
        <time>2012-01-13T13:10:44Z</time>
      </trkpt>
      <trkpt lat="49.17272" lon="-0.40495">
        <ele>26.7</ele>
        <time>2012-01-13T13:10:45Z</time>
      </trkpt>
      <trkpt lat="49.17271" lon="-0.40496">
        <ele>26.2</ele>
        <time>2012-01-13T13:10:46Z</time>
      </trkpt>
      <trkpt lat="49.1727" lon="-0.40496">
        <ele>25.7</ele>
        <time>2012-01-13T13:10:47Z</time>
      </trkpt>
      <trkpt lat="49.17269" lon="-0.40497">
        <ele>25.7</ele>
        <time>2012-01-13T13:10:48Z</time>
      </trkpt>
      <trkpt lat="49.17268" lon="-0.40497">
        <ele>25.2</ele>
        <time>2012-01-13T13:10:49Z</time>
      </trkpt>
      <trkpt lat="49.17267" lon="-0.40497">
        <ele>24.7</ele>
        <time>2012-01-13T13:10:50Z</time>
      </trkpt>
      <trkpt lat="49.17266" lon="-0.40497">
        <ele>24</ele>
        <time>2012-01-13T13:10:51Z</time>
      </trkpt>
      <trkpt lat="49.17265" lon="-0.40498">
        <ele>23.2</ele>
        <time>2012-01-13T13:10:52Z</time>
      </trkpt>
      <trkpt lat="49.17264" lon="-0.40498">
        <ele>23.2</ele>
        <time>2012-01-13T13:10:53Z</time>
      </trkpt>
      <trkpt lat="49.17263" lon="-0.40498">
        <ele>22.6</ele>
        <time>2012-01-13T13:10:54Z</time>
      </trkpt>
      <trkpt lat="49.17262" lon="-0.40498">
        <ele>22.2</ele>
        <time>2012-01-13T13:10:55Z</time>
      </trkpt>
      <trkpt lat="49.17261" lon="-0.40498">
        <ele>21.6</ele>
        <time>2012-01-13T13:10:56Z</time>
      </trkpt>
      <trkpt lat="49.17259" lon="-0.40498">
        <ele>20.7</ele>
        <time>2012-01-13T13:10:57Z</time>
      </trkpt>
      <trkpt lat="49.17258" lon="-0.40499">
        <ele>20.2</ele>
        <time>2012-01-13T13:10:58Z</time>
      </trkpt>
      <trkpt lat="49.17257" lon="-0.40499">
        <ele>20</ele>
        <time>2012-01-13T13:10:59Z</time>
      </trkpt>
      <trkpt lat="49.17256" lon="-0.40499">
        <ele>20.2</ele>
        <time>2012-01-13T13:11:00Z</time>
      </trkpt>
      <trkpt lat="49.17255" lon="-0.40499">
        <ele>19.2</ele>
        <time>2012-01-13T13:11:01Z</time>
      </trkpt>
      <trkpt lat="49.17254" lon="-0.405">
        <ele>18.7</ele>
        <time>2012-01-13T13:11:02Z</time>
      </trkpt>
      <trkpt lat="49.17253" lon="-0.405">
        <ele>18.5</ele>
        <time>2012-01-13T13:11:03Z</time>
      </trkpt>
      <trkpt lat="49.17251" lon="-0.40501">
        <ele>18.2</ele>
        <time>2012-01-13T13:11:04Z</time>
      </trkpt>
      <trkpt lat="49.1725" lon="-0.40502">
        <ele>18.5</ele>
        <time>2012-01-13T13:11:05Z</time>
      </trkpt>
      <trkpt lat="49.17248" lon="-0.40503">
        <ele>18.5</ele>
        <time>2012-01-13T13:11:06Z</time>
      </trkpt>
      <trkpt lat="49.17247" lon="-0.40503">
        <ele>18.5</ele>
        <time>2012-01-13T13:11:07Z</time>
      </trkpt>
      <trkpt lat="49.17246" lon="-0.40504">
        <ele>18.5</ele>
        <time>2012-01-13T13:11:08Z</time>
      </trkpt>
      <trkpt lat="49.17245" lon="-0.40505">
        <ele>19.2</ele>
        <time>2012-01-13T13:11:09Z</time>
      </trkpt>
      <trkpt lat="49.17244" lon="-0.40505">
        <ele>19.7</ele>
        <time>2012-01-13T13:11:10Z</time>
      </trkpt>
      <trkpt lat="49.17243" lon="-0.40506">
        <ele>20.7</ele>
        <time>2012-01-13T13:11:11Z</time>
      </trkpt>
      <trkpt lat="49.17241" lon="-0.40507">
        <ele>20.7</ele>
        <time>2012-01-13T13:11:12Z</time>
      </trkpt>
      <trkpt lat="49.1724" lon="-0.40508">
        <ele>21.1</ele>
        <time>2012-01-13T13:11:13Z</time>
      </trkpt>
      <trkpt lat="49.17239" lon="-0.40508">
        <ele>21.5</ele>
        <time>2012-01-13T13:11:14Z</time>
      </trkpt>
      <trkpt lat="49.17238" lon="-0.40509">
        <ele>21.7</ele>
        <time>2012-01-13T13:11:15Z</time>
      </trkpt>
      <trkpt lat="49.17237" lon="-0.40508">
        <ele>21.7</ele>
        <time>2012-01-13T13:11:16Z</time>
      </trkpt>
      <trkpt lat="49.17236" lon="-0.40509">
        <ele>22.1</ele>
        <time>2012-01-13T13:11:17Z</time>
      </trkpt>
      <trkpt lat="49.17234" lon="-0.40509">
        <ele>22</ele>
        <time>2012-01-13T13:11:18Z</time>
      </trkpt>
      <trkpt lat="49.17233" lon="-0.4051">
        <ele>21.2</ele>
        <time>2012-01-13T13:11:19Z</time>
      </trkpt>
      <trkpt lat="49.17231" lon="-0.40511">
        <ele>21.7</ele>
        <time>2012-01-13T13:11:20Z</time>
      </trkpt>
      <trkpt lat="49.1723" lon="-0.40512">
        <ele>22.5</ele>
        <time>2012-01-13T13:11:21Z</time>
      </trkpt>
      <trkpt lat="49.1723" lon="-0.40512">
        <ele>23.7</ele>
        <time>2012-01-13T13:11:22Z</time>
      </trkpt>
      <trkpt lat="49.17229" lon="-0.40513">
        <ele>24.2</ele>
        <time>2012-01-13T13:11:23Z</time>
      </trkpt>
      <trkpt lat="49.17227" lon="-0.40513">
        <ele>24.6</ele>
        <time>2012-01-13T13:11:24Z</time>
      </trkpt>
      <trkpt lat="49.17226" lon="-0.40514">
        <ele>24.2</ele>
        <time>2012-01-13T13:11:25Z</time>
      </trkpt>
      <trkpt lat="49.17225" lon="-0.40515">
        <ele>24.2</ele>
        <time>2012-01-13T13:11:26Z</time>
      </trkpt>
      <trkpt lat="49.17223" lon="-0.40516">
        <ele>24</ele>
        <time>2012-01-13T13:11:27Z</time>
      </trkpt>
      <trkpt lat="49.17222" lon="-0.40516">
        <ele>24.1</ele>
        <time>2012-01-13T13:11:28Z</time>
      </trkpt>
      <trkpt lat="49.17222" lon="-0.40517">
        <ele>24.2</ele>
        <time>2012-01-13T13:11:29Z</time>
      </trkpt>
      <trkpt lat="49.17221" lon="-0.40517">
        <ele>24.5</ele>
        <time>2012-01-13T13:11:30Z</time>
      </trkpt>
      <trkpt lat="49.1722" lon="-0.40518">
        <ele>24.5</ele>
        <time>2012-01-13T13:11:31Z</time>
      </trkpt>
      <trkpt lat="49.17219" lon="-0.40518">
        <ele>24.7</ele>
        <time>2012-01-13T13:11:32Z</time>
      </trkpt>
      <trkpt lat="49.17218" lon="-0.40519">
        <ele>24.7</ele>
        <time>2012-01-13T13:11:33Z</time>
      </trkpt>
      <trkpt lat="49.17217" lon="-0.40519">
        <ele>25.2</ele>
        <time>2012-01-13T13:11:34Z</time>
      </trkpt>
      <trkpt lat="49.17216" lon="-0.4052">
        <ele>25.2</ele>
        <time>2012-01-13T13:11:35Z</time>
      </trkpt>
      <trkpt lat="49.17215" lon="-0.4052">
        <ele>25.5</ele>
        <time>2012-01-13T13:11:36Z</time>
      </trkpt>
      <trkpt lat="49.17214" lon="-0.40521">
        <ele>25.6</ele>
        <time>2012-01-13T13:11:37Z</time>
      </trkpt>
      <trkpt lat="49.17213" lon="-0.40522">
        <ele>25.7</ele>
        <time>2012-01-13T13:11:38Z</time>
      </trkpt>
      <trkpt lat="49.17212" lon="-0.40522">
        <ele>25.7</ele>
        <time>2012-01-13T13:11:39Z</time>
      </trkpt>
      <trkpt lat="49.17211" lon="-0.40523">
        <ele>25.7</ele>
        <time>2012-01-13T13:11:40Z</time>
      </trkpt>
      <trkpt lat="49.1721" lon="-0.40523">
        <ele>26</ele>
        <time>2012-01-13T13:11:41Z</time>
      </trkpt>
      <trkpt lat="49.17209" lon="-0.40523">
        <ele>26.1</ele>
        <time>2012-01-13T13:11:42Z</time>
      </trkpt>
      <trkpt lat="49.17208" lon="-0.40524">
        <ele>26.2</ele>
        <time>2012-01-13T13:11:43Z</time>
      </trkpt>
      <trkpt lat="49.17206" lon="-0.40525">
        <ele>26.2</ele>
        <time>2012-01-13T13:11:44Z</time>
      </trkpt>
      <trkpt lat="49.17205" lon="-0.40525">
        <ele>26.1</ele>
        <time>2012-01-13T13:11:45Z</time>
      </trkpt>
      <trkpt lat="49.17204" lon="-0.40526">
        <ele>26</ele>
        <time>2012-01-13T13:11:46Z</time>
      </trkpt>
      <trkpt lat="49.17203" lon="-0.40526">
        <ele>25.7</ele>
        <time>2012-01-13T13:11:47Z</time>
      </trkpt>
      <trkpt lat="49.17202" lon="-0.40527">
        <ele>26</ele>
        <time>2012-01-13T13:11:48Z</time>
      </trkpt>
      <trkpt lat="49.17201" lon="-0.40528">
        <ele>26</ele>
        <time>2012-01-13T13:11:49Z</time>
      </trkpt>
      <trkpt lat="49.17201" lon="-0.40528">
        <ele>25.7</ele>
        <time>2012-01-13T13:11:50Z</time>
      </trkpt>
      <trkpt lat="49.172" lon="-0.40529">
        <ele>26</ele>
        <time>2012-01-13T13:11:51Z</time>
      </trkpt>
      <trkpt lat="49.17198" lon="-0.4053">
        <ele>25.6</ele>
        <time>2012-01-13T13:11:52Z</time>
      </trkpt>
      <trkpt lat="49.17197" lon="-0.40531">
        <ele>25.5</ele>
        <time>2012-01-13T13:11:53Z</time>
      </trkpt>
      <trkpt lat="49.17195" lon="-0.40532">
        <ele>25.1</ele>
        <time>2012-01-13T13:11:54Z</time>
      </trkpt>
      <trkpt lat="49.17194" lon="-0.40533">
        <ele>24.6</ele>
        <time>2012-01-13T13:11:55Z</time>
      </trkpt>
      <trkpt lat="49.17193" lon="-0.40533">
        <ele>24.2</ele>
        <time>2012-01-13T13:11:56Z</time>
      </trkpt>
      <trkpt lat="49.17192" lon="-0.40534">
        <ele>23.7</ele>
        <time>2012-01-13T13:11:57Z</time>
      </trkpt>
      <trkpt lat="49.17191" lon="-0.40535">
        <ele>23.7</ele>
        <time>2012-01-13T13:11:58Z</time>
      </trkpt>
      <trkpt lat="49.1719" lon="-0.40536">
        <ele>23.2</ele>
        <time>2012-01-13T13:11:59Z</time>
      </trkpt>
      <trkpt lat="49.17189" lon="-0.40537">
        <ele>23.2</ele>
        <time>2012-01-13T13:12:00Z</time>
      </trkpt>
      <trkpt lat="49.17188" lon="-0.40537">
        <ele>23.2</ele>
        <time>2012-01-13T13:12:01Z</time>
      </trkpt>
      <trkpt lat="49.17187" lon="-0.40538">
        <ele>22.7</ele>
        <time>2012-01-13T13:12:02Z</time>
      </trkpt>
      <trkpt lat="49.17186" lon="-0.40538">
        <ele>22.2</ele>
        <time>2012-01-13T13:12:03Z</time>
      </trkpt>
      <trkpt lat="49.17185" lon="-0.4054">
        <ele>22.2</ele>
        <time>2012-01-13T13:12:04Z</time>
      </trkpt>
      <trkpt lat="49.17184" lon="-0.4054">
        <ele>21.5</ele>
        <time>2012-01-13T13:12:05Z</time>
      </trkpt>
      <trkpt lat="49.17183" lon="-0.40541">
        <ele>20.7</ele>
        <time>2012-01-13T13:12:06Z</time>
      </trkpt>
      <trkpt lat="49.17182" lon="-0.40541">
        <ele>20.1</ele>
        <time>2012-01-13T13:12:07Z</time>
      </trkpt>
      <trkpt lat="49.17181" lon="-0.40542">
        <ele>19.7</ele>
        <time>2012-01-13T13:12:08Z</time>
      </trkpt>
      <trkpt lat="49.1718" lon="-0.40542">
        <ele>19.7</ele>
        <time>2012-01-13T13:12:09Z</time>
      </trkpt>
      <trkpt lat="49.17179" lon="-0.40543">
        <ele>20.2</ele>
        <time>2012-01-13T13:12:10Z</time>
      </trkpt>
      <trkpt lat="49.17178" lon="-0.40544">
        <ele>20</ele>
        <time>2012-01-13T13:12:11Z</time>
      </trkpt>
      <trkpt lat="49.17176" lon="-0.40546">
        <ele>20.2</ele>
        <time>2012-01-13T13:12:12Z</time>
      </trkpt>
      <trkpt lat="49.17174" lon="-0.40547">
        <ele>20.5</ele>
        <time>2012-01-13T13:12:13Z</time>
      </trkpt>
      <trkpt lat="49.17172" lon="-0.40548">
        <ele>20.5</ele>
        <time>2012-01-13T13:12:14Z</time>
      </trkpt>
      <trkpt lat="49.17171" lon="-0.40549">
        <ele>20.2</ele>
        <time>2012-01-13T13:12:15Z</time>
      </trkpt>
      <trkpt lat="49.1717" lon="-0.4055">
        <ele>20.2</ele>
        <time>2012-01-13T13:12:16Z</time>
      </trkpt>
      <trkpt lat="49.17168" lon="-0.40551">
        <ele>20.2</ele>
        <time>2012-01-13T13:12:17Z</time>
      </trkpt>
      <trkpt lat="49.17167" lon="-0.40552">
        <ele>20.1</ele>
        <time>2012-01-13T13:12:18Z</time>
      </trkpt>
      <trkpt lat="49.17166" lon="-0.40552">
        <ele>19.7</ele>
        <time>2012-01-13T13:12:19Z</time>
      </trkpt>
      <trkpt lat="49.17165" lon="-0.40553">
        <ele>19.7</ele>
        <time>2012-01-13T13:12:20Z</time>
      </trkpt>
      <trkpt lat="49.17163" lon="-0.40554">
        <ele>19.7</ele>
        <time>2012-01-13T13:12:21Z</time>
      </trkpt>
      <trkpt lat="49.17162" lon="-0.40555">
        <ele>19.7</ele>
        <time>2012-01-13T13:12:22Z</time>
      </trkpt>
      <trkpt lat="49.17161" lon="-0.40555">
        <ele>19.7</ele>
        <time>2012-01-13T13:12:23Z</time>
      </trkpt>
      <trkpt lat="49.1716" lon="-0.40556">
        <ele>19.7</ele>
        <time>2012-01-13T13:12:24Z</time>
      </trkpt>
      <trkpt lat="49.17159" lon="-0.40556">
        <ele>19.7</ele>
        <time>2012-01-13T13:12:25Z</time>
      </trkpt>
      <trkpt lat="49.17158" lon="-0.40557">
        <ele>19.6</ele>
        <time>2012-01-13T13:12:26Z</time>
      </trkpt>
      <trkpt lat="49.17158" lon="-0.40557">
        <ele>19.5</ele>
        <time>2012-01-13T13:12:27Z</time>
      </trkpt>
      <trkpt lat="49.17156" lon="-0.40558">
        <ele>19.2</ele>
        <time>2012-01-13T13:12:28Z</time>
      </trkpt>
      <trkpt lat="49.17155" lon="-0.40558">
        <ele>19.7</ele>
        <time>2012-01-13T13:12:29Z</time>
      </trkpt>
      <trkpt lat="49.17154" lon="-0.40558">
        <ele>19.6</ele>
        <time>2012-01-13T13:12:30Z</time>
      </trkpt>
      <trkpt lat="49.17153" lon="-0.40559">
        <ele>19.5</ele>
        <time>2012-01-13T13:12:31Z</time>
      </trkpt>
      <trkpt lat="49.17152" lon="-0.40559">
        <ele>19.5</ele>
        <time>2012-01-13T13:12:32Z</time>
      </trkpt>
      <trkpt lat="49.17151" lon="-0.40559">
        <ele>19.2</ele>
        <time>2012-01-13T13:12:33Z</time>
      </trkpt>
      <trkpt lat="49.1715" lon="-0.4056">
        <ele>19.1</ele>
        <time>2012-01-13T13:12:34Z</time>
      </trkpt>
      <trkpt lat="49.1715" lon="-0.4056">
        <ele>19</ele>
        <time>2012-01-13T13:12:35Z</time>
      </trkpt>
      <trkpt lat="49.17149" lon="-0.4056">
        <ele>18.7</ele>
        <time>2012-01-13T13:12:36Z</time>
      </trkpt>
      <trkpt lat="49.17147" lon="-0.4056">
        <ele>18.7</ele>
        <time>2012-01-13T13:12:37Z</time>
      </trkpt>
      <trkpt lat="49.17146" lon="-0.40561">
        <ele>18.2</ele>
        <time>2012-01-13T13:12:38Z</time>
      </trkpt>
      <trkpt lat="49.17145" lon="-0.40561">
        <ele>18.1</ele>
        <time>2012-01-13T13:12:39Z</time>
      </trkpt>
      <trkpt lat="49.17145" lon="-0.40561">
        <ele>17.7</ele>
        <time>2012-01-13T13:12:40Z</time>
      </trkpt>
      <trkpt lat="49.17144" lon="-0.40562">
        <ele>17.5</ele>
        <time>2012-01-13T13:12:41Z</time>
      </trkpt>
      <trkpt lat="49.17143" lon="-0.40562">
        <ele>17.2</ele>
        <time>2012-01-13T13:12:42Z</time>
      </trkpt>
      <trkpt lat="49.17142" lon="-0.40563">
        <ele>17</ele>
        <time>2012-01-13T13:12:43Z</time>
      </trkpt>
      <trkpt lat="49.17141" lon="-0.40563">
        <ele>16.6</ele>
        <time>2012-01-13T13:12:44Z</time>
      </trkpt>
      <trkpt lat="49.1714" lon="-0.40564">
        <ele>16.2</ele>
        <time>2012-01-13T13:12:45Z</time>
      </trkpt>
      <trkpt lat="49.17138" lon="-0.40565">
        <ele>16.1</ele>
        <time>2012-01-13T13:12:46Z</time>
      </trkpt>
      <trkpt lat="49.17137" lon="-0.40566">
        <ele>15.8</ele>
        <time>2012-01-13T13:12:47Z</time>
      </trkpt>
      <trkpt lat="49.17135" lon="-0.40567">
        <ele>15.6</ele>
        <time>2012-01-13T13:12:48Z</time>
      </trkpt>
      <trkpt lat="49.17134" lon="-0.40568">
        <ele>15.5</ele>
        <time>2012-01-13T13:12:49Z</time>
      </trkpt>
      <trkpt lat="49.17132" lon="-0.40569">
        <ele>15.3</ele>
        <time>2012-01-13T13:12:50Z</time>
      </trkpt>
      <trkpt lat="49.17131" lon="-0.40569">
        <ele>15.3</ele>
        <time>2012-01-13T13:12:51Z</time>
      </trkpt>
      <trkpt lat="49.1713" lon="-0.4057">
        <ele>15.1</ele>
        <time>2012-01-13T13:12:52Z</time>
      </trkpt>
      <trkpt lat="49.17129" lon="-0.4057">
        <ele>15</ele>
        <time>2012-01-13T13:12:53Z</time>
      </trkpt>
      <trkpt lat="49.17129" lon="-0.40569">
        <ele>15</ele>
        <time>2012-01-13T13:12:54Z</time>
      </trkpt>
      <trkpt lat="49.17128" lon="-0.40569">
        <ele>14.6</ele>
        <time>2012-01-13T13:12:55Z</time>
      </trkpt>
      <trkpt lat="49.17127" lon="-0.40569">
        <ele>14.8</ele>
        <time>2012-01-13T13:12:56Z</time>
      </trkpt>
      <trkpt lat="49.17126" lon="-0.4057">
        <ele>14.8</ele>
        <time>2012-01-13T13:12:57Z</time>
      </trkpt>
      <trkpt lat="49.17124" lon="-0.4057">
        <ele>14.8</ele>
        <time>2012-01-13T13:12:58Z</time>
      </trkpt>
      <trkpt lat="49.17123" lon="-0.4057">
        <ele>14.8</ele>
        <time>2012-01-13T13:12:59Z</time>
      </trkpt>
      <trkpt lat="49.17122" lon="-0.4057">
        <ele>14.6</ele>
        <time>2012-01-13T13:13:00Z</time>
      </trkpt>
      <trkpt lat="49.17121" lon="-0.40571">
        <ele>14.8</ele>
        <time>2012-01-13T13:13:01Z</time>
      </trkpt>
      <trkpt lat="49.1712" lon="-0.40571">
        <ele>14.5</ele>
        <time>2012-01-13T13:13:02Z</time>
      </trkpt>
      <trkpt lat="49.17119" lon="-0.40571">
        <ele>14.3</ele>
        <time>2012-01-13T13:13:03Z</time>
      </trkpt>
      <trkpt lat="49.17118" lon="-0.40571">
        <ele>13.8</ele>
        <time>2012-01-13T13:13:04Z</time>
      </trkpt>
      <trkpt lat="49.17117" lon="-0.40572">
        <ele>13.8</ele>
        <time>2012-01-13T13:13:05Z</time>
      </trkpt>
      <trkpt lat="49.17116" lon="-0.40573">
        <ele>13.6</ele>
        <time>2012-01-13T13:13:06Z</time>
      </trkpt>
      <trkpt lat="49.17115" lon="-0.40574">
        <ele>13.8</ele>
        <time>2012-01-13T13:13:07Z</time>
      </trkpt>
      <trkpt lat="49.17114" lon="-0.40576">
        <ele>13.8</ele>
        <time>2012-01-13T13:13:08Z</time>
      </trkpt>
      <trkpt lat="49.17113" lon="-0.40576">
        <ele>13.6</ele>
        <time>2012-01-13T13:13:09Z</time>
      </trkpt>
      <trkpt lat="49.17112" lon="-0.40576">
        <ele>13.3</ele>
        <time>2012-01-13T13:13:10Z</time>
      </trkpt>
      <trkpt lat="49.17111" lon="-0.40575">
        <ele>15.1</ele>
        <time>2012-01-13T13:13:11Z</time>
      </trkpt>
      <trkpt lat="49.1711" lon="-0.40576">
        <ele>16</ele>
        <time>2012-01-13T13:13:12Z</time>
      </trkpt>
      <trkpt lat="49.1711" lon="-0.40577">
        <ele>17.2</ele>
        <time>2012-01-13T13:13:13Z</time>
      </trkpt>
      <trkpt lat="49.17108" lon="-0.40578">
        <ele>17.5</ele>
        <time>2012-01-13T13:13:14Z</time>
      </trkpt>
      <trkpt lat="49.17107" lon="-0.40579">
        <ele>16.6</ele>
        <time>2012-01-13T13:13:15Z</time>
      </trkpt>
      <trkpt lat="49.17106" lon="-0.40581">
        <ele>16.5</ele>
        <time>2012-01-13T13:13:16Z</time>
      </trkpt>
      <trkpt lat="49.17105" lon="-0.40584">
        <ele>17.1</ele>
        <time>2012-01-13T13:13:17Z</time>
      </trkpt>
      <trkpt lat="49.17105" lon="-0.40585">
        <ele>17.2</ele>
        <time>2012-01-13T13:13:18Z</time>
      </trkpt>
      <trkpt lat="49.17104" lon="-0.40586">
        <ele>18.2</ele>
        <time>2012-01-13T13:13:19Z</time>
      </trkpt>
      <trkpt lat="49.17104" lon="-0.40587">
        <ele>17.5</ele>
        <time>2012-01-13T13:13:20Z</time>
      </trkpt>
      <trkpt lat="49.17103" lon="-0.40587">
        <ele>16.6</ele>
        <time>2012-01-13T13:13:21Z</time>
      </trkpt>
      <trkpt lat="49.17102" lon="-0.40589">
        <ele>17.1</ele>
        <time>2012-01-13T13:13:22Z</time>
      </trkpt>
      <trkpt lat="49.17101" lon="-0.40591">
        <ele>17.6</ele>
        <time>2012-01-13T13:13:23Z</time>
      </trkpt>
      <trkpt lat="49.171" lon="-0.40592">
        <ele>17.2</ele>
        <time>2012-01-13T13:13:24Z</time>
      </trkpt>
      <trkpt lat="49.17098" lon="-0.40594">
        <ele>17</ele>
        <time>2012-01-13T13:13:25Z</time>
      </trkpt>
      <trkpt lat="49.17097" lon="-0.40594">
        <ele>16.7</ele>
        <time>2012-01-13T13:13:26Z</time>
      </trkpt>
      <trkpt lat="49.17096" lon="-0.40595">
        <ele>16.7</ele>
        <time>2012-01-13T13:13:27Z</time>
      </trkpt>
      <trkpt lat="49.17095" lon="-0.40595">
        <ele>16.7</ele>
        <time>2012-01-13T13:13:28Z</time>
      </trkpt>
      <trkpt lat="49.17094" lon="-0.40596">
        <ele>17</ele>
        <time>2012-01-13T13:13:29Z</time>
      </trkpt>
      <trkpt lat="49.17093" lon="-0.40596">
        <ele>15.6</ele>
        <time>2012-01-13T13:13:30Z</time>
      </trkpt>
      <trkpt lat="49.17091" lon="-0.40597">
        <ele>16.1</ele>
        <time>2012-01-13T13:13:31Z</time>
      </trkpt>
      <trkpt lat="49.17089" lon="-0.40597">
        <ele>16.2</ele>
        <time>2012-01-13T13:13:32Z</time>
      </trkpt>
      <trkpt lat="49.17088" lon="-0.40598">
        <ele>16.2</ele>
        <time>2012-01-13T13:13:33Z</time>
      </trkpt>
      <trkpt lat="49.17086" lon="-0.40598">
        <ele>16.2</ele>
        <time>2012-01-13T13:13:34Z</time>
      </trkpt>
      <trkpt lat="49.17085" lon="-0.40598">
        <ele>16.5</ele>
        <time>2012-01-13T13:13:35Z</time>
      </trkpt>
      <trkpt lat="49.17084" lon="-0.40598">
        <ele>16.7</ele>
        <time>2012-01-13T13:13:36Z</time>
      </trkpt>
      <trkpt lat="49.17083" lon="-0.40598">
        <ele>16.7</ele>
        <time>2012-01-13T13:13:37Z</time>
      </trkpt>
      <trkpt lat="49.17082" lon="-0.40598">
        <ele>16.7</ele>
        <time>2012-01-13T13:13:38Z</time>
      </trkpt>
      <trkpt lat="49.1708" lon="-0.40598">
        <ele>16.7</ele>
        <time>2012-01-13T13:13:39Z</time>
      </trkpt>
      <trkpt lat="49.17079" lon="-0.40598">
        <ele>16.7</ele>
        <time>2012-01-13T13:13:40Z</time>
      </trkpt>
      <trkpt lat="49.17078" lon="-0.40598">
        <ele>16.2</ele>
        <time>2012-01-13T13:13:41Z</time>
      </trkpt>
      <trkpt lat="49.17076" lon="-0.40598">
        <ele>16.2</ele>
        <time>2012-01-13T13:13:42Z</time>
      </trkpt>
      <trkpt lat="49.17075" lon="-0.40598">
        <ele>16.2</ele>
        <time>2012-01-13T13:13:43Z</time>
      </trkpt>
      <trkpt lat="49.17074" lon="-0.40598">
        <ele>16.5</ele>
        <time>2012-01-13T13:13:44Z</time>
      </trkpt>
      <trkpt lat="49.17073" lon="-0.40597">
        <ele>16.7</ele>
        <time>2012-01-13T13:13:45Z</time>
      </trkpt>
      <trkpt lat="49.17072" lon="-0.40597">
        <ele>16.7</ele>
        <time>2012-01-13T13:13:46Z</time>
      </trkpt>
      <trkpt lat="49.17071" lon="-0.40597">
        <ele>17</ele>
        <time>2012-01-13T13:13:47Z</time>
      </trkpt>
      <trkpt lat="49.17069" lon="-0.40597">
        <ele>17</ele>
        <time>2012-01-13T13:13:48Z</time>
      </trkpt>
      <trkpt lat="49.17068" lon="-0.40597">
        <ele>16.7</ele>
        <time>2012-01-13T13:13:49Z</time>
      </trkpt>
      <trkpt lat="49.17067" lon="-0.40596">
        <ele>17.2</ele>
        <time>2012-01-13T13:13:50Z</time>
      </trkpt>
      <trkpt lat="49.17066" lon="-0.40595">
        <ele>17.1</ele>
        <time>2012-01-13T13:13:51Z</time>
      </trkpt>
      <trkpt lat="49.17064" lon="-0.40593">
        <ele>16.7</ele>
        <time>2012-01-13T13:13:52Z</time>
      </trkpt>
      <trkpt lat="49.17063" lon="-0.40592">
        <ele>16.2</ele>
        <time>2012-01-13T13:13:53Z</time>
      </trkpt>
      <trkpt lat="49.17061" lon="-0.40591">
        <ele>15.1</ele>
        <time>2012-01-13T13:13:54Z</time>
      </trkpt>
      <trkpt lat="49.1706" lon="-0.40591">
        <ele>15</ele>
        <time>2012-01-13T13:13:55Z</time>
      </trkpt>
      <trkpt lat="49.17059" lon="-0.4059">
        <ele>14.6</ele>
        <time>2012-01-13T13:13:56Z</time>
      </trkpt>
      <trkpt lat="49.17058" lon="-0.4059">
        <ele>14.5</ele>
        <time>2012-01-13T13:13:57Z</time>
      </trkpt>
      <trkpt lat="49.17056" lon="-0.4059">
        <ele>14.1</ele>
        <time>2012-01-13T13:13:58Z</time>
      </trkpt>
      <trkpt lat="49.17055" lon="-0.40591">
        <ele>13.8</ele>
        <time>2012-01-13T13:13:59Z</time>
      </trkpt>
      <trkpt lat="49.17054" lon="-0.40591">
        <ele>13.8</ele>
        <time>2012-01-13T13:14:00Z</time>
      </trkpt>
      <trkpt lat="49.17052" lon="-0.40592">
        <ele>13.6</ele>
        <time>2012-01-13T13:14:01Z</time>
      </trkpt>
      <trkpt lat="49.17051" lon="-0.40592">
        <ele>13.6</ele>
        <time>2012-01-13T13:14:02Z</time>
      </trkpt>
      <trkpt lat="49.1705" lon="-0.40593">
        <ele>13.6</ele>
        <time>2012-01-13T13:14:03Z</time>
      </trkpt>
      <trkpt lat="49.17049" lon="-0.40593">
        <ele>14</ele>
        <time>2012-01-13T13:14:04Z</time>
      </trkpt>
      <trkpt lat="49.17048" lon="-0.40594">
        <ele>14.3</ele>
        <time>2012-01-13T13:14:05Z</time>
      </trkpt>
      <trkpt lat="49.17047" lon="-0.40595">
        <ele>14.6</ele>
        <time>2012-01-13T13:14:06Z</time>
      </trkpt>
      <trkpt lat="49.17046" lon="-0.40595">
        <ele>14.6</ele>
        <time>2012-01-13T13:14:07Z</time>
      </trkpt>
      <trkpt lat="49.17044" lon="-0.40595">
        <ele>14.6</ele>
        <time>2012-01-13T13:14:08Z</time>
      </trkpt>
      <trkpt lat="49.17043" lon="-0.40596">
        <ele>14.5</ele>
        <time>2012-01-13T13:14:09Z</time>
      </trkpt>
      <trkpt lat="49.17042" lon="-0.40596">
        <ele>14.6</ele>
        <time>2012-01-13T13:14:10Z</time>
      </trkpt>
      <trkpt lat="49.17041" lon="-0.40597">
        <ele>14.6</ele>
        <time>2012-01-13T13:14:11Z</time>
      </trkpt>
      <trkpt lat="49.1704" lon="-0.40598">
        <ele>14.5</ele>
        <time>2012-01-13T13:14:12Z</time>
      </trkpt>
      <trkpt lat="49.17039" lon="-0.40598">
        <ele>14.3</ele>
        <time>2012-01-13T13:14:13Z</time>
      </trkpt>
      <trkpt lat="49.17038" lon="-0.40598">
        <ele>14.3</ele>
        <time>2012-01-13T13:14:14Z</time>
      </trkpt>
      <trkpt lat="49.17036" lon="-0.40599">
        <ele>14.5</ele>
        <time>2012-01-13T13:14:15Z</time>
      </trkpt>
      <trkpt lat="49.17035" lon="-0.406">
        <ele>14.6</ele>
        <time>2012-01-13T13:14:16Z</time>
      </trkpt>
      <trkpt lat="49.17034" lon="-0.40601">
        <ele>15.1</ele>
        <time>2012-01-13T13:14:17Z</time>
      </trkpt>
      <trkpt lat="49.17033" lon="-0.40602">
        <ele>15.8</ele>
        <time>2012-01-13T13:14:18Z</time>
      </trkpt>
      <trkpt lat="49.17032" lon="-0.40603">
        <ele>16.2</ele>
        <time>2012-01-13T13:14:19Z</time>
      </trkpt>
      <trkpt lat="49.17031" lon="-0.40603">
        <ele>16.5</ele>
        <time>2012-01-13T13:14:20Z</time>
      </trkpt>
      <trkpt lat="49.1703" lon="-0.40604">
        <ele>16.5</ele>
        <time>2012-01-13T13:14:21Z</time>
      </trkpt>
      <trkpt lat="49.17029" lon="-0.40604">
        <ele>16.7</ele>
        <time>2012-01-13T13:14:22Z</time>
      </trkpt>
      <trkpt lat="49.17028" lon="-0.40606">
        <ele>17</ele>
        <time>2012-01-13T13:14:23Z</time>
      </trkpt>
      <trkpt lat="49.17027" lon="-0.40606">
        <ele>17.1</ele>
        <time>2012-01-13T13:14:24Z</time>
      </trkpt>
      <trkpt lat="49.17026" lon="-0.40607">
        <ele>17.2</ele>
        <time>2012-01-13T13:14:25Z</time>
      </trkpt>
      <trkpt lat="49.17025" lon="-0.40608">
        <ele>17.2</ele>
        <time>2012-01-13T13:14:26Z</time>
      </trkpt>
      <trkpt lat="49.17024" lon="-0.40609">
        <ele>17.2</ele>
        <time>2012-01-13T13:14:27Z</time>
      </trkpt>
      <trkpt lat="49.17023" lon="-0.40609">
        <ele>17.2</ele>
        <time>2012-01-13T13:14:28Z</time>
      </trkpt>
      <trkpt lat="49.17021" lon="-0.40609">
        <ele>17.1</ele>
        <time>2012-01-13T13:14:29Z</time>
      </trkpt>
      <trkpt lat="49.1702" lon="-0.40609">
        <ele>17</ele>
        <time>2012-01-13T13:14:30Z</time>
      </trkpt>
      <trkpt lat="49.17019" lon="-0.40608">
        <ele>16.7</ele>
        <time>2012-01-13T13:14:31Z</time>
      </trkpt>
      <trkpt lat="49.17018" lon="-0.40609">
        <ele>16.5</ele>
        <time>2012-01-13T13:14:32Z</time>
      </trkpt>
      <trkpt lat="49.17017" lon="-0.40609">
        <ele>16</ele>
        <time>2012-01-13T13:14:33Z</time>
      </trkpt>
      <trkpt lat="49.17016" lon="-0.40609">
        <ele>16</ele>
        <time>2012-01-13T13:14:34Z</time>
      </trkpt>
      <trkpt lat="49.17015" lon="-0.40609">
        <ele>15.8</ele>
        <time>2012-01-13T13:14:35Z</time>
      </trkpt>
      <trkpt lat="49.17014" lon="-0.40609">
        <ele>15.6</ele>
        <time>2012-01-13T13:14:36Z</time>
      </trkpt>
      <trkpt lat="49.17013" lon="-0.40609">
        <ele>15.3</ele>
        <time>2012-01-13T13:14:37Z</time>
      </trkpt>
      <trkpt lat="49.17012" lon="-0.40609">
        <ele>15.3</ele>
        <time>2012-01-13T13:14:38Z</time>
      </trkpt>
      <trkpt lat="49.17011" lon="-0.40609">
        <ele>15.1</ele>
        <time>2012-01-13T13:14:39Z</time>
      </trkpt>
      <trkpt lat="49.1701" lon="-0.4061">
        <ele>14.8</ele>
        <time>2012-01-13T13:14:40Z</time>
      </trkpt>
      <trkpt lat="49.17008" lon="-0.4061">
        <ele>14.6</ele>
        <time>2012-01-13T13:14:41Z</time>
      </trkpt>
      <trkpt lat="49.17007" lon="-0.40611">
        <ele>14.3</ele>
        <time>2012-01-13T13:14:42Z</time>
      </trkpt>
      <trkpt lat="49.17006" lon="-0.40611">
        <ele>14.1</ele>
        <time>2012-01-13T13:14:43Z</time>
      </trkpt>
      <trkpt lat="49.17005" lon="-0.40612">
        <ele>13.8</ele>
        <time>2012-01-13T13:14:44Z</time>
      </trkpt>
      <trkpt lat="49.17004" lon="-0.40612">
        <ele>13.6</ele>
        <time>2012-01-13T13:14:45Z</time>
      </trkpt>
      <trkpt lat="49.17002" lon="-0.40613">
        <ele>13.6</ele>
        <time>2012-01-13T13:14:46Z</time>
      </trkpt>
      <trkpt lat="49.17001" lon="-0.40613">
        <ele>13.5</ele>
        <time>2012-01-13T13:14:47Z</time>
      </trkpt>
      <trkpt lat="49.17" lon="-0.40614">
        <ele>13.6</ele>
        <time>2012-01-13T13:14:48Z</time>
      </trkpt>
      <trkpt lat="49.16999" lon="-0.40615">
        <ele>14</ele>
        <time>2012-01-13T13:14:49Z</time>
      </trkpt>
      <trkpt lat="49.16997" lon="-0.40615">
        <ele>14.1</ele>
        <time>2012-01-13T13:14:50Z</time>
      </trkpt>
      <trkpt lat="49.16996" lon="-0.40615">
        <ele>14</ele>
        <time>2012-01-13T13:14:51Z</time>
      </trkpt>
      <trkpt lat="49.16995" lon="-0.40616">
        <ele>13.8</ele>
        <time>2012-01-13T13:14:52Z</time>
      </trkpt>
      <trkpt lat="49.16994" lon="-0.40616">
        <ele>13.5</ele>
        <time>2012-01-13T13:14:53Z</time>
      </trkpt>
      <trkpt lat="49.16992" lon="-0.40616">
        <ele>13.1</ele>
        <time>2012-01-13T13:14:54Z</time>
      </trkpt>
      <trkpt lat="49.16991" lon="-0.40616">
        <ele>13</ele>
        <time>2012-01-13T13:14:55Z</time>
      </trkpt>
      <trkpt lat="49.1699" lon="-0.40616">
        <ele>12.8</ele>
        <time>2012-01-13T13:14:56Z</time>
      </trkpt>
      <trkpt lat="49.16989" lon="-0.40616">
        <ele>12.5</ele>
        <time>2012-01-13T13:14:57Z</time>
      </trkpt>
      <trkpt lat="49.16987" lon="-0.40617">
        <ele>12.3</ele>
        <time>2012-01-13T13:14:58Z</time>
      </trkpt>
      <trkpt lat="49.16986" lon="-0.40616">
        <ele>11.8</ele>
        <time>2012-01-13T13:14:59Z</time>
      </trkpt>
      <trkpt lat="49.16984" lon="-0.40616">
        <ele>11.8</ele>
        <time>2012-01-13T13:15:00Z</time>
      </trkpt>
      <trkpt lat="49.16983" lon="-0.40616">
        <ele>12.1</ele>
        <time>2012-01-13T13:15:01Z</time>
      </trkpt>
      <trkpt lat="49.16982" lon="-0.40616">
        <ele>12.6</ele>
        <time>2012-01-13T13:15:02Z</time>
      </trkpt>
      <trkpt lat="49.1698" lon="-0.40616">
        <ele>12.8</ele>
        <time>2012-01-13T13:15:03Z</time>
      </trkpt>
      <trkpt lat="49.16979" lon="-0.40616">
        <ele>13.1</ele>
        <time>2012-01-13T13:15:04Z</time>
      </trkpt>
      <trkpt lat="49.16978" lon="-0.40616">
        <ele>13.6</ele>
        <time>2012-01-13T13:15:05Z</time>
      </trkpt>
      <trkpt lat="49.16977" lon="-0.40616">
        <ele>13.8</ele>
        <time>2012-01-13T13:15:06Z</time>
      </trkpt>
      <trkpt lat="49.16975" lon="-0.40616">
        <ele>14.3</ele>
        <time>2012-01-13T13:15:07Z</time>
      </trkpt>
      <trkpt lat="49.16974" lon="-0.40617">
        <ele>14.3</ele>
        <time>2012-01-13T13:15:08Z</time>
      </trkpt>
      <trkpt lat="49.16973" lon="-0.40617">
        <ele>14.1</ele>
        <time>2012-01-13T13:15:09Z</time>
      </trkpt>
      <trkpt lat="49.16972" lon="-0.40617">
        <ele>14.1</ele>
        <time>2012-01-13T13:15:10Z</time>
      </trkpt>
      <trkpt lat="49.16971" lon="-0.40617">
        <ele>13.8</ele>
        <time>2012-01-13T13:15:11Z</time>
      </trkpt>
      <trkpt lat="49.1697" lon="-0.40617">
        <ele>14</ele>
        <time>2012-01-13T13:15:12Z</time>
      </trkpt>
      <trkpt lat="49.16968" lon="-0.40616">
        <ele>13.8</ele>
        <time>2012-01-13T13:15:13Z</time>
      </trkpt>
      <trkpt lat="49.16967" lon="-0.40616">
        <ele>13.3</ele>
        <time>2012-01-13T13:15:14Z</time>
      </trkpt>
      <trkpt lat="49.16966" lon="-0.40617">
        <ele>13</ele>
        <time>2012-01-13T13:15:15Z</time>
      </trkpt>
      <trkpt lat="49.16965" lon="-0.40617">
        <ele>12.6</ele>
        <time>2012-01-13T13:15:16Z</time>
      </trkpt>
      <trkpt lat="49.16964" lon="-0.40617">
        <ele>12.5</ele>
        <time>2012-01-13T13:15:17Z</time>
      </trkpt>
      <trkpt lat="49.16963" lon="-0.40618">
        <ele>12.5</ele>
        <time>2012-01-13T13:15:18Z</time>
      </trkpt>
      <trkpt lat="49.16961" lon="-0.40618">
        <ele>12.5</ele>
        <time>2012-01-13T13:15:19Z</time>
      </trkpt>
      <trkpt lat="49.1696" lon="-0.40619">
        <ele>12.3</ele>
        <time>2012-01-13T13:15:20Z</time>
      </trkpt>
      <trkpt lat="49.16959" lon="-0.40619">
        <ele>12.3</ele>
        <time>2012-01-13T13:15:21Z</time>
      </trkpt>
      <trkpt lat="49.16958" lon="-0.40619">
        <ele>12.3</ele>
        <time>2012-01-13T13:15:22Z</time>
      </trkpt>
      <trkpt lat="49.16957" lon="-0.40619">
        <ele>12.1</ele>
        <time>2012-01-13T13:15:23Z</time>
      </trkpt>
      <trkpt lat="49.16956" lon="-0.40619">
        <ele>12</ele>
        <time>2012-01-13T13:15:24Z</time>
      </trkpt>
      <trkpt lat="49.16954" lon="-0.40619">
        <ele>12.1</ele>
        <time>2012-01-13T13:15:25Z</time>
      </trkpt>
      <trkpt lat="49.16953" lon="-0.40618">
        <ele>12.1</ele>
        <time>2012-01-13T13:15:26Z</time>
      </trkpt>
      <trkpt lat="49.16951" lon="-0.40618">
        <ele>12.1</ele>
        <time>2012-01-13T13:15:27Z</time>
      </trkpt>
      <trkpt lat="49.1695" lon="-0.40618">
        <ele>12.3</ele>
        <time>2012-01-13T13:15:28Z</time>
      </trkpt>
      <trkpt lat="49.16949" lon="-0.40619">
        <ele>12.6</ele>
        <time>2012-01-13T13:15:29Z</time>
      </trkpt>
      <trkpt lat="49.16948" lon="-0.40619">
        <ele>12.5</ele>
        <time>2012-01-13T13:15:30Z</time>
      </trkpt>
      <trkpt lat="49.16947" lon="-0.4062">
        <ele>12.5</ele>
        <time>2012-01-13T13:15:31Z</time>
      </trkpt>
      <trkpt lat="49.16946" lon="-0.4062">
        <ele>12.5</ele>
        <time>2012-01-13T13:15:32Z</time>
      </trkpt>
      <trkpt lat="49.16945" lon="-0.40622">
        <ele>12.1</ele>
        <time>2012-01-13T13:15:33Z</time>
      </trkpt>
      <trkpt lat="49.16944" lon="-0.40623">
        <ele>12.1</ele>
        <time>2012-01-13T13:15:34Z</time>
      </trkpt>
      <trkpt lat="49.16944" lon="-0.40624">
        <ele>11.8</ele>
        <time>2012-01-13T13:15:35Z</time>
      </trkpt>
      <trkpt lat="49.16943" lon="-0.40626">
        <ele>11.1</ele>
        <time>2012-01-13T13:15:36Z</time>
      </trkpt>
      <trkpt lat="49.16942" lon="-0.40627">
        <ele>11.1</ele>
        <time>2012-01-13T13:15:37Z</time>
      </trkpt>
      <trkpt lat="49.16942" lon="-0.40628">
        <ele>10.6</ele>
        <time>2012-01-13T13:15:38Z</time>
      </trkpt>
      <trkpt lat="49.16941" lon="-0.4063">
        <ele>10.5</ele>
        <time>2012-01-13T13:15:39Z</time>
      </trkpt>
      <trkpt lat="49.1694" lon="-0.40631">
        <ele>10.1</ele>
        <time>2012-01-13T13:15:40Z</time>
      </trkpt>
      <trkpt lat="49.16939" lon="-0.40632">
        <ele>10.1</ele>
        <time>2012-01-13T13:15:41Z</time>
      </trkpt>
      <trkpt lat="49.16938" lon="-0.40633">
        <ele>10.8</ele>
        <time>2012-01-13T13:15:42Z</time>
      </trkpt>
      <trkpt lat="49.16937" lon="-0.40635">
        <ele>11.1</ele>
        <time>2012-01-13T13:15:43Z</time>
      </trkpt>
      <trkpt lat="49.16936" lon="-0.40636">
        <ele>11.5</ele>
        <time>2012-01-13T13:15:44Z</time>
      </trkpt>
      <trkpt lat="49.16935" lon="-0.40637">
        <ele>11.6</ele>
        <time>2012-01-13T13:15:45Z</time>
      </trkpt>
      <trkpt lat="49.16934" lon="-0.40639">
        <ele>10.6</ele>
        <time>2012-01-13T13:15:46Z</time>
      </trkpt>
      <trkpt lat="49.16933" lon="-0.4064">
        <ele>11.1</ele>
        <time>2012-01-13T13:15:47Z</time>
      </trkpt>
      <trkpt lat="49.16932" lon="-0.40642">
        <ele>11.5</ele>
        <time>2012-01-13T13:15:48Z</time>
      </trkpt>
      <trkpt lat="49.16932" lon="-0.40643">
        <ele>12.3</ele>
        <time>2012-01-13T13:15:49Z</time>
      </trkpt>
      <trkpt lat="49.16931" lon="-0.40645">
        <ele>12.6</ele>
        <time>2012-01-13T13:15:50Z</time>
      </trkpt>
      <trkpt lat="49.1693" lon="-0.40647">
        <ele>12.8</ele>
        <time>2012-01-13T13:15:51Z</time>
      </trkpt>
      <trkpt lat="49.1693" lon="-0.40648">
        <ele>13.1</ele>
        <time>2012-01-13T13:15:52Z</time>
      </trkpt>
      <trkpt lat="49.16929" lon="-0.4065">
        <ele>13.1</ele>
        <time>2012-01-13T13:15:53Z</time>
      </trkpt>
      <trkpt lat="49.16928" lon="-0.40651">
        <ele>13.1</ele>
        <time>2012-01-13T13:15:54Z</time>
      </trkpt>
      <trkpt lat="49.16927" lon="-0.40653">
        <ele>13.1</ele>
        <time>2012-01-13T13:15:55Z</time>
      </trkpt>
      <trkpt lat="49.16927" lon="-0.40655">
        <ele>13.3</ele>
        <time>2012-01-13T13:15:56Z</time>
      </trkpt>
      <trkpt lat="49.16926" lon="-0.40656">
        <ele>12.6</ele>
        <time>2012-01-13T13:15:57Z</time>
      </trkpt>
      <trkpt lat="49.16925" lon="-0.40658">
        <ele>13.5</ele>
        <time>2012-01-13T13:15:58Z</time>
      </trkpt>
      <trkpt lat="49.16925" lon="-0.4066">
        <ele>14.1</ele>
        <time>2012-01-13T13:15:59Z</time>
      </trkpt>
      <trkpt lat="49.16925" lon="-0.40661">
        <ele>14.6</ele>
        <time>2012-01-13T13:16:00Z</time>
      </trkpt>
      <trkpt lat="49.16924" lon="-0.40662">
        <ele>14.3</ele>
        <time>2012-01-13T13:16:01Z</time>
      </trkpt>
      <trkpt lat="49.16923" lon="-0.40664">
        <ele>14.1</ele>
        <time>2012-01-13T13:16:02Z</time>
      </trkpt>
      <trkpt lat="49.16923" lon="-0.40665">
        <ele>13.1</ele>
        <time>2012-01-13T13:16:03Z</time>
      </trkpt>
      <trkpt lat="49.16922" lon="-0.40667">
        <ele>12.5</ele>
        <time>2012-01-13T13:16:04Z</time>
      </trkpt>
      <trkpt lat="49.1692" lon="-0.40667">
        <ele>11.6</ele>
        <time>2012-01-13T13:16:05Z</time>
      </trkpt>
      <trkpt lat="49.16919" lon="-0.40667">
        <ele>12.6</ele>
        <time>2012-01-13T13:16:06Z</time>
      </trkpt>
      <trkpt lat="49.16918" lon="-0.40666">
        <ele>11.3</ele>
        <time>2012-01-13T13:16:07Z</time>
      </trkpt>
      <trkpt lat="49.16916" lon="-0.40665">
        <ele>11.8</ele>
        <time>2012-01-13T13:16:08Z</time>
      </trkpt>
      <trkpt lat="49.16914" lon="-0.40664">
        <ele>10.1</ele>
        <time>2012-01-13T13:16:09Z</time>
      </trkpt>
      <trkpt lat="49.16913" lon="-0.40664">
        <ele>10.5</ele>
        <time>2012-01-13T13:16:10Z</time>
      </trkpt>
      <trkpt lat="49.16911" lon="-0.40664">
        <ele>10.1</ele>
        <time>2012-01-13T13:16:11Z</time>
      </trkpt>
      <trkpt lat="49.1691" lon="-0.40664">
        <ele>11</ele>
        <time>2012-01-13T13:16:12Z</time>
      </trkpt>
      <trkpt lat="49.16909" lon="-0.40663">
        <ele>10.5</ele>
        <time>2012-01-13T13:16:13Z</time>
      </trkpt>
      <trkpt lat="49.16908" lon="-0.40663">
        <ele>10.3</ele>
        <time>2012-01-13T13:16:14Z</time>
      </trkpt>
      <trkpt lat="49.16907" lon="-0.40662">
        <ele>9.6</ele>
        <time>2012-01-13T13:16:15Z</time>
      </trkpt>
      <trkpt lat="49.16906" lon="-0.40662">
        <ele>10.1</ele>
        <time>2012-01-13T13:16:16Z</time>
      </trkpt>
      <trkpt lat="49.16906" lon="-0.40659">
        <ele>10.5</ele>
        <time>2012-01-13T13:16:17Z</time>
      </trkpt>
      <trkpt lat="49.16905" lon="-0.40658">
        <ele>10.1</ele>
        <time>2012-01-13T13:16:18Z</time>
      </trkpt>
      <trkpt lat="49.16905" lon="-0.40658">
        <ele>9.8</ele>
        <time>2012-01-13T13:16:19Z</time>
      </trkpt>
      <trkpt lat="49.16905" lon="-0.40658">
        <ele>9.6</ele>
        <time>2012-01-13T13:16:20Z</time>
      </trkpt>
      <trkpt lat="49.16904" lon="-0.40658">
        <ele>9.1</ele>
        <time>2012-01-13T13:16:21Z</time>
      </trkpt>
      <trkpt lat="49.16902" lon="-0.40659">
        <ele>8.5</ele>
        <time>2012-01-13T13:16:22Z</time>
      </trkpt>
      <trkpt lat="49.169" lon="-0.4066">
        <ele>8.1</ele>
        <time>2012-01-13T13:16:23Z</time>
      </trkpt>
      <trkpt lat="49.169" lon="-0.4066">
        <ele>7.8</ele>
        <time>2012-01-13T13:16:24Z</time>
      </trkpt>
      <trkpt lat="49.16899" lon="-0.4066">
        <ele>7</ele>
        <time>2012-01-13T13:16:25Z</time>
      </trkpt>
      <trkpt lat="49.16899" lon="-0.4066">
        <ele>7</ele>
        <time>2012-01-13T13:16:26Z</time>
      </trkpt>
      <trkpt lat="49.16898" lon="-0.40661">
        <ele>7.8</ele>
        <time>2012-01-13T13:16:27Z</time>
      </trkpt>
      <trkpt lat="49.16897" lon="-0.40661">
        <ele>7.4</ele>
        <time>2012-01-13T13:16:28Z</time>
      </trkpt>
      <trkpt lat="49.16896" lon="-0.40662">
        <ele>7.8</ele>
        <time>2012-01-13T13:16:29Z</time>
      </trkpt>
      <trkpt lat="49.16895" lon="-0.40662">
        <ele>8.1</ele>
        <time>2012-01-13T13:16:30Z</time>
      </trkpt>
      <trkpt lat="49.16894" lon="-0.40661">
        <ele>8.1</ele>
        <time>2012-01-13T13:16:31Z</time>
      </trkpt>
      <trkpt lat="49.16894" lon="-0.40661">
        <ele>8.5</ele>
        <time>2012-01-13T13:16:32Z</time>
      </trkpt>
      <trkpt lat="49.16893" lon="-0.4066">
        <ele>8.6</ele>
        <time>2012-01-13T13:16:33Z</time>
      </trkpt>
      <trkpt lat="49.16893" lon="-0.40659">
        <ele>8.6</ele>
        <time>2012-01-13T13:16:34Z</time>
      </trkpt>
      <trkpt lat="49.16892" lon="-0.40658">
        <ele>10.6</ele>
        <time>2012-01-13T13:16:35Z</time>
      </trkpt>
      <trkpt lat="49.16892" lon="-0.40657">
        <ele>12</ele>
        <time>2012-01-13T13:16:36Z</time>
      </trkpt>
      <trkpt lat="49.16891" lon="-0.40656">
        <ele>13.3</ele>
        <time>2012-01-13T13:16:37Z</time>
      </trkpt>
      <trkpt lat="49.16891" lon="-0.40656">
        <ele>13.1</ele>
        <time>2012-01-13T13:16:38Z</time>
      </trkpt>
      <trkpt lat="49.16891" lon="-0.40655">
        <ele>13.3</ele>
        <time>2012-01-13T13:16:39Z</time>
      </trkpt>
      <trkpt lat="49.1689" lon="-0.40655">
        <ele>13.1</ele>
        <time>2012-01-13T13:16:40Z</time>
      </trkpt>
      <trkpt lat="49.16889" lon="-0.40655">
        <ele>13.5</ele>
        <time>2012-01-13T13:16:41Z</time>
      </trkpt>
      <trkpt lat="49.16889" lon="-0.40654">
        <ele>13.6</ele>
        <time>2012-01-13T13:16:42Z</time>
      </trkpt>
      <trkpt lat="49.16888" lon="-0.40654">
        <ele>13.8</ele>
        <time>2012-01-13T13:16:43Z</time>
      </trkpt>
      <trkpt lat="49.16887" lon="-0.40653">
        <ele>14.1</ele>
        <time>2012-01-13T13:16:44Z</time>
      </trkpt>
      <trkpt lat="49.16886" lon="-0.40653">
        <ele>14.1</ele>
        <time>2012-01-13T13:16:45Z</time>
      </trkpt>
      <trkpt lat="49.16886" lon="-0.40652">
        <ele>14.1</ele>
        <time>2012-01-13T13:16:46Z</time>
      </trkpt>
      <trkpt lat="49.16885" lon="-0.4065">
        <ele>14.1</ele>
        <time>2012-01-13T13:16:47Z</time>
      </trkpt>
      <trkpt lat="49.16885" lon="-0.40649">
        <ele>13.8</ele>
        <time>2012-01-13T13:16:48Z</time>
      </trkpt>
      <trkpt lat="49.16884" lon="-0.40648">
        <ele>13.6</ele>
        <time>2012-01-13T13:16:49Z</time>
      </trkpt>
      <trkpt lat="49.16884" lon="-0.40647">
        <ele>13.8</ele>
        <time>2012-01-13T13:16:50Z</time>
      </trkpt>
      <trkpt lat="49.16883" lon="-0.40646">
        <ele>13.8</ele>
        <time>2012-01-13T13:16:51Z</time>
      </trkpt>
      <trkpt lat="49.16882" lon="-0.40645">
        <ele>14.3</ele>
        <time>2012-01-13T13:16:52Z</time>
      </trkpt>
      <trkpt lat="49.1688" lon="-0.40643">
        <ele>14.3</ele>
        <time>2012-01-13T13:16:53Z</time>
      </trkpt>
      <trkpt lat="49.16879" lon="-0.40643">
        <ele>14.5</ele>
        <time>2012-01-13T13:16:54Z</time>
      </trkpt>
      <trkpt lat="49.16877" lon="-0.40643">
        <ele>14.6</ele>
        <time>2012-01-13T13:16:55Z</time>
      </trkpt>
      <trkpt lat="49.16876" lon="-0.40643">
        <ele>14.8</ele>
        <time>2012-01-13T13:16:56Z</time>
      </trkpt>
      <trkpt lat="49.16874" lon="-0.40643">
        <ele>15.1</ele>
        <time>2012-01-13T13:16:57Z</time>
      </trkpt>
      <trkpt lat="49.16873" lon="-0.40643">
        <ele>15.5</ele>
        <time>2012-01-13T13:16:58Z</time>
      </trkpt>
      <trkpt lat="49.16872" lon="-0.40642">
        <ele>15.5</ele>
        <time>2012-01-13T13:16:59Z</time>
      </trkpt>
      <trkpt lat="49.16871" lon="-0.40641">
        <ele>15.8</ele>
        <time>2012-01-13T13:17:00Z</time>
      </trkpt>
      <trkpt lat="49.1687" lon="-0.40639">
        <ele>16.2</ele>
        <time>2012-01-13T13:17:01Z</time>
      </trkpt>
      <trkpt lat="49.16869" lon="-0.40638">
        <ele>16.7</ele>
        <time>2012-01-13T13:17:02Z</time>
      </trkpt>
      <trkpt lat="49.16868" lon="-0.40637">
        <ele>16.5</ele>
        <time>2012-01-13T13:17:03Z</time>
      </trkpt>
      <trkpt lat="49.16866" lon="-0.40636">
        <ele>16.2</ele>
        <time>2012-01-13T13:17:04Z</time>
      </trkpt>
      <trkpt lat="49.16865" lon="-0.40636">
        <ele>15.8</ele>
        <time>2012-01-13T13:17:05Z</time>
      </trkpt>
      <trkpt lat="49.16864" lon="-0.40635">
        <ele>15.6</ele>
        <time>2012-01-13T13:17:06Z</time>
      </trkpt>
      <trkpt lat="49.16863" lon="-0.40634">
        <ele>15.6</ele>
        <time>2012-01-13T13:17:07Z</time>
      </trkpt>
      <trkpt lat="49.16862" lon="-0.40633">
        <ele>15.8</ele>
        <time>2012-01-13T13:17:08Z</time>
      </trkpt>
      <trkpt lat="49.16861" lon="-0.40632">
        <ele>15.8</ele>
        <time>2012-01-13T13:17:09Z</time>
      </trkpt>
      <trkpt lat="49.1686" lon="-0.40632">
        <ele>15.8</ele>
        <time>2012-01-13T13:17:10Z</time>
      </trkpt>
      <trkpt lat="49.16859" lon="-0.40631">
        <ele>15.8</ele>
        <time>2012-01-13T13:17:11Z</time>
      </trkpt>
      <trkpt lat="49.16857" lon="-0.4063">
        <ele>15.8</ele>
        <time>2012-01-13T13:17:12Z</time>
      </trkpt>
      <trkpt lat="49.16856" lon="-0.40629">
        <ele>15.8</ele>
        <time>2012-01-13T13:17:13Z</time>
      </trkpt>
      <trkpt lat="49.16855" lon="-0.40628">
        <ele>16.2</ele>
        <time>2012-01-13T13:17:14Z</time>
      </trkpt>
      <trkpt lat="49.16853" lon="-0.40626">
        <ele>18.7</ele>
        <time>2012-01-13T13:17:15Z</time>
      </trkpt>
      <trkpt lat="49.16851" lon="-0.40623">
        <ele>20.7</ele>
        <time>2012-01-13T13:17:16Z</time>
      </trkpt>
      <trkpt lat="49.16849" lon="-0.40623">
        <ele>20.7</ele>
        <time>2012-01-13T13:17:17Z</time>
      </trkpt>
      <trkpt lat="49.16848" lon="-0.40622">
        <ele>20.6</ele>
        <time>2012-01-13T13:17:18Z</time>
      </trkpt>
      <trkpt lat="49.16847" lon="-0.40621">
        <ele>20.1</ele>
        <time>2012-01-13T13:17:19Z</time>
      </trkpt>
      <trkpt lat="49.16846" lon="-0.4062">
        <ele>19.6</ele>
        <time>2012-01-13T13:17:20Z</time>
      </trkpt>
      <trkpt lat="49.16845" lon="-0.4062">
        <ele>18.7</ele>
        <time>2012-01-13T13:17:21Z</time>
      </trkpt>
      <trkpt lat="49.16844" lon="-0.4062">
        <ele>18.2</ele>
        <time>2012-01-13T13:17:22Z</time>
      </trkpt>
      <trkpt lat="49.16843" lon="-0.40619">
        <ele>18.2</ele>
        <time>2012-01-13T13:17:23Z</time>
      </trkpt>
      <trkpt lat="49.16842" lon="-0.40618">
        <ele>18.6</ele>
        <time>2012-01-13T13:17:24Z</time>
      </trkpt>
      <trkpt lat="49.16841" lon="-0.40618">
        <ele>18.1</ele>
        <time>2012-01-13T13:17:25Z</time>
      </trkpt>
      <trkpt lat="49.1684" lon="-0.40617">
        <ele>18.2</ele>
        <time>2012-01-13T13:17:26Z</time>
      </trkpt>
      <trkpt lat="49.16839" lon="-0.40616">
        <ele>18.5</ele>
        <time>2012-01-13T13:17:27Z</time>
      </trkpt>
      <trkpt lat="49.16838" lon="-0.40615">
        <ele>17.7</ele>
        <time>2012-01-13T13:17:28Z</time>
      </trkpt>
      <trkpt lat="49.16837" lon="-0.40614">
        <ele>17.6</ele>
        <time>2012-01-13T13:17:29Z</time>
      </trkpt>
      <trkpt lat="49.16836" lon="-0.40614">
        <ele>17.1</ele>
        <time>2012-01-13T13:17:30Z</time>
      </trkpt>
      <trkpt lat="49.16835" lon="-0.40613">
        <ele>17</ele>
        <time>2012-01-13T13:17:31Z</time>
      </trkpt>
      <trkpt lat="49.16833" lon="-0.40613">
        <ele>16.7</ele>
        <time>2012-01-13T13:17:32Z</time>
      </trkpt>
      <trkpt lat="49.16832" lon="-0.40613">
        <ele>16.7</ele>
        <time>2012-01-13T13:17:33Z</time>
      </trkpt>
      <trkpt lat="49.16831" lon="-0.40613">
        <ele>16.6</ele>
        <time>2012-01-13T13:17:34Z</time>
      </trkpt>
      <trkpt lat="49.1683" lon="-0.40613">
        <ele>16.2</ele>
        <time>2012-01-13T13:17:35Z</time>
      </trkpt>
      <trkpt lat="49.16829" lon="-0.40613">
        <ele>16.2</ele>
        <time>2012-01-13T13:17:36Z</time>
      </trkpt>
      <trkpt lat="49.16827" lon="-0.40613">
        <ele>16</ele>
        <time>2012-01-13T13:17:37Z</time>
      </trkpt>
      <trkpt lat="49.16826" lon="-0.40612">
        <ele>15.5</ele>
        <time>2012-01-13T13:17:38Z</time>
      </trkpt>
      <trkpt lat="49.16825" lon="-0.40612">
        <ele>15.1</ele>
        <time>2012-01-13T13:17:39Z</time>
      </trkpt>
      <trkpt lat="49.16824" lon="-0.40612">
        <ele>15.1</ele>
        <time>2012-01-13T13:17:40Z</time>
      </trkpt>
      <trkpt lat="49.16823" lon="-0.40611">
        <ele>15.6</ele>
        <time>2012-01-13T13:17:41Z</time>
      </trkpt>
      <trkpt lat="49.16822" lon="-0.40611">
        <ele>15</ele>
        <time>2012-01-13T13:17:42Z</time>
      </trkpt>
      <trkpt lat="49.1682" lon="-0.4061">
        <ele>15</ele>
        <time>2012-01-13T13:17:43Z</time>
      </trkpt>
      <trkpt lat="49.16819" lon="-0.4061">
        <ele>14.8</ele>
        <time>2012-01-13T13:17:44Z</time>
      </trkpt>
      <trkpt lat="49.16817" lon="-0.40607">
        <ele>16.2</ele>
        <time>2012-01-13T13:17:45Z</time>
      </trkpt>
      <trkpt lat="49.16816" lon="-0.40607">
        <ele>15.6</ele>
        <time>2012-01-13T13:17:46Z</time>
      </trkpt>
      <trkpt lat="49.16814" lon="-0.40607">
        <ele>15</ele>
        <time>2012-01-13T13:17:47Z</time>
      </trkpt>
      <trkpt lat="49.16813" lon="-0.40606">
        <ele>14.8</ele>
        <time>2012-01-13T13:17:48Z</time>
      </trkpt>
      <trkpt lat="49.16811" lon="-0.40605">
        <ele>15.1</ele>
        <time>2012-01-13T13:17:49Z</time>
      </trkpt>
      <trkpt lat="49.1681" lon="-0.40604">
        <ele>15.1</ele>
        <time>2012-01-13T13:17:50Z</time>
      </trkpt>
      <trkpt lat="49.16809" lon="-0.40604">
        <ele>14.8</ele>
        <time>2012-01-13T13:17:51Z</time>
      </trkpt>
      <trkpt lat="49.16808" lon="-0.40604">
        <ele>14.3</ele>
        <time>2012-01-13T13:17:52Z</time>
      </trkpt>
      <trkpt lat="49.16807" lon="-0.40604">
        <ele>13.8</ele>
        <time>2012-01-13T13:17:53Z</time>
      </trkpt>
      <trkpt lat="49.16806" lon="-0.40604">
        <ele>13.1</ele>
        <time>2012-01-13T13:17:54Z</time>
      </trkpt>
      <trkpt lat="49.16805" lon="-0.40604">
        <ele>12.6</ele>
        <time>2012-01-13T13:17:55Z</time>
      </trkpt>
      <trkpt lat="49.16804" lon="-0.40605">
        <ele>12.1</ele>
        <time>2012-01-13T13:17:56Z</time>
      </trkpt>
      <trkpt lat="49.16802" lon="-0.40604">
        <ele>11.6</ele>
        <time>2012-01-13T13:17:57Z</time>
      </trkpt>
      <trkpt lat="49.16801" lon="-0.40605">
        <ele>11</ele>
        <time>2012-01-13T13:17:58Z</time>
      </trkpt>
      <trkpt lat="49.16799" lon="-0.40605">
        <ele>10.6</ele>
        <time>2012-01-13T13:17:59Z</time>
      </trkpt>
      <trkpt lat="49.16798" lon="-0.40605">
        <ele>10.1</ele>
        <time>2012-01-13T13:18:00Z</time>
      </trkpt>
      <trkpt lat="49.16797" lon="-0.40605">
        <ele>10.1</ele>
        <time>2012-01-13T13:18:01Z</time>
      </trkpt>
      <trkpt lat="49.16796" lon="-0.40604">
        <ele>9.6</ele>
        <time>2012-01-13T13:18:02Z</time>
      </trkpt>
      <trkpt lat="49.16796" lon="-0.40604">
        <ele>9.1</ele>
        <time>2012-01-13T13:18:03Z</time>
      </trkpt>
      <trkpt lat="49.16795" lon="-0.40602">
        <ele>8.8</ele>
        <time>2012-01-13T13:18:04Z</time>
      </trkpt>
      <trkpt lat="49.16794" lon="-0.40601">
        <ele>8.6</ele>
        <time>2012-01-13T13:18:05Z</time>
      </trkpt>
      <trkpt lat="49.16794" lon="-0.40599">
        <ele>8</ele>
        <time>2012-01-13T13:18:06Z</time>
      </trkpt>
      <trkpt lat="49.16794" lon="-0.40598">
        <ele>7.3</ele>
        <time>2012-01-13T13:18:07Z</time>
      </trkpt>
      <trkpt lat="49.16794" lon="-0.40597">
        <ele>6.5</ele>
        <time>2012-01-13T13:18:08Z</time>
      </trkpt>
      <trkpt lat="49.16794" lon="-0.40596">
        <ele>5.8</ele>
        <time>2012-01-13T13:18:09Z</time>
      </trkpt>
      <trkpt lat="49.16794" lon="-0.40594">
        <ele>5</ele>
        <time>2012-01-13T13:18:10Z</time>
      </trkpt>
      <trkpt lat="49.16794" lon="-0.40592">
        <ele>4.9</ele>
        <time>2012-01-13T13:18:11Z</time>
      </trkpt>
      <trkpt lat="49.16794" lon="-0.40591">
        <ele>4.5</ele>
        <time>2012-01-13T13:18:12Z</time>
      </trkpt>
      <trkpt lat="49.16794" lon="-0.40589">
        <ele>4</ele>
        <time>2012-01-13T13:18:13Z</time>
      </trkpt>
      <trkpt lat="49.16793" lon="-0.40588">
        <ele>3.5</ele>
        <time>2012-01-13T13:18:14Z</time>
      </trkpt>
      <trkpt lat="49.16793" lon="-0.40587">
        <ele>3</ele>
        <time>2012-01-13T13:18:15Z</time>
      </trkpt>
      <trkpt lat="49.16793" lon="-0.40586">
        <ele>2.7</ele>
        <time>2012-01-13T13:18:16Z</time>
      </trkpt>
      <trkpt lat="49.16793" lon="-0.40583">
        <ele>2.5</ele>
        <time>2012-01-13T13:18:17Z</time>
      </trkpt>
      <trkpt lat="49.16792" lon="-0.40582">
        <ele>2.5</ele>
        <time>2012-01-13T13:18:18Z</time>
      </trkpt>
      <trkpt lat="49.16792" lon="-0.40578">
        <ele>2.5</ele>
        <time>2012-01-13T13:18:19Z</time>
      </trkpt>
      <trkpt lat="49.16791" lon="-0.40576">
        <ele>2.7</ele>
        <time>2012-01-13T13:18:20Z</time>
      </trkpt>
      <trkpt lat="49.16791" lon="-0.40575">
        <ele>2.2</ele>
        <time>2012-01-13T13:18:21Z</time>
      </trkpt>
      <trkpt lat="49.16791" lon="-0.40573">
        <ele>2.4</ele>
        <time>2012-01-13T13:18:22Z</time>
      </trkpt>
      <trkpt lat="49.16791" lon="-0.40571">
        <ele>2.2</ele>
        <time>2012-01-13T13:18:23Z</time>
      </trkpt>
      <trkpt lat="49.16791" lon="-0.4057">
        <ele>2.5</ele>
        <time>2012-01-13T13:18:24Z</time>
      </trkpt>
      <trkpt lat="49.16791" lon="-0.40569">
        <ele>2.4</ele>
        <time>2012-01-13T13:18:25Z</time>
      </trkpt>
      <trkpt lat="49.16791" lon="-0.40567">
        <ele>2.4</ele>
        <time>2012-01-13T13:18:26Z</time>
      </trkpt>
      <trkpt lat="49.1679" lon="-0.40565">
        <ele>2</ele>
        <time>2012-01-13T13:18:27Z</time>
      </trkpt>
      <trkpt lat="49.1679" lon="-0.40564">
        <ele>1.5</ele>
        <time>2012-01-13T13:18:28Z</time>
      </trkpt>
      <trkpt lat="49.1679" lon="-0.40562">
        <ele>1.7</ele>
        <time>2012-01-13T13:18:29Z</time>
      </trkpt>
      <trkpt lat="49.16789" lon="-0.4056">
        <ele>1.2</ele>
        <time>2012-01-13T13:18:30Z</time>
      </trkpt>
      <trkpt lat="49.16789" lon="-0.40557">
        <ele>1.5</ele>
        <time>2012-01-13T13:18:31Z</time>
      </trkpt>
      <trkpt lat="49.16789" lon="-0.40555">
        <ele>1.2</ele>
        <time>2012-01-13T13:18:32Z</time>
      </trkpt>
      <trkpt lat="49.16789" lon="-0.40554">
        <ele>1.5</ele>
        <time>2012-01-13T13:18:33Z</time>
      </trkpt>
      <trkpt lat="49.16789" lon="-0.40552">
        <ele>1.2</ele>
        <time>2012-01-13T13:18:34Z</time>
      </trkpt>
      <trkpt lat="49.16789" lon="-0.4055">
        <ele>1.2</ele>
        <time>2012-01-13T13:18:35Z</time>
      </trkpt>
      <trkpt lat="49.16789" lon="-0.40549">
        <ele>1.2</ele>
        <time>2012-01-13T13:18:36Z</time>
      </trkpt>
      <trkpt lat="49.16789" lon="-0.40548">
        <ele>1</ele>
        <time>2012-01-13T13:18:37Z</time>
      </trkpt>
      <trkpt lat="49.16789" lon="-0.40546">
        <ele>1</ele>
        <time>2012-01-13T13:18:38Z</time>
      </trkpt>
      <trkpt lat="49.16789" lon="-0.40544">
        <ele>1</ele>
        <time>2012-01-13T13:18:39Z</time>
      </trkpt>
      <trkpt lat="49.1679" lon="-0.40543">
        <ele>0.8</ele>
        <time>2012-01-13T13:18:40Z</time>
      </trkpt>
      <trkpt lat="49.1679" lon="-0.40541">
        <ele>0.6</ele>
        <time>2012-01-13T13:18:41Z</time>
      </trkpt>
      <trkpt lat="49.1679" lon="-0.4054">
        <ele>0.1</ele>
        <time>2012-01-13T13:18:42Z</time>
      </trkpt>
      <trkpt lat="49.1679" lon="-0.40539">
        <ele>-0.1</ele>
        <time>2012-01-13T13:18:43Z</time>
      </trkpt>
      <trkpt lat="49.1679" lon="-0.40538">
        <ele>-0.6</ele>
        <time>2012-01-13T13:18:44Z</time>
      </trkpt>
      <trkpt lat="49.1679" lon="-0.40537">
        <ele>-0.8</ele>
        <time>2012-01-13T13:18:45Z</time>
      </trkpt>
      <trkpt lat="49.1679" lon="-0.40535">
        <ele>-1.1</ele>
        <time>2012-01-13T13:18:46Z</time>
      </trkpt>
      <trkpt lat="49.1679" lon="-0.40534">
        <ele>-1.2</ele>
        <time>2012-01-13T13:18:47Z</time>
      </trkpt>
      <trkpt lat="49.1679" lon="-0.40533">
        <ele>-1.1</ele>
        <time>2012-01-13T13:18:48Z</time>
      </trkpt>
      <trkpt lat="49.16791" lon="-0.40531">
        <ele>-1.2</ele>
        <time>2012-01-13T13:18:49Z</time>
      </trkpt>
      <trkpt lat="49.16791" lon="-0.4053">
        <ele>-1.2</ele>
        <time>2012-01-13T13:18:50Z</time>
      </trkpt>
      <trkpt lat="49.16791" lon="-0.40529">
        <ele>-1.2</ele>
        <time>2012-01-13T13:18:51Z</time>
      </trkpt>
      <trkpt lat="49.1679" lon="-0.40525">
        <ele>-1.1</ele>
        <time>2012-01-13T13:18:52Z</time>
      </trkpt>
      <trkpt lat="49.1679" lon="-0.40524">
        <ele>-1.6</ele>
        <time>2012-01-13T13:18:53Z</time>
      </trkpt>
      <trkpt lat="49.1679" lon="-0.40523">
        <ele>-1.7</ele>
        <time>2012-01-13T13:18:54Z</time>
      </trkpt>
      <trkpt lat="49.1679" lon="-0.40521">
        <ele>-1.5</ele>
        <time>2012-01-13T13:18:55Z</time>
      </trkpt>
      <trkpt lat="49.16791" lon="-0.40519">
        <ele>-1.2</ele>
        <time>2012-01-13T13:18:56Z</time>
      </trkpt>
      <trkpt lat="49.16791" lon="-0.40518">
        <ele>-1</ele>
        <time>2012-01-13T13:18:57Z</time>
      </trkpt>
      <trkpt lat="49.16791" lon="-0.40516">
        <ele>-0.8</ele>
        <time>2012-01-13T13:18:58Z</time>
      </trkpt>
      <trkpt lat="49.16792" lon="-0.40515">
        <ele>-0.5</ele>
        <time>2012-01-13T13:18:59Z</time>
      </trkpt>
      <trkpt lat="49.16792" lon="-0.40514">
        <ele>-0.4</ele>
        <time>2012-01-13T13:19:00Z</time>
      </trkpt>
      <trkpt lat="49.16792" lon="-0.40513">
        <ele>0.1</ele>
        <time>2012-01-13T13:19:01Z</time>
      </trkpt>
      <trkpt lat="49.16793" lon="-0.40512">
        <ele>0.2</ele>
        <time>2012-01-13T13:19:02Z</time>
      </trkpt>
      <trkpt lat="49.16793" lon="-0.4051">
        <ele>0.2</ele>
        <time>2012-01-13T13:19:03Z</time>
      </trkpt>
      <trkpt lat="49.16793" lon="-0.40509">
        <ele>0.4</ele>
        <time>2012-01-13T13:19:04Z</time>
      </trkpt>
      <trkpt lat="49.16793" lon="-0.40508">
        <ele>0.3</ele>
        <time>2012-01-13T13:19:05Z</time>
      </trkpt>
      <trkpt lat="49.16793" lon="-0.40507">
        <ele>-0.2</ele>
        <time>2012-01-13T13:19:06Z</time>
      </trkpt>
      <trkpt lat="49.16793" lon="-0.40506">
        <ele>10.1</ele>
        <time>2012-01-13T13:19:07Z</time>
      </trkpt>
      <trkpt lat="49.16792" lon="-0.40504">
        <ele>-0.2</ele>
        <time>2012-01-13T13:19:08Z</time>
      </trkpt>
      <trkpt lat="49.16792" lon="-0.40503">
        <ele>-0.2</ele>
        <time>2012-01-13T13:19:09Z</time>
      </trkpt>
      <trkpt lat="49.16791" lon="-0.40503">
        <ele>-0.2</ele>
        <time>2012-01-13T13:19:10Z</time>
      </trkpt>
      <trkpt lat="49.1679" lon="-0.405">
        <ele>0.8</ele>
        <time>2012-01-13T13:19:11Z</time>
      </trkpt>
      <trkpt lat="49.16788" lon="-0.40498">
        <ele>1.6</ele>
        <time>2012-01-13T13:19:12Z</time>
      </trkpt>
      <trkpt lat="49.16787" lon="-0.40498">
        <ele>0.6</ele>
        <time>2012-01-13T13:19:13Z</time>
      </trkpt>
      <trkpt lat="49.16785" lon="-0.40496">
        <ele>0.8</ele>
        <time>2012-01-13T13:19:14Z</time>
      </trkpt>
      <trkpt lat="49.16783" lon="-0.40495">
        <ele>1</ele>
        <time>2012-01-13T13:19:15Z</time>
      </trkpt>
      <trkpt lat="49.16782" lon="-0.40494">
        <ele>1.1</ele>
        <time>2012-01-13T13:19:16Z</time>
      </trkpt>
      <trkpt lat="49.16781" lon="-0.40494">
        <ele>1.2</ele>
        <time>2012-01-13T13:19:17Z</time>
      </trkpt>
      <trkpt lat="49.1678" lon="-0.40495">
        <ele>0.6</ele>
        <time>2012-01-13T13:19:18Z</time>
      </trkpt>
      <trkpt lat="49.16778" lon="-0.40495">
        <ele>-0.1</ele>
        <time>2012-01-13T13:19:19Z</time>
      </trkpt>
      <trkpt lat="49.16777" lon="-0.40495">
        <ele>8</ele>
        <time>2012-01-13T13:19:20Z</time>
      </trkpt>
      <trkpt lat="49.16776" lon="-0.40495">
        <ele>0.4</ele>
        <time>2012-01-13T13:19:21Z</time>
      </trkpt>
      <trkpt lat="49.16775" lon="-0.40495">
        <ele>0.6</ele>
        <time>2012-01-13T13:19:22Z</time>
      </trkpt>
      <trkpt lat="49.16773" lon="-0.40495">
        <ele>0.8</ele>
        <time>2012-01-13T13:19:23Z</time>
      </trkpt>
      <trkpt lat="49.16772" lon="-0.40496">
        <ele>0.8</ele>
        <time>2012-01-13T13:19:24Z</time>
      </trkpt>
      <trkpt lat="49.16771" lon="-0.40496">
        <ele>0.8</ele>
        <time>2012-01-13T13:19:25Z</time>
      </trkpt>
      <trkpt lat="49.1677" lon="-0.40497">
        <ele>0.6</ele>
        <time>2012-01-13T13:19:26Z</time>
      </trkpt>
      <trkpt lat="49.16769" lon="-0.40497">
        <ele>0.6</ele>
        <time>2012-01-13T13:19:27Z</time>
      </trkpt>
      <trkpt lat="49.16768" lon="-0.40498">
        <ele>1</ele>
        <time>2012-01-13T13:19:28Z</time>
      </trkpt>
      <trkpt lat="49.16766" lon="-0.40498">
        <ele>1.1</ele>
        <time>2012-01-13T13:19:29Z</time>
      </trkpt>
      <trkpt lat="49.16765" lon="-0.40499">
        <ele>1.2</ele>
        <time>2012-01-13T13:19:30Z</time>
      </trkpt>
      <trkpt lat="49.16764" lon="-0.40499">
        <ele>1.2</ele>
        <time>2012-01-13T13:19:31Z</time>
      </trkpt>
      <trkpt lat="49.16763" lon="-0.405">
        <ele>1.6</ele>
        <time>2012-01-13T13:19:32Z</time>
      </trkpt>
      <trkpt lat="49.16762" lon="-0.40501">
        <ele>1.7</ele>
        <time>2012-01-13T13:19:33Z</time>
      </trkpt>
      <trkpt lat="49.16761" lon="-0.40502">
        <ele>2</ele>
        <time>2012-01-13T13:19:34Z</time>
      </trkpt>
      <trkpt lat="49.1676" lon="-0.40504">
        <ele>2.2</ele>
        <time>2012-01-13T13:19:35Z</time>
      </trkpt>
      <trkpt lat="49.16759" lon="-0.40506">
        <ele>2.5</ele>
        <time>2012-01-13T13:19:36Z</time>
      </trkpt>
      <trkpt lat="49.16759" lon="-0.40507">
        <ele>2.9</ele>
        <time>2012-01-13T13:19:37Z</time>
      </trkpt>
      <trkpt lat="49.16758" lon="-0.40509">
        <ele>3.2</ele>
        <time>2012-01-13T13:19:38Z</time>
      </trkpt>
      <trkpt lat="49.16758" lon="-0.40511">
        <ele>3.4</ele>
        <time>2012-01-13T13:19:39Z</time>
      </trkpt>
      <trkpt lat="49.16757" lon="-0.40512">
        <ele>3.7</ele>
        <time>2012-01-13T13:19:40Z</time>
      </trkpt>
      <trkpt lat="49.16757" lon="-0.40514">
        <ele>3.7</ele>
        <time>2012-01-13T13:19:41Z</time>
      </trkpt>
      <trkpt lat="49.16757" lon="-0.40516">
        <ele>4</ele>
        <time>2012-01-13T13:19:42Z</time>
      </trkpt>
      <trkpt lat="49.16756" lon="-0.40518">
        <ele>4.5</ele>
        <time>2012-01-13T13:19:43Z</time>
      </trkpt>
      <trkpt lat="49.16755" lon="-0.40519">
        <ele>4.8</ele>
        <time>2012-01-13T13:19:44Z</time>
      </trkpt>
      <trkpt lat="49.16755" lon="-0.40521">
        <ele>4.5</ele>
        <time>2012-01-13T13:19:45Z</time>
      </trkpt>
      <trkpt lat="49.16754" lon="-0.40522">
        <ele>4.8</ele>
        <time>2012-01-13T13:19:46Z</time>
      </trkpt>
      <trkpt lat="49.16753" lon="-0.40523">
        <ele>4.8</ele>
        <time>2012-01-13T13:19:47Z</time>
      </trkpt>
      <trkpt lat="49.16751" lon="-0.40523">
        <ele>4.9</ele>
        <time>2012-01-13T13:19:48Z</time>
      </trkpt>
      <trkpt lat="49.1675" lon="-0.40523">
        <ele>5</ele>
        <time>2012-01-13T13:19:49Z</time>
      </trkpt>
      <trkpt lat="49.16749" lon="-0.40522">
        <ele>4.5</ele>
        <time>2012-01-13T13:19:50Z</time>
      </trkpt>
      <trkpt lat="49.16748" lon="-0.40521">
        <ele>4.3</ele>
        <time>2012-01-13T13:19:51Z</time>
      </trkpt>
      <trkpt lat="49.16747" lon="-0.4052">
        <ele>4.3</ele>
        <time>2012-01-13T13:19:52Z</time>
      </trkpt>
      <trkpt lat="49.16746" lon="-0.40519">
        <ele>4.4</ele>
        <time>2012-01-13T13:19:53Z</time>
      </trkpt>
      <trkpt lat="49.16745" lon="-0.40518">
        <ele>4.4</ele>
        <time>2012-01-13T13:19:54Z</time>
      </trkpt>
      <trkpt lat="49.16744" lon="-0.40517">
        <ele>4.4</ele>
        <time>2012-01-13T13:19:55Z</time>
      </trkpt>
      <trkpt lat="49.16743" lon="-0.40516">
        <ele>4.4</ele>
        <time>2012-01-13T13:19:56Z</time>
      </trkpt>
      <trkpt lat="49.16742" lon="-0.40516">
        <ele>4.4</ele>
        <time>2012-01-13T13:19:57Z</time>
      </trkpt>
      <trkpt lat="49.1674" lon="-0.40516">
        <ele>4.3</ele>
        <time>2012-01-13T13:19:58Z</time>
      </trkpt>
      <trkpt lat="49.16739" lon="-0.40516">
        <ele>4</ele>
        <time>2012-01-13T13:19:59Z</time>
      </trkpt>
      <trkpt lat="49.16738" lon="-0.40516">
        <ele>4</ele>
        <time>2012-01-13T13:20:00Z</time>
      </trkpt>
      <trkpt lat="49.16737" lon="-0.40516">
        <ele>4.3</ele>
        <time>2012-01-13T13:20:01Z</time>
      </trkpt>
      <trkpt lat="49.16736" lon="-0.40517">
        <ele>4.3</ele>
        <time>2012-01-13T13:20:02Z</time>
      </trkpt>
      <trkpt lat="49.16734" lon="-0.40517">
        <ele>4.3</ele>
        <time>2012-01-13T13:20:03Z</time>
      </trkpt>
      <trkpt lat="49.16733" lon="-0.40517">
        <ele>4.3</ele>
        <time>2012-01-13T13:20:04Z</time>
      </trkpt>
      <trkpt lat="49.16732" lon="-0.40518">
        <ele>4.4</ele>
        <time>2012-01-13T13:20:05Z</time>
      </trkpt>
      <trkpt lat="49.16731" lon="-0.40518">
        <ele>4.3</ele>
        <time>2012-01-13T13:20:06Z</time>
      </trkpt>
      <trkpt lat="49.1673" lon="-0.40519">
        <ele>4.3</ele>
        <time>2012-01-13T13:20:07Z</time>
      </trkpt>
      <trkpt lat="49.16729" lon="-0.40519">
        <ele>4.3</ele>
        <time>2012-01-13T13:20:08Z</time>
      </trkpt>
      <trkpt lat="49.16727" lon="-0.40519">
        <ele>4.3</ele>
        <time>2012-01-13T13:20:09Z</time>
      </trkpt>
      <trkpt lat="49.16726" lon="-0.4052">
        <ele>4.4</ele>
        <time>2012-01-13T13:20:10Z</time>
      </trkpt>
      <trkpt lat="49.16725" lon="-0.4052">
        <ele>4.5</ele>
        <time>2012-01-13T13:20:11Z</time>
      </trkpt>
      <trkpt lat="49.16724" lon="-0.40521">
        <ele>4.5</ele>
        <time>2012-01-13T13:20:12Z</time>
      </trkpt>
      <trkpt lat="49.16723" lon="-0.40521">
        <ele>4.5</ele>
        <time>2012-01-13T13:20:13Z</time>
      </trkpt>
      <trkpt lat="49.16722" lon="-0.40522">
        <ele>4.8</ele>
        <time>2012-01-13T13:20:14Z</time>
      </trkpt>
      <trkpt lat="49.1672" lon="-0.40522">
        <ele>4.5</ele>
        <time>2012-01-13T13:20:15Z</time>
      </trkpt>
      <trkpt lat="49.16719" lon="-0.40523">
        <ele>4.5</ele>
        <time>2012-01-13T13:20:16Z</time>
      </trkpt>
      <trkpt lat="49.16718" lon="-0.40523">
        <ele>4.5</ele>
        <time>2012-01-13T13:20:17Z</time>
      </trkpt>
      <trkpt lat="49.16717" lon="-0.40523">
        <ele>4.5</ele>
        <time>2012-01-13T13:20:18Z</time>
      </trkpt>
      <trkpt lat="49.16716" lon="-0.40523">
        <ele>4.5</ele>
        <time>2012-01-13T13:20:19Z</time>
      </trkpt>
      <trkpt lat="49.16714" lon="-0.40524">
        <ele>4.8</ele>
        <time>2012-01-13T13:20:20Z</time>
      </trkpt>
      <trkpt lat="49.16713" lon="-0.40524">
        <ele>4.8</ele>
        <time>2012-01-13T13:20:21Z</time>
      </trkpt>
      <trkpt lat="49.16712" lon="-0.40524">
        <ele>5</ele>
        <time>2012-01-13T13:20:22Z</time>
      </trkpt>
      <trkpt lat="49.16711" lon="-0.40524">
        <ele>5</ele>
        <time>2012-01-13T13:20:23Z</time>
      </trkpt>
      <trkpt lat="49.1671" lon="-0.40525">
        <ele>5</ele>
        <time>2012-01-13T13:20:24Z</time>
      </trkpt>
      <trkpt lat="49.16708" lon="-0.40525">
        <ele>5</ele>
        <time>2012-01-13T13:20:25Z</time>
      </trkpt>
      <trkpt lat="49.16707" lon="-0.40525">
        <ele>5</ele>
        <time>2012-01-13T13:20:26Z</time>
      </trkpt>
      <trkpt lat="49.16706" lon="-0.40526">
        <ele>5</ele>
        <time>2012-01-13T13:20:27Z</time>
      </trkpt>
      <trkpt lat="49.16705" lon="-0.40526">
        <ele>5</ele>
        <time>2012-01-13T13:20:28Z</time>
      </trkpt>
      <trkpt lat="49.16704" lon="-0.40527">
        <ele>5</ele>
        <time>2012-01-13T13:20:29Z</time>
      </trkpt>
      <trkpt lat="49.16702" lon="-0.40527">
        <ele>5</ele>
        <time>2012-01-13T13:20:30Z</time>
      </trkpt>
      <trkpt lat="49.16701" lon="-0.40527">
        <ele>5.3</ele>
        <time>2012-01-13T13:20:31Z</time>
      </trkpt>
      <trkpt lat="49.167" lon="-0.40528">
        <ele>5.3</ele>
        <time>2012-01-13T13:20:32Z</time>
      </trkpt>
      <trkpt lat="49.16699" lon="-0.40528">
        <ele>5.4</ele>
        <time>2012-01-13T13:20:33Z</time>
      </trkpt>
      <trkpt lat="49.16698" lon="-0.40528">
        <ele>5.4</ele>
        <time>2012-01-13T13:20:34Z</time>
      </trkpt>
      <trkpt lat="49.16696" lon="-0.40528">
        <ele>5.3</ele>
        <time>2012-01-13T13:20:35Z</time>
      </trkpt>
      <trkpt lat="49.16695" lon="-0.40528">
        <ele>5</ele>
        <time>2012-01-13T13:20:36Z</time>
      </trkpt>
      <trkpt lat="49.16694" lon="-0.40528">
        <ele>5</ele>
        <time>2012-01-13T13:20:37Z</time>
      </trkpt>
      <trkpt lat="49.16693" lon="-0.40528">
        <ele>5</ele>
        <time>2012-01-13T13:20:38Z</time>
      </trkpt>
      <trkpt lat="49.16692" lon="-0.40528">
        <ele>5</ele>
        <time>2012-01-13T13:20:39Z</time>
      </trkpt>
      <trkpt lat="49.1669" lon="-0.40528">
        <ele>5</ele>
        <time>2012-01-13T13:20:40Z</time>
      </trkpt>
      <trkpt lat="49.16689" lon="-0.40528">
        <ele>5.3</ele>
        <time>2012-01-13T13:20:41Z</time>
      </trkpt>
      <trkpt lat="49.16688" lon="-0.40528">
        <ele>5.3</ele>
        <time>2012-01-13T13:20:42Z</time>
      </trkpt>
      <trkpt lat="49.16687" lon="-0.40528">
        <ele>5.4</ele>
        <time>2012-01-13T13:20:43Z</time>
      </trkpt>
      <trkpt lat="49.16686" lon="-0.40528">
        <ele>5.5</ele>
        <time>2012-01-13T13:20:44Z</time>
      </trkpt>
      <trkpt lat="49.16685" lon="-0.40528">
        <ele>5.5</ele>
        <time>2012-01-13T13:20:45Z</time>
      </trkpt>
      <trkpt lat="49.16683" lon="-0.40528">
        <ele>5.5</ele>
        <time>2012-01-13T13:20:46Z</time>
      </trkpt>
      <trkpt lat="49.16682" lon="-0.40528">
        <ele>5.8</ele>
        <time>2012-01-13T13:20:47Z</time>
      </trkpt>
      <trkpt lat="49.16681" lon="-0.40528">
        <ele>5.9</ele>
        <time>2012-01-13T13:20:48Z</time>
      </trkpt>
      <trkpt lat="49.1668" lon="-0.40527">
        <ele>6</ele>
        <time>2012-01-13T13:20:49Z</time>
      </trkpt>
      <trkpt lat="49.16678" lon="-0.40527">
        <ele>6</ele>
        <time>2012-01-13T13:20:50Z</time>
      </trkpt>
      <trkpt lat="49.16677" lon="-0.40528">
        <ele>6</ele>
        <time>2012-01-13T13:20:51Z</time>
      </trkpt>
      <trkpt lat="49.16676" lon="-0.40528">
        <ele>6</ele>
        <time>2012-01-13T13:20:52Z</time>
      </trkpt>
      <trkpt lat="49.16675" lon="-0.40528">
        <ele>6</ele>
        <time>2012-01-13T13:20:53Z</time>
      </trkpt>
      <trkpt lat="49.16674" lon="-0.40528">
        <ele>6</ele>
        <time>2012-01-13T13:20:54Z</time>
      </trkpt>
      <trkpt lat="49.16673" lon="-0.40528">
        <ele>5.9</ele>
        <time>2012-01-13T13:20:55Z</time>
      </trkpt>
      <trkpt lat="49.16672" lon="-0.40528">
        <ele>6</ele>
        <time>2012-01-13T13:20:56Z</time>
      </trkpt>
      <trkpt lat="49.1667" lon="-0.40528">
        <ele>5.9</ele>
        <time>2012-01-13T13:20:57Z</time>
      </trkpt>
      <trkpt lat="49.16669" lon="-0.40528">
        <ele>5.5</ele>
        <time>2012-01-13T13:20:58Z</time>
      </trkpt>
      <trkpt lat="49.16668" lon="-0.40527">
        <ele>5.5</ele>
        <time>2012-01-13T13:20:59Z</time>
      </trkpt>
      <trkpt lat="49.16667" lon="-0.40527">
        <ele>5.8</ele>
        <time>2012-01-13T13:21:00Z</time>
      </trkpt>
      <trkpt lat="49.16666" lon="-0.40527">
        <ele>5.5</ele>
        <time>2012-01-13T13:21:01Z</time>
      </trkpt>
      <trkpt lat="49.16665" lon="-0.40527">
        <ele>5.5</ele>
        <time>2012-01-13T13:21:02Z</time>
      </trkpt>
      <trkpt lat="49.16663" lon="-0.40526">
        <ele>5.5</ele>
        <time>2012-01-13T13:21:03Z</time>
      </trkpt>
      <trkpt lat="49.16662" lon="-0.40526">
        <ele>5.5</ele>
        <time>2012-01-13T13:21:04Z</time>
      </trkpt>
      <trkpt lat="49.16661" lon="-0.40526">
        <ele>5.5</ele>
        <time>2012-01-13T13:21:05Z</time>
      </trkpt>
      <trkpt lat="49.1666" lon="-0.40526">
        <ele>5.5</ele>
        <time>2012-01-13T13:21:06Z</time>
      </trkpt>
      <trkpt lat="49.16659" lon="-0.40526">
        <ele>5.4</ele>
        <time>2012-01-13T13:21:07Z</time>
      </trkpt>
      <trkpt lat="49.16658" lon="-0.40525">
        <ele>5.3</ele>
        <time>2012-01-13T13:21:08Z</time>
      </trkpt>
      <trkpt lat="49.16656" lon="-0.40525">
        <ele>5.3</ele>
        <time>2012-01-13T13:21:09Z</time>
      </trkpt>
      <trkpt lat="49.16655" lon="-0.40525">
        <ele>5.5</ele>
        <time>2012-01-13T13:21:10Z</time>
      </trkpt>
      <trkpt lat="49.16654" lon="-0.40525">
        <ele>5.5</ele>
        <time>2012-01-13T13:21:11Z</time>
      </trkpt>
      <trkpt lat="49.16653" lon="-0.40525">
        <ele>5.5</ele>
        <time>2012-01-13T13:21:12Z</time>
      </trkpt>
      <trkpt lat="49.16652" lon="-0.40525">
        <ele>5.5</ele>
        <time>2012-01-13T13:21:13Z</time>
      </trkpt>
      <trkpt lat="49.1665" lon="-0.40525">
        <ele>5.5</ele>
        <time>2012-01-13T13:21:14Z</time>
      </trkpt>
      <trkpt lat="49.16649" lon="-0.40524">
        <ele>5.5</ele>
        <time>2012-01-13T13:21:15Z</time>
      </trkpt>
      <trkpt lat="49.16648" lon="-0.40524">
        <ele>5.5</ele>
        <time>2012-01-13T13:21:16Z</time>
      </trkpt>
      <trkpt lat="49.16646" lon="-0.40524">
        <ele>5.5</ele>
        <time>2012-01-13T13:21:17Z</time>
      </trkpt>
      <trkpt lat="49.16645" lon="-0.40524">
        <ele>5.5</ele>
        <time>2012-01-13T13:21:18Z</time>
      </trkpt>
      <trkpt lat="49.16644" lon="-0.40523">
        <ele>5.5</ele>
        <time>2012-01-13T13:21:19Z</time>
      </trkpt>
      <trkpt lat="49.16643" lon="-0.40523">
        <ele>5.5</ele>
        <time>2012-01-13T13:21:20Z</time>
      </trkpt>
      <trkpt lat="49.16642" lon="-0.40522">
        <ele>5.5</ele>
        <time>2012-01-13T13:21:21Z</time>
      </trkpt>
      <trkpt lat="49.1664" lon="-0.40522">
        <ele>5.5</ele>
        <time>2012-01-13T13:21:22Z</time>
      </trkpt>
      <trkpt lat="49.16639" lon="-0.40521">
        <ele>5.4</ele>
        <time>2012-01-13T13:21:23Z</time>
      </trkpt>
      <trkpt lat="49.16638" lon="-0.40521">
        <ele>5.4</ele>
        <time>2012-01-13T13:21:24Z</time>
      </trkpt>
      <trkpt lat="49.16637" lon="-0.4052">
        <ele>5.3</ele>
        <time>2012-01-13T13:21:25Z</time>
      </trkpt>
      <trkpt lat="49.16636" lon="-0.4052">
        <ele>5.3</ele>
        <time>2012-01-13T13:21:26Z</time>
      </trkpt>
      <trkpt lat="49.16634" lon="-0.4052">
        <ele>5.5</ele>
        <time>2012-01-13T13:21:27Z</time>
      </trkpt>
      <trkpt lat="49.16633" lon="-0.40519">
        <ele>5.5</ele>
        <time>2012-01-13T13:21:28Z</time>
      </trkpt>
      <trkpt lat="49.16632" lon="-0.40519">
        <ele>5.5</ele>
        <time>2012-01-13T13:21:29Z</time>
      </trkpt>
      <trkpt lat="49.16631" lon="-0.40519">
        <ele>5.9</ele>
        <time>2012-01-13T13:21:30Z</time>
      </trkpt>
      <trkpt lat="49.16629" lon="-0.40518">
        <ele>6</ele>
        <time>2012-01-13T13:21:31Z</time>
      </trkpt>
      <trkpt lat="49.16628" lon="-0.40518">
        <ele>6.4</ele>
        <time>2012-01-13T13:21:32Z</time>
      </trkpt>
      <trkpt lat="49.16627" lon="-0.40517">
        <ele>6.5</ele>
        <time>2012-01-13T13:21:33Z</time>
      </trkpt>
      <trkpt lat="49.16626" lon="-0.40516">
        <ele>6.8</ele>
        <time>2012-01-13T13:21:34Z</time>
      </trkpt>
      <trkpt lat="49.16625" lon="-0.40515">
        <ele>6.5</ele>
        <time>2012-01-13T13:21:35Z</time>
      </trkpt>
      <trkpt lat="49.16624" lon="-0.40515">
        <ele>6.5</ele>
        <time>2012-01-13T13:21:36Z</time>
      </trkpt>
      <trkpt lat="49.16623" lon="-0.40515">
        <ele>6.4</ele>
        <time>2012-01-13T13:21:37Z</time>
      </trkpt>
      <trkpt lat="49.16623" lon="-0.40515">
        <ele>6.8</ele>
        <time>2012-01-13T13:21:38Z</time>
      </trkpt>
      <trkpt lat="49.16623" lon="-0.40515">
        <ele>6.4</ele>
        <time>2012-01-13T13:21:39Z</time>
      </trkpt>
      <trkpt lat="49.16622" lon="-0.40515">
        <ele>6.4</ele>
        <time>2012-01-13T13:21:40Z</time>
      </trkpt>
      <trkpt lat="49.16621" lon="-0.40516">
        <ele>6.3</ele>
        <time>2012-01-13T13:21:41Z</time>
      </trkpt>
      <trkpt lat="49.16619" lon="-0.40516">
        <ele>6</ele>
        <time>2012-01-13T13:21:42Z</time>
      </trkpt>
      <trkpt lat="49.16618" lon="-0.40517">
        <ele>5.5</ele>
        <time>2012-01-13T13:21:43Z</time>
      </trkpt>
      <trkpt lat="49.16616" lon="-0.40517">
        <ele>5.4</ele>
        <time>2012-01-13T13:21:44Z</time>
      </trkpt>
      <trkpt lat="49.16615" lon="-0.40518">
        <ele>5</ele>
        <time>2012-01-13T13:21:45Z</time>
      </trkpt>
      <trkpt lat="49.16614" lon="-0.40519">
        <ele>4.5</ele>
        <time>2012-01-13T13:21:46Z</time>
      </trkpt>
      <trkpt lat="49.16613" lon="-0.4052">
        <ele>4.4</ele>
        <time>2012-01-13T13:21:47Z</time>
      </trkpt>
      <trkpt lat="49.16612" lon="-0.40521">
        <ele>4</ele>
        <time>2012-01-13T13:21:48Z</time>
      </trkpt>
      <trkpt lat="49.16611" lon="-0.40522">
        <ele>4.5</ele>
        <time>2012-01-13T13:21:49Z</time>
      </trkpt>
      <trkpt lat="49.16611" lon="-0.40522">
        <ele>4.5</ele>
        <time>2012-01-13T13:21:50Z</time>
      </trkpt>
      <trkpt lat="49.1661" lon="-0.40523">
        <ele>4</ele>
        <time>2012-01-13T13:21:51Z</time>
      </trkpt>
      <trkpt lat="49.16609" lon="-0.40525">
        <ele>3.7</ele>
        <time>2012-01-13T13:21:52Z</time>
      </trkpt>
      <trkpt lat="49.16608" lon="-0.40526">
        <ele>4.3</ele>
        <time>2012-01-13T13:21:53Z</time>
      </trkpt>
      <trkpt lat="49.16607" lon="-0.40527">
        <ele>5</ele>
        <time>2012-01-13T13:21:54Z</time>
      </trkpt>
      <trkpt lat="49.16606" lon="-0.40527">
        <ele>5</ele>
        <time>2012-01-13T13:21:55Z</time>
      </trkpt>
      <trkpt lat="49.16605" lon="-0.40528">
        <ele>5</ele>
        <time>2012-01-13T13:21:56Z</time>
      </trkpt>
      <trkpt lat="49.16604" lon="-0.40528">
        <ele>5</ele>
        <time>2012-01-13T13:21:57Z</time>
      </trkpt>
      <trkpt lat="49.16603" lon="-0.40528">
        <ele>5.5</ele>
        <time>2012-01-13T13:21:58Z</time>
      </trkpt>
      <trkpt lat="49.16602" lon="-0.40529">
        <ele>5.8</ele>
        <time>2012-01-13T13:21:59Z</time>
      </trkpt>
      <trkpt lat="49.16601" lon="-0.40528">
        <ele>6</ele>
        <time>2012-01-13T13:22:00Z</time>
      </trkpt>
      <trkpt lat="49.166" lon="-0.40528">
        <ele>6</ele>
        <time>2012-01-13T13:22:01Z</time>
      </trkpt>
      <trkpt lat="49.16599" lon="-0.40527">
        <ele>6</ele>
        <time>2012-01-13T13:22:02Z</time>
      </trkpt>
      <trkpt lat="49.16598" lon="-0.40526">
        <ele>5.9</ele>
        <time>2012-01-13T13:22:03Z</time>
      </trkpt>
      <trkpt lat="49.16597" lon="-0.40525">
        <ele>5.5</ele>
        <time>2012-01-13T13:22:04Z</time>
      </trkpt>
      <trkpt lat="49.16596" lon="-0.40525">
        <ele>5</ele>
        <time>2012-01-13T13:22:05Z</time>
      </trkpt>
      <trkpt lat="49.16595" lon="-0.40524">
        <ele>4.5</ele>
        <time>2012-01-13T13:22:06Z</time>
      </trkpt>
      <trkpt lat="49.16594" lon="-0.40523">
        <ele>3.7</ele>
        <time>2012-01-13T13:22:07Z</time>
      </trkpt>
      <trkpt lat="49.16593" lon="-0.40523">
        <ele>3</ele>
        <time>2012-01-13T13:22:08Z</time>
      </trkpt>
      <trkpt lat="49.16593" lon="-0.40522">
        <ele>2.5</ele>
        <time>2012-01-13T13:22:09Z</time>
      </trkpt>
      <trkpt lat="49.16592" lon="-0.40521">
        <ele>2.4</ele>
        <time>2012-01-13T13:22:10Z</time>
      </trkpt>
      <trkpt lat="49.16591" lon="-0.4052">
        <ele>1.7</ele>
        <time>2012-01-13T13:22:11Z</time>
      </trkpt>
      <trkpt lat="49.1659" lon="-0.4052">
        <ele>1.2</ele>
        <time>2012-01-13T13:22:12Z</time>
      </trkpt>
      <trkpt lat="49.16589" lon="-0.40519">
        <ele>1.2</ele>
        <time>2012-01-13T13:22:13Z</time>
      </trkpt>
      <trkpt lat="49.16588" lon="-0.40519">
        <ele>1.6</ele>
        <time>2012-01-13T13:22:14Z</time>
      </trkpt>
      <trkpt lat="49.16586" lon="-0.40519">
        <ele>1.7</ele>
        <time>2012-01-13T13:22:15Z</time>
      </trkpt>
      <trkpt lat="49.16585" lon="-0.40518">
        <ele>2.5</ele>
        <time>2012-01-13T13:22:16Z</time>
      </trkpt>
      <trkpt lat="49.16584" lon="-0.40518">
        <ele>3.2</ele>
        <time>2012-01-13T13:22:17Z</time>
      </trkpt>
      <trkpt lat="49.16583" lon="-0.40517">
        <ele>3.5</ele>
        <time>2012-01-13T13:22:18Z</time>
      </trkpt>
      <trkpt lat="49.16582" lon="-0.40517">
        <ele>4</ele>
        <time>2012-01-13T13:22:19Z</time>
      </trkpt>
      <trkpt lat="49.1658" lon="-0.40516">
        <ele>4</ele>
        <time>2012-01-13T13:22:20Z</time>
      </trkpt>
      <trkpt lat="49.16579" lon="-0.40516">
        <ele>4.3</ele>
        <time>2012-01-13T13:22:21Z</time>
      </trkpt>
      <trkpt lat="49.16578" lon="-0.40516">
        <ele>4.4</ele>
        <time>2012-01-13T13:22:22Z</time>
      </trkpt>
      <trkpt lat="49.16577" lon="-0.40515">
        <ele>4.5</ele>
        <time>2012-01-13T13:22:23Z</time>
      </trkpt>
      <trkpt lat="49.16576" lon="-0.40514">
        <ele>5</ele>
        <time>2012-01-13T13:22:24Z</time>
      </trkpt>
      <trkpt lat="49.16575" lon="-0.40513">
        <ele>5.5</ele>
        <time>2012-01-13T13:22:25Z</time>
      </trkpt>
      <trkpt lat="49.16574" lon="-0.40512">
        <ele>5.9</ele>
        <time>2012-01-13T13:22:26Z</time>
      </trkpt>
      <trkpt lat="49.16573" lon="-0.40512">
        <ele>6</ele>
        <time>2012-01-13T13:22:27Z</time>
      </trkpt>
      <trkpt lat="49.16572" lon="-0.40511">
        <ele>6.4</ele>
        <time>2012-01-13T13:22:28Z</time>
      </trkpt>
      <trkpt lat="49.16571" lon="-0.40511">
        <ele>6.5</ele>
        <time>2012-01-13T13:22:29Z</time>
      </trkpt>
      <trkpt lat="49.1657" lon="-0.40511">
        <ele>7.5</ele>
        <time>2012-01-13T13:22:30Z</time>
      </trkpt>
      <trkpt lat="49.16569" lon="-0.40511">
        <ele>7.8</ele>
        <time>2012-01-13T13:22:31Z</time>
      </trkpt>
      <trkpt lat="49.16569" lon="-0.40511">
        <ele>7.9</ele>
        <time>2012-01-13T13:22:32Z</time>
      </trkpt>
      <trkpt lat="49.16568" lon="-0.40511">
        <ele>7.8</ele>
        <time>2012-01-13T13:22:33Z</time>
      </trkpt>
      <trkpt lat="49.16568" lon="-0.40511">
        <ele>7.8</ele>
        <time>2012-01-13T13:22:34Z</time>
      </trkpt>
      <trkpt lat="49.16567" lon="-0.40511">
        <ele>8</ele>
        <time>2012-01-13T13:22:35Z</time>
      </trkpt>
      <trkpt lat="49.16567" lon="-0.40511">
        <ele>7.9</ele>
        <time>2012-01-13T13:22:36Z</time>
      </trkpt>
      <trkpt lat="49.16567" lon="-0.40511">
        <ele>7.9</ele>
        <time>2012-01-13T13:22:37Z</time>
      </trkpt>
      <trkpt lat="49.16567" lon="-0.40511">
        <ele>7.5</ele>
        <time>2012-01-13T13:22:38Z</time>
      </trkpt>
      <trkpt lat="49.16566" lon="-0.40511">
        <ele>7.5</ele>
        <time>2012-01-13T13:22:39Z</time>
      </trkpt>
      <trkpt lat="49.16566" lon="-0.40511">
        <ele>7</ele>
        <time>2012-01-13T13:22:40Z</time>
      </trkpt>
      <trkpt lat="49.16566" lon="-0.40512">
        <ele>7</ele>
        <time>2012-01-13T13:22:41Z</time>
      </trkpt>
      <trkpt lat="49.16566" lon="-0.40512">
        <ele>6.5</ele>
        <time>2012-01-13T13:22:42Z</time>
      </trkpt>
      <trkpt lat="49.16566" lon="-0.40512">
        <ele>6.5</ele>
        <time>2012-01-13T13:22:43Z</time>
      </trkpt>
      <trkpt lat="49.16565" lon="-0.40512">
        <ele>6.3</ele>
        <time>2012-01-13T13:22:44Z</time>
      </trkpt>
      <trkpt lat="49.16565" lon="-0.40512">
        <ele>6</ele>
        <time>2012-01-13T13:22:45Z</time>
      </trkpt>
      <trkpt lat="49.16565" lon="-0.40512">
        <ele>5.5</ele>
        <time>2012-01-13T13:22:46Z</time>
      </trkpt>
      <trkpt lat="49.16565" lon="-0.40512">
        <ele>5.5</ele>
        <time>2012-01-13T13:22:47Z</time>
      </trkpt>
      <trkpt lat="49.16565" lon="-0.40512">
        <ele>5</ele>
        <time>2012-01-13T13:22:48Z</time>
      </trkpt>
      <trkpt lat="49.16565" lon="-0.40512">
        <ele>5</ele>
        <time>2012-01-13T13:22:49Z</time>
      </trkpt>
      <trkpt lat="49.16565" lon="-0.40512">
        <ele>4.8</ele>
        <time>2012-01-13T13:22:50Z</time>
      </trkpt>
      <trkpt lat="49.16565" lon="-0.40512">
        <ele>4.5</ele>
        <time>2012-01-13T13:22:51Z</time>
      </trkpt>
      <trkpt lat="49.16565" lon="-0.40512">
        <ele>4.5</ele>
        <time>2012-01-13T13:22:52Z</time>
      </trkpt>
      <trkpt lat="49.16565" lon="-0.40512">
        <ele>4.4</ele>
        <time>2012-01-13T13:22:53Z</time>
      </trkpt>
      <trkpt lat="49.16565" lon="-0.40512">
        <ele>4</ele>
        <time>2012-01-13T13:22:54Z</time>
      </trkpt>
      <trkpt lat="49.16564" lon="-0.40512">
        <ele>4</ele>
        <time>2012-01-13T13:22:55Z</time>
      </trkpt>
      <trkpt lat="49.16564" lon="-0.40512">
        <ele>3.9</ele>
        <time>2012-01-13T13:22:56Z</time>
      </trkpt>
      <trkpt lat="49.16564" lon="-0.40513">
        <ele>3.7</ele>
        <time>2012-01-13T13:22:57Z</time>
      </trkpt>
      <trkpt lat="49.16564" lon="-0.40514">
        <ele>3.7</ele>
        <time>2012-01-13T13:22:58Z</time>
      </trkpt>
      <trkpt lat="49.16564" lon="-0.40515">
        <ele>3.9</ele>
        <time>2012-01-13T13:22:59Z</time>
      </trkpt>
      <trkpt lat="49.16564" lon="-0.40516">
        <ele>3.7</ele>
        <time>2012-01-13T13:23:00Z</time>
      </trkpt>
      <trkpt lat="49.16564" lon="-0.40518">
        <ele>3.5</ele>
        <time>2012-01-13T13:23:01Z</time>
      </trkpt>
      <trkpt lat="49.16563" lon="-0.40519">
        <ele>3.4</ele>
        <time>2012-01-13T13:23:02Z</time>
      </trkpt>
      <trkpt lat="49.16563" lon="-0.40521">
        <ele>3.2</ele>
        <time>2012-01-13T13:23:03Z</time>
      </trkpt>
      <trkpt lat="49.16562" lon="-0.40523">
        <ele>2.9</ele>
        <time>2012-01-13T13:23:04Z</time>
      </trkpt>
      <trkpt lat="49.16561" lon="-0.40524">
        <ele>3.2</ele>
        <time>2012-01-13T13:23:05Z</time>
      </trkpt>
      <trkpt lat="49.16561" lon="-0.40525">
        <ele>3.2</ele>
        <time>2012-01-13T13:23:06Z</time>
      </trkpt>
      <trkpt lat="49.16561" lon="-0.40527">
        <ele>3.5</ele>
        <time>2012-01-13T13:23:07Z</time>
      </trkpt>
      <trkpt lat="49.1656" lon="-0.40528">
        <ele>3.5</ele>
        <time>2012-01-13T13:23:08Z</time>
      </trkpt>
      <trkpt lat="49.16559" lon="-0.4053">
        <ele>3.7</ele>
        <time>2012-01-13T13:23:09Z</time>
      </trkpt>
      <trkpt lat="49.16559" lon="-0.40532">
        <ele>3.2</ele>
        <time>2012-01-13T13:23:10Z</time>
      </trkpt>
      <trkpt lat="49.16558" lon="-0.40534">
        <ele>2.9</ele>
        <time>2012-01-13T13:23:11Z</time>
      </trkpt>
      <trkpt lat="49.16558" lon="-0.40535">
        <ele>2.5</ele>
        <time>2012-01-13T13:23:12Z</time>
      </trkpt>
      <trkpt lat="49.16557" lon="-0.40537">
        <ele>2.9</ele>
        <time>2012-01-13T13:23:13Z</time>
      </trkpt>
      <trkpt lat="49.16557" lon="-0.40538">
        <ele>3.2</ele>
        <time>2012-01-13T13:23:14Z</time>
      </trkpt>
      <trkpt lat="49.16556" lon="-0.4054">
        <ele>2.7</ele>
        <time>2012-01-13T13:23:15Z</time>
      </trkpt>
      <trkpt lat="49.16555" lon="-0.40541">
        <ele>2.7</ele>
        <time>2012-01-13T13:23:16Z</time>
      </trkpt>
      <trkpt lat="49.16554" lon="-0.40543">
        <ele>2.5</ele>
        <time>2012-01-13T13:23:17Z</time>
      </trkpt>
      <trkpt lat="49.16554" lon="-0.40544">
        <ele>2.4</ele>
        <time>2012-01-13T13:23:18Z</time>
      </trkpt>
      <trkpt lat="49.16553" lon="-0.40546">
        <ele>2.2</ele>
        <time>2012-01-13T13:23:19Z</time>
      </trkpt>
      <trkpt lat="49.16552" lon="-0.40547">
        <ele>2.5</ele>
        <time>2012-01-13T13:23:20Z</time>
      </trkpt>
      <trkpt lat="49.16551" lon="-0.40549">
        <ele>2.4</ele>
        <time>2012-01-13T13:23:21Z</time>
      </trkpt>
      <trkpt lat="49.16551" lon="-0.4055">
        <ele>2.7</ele>
        <time>2012-01-13T13:23:22Z</time>
      </trkpt>
      <trkpt lat="49.1655" lon="-0.40551">
        <ele>3</ele>
        <time>2012-01-13T13:23:23Z</time>
      </trkpt>
      <trkpt lat="49.1655" lon="-0.40553">
        <ele>3.7</ele>
        <time>2012-01-13T13:23:24Z</time>
      </trkpt>
      <trkpt lat="49.16549" lon="-0.40554">
        <ele>4</ele>
        <time>2012-01-13T13:23:25Z</time>
      </trkpt>
      <trkpt lat="49.16549" lon="-0.40554">
        <ele>4.5</ele>
        <time>2012-01-13T13:23:26Z</time>
      </trkpt>
      <trkpt lat="49.16548" lon="-0.40555">
        <ele>5</ele>
        <time>2012-01-13T13:23:27Z</time>
      </trkpt>
      <trkpt lat="49.16548" lon="-0.40556">
        <ele>5</ele>
        <time>2012-01-13T13:23:28Z</time>
      </trkpt>
      <trkpt lat="49.16547" lon="-0.40557">
        <ele>5.5</ele>
        <time>2012-01-13T13:23:29Z</time>
      </trkpt>
      <trkpt lat="49.16546" lon="-0.40558">
        <ele>5.5</ele>
        <time>2012-01-13T13:23:30Z</time>
      </trkpt>
      <trkpt lat="49.16545" lon="-0.4056">
        <ele>5.5</ele>
        <time>2012-01-13T13:23:31Z</time>
      </trkpt>
      <trkpt lat="49.16544" lon="-0.40562">
        <ele>5.5</ele>
        <time>2012-01-13T13:23:32Z</time>
      </trkpt>
      <trkpt lat="49.16544" lon="-0.40563">
        <ele>5.5</ele>
        <time>2012-01-13T13:23:33Z</time>
      </trkpt>
      <trkpt lat="49.16543" lon="-0.40565">
        <ele>5.9</ele>
        <time>2012-01-13T13:23:34Z</time>
      </trkpt>
      <trkpt lat="49.16543" lon="-0.40566">
        <ele>5.9</ele>
        <time>2012-01-13T13:23:35Z</time>
      </trkpt>
      <trkpt lat="49.16542" lon="-0.40567">
        <ele>5.5</ele>
        <time>2012-01-13T13:23:36Z</time>
      </trkpt>
      <trkpt lat="49.16542" lon="-0.40568">
        <ele>5.5</ele>
        <time>2012-01-13T13:23:37Z</time>
      </trkpt>
      <trkpt lat="49.16541" lon="-0.4057">
        <ele>5.5</ele>
        <time>2012-01-13T13:23:38Z</time>
      </trkpt>
      <trkpt lat="49.16541" lon="-0.4057">
        <ele>5.5</ele>
        <time>2012-01-13T13:23:39Z</time>
      </trkpt>
      <trkpt lat="49.1654" lon="-0.40571">
        <ele>5.4</ele>
        <time>2012-01-13T13:23:40Z</time>
      </trkpt>
      <trkpt lat="49.16539" lon="-0.40573">
        <ele>5</ele>
        <time>2012-01-13T13:23:41Z</time>
      </trkpt>
      <trkpt lat="49.16538" lon="-0.40574">
        <ele>4.5</ele>
        <time>2012-01-13T13:23:42Z</time>
      </trkpt>
      <trkpt lat="49.16537" lon="-0.40575">
        <ele>4.8</ele>
        <time>2012-01-13T13:23:43Z</time>
      </trkpt>
      <trkpt lat="49.16536" lon="-0.40577">
        <ele>5</ele>
        <time>2012-01-13T13:23:44Z</time>
      </trkpt>
      <trkpt lat="49.16535" lon="-0.40578">
        <ele>5.5</ele>
        <time>2012-01-13T13:23:45Z</time>
      </trkpt>
      <trkpt lat="49.16535" lon="-0.4058">
        <ele>6</ele>
        <time>2012-01-13T13:23:46Z</time>
      </trkpt>
      <trkpt lat="49.16534" lon="-0.40581">
        <ele>6</ele>
        <time>2012-01-13T13:23:47Z</time>
      </trkpt>
      <trkpt lat="49.16533" lon="-0.40582">
        <ele>6</ele>
        <time>2012-01-13T13:23:48Z</time>
      </trkpt>
      <trkpt lat="49.16532" lon="-0.40582">
        <ele>5.9</ele>
        <time>2012-01-13T13:23:49Z</time>
      </trkpt>
      <trkpt lat="49.16531" lon="-0.40583">
        <ele>5.8</ele>
        <time>2012-01-13T13:23:50Z</time>
      </trkpt>
      <trkpt lat="49.1653" lon="-0.40585">
        <ele>5.5</ele>
        <time>2012-01-13T13:23:51Z</time>
      </trkpt>
      <trkpt lat="49.16529" lon="-0.40586">
        <ele>5.5</ele>
        <time>2012-01-13T13:23:52Z</time>
      </trkpt>
      <trkpt lat="49.16528" lon="-0.40587">
        <ele>5</ele>
        <time>2012-01-13T13:23:53Z</time>
      </trkpt>
      <trkpt lat="49.16527" lon="-0.40589">
        <ele>5</ele>
        <time>2012-01-13T13:23:54Z</time>
      </trkpt>
      <trkpt lat="49.16526" lon="-0.4059">
        <ele>5</ele>
        <time>2012-01-13T13:23:55Z</time>
      </trkpt>
      <trkpt lat="49.16525" lon="-0.40591">
        <ele>5</ele>
        <time>2012-01-13T13:23:56Z</time>
      </trkpt>
      <trkpt lat="49.16524" lon="-0.40592">
        <ele>5</ele>
        <time>2012-01-13T13:23:57Z</time>
      </trkpt>
      <trkpt lat="49.16523" lon="-0.40592">
        <ele>5</ele>
        <time>2012-01-13T13:23:58Z</time>
      </trkpt>
      <trkpt lat="49.16522" lon="-0.40593">
        <ele>4.9</ele>
        <time>2012-01-13T13:23:59Z</time>
      </trkpt>
      <trkpt lat="49.16521" lon="-0.40594">
        <ele>4.8</ele>
        <time>2012-01-13T13:24:00Z</time>
      </trkpt>
      <trkpt lat="49.1652" lon="-0.40594">
        <ele>4.5</ele>
        <time>2012-01-13T13:24:01Z</time>
      </trkpt>
      <trkpt lat="49.16519" lon="-0.40595">
        <ele>4.5</ele>
        <time>2012-01-13T13:24:02Z</time>
      </trkpt>
      <trkpt lat="49.16518" lon="-0.40595">
        <ele>4.5</ele>
        <time>2012-01-13T13:24:03Z</time>
      </trkpt>
      <trkpt lat="49.16517" lon="-0.40596">
        <ele>4.5</ele>
        <time>2012-01-13T13:24:04Z</time>
      </trkpt>
      <trkpt lat="49.16516" lon="-0.40597">
        <ele>4.5</ele>
        <time>2012-01-13T13:24:05Z</time>
      </trkpt>
      <trkpt lat="49.16515" lon="-0.40598">
        <ele>4.5</ele>
        <time>2012-01-13T13:24:06Z</time>
      </trkpt>
      <trkpt lat="49.16514" lon="-0.40598">
        <ele>4.5</ele>
        <time>2012-01-13T13:24:07Z</time>
      </trkpt>
      <trkpt lat="49.16513" lon="-0.40599">
        <ele>4.8</ele>
        <time>2012-01-13T13:24:08Z</time>
      </trkpt>
      <trkpt lat="49.16512" lon="-0.40599">
        <ele>4.8</ele>
        <time>2012-01-13T13:24:09Z</time>
      </trkpt>
      <trkpt lat="49.16511" lon="-0.40599">
        <ele>4.8</ele>
        <time>2012-01-13T13:24:10Z</time>
      </trkpt>
      <trkpt lat="49.1651" lon="-0.406">
        <ele>4.9</ele>
        <time>2012-01-13T13:24:11Z</time>
      </trkpt>
      <trkpt lat="49.16509" lon="-0.406">
        <ele>5</ele>
        <time>2012-01-13T13:24:12Z</time>
      </trkpt>
      <trkpt lat="49.16508" lon="-0.40601">
        <ele>4.9</ele>
        <time>2012-01-13T13:24:13Z</time>
      </trkpt>
      <trkpt lat="49.16507" lon="-0.40601">
        <ele>5</ele>
        <time>2012-01-13T13:24:14Z</time>
      </trkpt>
      <trkpt lat="49.16506" lon="-0.40602">
        <ele>4.9</ele>
        <time>2012-01-13T13:24:15Z</time>
      </trkpt>
      <trkpt lat="49.16505" lon="-0.40602">
        <ele>5</ele>
        <time>2012-01-13T13:24:16Z</time>
      </trkpt>
      <trkpt lat="49.16504" lon="-0.40603">
        <ele>5</ele>
        <time>2012-01-13T13:24:17Z</time>
      </trkpt>
      <trkpt lat="49.16503" lon="-0.40603">
        <ele>5</ele>
        <time>2012-01-13T13:24:18Z</time>
      </trkpt>
      <trkpt lat="49.16502" lon="-0.40604">
        <ele>5.3</ele>
        <time>2012-01-13T13:24:19Z</time>
      </trkpt>
      <trkpt lat="49.16501" lon="-0.40605">
        <ele>5.5</ele>
        <time>2012-01-13T13:24:20Z</time>
      </trkpt>
      <trkpt lat="49.165" lon="-0.40607">
        <ele>5.5</ele>
        <time>2012-01-13T13:24:21Z</time>
      </trkpt>
      <trkpt lat="49.16499" lon="-0.40608">
        <ele>5.5</ele>
        <time>2012-01-13T13:24:22Z</time>
      </trkpt>
      <trkpt lat="49.16498" lon="-0.40609">
        <ele>5.3</ele>
        <time>2012-01-13T13:24:23Z</time>
      </trkpt>
      <trkpt lat="49.16497" lon="-0.40611">
        <ele>4.8</ele>
        <time>2012-01-13T13:24:24Z</time>
      </trkpt>
      <trkpt lat="49.16496" lon="-0.40612">
        <ele>4.5</ele>
        <time>2012-01-13T13:24:25Z</time>
      </trkpt>
      <trkpt lat="49.16495" lon="-0.40614">
        <ele>4.5</ele>
        <time>2012-01-13T13:24:26Z</time>
      </trkpt>
      <trkpt lat="49.16494" lon="-0.40616">
        <ele>4.9</ele>
        <time>2012-01-13T13:24:27Z</time>
      </trkpt>
      <trkpt lat="49.16493" lon="-0.40617">
        <ele>5.4</ele>
        <time>2012-01-13T13:24:28Z</time>
      </trkpt>
      <trkpt lat="49.16492" lon="-0.40618">
        <ele>5.4</ele>
        <time>2012-01-13T13:24:29Z</time>
      </trkpt>
      <trkpt lat="49.16492" lon="-0.40619">
        <ele>5.5</ele>
        <time>2012-01-13T13:24:30Z</time>
      </trkpt>
      <trkpt lat="49.16491" lon="-0.4062">
        <ele>5.4</ele>
        <time>2012-01-13T13:24:31Z</time>
      </trkpt>
      <trkpt lat="49.16491" lon="-0.40621">
        <ele>5.5</ele>
        <time>2012-01-13T13:24:32Z</time>
      </trkpt>
      <trkpt lat="49.1649" lon="-0.40623">
        <ele>5.5</ele>
        <time>2012-01-13T13:24:33Z</time>
      </trkpt>
      <trkpt lat="49.1649" lon="-0.40624">
        <ele>5.8</ele>
        <time>2012-01-13T13:24:34Z</time>
      </trkpt>
      <trkpt lat="49.1649" lon="-0.40625">
        <ele>5.9</ele>
        <time>2012-01-13T13:24:35Z</time>
      </trkpt>
      <trkpt lat="49.16489" lon="-0.40627">
        <ele>5.5</ele>
        <time>2012-01-13T13:24:36Z</time>
      </trkpt>
      <trkpt lat="49.16488" lon="-0.40629">
        <ele>5.5</ele>
        <time>2012-01-13T13:24:37Z</time>
      </trkpt>
      <trkpt lat="49.16488" lon="-0.40631">
        <ele>5.9</ele>
        <time>2012-01-13T13:24:38Z</time>
      </trkpt>
      <trkpt lat="49.16488" lon="-0.40632">
        <ele>6.3</ele>
        <time>2012-01-13T13:24:39Z</time>
      </trkpt>
      <trkpt lat="49.16488" lon="-0.40634">
        <ele>6.5</ele>
        <time>2012-01-13T13:24:40Z</time>
      </trkpt>
      <trkpt lat="49.16488" lon="-0.40636">
        <ele>6.5</ele>
        <time>2012-01-13T13:24:41Z</time>
      </trkpt>
      <trkpt lat="49.16488" lon="-0.40638">
        <ele>6.8</ele>
        <time>2012-01-13T13:24:42Z</time>
      </trkpt>
      <trkpt lat="49.16488" lon="-0.40639">
        <ele>6.9</ele>
        <time>2012-01-13T13:24:43Z</time>
      </trkpt>
      <trkpt lat="49.16488" lon="-0.40641">
        <ele>6.8</ele>
        <time>2012-01-13T13:24:44Z</time>
      </trkpt>
      <trkpt lat="49.16487" lon="-0.40642">
        <ele>6.9</ele>
        <time>2012-01-13T13:24:45Z</time>
      </trkpt>
      <trkpt lat="49.16486" lon="-0.40642">
        <ele>6.4</ele>
        <time>2012-01-13T13:24:46Z</time>
      </trkpt>
      <trkpt lat="49.16486" lon="-0.40643">
        <ele>6.4</ele>
        <time>2012-01-13T13:24:47Z</time>
      </trkpt>
      <trkpt lat="49.16486" lon="-0.40643">
        <ele>6.3</ele>
        <time>2012-01-13T13:24:48Z</time>
      </trkpt>
      <trkpt lat="49.16486" lon="-0.40643">
        <ele>6.4</ele>
        <time>2012-01-13T13:24:49Z</time>
      </trkpt>
      <trkpt lat="49.16486" lon="-0.40643">
        <ele>6.4</ele>
        <time>2012-01-13T13:24:50Z</time>
      </trkpt>
      <trkpt lat="49.16485" lon="-0.40644">
        <ele>6.4</ele>
        <time>2012-01-13T13:24:51Z</time>
      </trkpt>
      <trkpt lat="49.16485" lon="-0.40644">
        <ele>6.4</ele>
        <time>2012-01-13T13:24:52Z</time>
      </trkpt>
      <trkpt lat="49.16485" lon="-0.40645">
        <ele>6</ele>
        <time>2012-01-13T13:24:53Z</time>
      </trkpt>
      <trkpt lat="49.16484" lon="-0.40646">
        <ele>6.3</ele>
        <time>2012-01-13T13:24:54Z</time>
      </trkpt>
      <trkpt lat="49.16483" lon="-0.40647">
        <ele>6.5</ele>
        <time>2012-01-13T13:24:55Z</time>
      </trkpt>
      <trkpt lat="49.16483" lon="-0.40647">
        <ele>6.5</ele>
        <time>2012-01-13T13:24:56Z</time>
      </trkpt>
      <trkpt lat="49.16482" lon="-0.40647">
        <ele>6.5</ele>
        <time>2012-01-13T13:24:57Z</time>
      </trkpt>
      <trkpt lat="49.16482" lon="-0.40647">
        <ele>6.5</ele>
        <time>2012-01-13T13:24:58Z</time>
      </trkpt>
      <trkpt lat="49.16482" lon="-0.40648">
        <ele>6.4</ele>
        <time>2012-01-13T13:24:59Z</time>
      </trkpt>
      <trkpt lat="49.16483" lon="-0.40648">
        <ele>6.3</ele>
        <time>2012-01-13T13:25:00Z</time>
      </trkpt>
      <trkpt lat="49.16484" lon="-0.40648">
        <ele>6</ele>
        <time>2012-01-13T13:25:01Z</time>
      </trkpt>
      <trkpt lat="49.16485" lon="-0.40648">
        <ele>6</ele>
        <time>2012-01-13T13:25:02Z</time>
      </trkpt>
      <trkpt lat="49.16486" lon="-0.40648">
        <ele>6</ele>
        <time>2012-01-13T13:25:03Z</time>
      </trkpt>
      <trkpt lat="49.16487" lon="-0.40648">
        <ele>6</ele>
        <time>2012-01-13T13:25:04Z</time>
      </trkpt>
      <trkpt lat="49.16488" lon="-0.40649">
        <ele>5.9</ele>
        <time>2012-01-13T13:25:05Z</time>
      </trkpt>
      <trkpt lat="49.16489" lon="-0.4065">
        <ele>5.5</ele>
        <time>2012-01-13T13:25:06Z</time>
      </trkpt>
      <trkpt lat="49.1649" lon="-0.40651">
        <ele>5</ele>
        <time>2012-01-13T13:25:07Z</time>
      </trkpt>
      <trkpt lat="49.16491" lon="-0.40652">
        <ele>4.5</ele>
        <time>2012-01-13T13:25:08Z</time>
      </trkpt>
      <trkpt lat="49.16491" lon="-0.40653">
        <ele>3.7</ele>
        <time>2012-01-13T13:25:09Z</time>
      </trkpt>
      <trkpt lat="49.16492" lon="-0.40655">
        <ele>3.7</ele>
        <time>2012-01-13T13:25:10Z</time>
      </trkpt>
      <trkpt lat="49.16493" lon="-0.40656">
        <ele>3.9</ele>
        <time>2012-01-13T13:25:11Z</time>
      </trkpt>
      <trkpt lat="49.16493" lon="-0.40657">
        <ele>3.9</ele>
        <time>2012-01-13T13:25:12Z</time>
      </trkpt>
      <trkpt lat="49.16494" lon="-0.40658">
        <ele>4.9</ele>
        <time>2012-01-13T13:25:13Z</time>
      </trkpt>
      <trkpt lat="49.16495" lon="-0.40659">
        <ele>5.5</ele>
        <time>2012-01-13T13:25:14Z</time>
      </trkpt>
      <trkpt lat="49.16495" lon="-0.4066">
        <ele>5.9</ele>
        <time>2012-01-13T13:25:15Z</time>
      </trkpt>
      <trkpt lat="49.16496" lon="-0.4066">
        <ele>6.3</ele>
        <time>2012-01-13T13:25:16Z</time>
      </trkpt>
      <trkpt lat="49.16496" lon="-0.40661">
        <ele>6</ele>
        <time>2012-01-13T13:25:17Z</time>
      </trkpt>
      <trkpt lat="49.16496" lon="-0.40661">
        <ele>6</ele>
        <time>2012-01-13T13:25:18Z</time>
      </trkpt>
      <trkpt lat="49.16496" lon="-0.40661">
        <ele>5.8</ele>
        <time>2012-01-13T13:25:19Z</time>
      </trkpt>
      <trkpt lat="49.16495" lon="-0.40662">
        <ele>5.9</ele>
        <time>2012-01-13T13:25:20Z</time>
      </trkpt>
      <trkpt lat="49.16495" lon="-0.40662">
        <ele>6</ele>
        <time>2012-01-13T13:25:21Z</time>
      </trkpt>
      <trkpt lat="49.16495" lon="-0.40662">
        <ele>6</ele>
        <time>2012-01-13T13:25:22Z</time>
      </trkpt>
      <trkpt lat="49.16494" lon="-0.40663">
        <ele>6.3</ele>
        <time>2012-01-13T13:25:23Z</time>
      </trkpt>
      <trkpt lat="49.16494" lon="-0.40664">
        <ele>6.3</ele>
        <time>2012-01-13T13:25:24Z</time>
      </trkpt>
      <trkpt lat="49.16493" lon="-0.40665">
        <ele>6.3</ele>
        <time>2012-01-13T13:25:25Z</time>
      </trkpt>
      <trkpt lat="49.16492" lon="-0.40665">
        <ele>6.3</ele>
        <time>2012-01-13T13:25:26Z</time>
      </trkpt>
      <trkpt lat="49.16491" lon="-0.40666">
        <ele>6.4</ele>
        <time>2012-01-13T13:25:27Z</time>
      </trkpt>
      <trkpt lat="49.1649" lon="-0.40667">
        <ele>6</ele>
        <time>2012-01-13T13:25:28Z</time>
      </trkpt>
      <trkpt lat="49.16489" lon="-0.40667">
        <ele>5.5</ele>
        <time>2012-01-13T13:25:29Z</time>
      </trkpt>
      <trkpt lat="49.16488" lon="-0.40668">
        <ele>5.5</ele>
        <time>2012-01-13T13:25:30Z</time>
      </trkpt>
      <trkpt lat="49.16487" lon="-0.40668">
        <ele>5.5</ele>
        <time>2012-01-13T13:25:31Z</time>
      </trkpt>
      <trkpt lat="49.16486" lon="-0.40668">
        <ele>5.5</ele>
        <time>2012-01-13T13:25:32Z</time>
      </trkpt>
      <trkpt lat="49.16484" lon="-0.40668">
        <ele>5.8</ele>
        <time>2012-01-13T13:25:33Z</time>
      </trkpt>
      <trkpt lat="49.16483" lon="-0.40668">
        <ele>5.5</ele>
        <time>2012-01-13T13:25:34Z</time>
      </trkpt>
      <trkpt lat="49.16482" lon="-0.40669">
        <ele>5.8</ele>
        <time>2012-01-13T13:25:35Z</time>
      </trkpt>
      <trkpt lat="49.16481" lon="-0.40669">
        <ele>6</ele>
        <time>2012-01-13T13:25:36Z</time>
      </trkpt>
      <trkpt lat="49.1648" lon="-0.40669">
        <ele>6.3</ele>
        <time>2012-01-13T13:25:37Z</time>
      </trkpt>
      <trkpt lat="49.16479" lon="-0.40669">
        <ele>6.5</ele>
        <time>2012-01-13T13:25:38Z</time>
      </trkpt>
      <trkpt lat="49.16478" lon="-0.40669">
        <ele>6.5</ele>
        <time>2012-01-13T13:25:39Z</time>
      </trkpt>
      <trkpt lat="49.16477" lon="-0.40669">
        <ele>6.5</ele>
        <time>2012-01-13T13:25:40Z</time>
      </trkpt>
      <trkpt lat="49.16476" lon="-0.40669">
        <ele>6.9</ele>
        <time>2012-01-13T13:25:41Z</time>
      </trkpt>
      <trkpt lat="49.16475" lon="-0.40668">
        <ele>6.9</ele>
        <time>2012-01-13T13:25:42Z</time>
      </trkpt>
      <trkpt lat="49.16474" lon="-0.40668">
        <ele>6.9</ele>
        <time>2012-01-13T13:25:43Z</time>
      </trkpt>
      <trkpt lat="49.16474" lon="-0.40668">
        <ele>6.8</ele>
        <time>2012-01-13T13:25:44Z</time>
      </trkpt>
      <trkpt lat="49.16473" lon="-0.40668">
        <ele>6.8</ele>
        <time>2012-01-13T13:25:45Z</time>
      </trkpt>
      <trkpt lat="49.16472" lon="-0.40668">
        <ele>6.8</ele>
        <time>2012-01-13T13:25:46Z</time>
      </trkpt>
      <trkpt lat="49.16471" lon="-0.40669">
        <ele>6.8</ele>
        <time>2012-01-13T13:25:47Z</time>
      </trkpt>
      <trkpt lat="49.1647" lon="-0.40669">
        <ele>7</ele>
        <time>2012-01-13T13:25:48Z</time>
      </trkpt>
      <trkpt lat="49.16469" lon="-0.40669">
        <ele>7</ele>
        <time>2012-01-13T13:25:49Z</time>
      </trkpt>
      <trkpt lat="49.16467" lon="-0.4067">
        <ele>7.4</ele>
        <time>2012-01-13T13:25:50Z</time>
      </trkpt>
      <trkpt lat="49.16466" lon="-0.4067">
        <ele>7.5</ele>
        <time>2012-01-13T13:25:51Z</time>
      </trkpt>
      <trkpt lat="49.16465" lon="-0.4067">
        <ele>7.4</ele>
        <time>2012-01-13T13:25:52Z</time>
      </trkpt>
      <trkpt lat="49.16464" lon="-0.4067">
        <ele>7</ele>
        <time>2012-01-13T13:25:53Z</time>
      </trkpt>
      <trkpt lat="49.16463" lon="-0.40669">
        <ele>7</ele>
        <time>2012-01-13T13:25:54Z</time>
      </trkpt>
      <trkpt lat="49.16462" lon="-0.40669">
        <ele>6.9</ele>
        <time>2012-01-13T13:25:55Z</time>
      </trkpt>
      <trkpt lat="49.16461" lon="-0.40668">
        <ele>6.5</ele>
        <time>2012-01-13T13:25:56Z</time>
      </trkpt>
      <trkpt lat="49.1646" lon="-0.40668">
        <ele>6.5</ele>
        <time>2012-01-13T13:25:57Z</time>
      </trkpt>
      <trkpt lat="49.16459" lon="-0.40667">
        <ele>6.5</ele>
        <time>2012-01-13T13:25:58Z</time>
      </trkpt>
      <trkpt lat="49.16458" lon="-0.40667">
        <ele>6.5</ele>
        <time>2012-01-13T13:25:59Z</time>
      </trkpt>
      <trkpt lat="49.16457" lon="-0.40667">
        <ele>6.5</ele>
        <time>2012-01-13T13:26:00Z</time>
      </trkpt>
      <trkpt lat="49.16456" lon="-0.40666">
        <ele>6.8</ele>
        <time>2012-01-13T13:26:01Z</time>
      </trkpt>
      <trkpt lat="49.16455" lon="-0.40666">
        <ele>7</ele>
        <time>2012-01-13T13:26:02Z</time>
      </trkpt>
      <trkpt lat="49.16454" lon="-0.40665">
        <ele>6.9</ele>
        <time>2012-01-13T13:26:03Z</time>
      </trkpt>
      <trkpt lat="49.16453" lon="-0.40665">
        <ele>7</ele>
        <time>2012-01-13T13:26:04Z</time>
      </trkpt>
      <trkpt lat="49.16453" lon="-0.40665">
        <ele>7</ele>
        <time>2012-01-13T13:26:05Z</time>
      </trkpt>
      <trkpt lat="49.16452" lon="-0.40665">
        <ele>6.9</ele>
        <time>2012-01-13T13:26:06Z</time>
      </trkpt>
      <trkpt lat="49.16451" lon="-0.40664">
        <ele>6.9</ele>
        <time>2012-01-13T13:26:07Z</time>
      </trkpt>
      <trkpt lat="49.1645" lon="-0.40664">
        <ele>6.8</ele>
        <time>2012-01-13T13:26:08Z</time>
      </trkpt>
      <trkpt lat="49.16449" lon="-0.40663">
        <ele>6.5</ele>
        <time>2012-01-13T13:26:09Z</time>
      </trkpt>
      <trkpt lat="49.16448" lon="-0.40663">
        <ele>6.5</ele>
        <time>2012-01-13T13:26:10Z</time>
      </trkpt>
      <trkpt lat="49.16447" lon="-0.40663">
        <ele>6.4</ele>
        <time>2012-01-13T13:26:11Z</time>
      </trkpt>
      <trkpt lat="49.16446" lon="-0.40662">
        <ele>6</ele>
        <time>2012-01-13T13:26:12Z</time>
      </trkpt>
      <trkpt lat="49.16445" lon="-0.40662">
        <ele>6</ele>
        <time>2012-01-13T13:26:13Z</time>
      </trkpt>
      <trkpt lat="49.16444" lon="-0.40661">
        <ele>6</ele>
        <time>2012-01-13T13:26:14Z</time>
      </trkpt>
      <trkpt lat="49.16443" lon="-0.40661">
        <ele>5.9</ele>
        <time>2012-01-13T13:26:15Z</time>
      </trkpt>
      <trkpt lat="49.16442" lon="-0.40661">
        <ele>5.5</ele>
        <time>2012-01-13T13:26:16Z</time>
      </trkpt>
      <trkpt lat="49.16441" lon="-0.40661">
        <ele>5.9</ele>
        <time>2012-01-13T13:26:17Z</time>
      </trkpt>
      <trkpt lat="49.1644" lon="-0.40662">
        <ele>6</ele>
        <time>2012-01-13T13:26:18Z</time>
      </trkpt>
      <trkpt lat="49.1644" lon="-0.40662">
        <ele>6.5</ele>
        <time>2012-01-13T13:26:19Z</time>
      </trkpt>
      <trkpt lat="49.16439" lon="-0.40663">
        <ele>6.5</ele>
        <time>2012-01-13T13:26:20Z</time>
      </trkpt>
      <trkpt lat="49.16439" lon="-0.40664">
        <ele>6.5</ele>
        <time>2012-01-13T13:26:21Z</time>
      </trkpt>
      <trkpt lat="49.16438" lon="-0.40665">
        <ele>6.9</ele>
        <time>2012-01-13T13:26:22Z</time>
      </trkpt>
      <trkpt lat="49.16437" lon="-0.40666">
        <ele>7</ele>
        <time>2012-01-13T13:26:23Z</time>
      </trkpt>
      <trkpt lat="49.16437" lon="-0.40667">
        <ele>7</ele>
        <time>2012-01-13T13:26:24Z</time>
      </trkpt>
      <trkpt lat="49.16436" lon="-0.40668">
        <ele>7.3</ele>
        <time>2012-01-13T13:26:25Z</time>
      </trkpt>
      <trkpt lat="49.16435" lon="-0.40668">
        <ele>7.5</ele>
        <time>2012-01-13T13:26:26Z</time>
      </trkpt>
      <trkpt lat="49.16435" lon="-0.40669">
        <ele>7.5</ele>
        <time>2012-01-13T13:26:27Z</time>
      </trkpt>
      <trkpt lat="49.16434" lon="-0.4067">
        <ele>7.5</ele>
        <time>2012-01-13T13:26:28Z</time>
      </trkpt>
      <trkpt lat="49.16433" lon="-0.40672">
        <ele>7.8</ele>
        <time>2012-01-13T13:26:29Z</time>
      </trkpt>
      <trkpt lat="49.16432" lon="-0.40674">
        <ele>8</ele>
        <time>2012-01-13T13:26:30Z</time>
      </trkpt>
      <trkpt lat="49.16432" lon="-0.40676">
        <ele>8.1</ele>
        <time>2012-01-13T13:26:31Z</time>
      </trkpt>
      <trkpt lat="49.16431" lon="-0.40677">
        <ele>8</ele>
        <time>2012-01-13T13:26:32Z</time>
      </trkpt>
      <trkpt lat="49.16431" lon="-0.40679">
        <ele>7.8</ele>
        <time>2012-01-13T13:26:33Z</time>
      </trkpt>
      <trkpt lat="49.1643" lon="-0.4068">
        <ele>7.8</ele>
        <time>2012-01-13T13:26:34Z</time>
      </trkpt>
      <trkpt lat="49.16429" lon="-0.40681">
        <ele>7.5</ele>
        <time>2012-01-13T13:26:35Z</time>
      </trkpt>
      <trkpt lat="49.16429" lon="-0.40682">
        <ele>7.3</ele>
        <time>2012-01-13T13:26:36Z</time>
      </trkpt>
      <trkpt lat="49.16428" lon="-0.40684">
        <ele>7.4</ele>
        <time>2012-01-13T13:26:37Z</time>
      </trkpt>
      <trkpt lat="49.16428" lon="-0.40685">
        <ele>7.3</ele>
        <time>2012-01-13T13:26:38Z</time>
      </trkpt>
      <trkpt lat="49.16427" lon="-0.40686">
        <ele>7.4</ele>
        <time>2012-01-13T13:26:39Z</time>
      </trkpt>
      <trkpt lat="49.16427" lon="-0.40687">
        <ele>7.3</ele>
        <time>2012-01-13T13:26:40Z</time>
      </trkpt>
      <trkpt lat="49.16426" lon="-0.40688">
        <ele>7</ele>
        <time>2012-01-13T13:26:41Z</time>
      </trkpt>
      <trkpt lat="49.16426" lon="-0.40689">
        <ele>6.9</ele>
        <time>2012-01-13T13:26:42Z</time>
      </trkpt>
      <trkpt lat="49.16425" lon="-0.40691">
        <ele>7</ele>
        <time>2012-01-13T13:26:43Z</time>
      </trkpt>
      <trkpt lat="49.16424" lon="-0.40692">
        <ele>6.9</ele>
        <time>2012-01-13T13:26:44Z</time>
      </trkpt>
      <trkpt lat="49.16424" lon="-0.40693">
        <ele>7.5</ele>
        <time>2012-01-13T13:26:45Z</time>
      </trkpt>
      <trkpt lat="49.16424" lon="-0.40695">
        <ele>7</ele>
        <time>2012-01-13T13:26:46Z</time>
      </trkpt>
      <trkpt lat="49.16424" lon="-0.40696">
        <ele>7</ele>
        <time>2012-01-13T13:26:47Z</time>
      </trkpt>
      <trkpt lat="49.16423" lon="-0.40697">
        <ele>6.5</ele>
        <time>2012-01-13T13:26:48Z</time>
      </trkpt>
      <trkpt lat="49.16423" lon="-0.40698">
        <ele>5.9</ele>
        <time>2012-01-13T13:26:49Z</time>
      </trkpt>
      <trkpt lat="49.16422" lon="-0.40698">
        <ele>5.9</ele>
        <time>2012-01-13T13:26:50Z</time>
      </trkpt>
      <trkpt lat="49.16421" lon="-0.40698">
        <ele>5.3</ele>
        <time>2012-01-13T13:26:51Z</time>
      </trkpt>
      <trkpt lat="49.1642" lon="-0.40699">
        <ele>4.3</ele>
        <time>2012-01-13T13:26:52Z</time>
      </trkpt>
      <trkpt lat="49.16419" lon="-0.40699">
        <ele>3.5</ele>
        <time>2012-01-13T13:26:53Z</time>
      </trkpt>
      <trkpt lat="49.16418" lon="-0.40699">
        <ele>2.5</ele>
        <time>2012-01-13T13:26:54Z</time>
      </trkpt>
      <trkpt lat="49.16417" lon="-0.40699">
        <ele>2.2</ele>
        <time>2012-01-13T13:26:55Z</time>
      </trkpt>
      <trkpt lat="49.16417" lon="-0.407">
        <ele>2</ele>
        <time>2012-01-13T13:26:56Z</time>
      </trkpt>
      <trkpt lat="49.16416" lon="-0.40701">
        <ele>2.5</ele>
        <time>2012-01-13T13:26:57Z</time>
      </trkpt>
      <trkpt lat="49.16414" lon="-0.40701">
        <ele>2.5</ele>
        <time>2012-01-13T13:26:58Z</time>
      </trkpt>
      <trkpt lat="49.16413" lon="-0.40702">
        <ele>2.5</ele>
        <time>2012-01-13T13:26:59Z</time>
      </trkpt>
      <trkpt lat="49.16412" lon="-0.40702">
        <ele>2.7</ele>
        <time>2012-01-13T13:27:00Z</time>
      </trkpt>
      <trkpt lat="49.16411" lon="-0.40702">
        <ele>2.2</ele>
        <time>2012-01-13T13:27:01Z</time>
      </trkpt>
      <trkpt lat="49.1641" lon="-0.40702">
        <ele>2</ele>
        <time>2012-01-13T13:27:02Z</time>
      </trkpt>
      <trkpt lat="49.16408" lon="-0.40702">
        <ele>1.7</ele>
        <time>2012-01-13T13:27:03Z</time>
      </trkpt>
      <trkpt lat="49.16407" lon="-0.40701">
        <ele>1.7</ele>
        <time>2012-01-13T13:27:04Z</time>
      </trkpt>
      <trkpt lat="49.16406" lon="-0.40701">
        <ele>1.5</ele>
        <time>2012-01-13T13:27:05Z</time>
      </trkpt>
      <trkpt lat="49.16405" lon="-0.40701">
        <ele>1.2</ele>
        <time>2012-01-13T13:27:06Z</time>
      </trkpt>
      <trkpt lat="49.16404" lon="-0.407">
        <ele>1.2</ele>
        <time>2012-01-13T13:27:07Z</time>
      </trkpt>
      <trkpt lat="49.16403" lon="-0.407">
        <ele>1.1</ele>
        <time>2012-01-13T13:27:08Z</time>
      </trkpt>
      <trkpt lat="49.16402" lon="-0.40699">
        <ele>1.2</ele>
        <time>2012-01-13T13:27:09Z</time>
      </trkpt>
      <trkpt lat="49.16401" lon="-0.40698">
        <ele>1.5</ele>
        <time>2012-01-13T13:27:10Z</time>
      </trkpt>
      <trkpt lat="49.16399" lon="-0.40697">
        <ele>2</ele>
        <time>2012-01-13T13:27:11Z</time>
      </trkpt>
      <trkpt lat="49.16398" lon="-0.40696">
        <ele>2.2</ele>
        <time>2012-01-13T13:27:12Z</time>
      </trkpt>
      <trkpt lat="49.16397" lon="-0.40695">
        <ele>2.5</ele>
        <time>2012-01-13T13:27:13Z</time>
      </trkpt>
      <trkpt lat="49.16396" lon="-0.40694">
        <ele>2</ele>
        <time>2012-01-13T13:27:14Z</time>
      </trkpt>
      <trkpt lat="49.16395" lon="-0.40692">
        <ele>2</ele>
        <time>2012-01-13T13:27:15Z</time>
      </trkpt>
      <trkpt lat="49.16395" lon="-0.40691">
        <ele>2</ele>
        <time>2012-01-13T13:27:16Z</time>
      </trkpt>
      <trkpt lat="49.16394" lon="-0.4069">
        <ele>1.7</ele>
        <time>2012-01-13T13:27:17Z</time>
      </trkpt>
      <trkpt lat="49.16393" lon="-0.40689">
        <ele>1.7</ele>
        <time>2012-01-13T13:27:18Z</time>
      </trkpt>
      <trkpt lat="49.16392" lon="-0.40688">
        <ele>1.7</ele>
        <time>2012-01-13T13:27:19Z</time>
      </trkpt>
      <trkpt lat="49.16391" lon="-0.40687">
        <ele>1.6</ele>
        <time>2012-01-13T13:27:20Z</time>
      </trkpt>
      <trkpt lat="49.1639" lon="-0.40686">
        <ele>1.6</ele>
        <time>2012-01-13T13:27:21Z</time>
      </trkpt>
      <trkpt lat="49.16389" lon="-0.40685">
        <ele>1.6</ele>
        <time>2012-01-13T13:27:22Z</time>
      </trkpt>
      <trkpt lat="49.16388" lon="-0.40684">
        <ele>1.6</ele>
        <time>2012-01-13T13:27:23Z</time>
      </trkpt>
      <trkpt lat="49.16387" lon="-0.40683">
        <ele>1.5</ele>
        <time>2012-01-13T13:27:24Z</time>
      </trkpt>
      <trkpt lat="49.16386" lon="-0.40682">
        <ele>1.6</ele>
        <time>2012-01-13T13:27:25Z</time>
      </trkpt>
      <trkpt lat="49.16385" lon="-0.40681">
        <ele>1.6</ele>
        <time>2012-01-13T13:27:26Z</time>
      </trkpt>
      <trkpt lat="49.16384" lon="-0.40681">
        <ele>1.5</ele>
        <time>2012-01-13T13:27:27Z</time>
      </trkpt>
      <trkpt lat="49.16383" lon="-0.4068">
        <ele>1.5</ele>
        <time>2012-01-13T13:27:28Z</time>
      </trkpt>
      <trkpt lat="49.16382" lon="-0.40679">
        <ele>1.6</ele>
        <time>2012-01-13T13:27:29Z</time>
      </trkpt>
      <trkpt lat="49.16381" lon="-0.40678">
        <ele>1.5</ele>
        <time>2012-01-13T13:27:30Z</time>
      </trkpt>
      <trkpt lat="49.1638" lon="-0.40677">
        <ele>1.5</ele>
        <time>2012-01-13T13:27:31Z</time>
      </trkpt>
      <trkpt lat="49.1638" lon="-0.40676">
        <ele>1.5</ele>
        <time>2012-01-13T13:27:32Z</time>
      </trkpt>
      <trkpt lat="49.16379" lon="-0.40674">
        <ele>2</ele>
        <time>2012-01-13T13:27:33Z</time>
      </trkpt>
      <trkpt lat="49.16378" lon="-0.40674">
        <ele>2.5</ele>
        <time>2012-01-13T13:27:34Z</time>
      </trkpt>
      <trkpt lat="49.16377" lon="-0.40673">
        <ele>3</ele>
        <time>2012-01-13T13:27:35Z</time>
      </trkpt>
      <trkpt lat="49.16376" lon="-0.40672">
        <ele>3.2</ele>
        <time>2012-01-13T13:27:36Z</time>
      </trkpt>
      <trkpt lat="49.16375" lon="-0.40671">
        <ele>3.5</ele>
        <time>2012-01-13T13:27:37Z</time>
      </trkpt>
      <trkpt lat="49.16374" lon="-0.4067">
        <ele>3.4</ele>
        <time>2012-01-13T13:27:38Z</time>
      </trkpt>
      <trkpt lat="49.16373" lon="-0.40669">
        <ele>3.4</ele>
        <time>2012-01-13T13:27:39Z</time>
      </trkpt>
      <trkpt lat="49.16372" lon="-0.40668">
        <ele>3.5</ele>
        <time>2012-01-13T13:27:40Z</time>
      </trkpt>
      <trkpt lat="49.16371" lon="-0.40667">
        <ele>3.4</ele>
        <time>2012-01-13T13:27:41Z</time>
      </trkpt>
      <trkpt lat="49.1637" lon="-0.40666">
        <ele>3.4</ele>
        <time>2012-01-13T13:27:42Z</time>
      </trkpt>
      <trkpt lat="49.16369" lon="-0.40665">
        <ele>3.5</ele>
        <time>2012-01-13T13:27:43Z</time>
      </trkpt>
      <trkpt lat="49.16368" lon="-0.40664">
        <ele>3.4</ele>
        <time>2012-01-13T13:27:44Z</time>
      </trkpt>
      <trkpt lat="49.16367" lon="-0.40663">
        <ele>3.4</ele>
        <time>2012-01-13T13:27:45Z</time>
      </trkpt>
      <trkpt lat="49.16366" lon="-0.40662">
        <ele>3.4</ele>
        <time>2012-01-13T13:27:46Z</time>
      </trkpt>
      <trkpt lat="49.16365" lon="-0.40661">
        <ele>3.5</ele>
        <time>2012-01-13T13:27:47Z</time>
      </trkpt>
      <trkpt lat="49.16365" lon="-0.40659">
        <ele>3.9</ele>
        <time>2012-01-13T13:27:48Z</time>
      </trkpt>
      <trkpt lat="49.16364" lon="-0.40658">
        <ele>4</ele>
        <time>2012-01-13T13:27:49Z</time>
      </trkpt>
      <trkpt lat="49.16363" lon="-0.40657">
        <ele>3.9</ele>
        <time>2012-01-13T13:27:50Z</time>
      </trkpt>
      <trkpt lat="49.16363" lon="-0.40656">
        <ele>3.7</ele>
        <time>2012-01-13T13:27:51Z</time>
      </trkpt>
      <trkpt lat="49.16362" lon="-0.40654">
        <ele>3.9</ele>
        <time>2012-01-13T13:27:52Z</time>
      </trkpt>
      <trkpt lat="49.16362" lon="-0.40653">
        <ele>4</ele>
        <time>2012-01-13T13:27:53Z</time>
      </trkpt>
      <trkpt lat="49.16361" lon="-0.40652">
        <ele>4</ele>
        <time>2012-01-13T13:27:54Z</time>
      </trkpt>
      <trkpt lat="49.1636" lon="-0.4065">
        <ele>4</ele>
        <time>2012-01-13T13:27:55Z</time>
      </trkpt>
      <trkpt lat="49.16359" lon="-0.40649">
        <ele>4.3</ele>
        <time>2012-01-13T13:27:56Z</time>
      </trkpt>
      <trkpt lat="49.16359" lon="-0.40648">
        <ele>4.3</ele>
        <time>2012-01-13T13:27:57Z</time>
      </trkpt>
      <trkpt lat="49.16358" lon="-0.40647">
        <ele>4.4</ele>
        <time>2012-01-13T13:27:58Z</time>
      </trkpt>
      <trkpt lat="49.16357" lon="-0.40646">
        <ele>4.5</ele>
        <time>2012-01-13T13:27:59Z</time>
      </trkpt>
      <trkpt lat="49.16356" lon="-0.40645">
        <ele>4.5</ele>
        <time>2012-01-13T13:28:00Z</time>
      </trkpt>
      <trkpt lat="49.16355" lon="-0.40644">
        <ele>4.5</ele>
        <time>2012-01-13T13:28:01Z</time>
      </trkpt>
      <trkpt lat="49.16354" lon="-0.40644">
        <ele>4.9</ele>
        <time>2012-01-13T13:28:02Z</time>
      </trkpt>
      <trkpt lat="49.16353" lon="-0.40643">
        <ele>5</ele>
        <time>2012-01-13T13:28:03Z</time>
      </trkpt>
      <trkpt lat="49.16352" lon="-0.40643">
        <ele>5.5</ele>
        <time>2012-01-13T13:28:04Z</time>
      </trkpt>
      <trkpt lat="49.1635" lon="-0.40643">
        <ele>5.5</ele>
        <time>2012-01-13T13:28:05Z</time>
      </trkpt>
      <trkpt lat="49.16349" lon="-0.40642">
        <ele>5.9</ele>
        <time>2012-01-13T13:28:06Z</time>
      </trkpt>
      <trkpt lat="49.16348" lon="-0.40642">
        <ele>6</ele>
        <time>2012-01-13T13:28:07Z</time>
      </trkpt>
      <trkpt lat="49.16347" lon="-0.40642">
        <ele>6</ele>
        <time>2012-01-13T13:28:08Z</time>
      </trkpt>
      <trkpt lat="49.16346" lon="-0.40641">
        <ele>5.9</ele>
        <time>2012-01-13T13:28:09Z</time>
      </trkpt>
      <trkpt lat="49.16345" lon="-0.4064">
        <ele>5.8</ele>
        <time>2012-01-13T13:28:10Z</time>
      </trkpt>
      <trkpt lat="49.16344" lon="-0.40639">
        <ele>5.5</ele>
        <time>2012-01-13T13:28:11Z</time>
      </trkpt>
      <trkpt lat="49.16343" lon="-0.40639">
        <ele>5.5</ele>
        <time>2012-01-13T13:28:12Z</time>
      </trkpt>
      <trkpt lat="49.16342" lon="-0.40638">
        <ele>5.5</ele>
        <time>2012-01-13T13:28:13Z</time>
      </trkpt>
      <trkpt lat="49.16341" lon="-0.40637">
        <ele>5.5</ele>
        <time>2012-01-13T13:28:14Z</time>
      </trkpt>
      <trkpt lat="49.1634" lon="-0.40636">
        <ele>5.4</ele>
        <time>2012-01-13T13:28:15Z</time>
      </trkpt>
      <trkpt lat="49.16339" lon="-0.40634">
        <ele>5.4</ele>
        <time>2012-01-13T13:28:16Z</time>
      </trkpt>
      <trkpt lat="49.16339" lon="-0.40633">
        <ele>5.4</ele>
        <time>2012-01-13T13:28:17Z</time>
      </trkpt>
      <trkpt lat="49.16338" lon="-0.40632">
        <ele>5.4</ele>
        <time>2012-01-13T13:28:18Z</time>
      </trkpt>
      <trkpt lat="49.16337" lon="-0.40631">
        <ele>5.3</ele>
        <time>2012-01-13T13:28:19Z</time>
      </trkpt>
      <trkpt lat="49.16336" lon="-0.4063">
        <ele>5</ele>
        <time>2012-01-13T13:28:20Z</time>
      </trkpt>
      <trkpt lat="49.16335" lon="-0.40629">
        <ele>5</ele>
        <time>2012-01-13T13:28:21Z</time>
      </trkpt>
      <trkpt lat="49.16335" lon="-0.40628">
        <ele>5</ele>
        <time>2012-01-13T13:28:22Z</time>
      </trkpt>
      <trkpt lat="49.16334" lon="-0.40627">
        <ele>5</ele>
        <time>2012-01-13T13:28:23Z</time>
      </trkpt>
      <trkpt lat="49.16333" lon="-0.40626">
        <ele>5</ele>
        <time>2012-01-13T13:28:24Z</time>
      </trkpt>
      <trkpt lat="49.16332" lon="-0.40625">
        <ele>5</ele>
        <time>2012-01-13T13:28:25Z</time>
      </trkpt>
      <trkpt lat="49.16331" lon="-0.40624">
        <ele>4.9</ele>
        <time>2012-01-13T13:28:26Z</time>
      </trkpt>
      <trkpt lat="49.16331" lon="-0.40622">
        <ele>4.5</ele>
        <time>2012-01-13T13:28:27Z</time>
      </trkpt>
      <trkpt lat="49.1633" lon="-0.40621">
        <ele>4.5</ele>
        <time>2012-01-13T13:28:28Z</time>
      </trkpt>
      <trkpt lat="49.16329" lon="-0.4062">
        <ele>4.5</ele>
        <time>2012-01-13T13:28:29Z</time>
      </trkpt>
      <trkpt lat="49.16328" lon="-0.40619">
        <ele>4.5</ele>
        <time>2012-01-13T13:28:30Z</time>
      </trkpt>
      <trkpt lat="49.16328" lon="-0.40618">
        <ele>4.5</ele>
        <time>2012-01-13T13:28:31Z</time>
      </trkpt>
      <trkpt lat="49.16327" lon="-0.40617">
        <ele>4.4</ele>
        <time>2012-01-13T13:28:32Z</time>
      </trkpt>
      <trkpt lat="49.16326" lon="-0.40616">
        <ele>4.4</ele>
        <time>2012-01-13T13:28:33Z</time>
      </trkpt>
      <trkpt lat="49.16325" lon="-0.40615">
        <ele>4.4</ele>
        <time>2012-01-13T13:28:34Z</time>
      </trkpt>
      <trkpt lat="49.16325" lon="-0.40614">
        <ele>4.4</ele>
        <time>2012-01-13T13:28:35Z</time>
      </trkpt>
      <trkpt lat="49.16324" lon="-0.40612">
        <ele>4.3</ele>
        <time>2012-01-13T13:28:36Z</time>
      </trkpt>
      <trkpt lat="49.16323" lon="-0.40611">
        <ele>4.3</ele>
        <time>2012-01-13T13:28:37Z</time>
      </trkpt>
      <trkpt lat="49.16322" lon="-0.4061">
        <ele>4.3</ele>
        <time>2012-01-13T13:28:38Z</time>
      </trkpt>
      <trkpt lat="49.16321" lon="-0.40609">
        <ele>4</ele>
        <time>2012-01-13T13:28:39Z</time>
      </trkpt>
      <trkpt lat="49.1632" lon="-0.40607">
        <ele>4</ele>
        <time>2012-01-13T13:28:40Z</time>
      </trkpt>
      <trkpt lat="49.16319" lon="-0.40606">
        <ele>3.9</ele>
        <time>2012-01-13T13:28:41Z</time>
      </trkpt>
      <trkpt lat="49.16319" lon="-0.40605">
        <ele>3.7</ele>
        <time>2012-01-13T13:28:42Z</time>
      </trkpt>
      <trkpt lat="49.16318" lon="-0.40604">
        <ele>3.7</ele>
        <time>2012-01-13T13:28:43Z</time>
      </trkpt>
      <trkpt lat="49.16317" lon="-0.40603">
        <ele>4</ele>
        <time>2012-01-13T13:28:44Z</time>
      </trkpt>
      <trkpt lat="49.16316" lon="-0.40602">
        <ele>4</ele>
        <time>2012-01-13T13:28:45Z</time>
      </trkpt>
      <trkpt lat="49.16315" lon="-0.40601">
        <ele>3.7</ele>
        <time>2012-01-13T13:28:46Z</time>
      </trkpt>
      <trkpt lat="49.16315" lon="-0.406">
        <ele>3.7</ele>
        <time>2012-01-13T13:28:47Z</time>
      </trkpt>
      <trkpt lat="49.16314" lon="-0.40599">
        <ele>3.7</ele>
        <time>2012-01-13T13:28:48Z</time>
      </trkpt>
      <trkpt lat="49.16313" lon="-0.40598">
        <ele>3.5</ele>
        <time>2012-01-13T13:28:49Z</time>
      </trkpt>
      <trkpt lat="49.16312" lon="-0.40597">
        <ele>3.2</ele>
        <time>2012-01-13T13:28:50Z</time>
      </trkpt>
      <trkpt lat="49.16311" lon="-0.40596">
        <ele>3.2</ele>
        <time>2012-01-13T13:28:51Z</time>
      </trkpt>
      <trkpt lat="49.16311" lon="-0.40595">
        <ele>3.2</ele>
        <time>2012-01-13T13:28:52Z</time>
      </trkpt>
      <trkpt lat="49.1631" lon="-0.40594">
        <ele>2.7</ele>
        <time>2012-01-13T13:28:53Z</time>
      </trkpt>
      <trkpt lat="49.16309" lon="-0.40594">
        <ele>3</ele>
        <time>2012-01-13T13:28:54Z</time>
      </trkpt>
      <trkpt lat="49.16308" lon="-0.40593">
        <ele>3.4</ele>
        <time>2012-01-13T13:28:55Z</time>
      </trkpt>
      <trkpt lat="49.16307" lon="-0.40591">
        <ele>3.7</ele>
        <time>2012-01-13T13:28:56Z</time>
      </trkpt>
      <trkpt lat="49.16306" lon="-0.4059">
        <ele>4.3</ele>
        <time>2012-01-13T13:28:57Z</time>
      </trkpt>
      <trkpt lat="49.16305" lon="-0.40589">
        <ele>3.9</ele>
        <time>2012-01-13T13:28:58Z</time>
      </trkpt>
      <trkpt lat="49.16304" lon="-0.40588">
        <ele>3.7</ele>
        <time>2012-01-13T13:28:59Z</time>
      </trkpt>
      <trkpt lat="49.16303" lon="-0.40587">
        <ele>4.5</ele>
        <time>2012-01-13T13:29:00Z</time>
      </trkpt>
      <trkpt lat="49.16302" lon="-0.40586">
        <ele>4.5</ele>
        <time>2012-01-13T13:29:01Z</time>
      </trkpt>
      <trkpt lat="49.16301" lon="-0.40585">
        <ele>4.3</ele>
        <time>2012-01-13T13:29:02Z</time>
      </trkpt>
      <trkpt lat="49.163" lon="-0.40584">
        <ele>4</ele>
        <time>2012-01-13T13:29:03Z</time>
      </trkpt>
      <trkpt lat="49.16299" lon="-0.40583">
        <ele>4</ele>
        <time>2012-01-13T13:29:04Z</time>
      </trkpt>
      <trkpt lat="49.16298" lon="-0.40582">
        <ele>4</ele>
        <time>2012-01-13T13:29:05Z</time>
      </trkpt>
      <trkpt lat="49.16297" lon="-0.4058">
        <ele>4</ele>
        <time>2012-01-13T13:29:06Z</time>
      </trkpt>
      <trkpt lat="49.16296" lon="-0.40579">
        <ele>4</ele>
        <time>2012-01-13T13:29:07Z</time>
      </trkpt>
      <trkpt lat="49.16295" lon="-0.40578">
        <ele>4</ele>
        <time>2012-01-13T13:29:08Z</time>
      </trkpt>
      <trkpt lat="49.16295" lon="-0.40576">
        <ele>4</ele>
        <time>2012-01-13T13:29:09Z</time>
      </trkpt>
      <trkpt lat="49.16294" lon="-0.40576">
        <ele>3.7</ele>
        <time>2012-01-13T13:29:10Z</time>
      </trkpt>
      <trkpt lat="49.16293" lon="-0.40575">
        <ele>3.5</ele>
        <time>2012-01-13T13:29:11Z</time>
      </trkpt>
      <trkpt lat="49.16293" lon="-0.40574">
        <ele>3.5</ele>
        <time>2012-01-13T13:29:12Z</time>
      </trkpt>
      <trkpt lat="49.16293" lon="-0.40574">
        <ele>3.2</ele>
        <time>2012-01-13T13:29:13Z</time>
      </trkpt>
      <trkpt lat="49.16292" lon="-0.40574">
        <ele>3.2</ele>
        <time>2012-01-13T13:29:14Z</time>
      </trkpt>
      <trkpt lat="49.16291" lon="-0.40573">
        <ele>3</ele>
        <time>2012-01-13T13:29:15Z</time>
      </trkpt>
      <trkpt lat="49.1629" lon="-0.40572">
        <ele>2.9</ele>
        <time>2012-01-13T13:29:16Z</time>
      </trkpt>
      <trkpt lat="49.1629" lon="-0.40571">
        <ele>3</ele>
        <time>2012-01-13T13:29:17Z</time>
      </trkpt>
      <trkpt lat="49.16289" lon="-0.4057">
        <ele>2.9</ele>
        <time>2012-01-13T13:29:18Z</time>
      </trkpt>
      <trkpt lat="49.16288" lon="-0.40568">
        <ele>2.7</ele>
        <time>2012-01-13T13:29:19Z</time>
      </trkpt>
      <trkpt lat="49.16287" lon="-0.40567">
        <ele>2.7</ele>
        <time>2012-01-13T13:29:20Z</time>
      </trkpt>
      <trkpt lat="49.16286" lon="-0.40566">
        <ele>2.7</ele>
        <time>2012-01-13T13:29:21Z</time>
      </trkpt>
      <trkpt lat="49.16285" lon="-0.40565">
        <ele>2.5</ele>
        <time>2012-01-13T13:29:22Z</time>
      </trkpt>
      <trkpt lat="49.16285" lon="-0.40563">
        <ele>2.5</ele>
        <time>2012-01-13T13:29:23Z</time>
      </trkpt>
      <trkpt lat="49.16284" lon="-0.40562">
        <ele>2.5</ele>
        <time>2012-01-13T13:29:24Z</time>
      </trkpt>
      <trkpt lat="49.16283" lon="-0.4056">
        <ele>2.4</ele>
        <time>2012-01-13T13:29:25Z</time>
      </trkpt>
      <trkpt lat="49.16282" lon="-0.40559">
        <ele>2.2</ele>
        <time>2012-01-13T13:29:26Z</time>
      </trkpt>
      <trkpt lat="49.16282" lon="-0.40558">
        <ele>2.2</ele>
        <time>2012-01-13T13:29:27Z</time>
      </trkpt>
      <trkpt lat="49.16281" lon="-0.40557">
        <ele>1.7</ele>
        <time>2012-01-13T13:29:28Z</time>
      </trkpt>
      <trkpt lat="49.1628" lon="-0.40555">
        <ele>1.7</ele>
        <time>2012-01-13T13:29:29Z</time>
      </trkpt>
      <trkpt lat="49.16279" lon="-0.40554">
        <ele>1.5</ele>
        <time>2012-01-13T13:29:30Z</time>
      </trkpt>
      <trkpt lat="49.16279" lon="-0.40552">
        <ele>1.6</ele>
        <time>2012-01-13T13:29:31Z</time>
      </trkpt>
      <trkpt lat="49.16278" lon="-0.40551">
        <ele>1.7</ele>
        <time>2012-01-13T13:29:32Z</time>
      </trkpt>
      <trkpt lat="49.16277" lon="-0.40549">
        <ele>2</ele>
        <time>2012-01-13T13:29:33Z</time>
      </trkpt>
      <trkpt lat="49.16276" lon="-0.40548">
        <ele>2.2</ele>
        <time>2012-01-13T13:29:34Z</time>
      </trkpt>
      <trkpt lat="49.16275" lon="-0.40546">
        <ele>2.2</ele>
        <time>2012-01-13T13:29:35Z</time>
      </trkpt>
      <trkpt lat="49.16275" lon="-0.40545">
        <ele>2.2</ele>
        <time>2012-01-13T13:29:36Z</time>
      </trkpt>
      <trkpt lat="49.16274" lon="-0.40543">
        <ele>2.4</ele>
        <time>2012-01-13T13:29:37Z</time>
      </trkpt>
      <trkpt lat="49.16273" lon="-0.40542">
        <ele>2.5</ele>
        <time>2012-01-13T13:29:38Z</time>
      </trkpt>
      <trkpt lat="49.16272" lon="-0.4054">
        <ele>2.4</ele>
        <time>2012-01-13T13:29:39Z</time>
      </trkpt>
      <trkpt lat="49.16272" lon="-0.40538">
        <ele>2.4</ele>
        <time>2012-01-13T13:29:40Z</time>
      </trkpt>
      <trkpt lat="49.16271" lon="-0.40537">
        <ele>2.4</ele>
        <time>2012-01-13T13:29:41Z</time>
      </trkpt>
      <trkpt lat="49.1627" lon="-0.40535">
        <ele>2.5</ele>
        <time>2012-01-13T13:29:42Z</time>
      </trkpt>
      <trkpt lat="49.16269" lon="-0.40534">
        <ele>2.5</ele>
        <time>2012-01-13T13:29:43Z</time>
      </trkpt>
      <trkpt lat="49.16269" lon="-0.40532">
        <ele>2.5</ele>
        <time>2012-01-13T13:29:44Z</time>
      </trkpt>
      <trkpt lat="49.16268" lon="-0.40531">
        <ele>2.7</ele>
        <time>2012-01-13T13:29:45Z</time>
      </trkpt>
      <trkpt lat="49.16267" lon="-0.40529">
        <ele>2.5</ele>
        <time>2012-01-13T13:29:46Z</time>
      </trkpt>
      <trkpt lat="49.16266" lon="-0.40528">
        <ele>2.5</ele>
        <time>2012-01-13T13:29:47Z</time>
      </trkpt>
      <trkpt lat="49.16266" lon="-0.40526">
        <ele>2.2</ele>
        <time>2012-01-13T13:29:48Z</time>
      </trkpt>
      <trkpt lat="49.16265" lon="-0.40525">
        <ele>2.4</ele>
        <time>2012-01-13T13:29:49Z</time>
      </trkpt>
      <trkpt lat="49.16264" lon="-0.40523">
        <ele>2.5</ele>
        <time>2012-01-13T13:29:50Z</time>
      </trkpt>
      <trkpt lat="49.16264" lon="-0.40522">
        <ele>2.2</ele>
        <time>2012-01-13T13:29:51Z</time>
      </trkpt>
      <trkpt lat="49.16263" lon="-0.4052">
        <ele>2.2</ele>
        <time>2012-01-13T13:29:52Z</time>
      </trkpt>
      <trkpt lat="49.16263" lon="-0.40518">
        <ele>2.2</ele>
        <time>2012-01-13T13:29:53Z</time>
      </trkpt>
      <trkpt lat="49.16262" lon="-0.40517">
        <ele>2.4</ele>
        <time>2012-01-13T13:29:54Z</time>
      </trkpt>
      <trkpt lat="49.16261" lon="-0.40515">
        <ele>2.5</ele>
        <time>2012-01-13T13:29:55Z</time>
      </trkpt>
      <trkpt lat="49.16261" lon="-0.40513">
        <ele>2.5</ele>
        <time>2012-01-13T13:29:56Z</time>
      </trkpt>
      <trkpt lat="49.1626" lon="-0.40511">
        <ele>2.5</ele>
        <time>2012-01-13T13:29:57Z</time>
      </trkpt>
      <trkpt lat="49.1626" lon="-0.4051">
        <ele>2.4</ele>
        <time>2012-01-13T13:29:58Z</time>
      </trkpt>
      <trkpt lat="49.16259" lon="-0.40509">
        <ele>2.2</ele>
        <time>2012-01-13T13:29:59Z</time>
      </trkpt>
      <trkpt lat="49.16259" lon="-0.40507">
        <ele>2</ele>
        <time>2012-01-13T13:30:00Z</time>
      </trkpt>
      <trkpt lat="49.16259" lon="-0.40506">
        <ele>2</ele>
        <time>2012-01-13T13:30:01Z</time>
      </trkpt>
      <trkpt lat="49.16258" lon="-0.40504">
        <ele>2.2</ele>
        <time>2012-01-13T13:30:02Z</time>
      </trkpt>
      <trkpt lat="49.16257" lon="-0.40502">
        <ele>2.2</ele>
        <time>2012-01-13T13:30:03Z</time>
      </trkpt>
      <trkpt lat="49.16257" lon="-0.40501">
        <ele>2.2</ele>
        <time>2012-01-13T13:30:04Z</time>
      </trkpt>
      <trkpt lat="49.16257" lon="-0.40499">
        <ele>2.2</ele>
        <time>2012-01-13T13:30:05Z</time>
      </trkpt>
      <trkpt lat="49.16256" lon="-0.40498">
        <ele>2.4</ele>
        <time>2012-01-13T13:30:06Z</time>
      </trkpt>
      <trkpt lat="49.16256" lon="-0.40496">
        <ele>2.5</ele>
        <time>2012-01-13T13:30:07Z</time>
      </trkpt>
      <trkpt lat="49.16255" lon="-0.40494">
        <ele>2.5</ele>
        <time>2012-01-13T13:30:08Z</time>
      </trkpt>
      <trkpt lat="49.16255" lon="-0.40493">
        <ele>2.7</ele>
        <time>2012-01-13T13:30:09Z</time>
      </trkpt>
      <trkpt lat="49.16254" lon="-0.40491">
        <ele>2.7</ele>
        <time>2012-01-13T13:30:10Z</time>
      </trkpt>
      <trkpt lat="49.16254" lon="-0.40489">
        <ele>2.7</ele>
        <time>2012-01-13T13:30:11Z</time>
      </trkpt>
      <trkpt lat="49.16253" lon="-0.40488">
        <ele>2.7</ele>
        <time>2012-01-13T13:30:12Z</time>
      </trkpt>
      <trkpt lat="49.16253" lon="-0.40486">
        <ele>2.9</ele>
        <time>2012-01-13T13:30:13Z</time>
      </trkpt>
      <trkpt lat="49.16253" lon="-0.40484">
        <ele>2.7</ele>
        <time>2012-01-13T13:30:14Z</time>
      </trkpt>
      <trkpt lat="49.16252" lon="-0.40483">
        <ele>2.7</ele>
        <time>2012-01-13T13:30:15Z</time>
      </trkpt>
      <trkpt lat="49.16252" lon="-0.40481">
        <ele>2.5</ele>
        <time>2012-01-13T13:30:16Z</time>
      </trkpt>
      <trkpt lat="49.16252" lon="-0.4048">
        <ele>2.4</ele>
        <time>2012-01-13T13:30:17Z</time>
      </trkpt>
      <trkpt lat="49.16251" lon="-0.40478">
        <ele>2.5</ele>
        <time>2012-01-13T13:30:18Z</time>
      </trkpt>
      <trkpt lat="49.16251" lon="-0.40476">
        <ele>2.4</ele>
        <time>2012-01-13T13:30:19Z</time>
      </trkpt>
      <trkpt lat="49.16251" lon="-0.40474">
        <ele>2.2</ele>
        <time>2012-01-13T13:30:20Z</time>
      </trkpt>
      <trkpt lat="49.1625" lon="-0.40473">
        <ele>2.2</ele>
        <time>2012-01-13T13:30:21Z</time>
      </trkpt>
      <trkpt lat="49.1625" lon="-0.40471">
        <ele>2.2</ele>
        <time>2012-01-13T13:30:22Z</time>
      </trkpt>
      <trkpt lat="49.1625" lon="-0.40469">
        <ele>2.2</ele>
        <time>2012-01-13T13:30:23Z</time>
      </trkpt>
      <trkpt lat="49.16249" lon="-0.40468">
        <ele>2.2</ele>
        <time>2012-01-13T13:30:24Z</time>
      </trkpt>
      <trkpt lat="49.16249" lon="-0.40466">
        <ele>2.2</ele>
        <time>2012-01-13T13:30:25Z</time>
      </trkpt>
      <trkpt lat="49.16249" lon="-0.40465">
        <ele>2.2</ele>
        <time>2012-01-13T13:30:26Z</time>
      </trkpt>
      <trkpt lat="49.16248" lon="-0.40463">
        <ele>2.2</ele>
        <time>2012-01-13T13:30:27Z</time>
      </trkpt>
      <trkpt lat="49.16248" lon="-0.40462">
        <ele>2.2</ele>
        <time>2012-01-13T13:30:28Z</time>
      </trkpt>
      <trkpt lat="49.16248" lon="-0.4046">
        <ele>2.2</ele>
        <time>2012-01-13T13:30:29Z</time>
      </trkpt>
      <trkpt lat="49.16247" lon="-0.40458">
        <ele>2</ele>
        <time>2012-01-13T13:30:30Z</time>
      </trkpt>
      <trkpt lat="49.16247" lon="-0.40456">
        <ele>2</ele>
        <time>2012-01-13T13:30:31Z</time>
      </trkpt>
      <trkpt lat="49.16247" lon="-0.40454">
        <ele>2</ele>
        <time>2012-01-13T13:30:32Z</time>
      </trkpt>
      <trkpt lat="49.16247" lon="-0.40453">
        <ele>2</ele>
        <time>2012-01-13T13:30:33Z</time>
      </trkpt>
      <trkpt lat="49.16246" lon="-0.40451">
        <ele>2</ele>
        <time>2012-01-13T13:30:34Z</time>
      </trkpt>
      <trkpt lat="49.16246" lon="-0.40449">
        <ele>2</ele>
        <time>2012-01-13T13:30:35Z</time>
      </trkpt>
      <trkpt lat="49.16246" lon="-0.40448">
        <ele>2</ele>
        <time>2012-01-13T13:30:36Z</time>
      </trkpt>
      <trkpt lat="49.16245" lon="-0.40446">
        <ele>2</ele>
        <time>2012-01-13T13:30:37Z</time>
      </trkpt>
      <trkpt lat="49.16245" lon="-0.40444">
        <ele>2</ele>
        <time>2012-01-13T13:30:38Z</time>
      </trkpt>
      <trkpt lat="49.16245" lon="-0.40443">
        <ele>2.2</ele>
        <time>2012-01-13T13:30:39Z</time>
      </trkpt>
      <trkpt lat="49.16244" lon="-0.40441">
        <ele>2.2</ele>
        <time>2012-01-13T13:30:40Z</time>
      </trkpt>
      <trkpt lat="49.16244" lon="-0.40439">
        <ele>2.4</ele>
        <time>2012-01-13T13:30:41Z</time>
      </trkpt>
      <trkpt lat="49.16244" lon="-0.40438">
        <ele>2.4</ele>
        <time>2012-01-13T13:30:42Z</time>
      </trkpt>
      <trkpt lat="49.16244" lon="-0.40436">
        <ele>2.5</ele>
        <time>2012-01-13T13:30:43Z</time>
      </trkpt>
      <trkpt lat="49.16243" lon="-0.40434">
        <ele>2.5</ele>
        <time>2012-01-13T13:30:44Z</time>
      </trkpt>
      <trkpt lat="49.16243" lon="-0.40433">
        <ele>2.7</ele>
        <time>2012-01-13T13:30:45Z</time>
      </trkpt>
      <trkpt lat="49.16242" lon="-0.40431">
        <ele>2.7</ele>
        <time>2012-01-13T13:30:46Z</time>
      </trkpt>
      <trkpt lat="49.16242" lon="-0.4043">
        <ele>2.9</ele>
        <time>2012-01-13T13:30:47Z</time>
      </trkpt>
      <trkpt lat="49.16242" lon="-0.40428">
        <ele>2.9</ele>
        <time>2012-01-13T13:30:48Z</time>
      </trkpt>
      <trkpt lat="49.16241" lon="-0.40426">
        <ele>3</ele>
        <time>2012-01-13T13:30:49Z</time>
      </trkpt>
      <trkpt lat="49.16241" lon="-0.40425">
        <ele>3.2</ele>
        <time>2012-01-13T13:30:50Z</time>
      </trkpt>
      <trkpt lat="49.16241" lon="-0.40423">
        <ele>3.2</ele>
        <time>2012-01-13T13:30:51Z</time>
      </trkpt>
      <trkpt lat="49.1624" lon="-0.40422">
        <ele>3</ele>
        <time>2012-01-13T13:30:52Z</time>
      </trkpt>
      <trkpt lat="49.1624" lon="-0.4042">
        <ele>3</ele>
        <time>2012-01-13T13:30:53Z</time>
      </trkpt>
      <trkpt lat="49.1624" lon="-0.40419">
        <ele>3</ele>
        <time>2012-01-13T13:30:54Z</time>
      </trkpt>
      <trkpt lat="49.16239" lon="-0.40417">
        <ele>3.2</ele>
        <time>2012-01-13T13:30:55Z</time>
      </trkpt>
      <trkpt lat="49.16239" lon="-0.40415">
        <ele>3.2</ele>
        <time>2012-01-13T13:30:56Z</time>
      </trkpt>
      <trkpt lat="49.16238" lon="-0.40413">
        <ele>3.2</ele>
        <time>2012-01-13T13:30:57Z</time>
      </trkpt>
      <trkpt lat="49.16238" lon="-0.40412">
        <ele>3</ele>
        <time>2012-01-13T13:30:58Z</time>
      </trkpt>
      <trkpt lat="49.16238" lon="-0.4041">
        <ele>3.2</ele>
        <time>2012-01-13T13:30:59Z</time>
      </trkpt>
      <trkpt lat="49.16237" lon="-0.40408">
        <ele>3.4</ele>
        <time>2012-01-13T13:31:00Z</time>
      </trkpt>
      <trkpt lat="49.16237" lon="-0.40406">
        <ele>3</ele>
        <time>2012-01-13T13:31:01Z</time>
      </trkpt>
      <trkpt lat="49.16237" lon="-0.40404">
        <ele>2.9</ele>
        <time>2012-01-13T13:31:02Z</time>
      </trkpt>
      <trkpt lat="49.16237" lon="-0.40403">
        <ele>2.9</ele>
        <time>2012-01-13T13:31:03Z</time>
      </trkpt>
      <trkpt lat="49.16236" lon="-0.40401">
        <ele>2.7</ele>
        <time>2012-01-13T13:31:04Z</time>
      </trkpt>
      <trkpt lat="49.16236" lon="-0.40399">
        <ele>2.7</ele>
        <time>2012-01-13T13:31:05Z</time>
      </trkpt>
      <trkpt lat="49.16236" lon="-0.40397">
        <ele>2.7</ele>
        <time>2012-01-13T13:31:06Z</time>
      </trkpt>
      <trkpt lat="49.16236" lon="-0.40396">
        <ele>2.5</ele>
        <time>2012-01-13T13:31:07Z</time>
      </trkpt>
      <trkpt lat="49.16235" lon="-0.40394">
        <ele>2.5</ele>
        <time>2012-01-13T13:31:08Z</time>
      </trkpt>
      <trkpt lat="49.16235" lon="-0.40392">
        <ele>2.5</ele>
        <time>2012-01-13T13:31:09Z</time>
      </trkpt>
      <trkpt lat="49.16235" lon="-0.40391">
        <ele>2.5</ele>
        <time>2012-01-13T13:31:10Z</time>
      </trkpt>
      <trkpt lat="49.16234" lon="-0.40389">
        <ele>2.4</ele>
        <time>2012-01-13T13:31:11Z</time>
      </trkpt>
      <trkpt lat="49.16234" lon="-0.40387">
        <ele>2.4</ele>
        <time>2012-01-13T13:31:12Z</time>
      </trkpt>
      <trkpt lat="49.16234" lon="-0.40385">
        <ele>2.2</ele>
        <time>2012-01-13T13:31:13Z</time>
      </trkpt>
      <trkpt lat="49.16233" lon="-0.40384">
        <ele>2.4</ele>
        <time>2012-01-13T13:31:14Z</time>
      </trkpt>
      <trkpt lat="49.16233" lon="-0.40382">
        <ele>2.5</ele>
        <time>2012-01-13T13:31:15Z</time>
      </trkpt>
      <trkpt lat="49.16232" lon="-0.4038">
        <ele>2.5</ele>
        <time>2012-01-13T13:31:16Z</time>
      </trkpt>
      <trkpt lat="49.16232" lon="-0.40378">
        <ele>2.5</ele>
        <time>2012-01-13T13:31:17Z</time>
      </trkpt>
      <trkpt lat="49.16232" lon="-0.40376">
        <ele>2.5</ele>
        <time>2012-01-13T13:31:18Z</time>
      </trkpt>
      <trkpt lat="49.16232" lon="-0.40375">
        <ele>2.5</ele>
        <time>2012-01-13T13:31:19Z</time>
      </trkpt>
      <trkpt lat="49.16231" lon="-0.40373">
        <ele>2.5</ele>
        <time>2012-01-13T13:31:20Z</time>
      </trkpt>
      <trkpt lat="49.16231" lon="-0.40371">
        <ele>2.5</ele>
        <time>2012-01-13T13:31:21Z</time>
      </trkpt>
      <trkpt lat="49.16231" lon="-0.40369">
        <ele>2.5</ele>
        <time>2012-01-13T13:31:22Z</time>
      </trkpt>
      <trkpt lat="49.1623" lon="-0.40368">
        <ele>2.5</ele>
        <time>2012-01-13T13:31:23Z</time>
      </trkpt>
      <trkpt lat="49.1623" lon="-0.40366">
        <ele>2.5</ele>
        <time>2012-01-13T13:31:24Z</time>
      </trkpt>
      <trkpt lat="49.1623" lon="-0.40364">
        <ele>2.5</ele>
        <time>2012-01-13T13:31:25Z</time>
      </trkpt>
      <trkpt lat="49.16229" lon="-0.40363">
        <ele>2.5</ele>
        <time>2012-01-13T13:31:26Z</time>
      </trkpt>
      <trkpt lat="49.16229" lon="-0.40361">
        <ele>2.5</ele>
        <time>2012-01-13T13:31:27Z</time>
      </trkpt>
      <trkpt lat="49.16229" lon="-0.4036">
        <ele>2.5</ele>
        <time>2012-01-13T13:31:28Z</time>
      </trkpt>
      <trkpt lat="49.16228" lon="-0.40358">
        <ele>2.4</ele>
        <time>2012-01-13T13:31:29Z</time>
      </trkpt>
      <trkpt lat="49.16228" lon="-0.40356">
        <ele>2.4</ele>
        <time>2012-01-13T13:31:30Z</time>
      </trkpt>
      <trkpt lat="49.16228" lon="-0.40355">
        <ele>2.2</ele>
        <time>2012-01-13T13:31:31Z</time>
      </trkpt>
      <trkpt lat="49.16228" lon="-0.40353">
        <ele>2.2</ele>
        <time>2012-01-13T13:31:32Z</time>
      </trkpt>
      <trkpt lat="49.16227" lon="-0.40352">
        <ele>2.2</ele>
        <time>2012-01-13T13:31:33Z</time>
      </trkpt>
      <trkpt lat="49.16227" lon="-0.4035">
        <ele>2</ele>
        <time>2012-01-13T13:31:34Z</time>
      </trkpt>
      <trkpt lat="49.16226" lon="-0.40349">
        <ele>2</ele>
        <time>2012-01-13T13:31:35Z</time>
      </trkpt>
      <trkpt lat="49.16226" lon="-0.40347">
        <ele>2</ele>
        <time>2012-01-13T13:31:36Z</time>
      </trkpt>
      <trkpt lat="49.16226" lon="-0.40345">
        <ele>2</ele>
        <time>2012-01-13T13:31:37Z</time>
      </trkpt>
      <trkpt lat="49.16226" lon="-0.40344">
        <ele>2</ele>
        <time>2012-01-13T13:31:38Z</time>
      </trkpt>
      <trkpt lat="49.16225" lon="-0.40342">
        <ele>2</ele>
        <time>2012-01-13T13:31:39Z</time>
      </trkpt>
      <trkpt lat="49.16225" lon="-0.4034">
        <ele>2</ele>
        <time>2012-01-13T13:31:40Z</time>
      </trkpt>
      <trkpt lat="49.16225" lon="-0.40338">
        <ele>2</ele>
        <time>2012-01-13T13:31:41Z</time>
      </trkpt>
      <trkpt lat="49.16224" lon="-0.40337">
        <ele>2</ele>
        <time>2012-01-13T13:31:42Z</time>
      </trkpt>
      <trkpt lat="49.16224" lon="-0.40335">
        <ele>2</ele>
        <time>2012-01-13T13:31:43Z</time>
      </trkpt>
      <trkpt lat="49.16224" lon="-0.40333">
        <ele>2</ele>
        <time>2012-01-13T13:31:44Z</time>
      </trkpt>
      <trkpt lat="49.16223" lon="-0.40332">
        <ele>2</ele>
        <time>2012-01-13T13:31:45Z</time>
      </trkpt>
      <trkpt lat="49.16223" lon="-0.4033">
        <ele>2</ele>
        <time>2012-01-13T13:31:46Z</time>
      </trkpt>
      <trkpt lat="49.16223" lon="-0.40328">
        <ele>2</ele>
        <time>2012-01-13T13:31:47Z</time>
      </trkpt>
      <trkpt lat="49.16222" lon="-0.40327">
        <ele>2</ele>
        <time>2012-01-13T13:31:48Z</time>
      </trkpt>
      <trkpt lat="49.16222" lon="-0.40326">
        <ele>2</ele>
        <time>2012-01-13T13:31:49Z</time>
      </trkpt>
      <trkpt lat="49.16222" lon="-0.40325">
        <ele>2</ele>
        <time>2012-01-13T13:31:50Z</time>
      </trkpt>
      <trkpt lat="49.16222" lon="-0.40325">
        <ele>2</ele>
        <time>2012-01-13T13:31:51Z</time>
      </trkpt>
      <trkpt lat="49.16222" lon="-0.40325">
        <ele>2.2</ele>
        <time>2012-01-13T13:31:52Z</time>
      </trkpt>
      <trkpt lat="49.16222" lon="-0.40325">
        <ele>2.2</ele>
        <time>2012-01-13T13:31:53Z</time>
      </trkpt>
      <trkpt lat="49.16222" lon="-0.40325">
        <ele>2.4</ele>
        <time>2012-01-13T13:31:54Z</time>
      </trkpt>
      <trkpt lat="49.16222" lon="-0.40325">
        <ele>2.4</ele>
        <time>2012-01-13T13:31:55Z</time>
      </trkpt>
      <trkpt lat="49.16222" lon="-0.40324">
        <ele>2.4</ele>
        <time>2012-01-13T13:31:56Z</time>
      </trkpt>
      <trkpt lat="49.16221" lon="-0.40322">
        <ele>2.4</ele>
        <time>2012-01-13T13:31:57Z</time>
      </trkpt>
      <trkpt lat="49.16221" lon="-0.4032">
        <ele>2.2</ele>
        <time>2012-01-13T13:31:58Z</time>
      </trkpt>
      <trkpt lat="49.16221" lon="-0.40319">
        <ele>2</ele>
        <time>2012-01-13T13:31:59Z</time>
      </trkpt>
      <trkpt lat="49.1622" lon="-0.40317">
        <ele>2</ele>
        <time>2012-01-13T13:32:00Z</time>
      </trkpt>
      <trkpt lat="49.1622" lon="-0.40315">
        <ele>1.7</ele>
        <time>2012-01-13T13:32:01Z</time>
      </trkpt>
      <trkpt lat="49.1622" lon="-0.40314">
        <ele>1.7</ele>
        <time>2012-01-13T13:32:02Z</time>
      </trkpt>
      <trkpt lat="49.1622" lon="-0.40312">
        <ele>1.7</ele>
        <time>2012-01-13T13:32:03Z</time>
      </trkpt>
      <trkpt lat="49.16219" lon="-0.4031">
        <ele>1.7</ele>
        <time>2012-01-13T13:32:04Z</time>
      </trkpt>
      <trkpt lat="49.16219" lon="-0.40309">
        <ele>2</ele>
        <time>2012-01-13T13:32:05Z</time>
      </trkpt>
      <trkpt lat="49.16218" lon="-0.40307">
        <ele>1.7</ele>
        <time>2012-01-13T13:32:06Z</time>
      </trkpt>
      <trkpt lat="49.16218" lon="-0.40305">
        <ele>1.7</ele>
        <time>2012-01-13T13:32:07Z</time>
      </trkpt>
      <trkpt lat="49.16218" lon="-0.40304">
        <ele>1.7</ele>
        <time>2012-01-13T13:32:08Z</time>
      </trkpt>
      <trkpt lat="49.16218" lon="-0.40302">
        <ele>1.7</ele>
        <time>2012-01-13T13:32:09Z</time>
      </trkpt>
      <trkpt lat="49.16217" lon="-0.403">
        <ele>1.7</ele>
        <time>2012-01-13T13:32:10Z</time>
      </trkpt>
      <trkpt lat="49.16217" lon="-0.40298">
        <ele>1.7</ele>
        <time>2012-01-13T13:32:11Z</time>
      </trkpt>
      <trkpt lat="49.16216" lon="-0.40296">
        <ele>1.7</ele>
        <time>2012-01-13T13:32:12Z</time>
      </trkpt>
      <trkpt lat="49.16216" lon="-0.40295">
        <ele>1.7</ele>
        <time>2012-01-13T13:32:13Z</time>
      </trkpt>
      <trkpt lat="49.16216" lon="-0.40293">
        <ele>2</ele>
        <time>2012-01-13T13:32:14Z</time>
      </trkpt>
      <trkpt lat="49.16215" lon="-0.40291">
        <ele>2</ele>
        <time>2012-01-13T13:32:15Z</time>
      </trkpt>
      <trkpt lat="49.16215" lon="-0.4029">
        <ele>2</ele>
        <time>2012-01-13T13:32:16Z</time>
      </trkpt>
      <trkpt lat="49.16215" lon="-0.40288">
        <ele>2</ele>
        <time>2012-01-13T13:32:17Z</time>
      </trkpt>
      <trkpt lat="49.16215" lon="-0.40286">
        <ele>2</ele>
        <time>2012-01-13T13:32:18Z</time>
      </trkpt>
      <trkpt lat="49.16214" lon="-0.40285">
        <ele>1.7</ele>
        <time>2012-01-13T13:32:19Z</time>
      </trkpt>
      <trkpt lat="49.16214" lon="-0.40283">
        <ele>1.7</ele>
        <time>2012-01-13T13:32:20Z</time>
      </trkpt>
      <trkpt lat="49.16214" lon="-0.40281">
        <ele>1.7</ele>
        <time>2012-01-13T13:32:21Z</time>
      </trkpt>
      <trkpt lat="49.16214" lon="-0.4028">
        <ele>1.6</ele>
        <time>2012-01-13T13:32:22Z</time>
      </trkpt>
      <trkpt lat="49.16213" lon="-0.40278">
        <ele>1.2</ele>
        <time>2012-01-13T13:32:23Z</time>
      </trkpt>
      <trkpt lat="49.16213" lon="-0.40277">
        <ele>1.2</ele>
        <time>2012-01-13T13:32:24Z</time>
      </trkpt>
      <trkpt lat="49.16213" lon="-0.40275">
        <ele>1.2</ele>
        <time>2012-01-13T13:32:25Z</time>
      </trkpt>
      <trkpt lat="49.16213" lon="-0.40273">
        <ele>1.2</ele>
        <time>2012-01-13T13:32:26Z</time>
      </trkpt>
      <trkpt lat="49.16212" lon="-0.40271">
        <ele>1.1</ele>
        <time>2012-01-13T13:32:27Z</time>
      </trkpt>
      <trkpt lat="49.16212" lon="-0.4027">
        <ele>1.1</ele>
        <time>2012-01-13T13:32:28Z</time>
      </trkpt>
      <trkpt lat="49.16212" lon="-0.40268">
        <ele>1.1</ele>
        <time>2012-01-13T13:32:29Z</time>
      </trkpt>
      <trkpt lat="49.16211" lon="-0.40266">
        <ele>1</ele>
        <time>2012-01-13T13:32:30Z</time>
      </trkpt>
      <trkpt lat="49.16211" lon="-0.40265">
        <ele>1</ele>
        <time>2012-01-13T13:32:31Z</time>
      </trkpt>
      <trkpt lat="49.16211" lon="-0.40263">
        <ele>1</ele>
        <time>2012-01-13T13:32:32Z</time>
      </trkpt>
      <trkpt lat="49.16211" lon="-0.40261">
        <ele>1</ele>
        <time>2012-01-13T13:32:33Z</time>
      </trkpt>
      <trkpt lat="49.1621" lon="-0.40259">
        <ele>1.1</ele>
        <time>2012-01-13T13:32:34Z</time>
      </trkpt>
      <trkpt lat="49.1621" lon="-0.40258">
        <ele>1.1</ele>
        <time>2012-01-13T13:32:35Z</time>
      </trkpt>
      <trkpt lat="49.1621" lon="-0.40256">
        <ele>1.1</ele>
        <time>2012-01-13T13:32:36Z</time>
      </trkpt>
      <trkpt lat="49.1621" lon="-0.40254">
        <ele>1.2</ele>
        <time>2012-01-13T13:32:37Z</time>
      </trkpt>
      <trkpt lat="49.1621" lon="-0.40252">
        <ele>1.2</ele>
        <time>2012-01-13T13:32:38Z</time>
      </trkpt>
      <trkpt lat="49.1621" lon="-0.4025">
        <ele>1.2</ele>
        <time>2012-01-13T13:32:39Z</time>
      </trkpt>
      <trkpt lat="49.1621" lon="-0.40249">
        <ele>1.2</ele>
        <time>2012-01-13T13:32:40Z</time>
      </trkpt>
      <trkpt lat="49.1621" lon="-0.40247">
        <ele>1.2</ele>
        <time>2012-01-13T13:32:41Z</time>
      </trkpt>
      <trkpt lat="49.1621" lon="-0.40245">
        <ele>1.2</ele>
        <time>2012-01-13T13:32:42Z</time>
      </trkpt>
      <trkpt lat="49.16209" lon="-0.40243">
        <ele>1.2</ele>
        <time>2012-01-13T13:32:43Z</time>
      </trkpt>
      <trkpt lat="49.1621" lon="-0.40241">
        <ele>1.2</ele>
        <time>2012-01-13T13:32:44Z</time>
      </trkpt>
      <trkpt lat="49.1621" lon="-0.4024">
        <ele>1.2</ele>
        <time>2012-01-13T13:32:45Z</time>
      </trkpt>
      <trkpt lat="49.1621" lon="-0.40238">
        <ele>1.2</ele>
        <time>2012-01-13T13:32:46Z</time>
      </trkpt>
      <trkpt lat="49.1621" lon="-0.40236">
        <ele>1.5</ele>
        <time>2012-01-13T13:32:47Z</time>
      </trkpt>
      <trkpt lat="49.1621" lon="-0.40234">
        <ele>1.6</ele>
        <time>2012-01-13T13:32:48Z</time>
      </trkpt>
      <trkpt lat="49.1621" lon="-0.40232">
        <ele>1.7</ele>
        <time>2012-01-13T13:32:49Z</time>
      </trkpt>
      <trkpt lat="49.1621" lon="-0.4023">
        <ele>1.7</ele>
        <time>2012-01-13T13:32:50Z</time>
      </trkpt>
      <trkpt lat="49.1621" lon="-0.40228">
        <ele>1.6</ele>
        <time>2012-01-13T13:32:51Z</time>
      </trkpt>
      <trkpt lat="49.1621" lon="-0.40227">
        <ele>1.6</ele>
        <time>2012-01-13T13:32:52Z</time>
      </trkpt>
      <trkpt lat="49.1621" lon="-0.40225">
        <ele>1.6</ele>
        <time>2012-01-13T13:32:53Z</time>
      </trkpt>
      <trkpt lat="49.16211" lon="-0.40223">
        <ele>1.6</ele>
        <time>2012-01-13T13:32:54Z</time>
      </trkpt>
      <trkpt lat="49.16211" lon="-0.40221">
        <ele>1.6</ele>
        <time>2012-01-13T13:32:55Z</time>
      </trkpt>
      <trkpt lat="49.16211" lon="-0.40219">
        <ele>1.6</ele>
        <time>2012-01-13T13:32:56Z</time>
      </trkpt>
      <trkpt lat="49.16211" lon="-0.40218">
        <ele>1.7</ele>
        <time>2012-01-13T13:32:57Z</time>
      </trkpt>
      <trkpt lat="49.16211" lon="-0.40216">
        <ele>1.7</ele>
        <time>2012-01-13T13:32:58Z</time>
      </trkpt>
      <trkpt lat="49.16211" lon="-0.40214">
        <ele>1.7</ele>
        <time>2012-01-13T13:32:59Z</time>
      </trkpt>
      <trkpt lat="49.16211" lon="-0.40212">
        <ele>1.7</ele>
        <time>2012-01-13T13:33:00Z</time>
      </trkpt>
      <trkpt lat="49.16211" lon="-0.40211">
        <ele>1.7</ele>
        <time>2012-01-13T13:33:01Z</time>
      </trkpt>
      <trkpt lat="49.16211" lon="-0.40209">
        <ele>1.7</ele>
        <time>2012-01-13T13:33:02Z</time>
      </trkpt>
      <trkpt lat="49.16211" lon="-0.40207">
        <ele>1.7</ele>
        <time>2012-01-13T13:33:03Z</time>
      </trkpt>
      <trkpt lat="49.16211" lon="-0.40205">
        <ele>1.7</ele>
        <time>2012-01-13T13:33:04Z</time>
      </trkpt>
      <trkpt lat="49.16211" lon="-0.40203">
        <ele>1.7</ele>
        <time>2012-01-13T13:33:05Z</time>
      </trkpt>
      <trkpt lat="49.16211" lon="-0.40202">
        <ele>1.7</ele>
        <time>2012-01-13T13:33:06Z</time>
      </trkpt>
      <trkpt lat="49.16212" lon="-0.402">
        <ele>1.7</ele>
        <time>2012-01-13T13:33:07Z</time>
      </trkpt>
      <trkpt lat="49.16212" lon="-0.40198">
        <ele>1.7</ele>
        <time>2012-01-13T13:33:08Z</time>
      </trkpt>
      <trkpt lat="49.16212" lon="-0.40196">
        <ele>1.7</ele>
        <time>2012-01-13T13:33:09Z</time>
      </trkpt>
      <trkpt lat="49.16212" lon="-0.40195">
        <ele>1.7</ele>
        <time>2012-01-13T13:33:10Z</time>
      </trkpt>
      <trkpt lat="49.16212" lon="-0.40193">
        <ele>1.7</ele>
        <time>2012-01-13T13:33:11Z</time>
      </trkpt>
      <trkpt lat="49.16212" lon="-0.40191">
        <ele>1.7</ele>
        <time>2012-01-13T13:33:12Z</time>
      </trkpt>
      <trkpt lat="49.16212" lon="-0.40189">
        <ele>1.6</ele>
        <time>2012-01-13T13:33:13Z</time>
      </trkpt>
      <trkpt lat="49.16212" lon="-0.40188">
        <ele>1.6</ele>
        <time>2012-01-13T13:33:14Z</time>
      </trkpt>
      <trkpt lat="49.16212" lon="-0.40186">
        <ele>1.6</ele>
        <time>2012-01-13T13:33:15Z</time>
      </trkpt>
      <trkpt lat="49.16212" lon="-0.40184">
        <ele>1.6</ele>
        <time>2012-01-13T13:33:16Z</time>
      </trkpt>
      <trkpt lat="49.16212" lon="-0.40183">
        <ele>1.6</ele>
        <time>2012-01-13T13:33:17Z</time>
      </trkpt>
      <trkpt lat="49.16212" lon="-0.40181">
        <ele>1.7</ele>
        <time>2012-01-13T13:33:18Z</time>
      </trkpt>
      <trkpt lat="49.16212" lon="-0.40179">
        <ele>1.6</ele>
        <time>2012-01-13T13:33:19Z</time>
      </trkpt>
      <trkpt lat="49.16213" lon="-0.40178">
        <ele>1.7</ele>
        <time>2012-01-13T13:33:20Z</time>
      </trkpt>
      <trkpt lat="49.16212" lon="-0.40176">
        <ele>1.7</ele>
        <time>2012-01-13T13:33:21Z</time>
      </trkpt>
      <trkpt lat="49.16212" lon="-0.40174">
        <ele>1.7</ele>
        <time>2012-01-13T13:33:22Z</time>
      </trkpt>
      <trkpt lat="49.16212" lon="-0.40173">
        <ele>1.7</ele>
        <time>2012-01-13T13:33:23Z</time>
      </trkpt>
      <trkpt lat="49.16212" lon="-0.40171">
        <ele>2</ele>
        <time>2012-01-13T13:33:24Z</time>
      </trkpt>
      <trkpt lat="49.16212" lon="-0.4017">
        <ele>2</ele>
        <time>2012-01-13T13:33:25Z</time>
      </trkpt>
      <trkpt lat="49.16213" lon="-0.40168">
        <ele>2</ele>
        <time>2012-01-13T13:33:26Z</time>
      </trkpt>
      <trkpt lat="49.16213" lon="-0.40166">
        <ele>2.2</ele>
        <time>2012-01-13T13:33:27Z</time>
      </trkpt>
      <trkpt lat="49.16213" lon="-0.40165">
        <ele>2.2</ele>
        <time>2012-01-13T13:33:28Z</time>
      </trkpt>
      <trkpt lat="49.16213" lon="-0.40163">
        <ele>2.2</ele>
        <time>2012-01-13T13:33:29Z</time>
      </trkpt>
      <trkpt lat="49.16214" lon="-0.40162">
        <ele>2.5</ele>
        <time>2012-01-13T13:33:30Z</time>
      </trkpt>
      <trkpt lat="49.16214" lon="-0.4016">
        <ele>2.5</ele>
        <time>2012-01-13T13:33:31Z</time>
      </trkpt>
      <trkpt lat="49.16215" lon="-0.40159">
        <ele>2.7</ele>
        <time>2012-01-13T13:33:32Z</time>
      </trkpt>
      <trkpt lat="49.16216" lon="-0.40158">
        <ele>2.5</ele>
        <time>2012-01-13T13:33:33Z</time>
      </trkpt>
      <trkpt lat="49.16216" lon="-0.40156">
        <ele>2.5</ele>
        <time>2012-01-13T13:33:34Z</time>
      </trkpt>
      <trkpt lat="49.16217" lon="-0.40155">
        <ele>2.5</ele>
        <time>2012-01-13T13:33:35Z</time>
      </trkpt>
      <trkpt lat="49.16218" lon="-0.40154">
        <ele>2.5</ele>
        <time>2012-01-13T13:33:36Z</time>
      </trkpt>
      <trkpt lat="49.16219" lon="-0.40152">
        <ele>2.7</ele>
        <time>2012-01-13T13:33:37Z</time>
      </trkpt>
      <trkpt lat="49.1622" lon="-0.40151">
        <ele>2.7</ele>
        <time>2012-01-13T13:33:38Z</time>
      </trkpt>
      <trkpt lat="49.16221" lon="-0.4015">
        <ele>2.9</ele>
        <time>2012-01-13T13:33:39Z</time>
      </trkpt>
      <trkpt lat="49.16221" lon="-0.40149">
        <ele>2.7</ele>
        <time>2012-01-13T13:33:40Z</time>
      </trkpt>
      <trkpt lat="49.16222" lon="-0.40148">
        <ele>2.7</ele>
        <time>2012-01-13T13:33:41Z</time>
      </trkpt>
      <trkpt lat="49.16223" lon="-0.40146">
        <ele>2.5</ele>
        <time>2012-01-13T13:33:42Z</time>
      </trkpt>
      <trkpt lat="49.16223" lon="-0.40144">
        <ele>2.7</ele>
        <time>2012-01-13T13:33:43Z</time>
      </trkpt>
      <trkpt lat="49.16224" lon="-0.40143">
        <ele>2.5</ele>
        <time>2012-01-13T13:33:44Z</time>
      </trkpt>
      <trkpt lat="49.16224" lon="-0.40141">
        <ele>2.5</ele>
        <time>2012-01-13T13:33:45Z</time>
      </trkpt>
      <trkpt lat="49.16224" lon="-0.40139">
        <ele>2.5</ele>
        <time>2012-01-13T13:33:46Z</time>
      </trkpt>
      <trkpt lat="49.16225" lon="-0.40137">
        <ele>2.5</ele>
        <time>2012-01-13T13:33:47Z</time>
      </trkpt>
      <trkpt lat="49.16225" lon="-0.40135">
        <ele>2.7</ele>
        <time>2012-01-13T13:33:48Z</time>
      </trkpt>
      <trkpt lat="49.16225" lon="-0.40133">
        <ele>2.7</ele>
        <time>2012-01-13T13:33:49Z</time>
      </trkpt>
      <trkpt lat="49.16225" lon="-0.40131">
        <ele>2.7</ele>
        <time>2012-01-13T13:33:50Z</time>
      </trkpt>
      <trkpt lat="49.16226" lon="-0.40129">
        <ele>2.7</ele>
        <time>2012-01-13T13:33:51Z</time>
      </trkpt>
      <trkpt lat="49.16226" lon="-0.40127">
        <ele>2.9</ele>
        <time>2012-01-13T13:33:52Z</time>
      </trkpt>
      <trkpt lat="49.16226" lon="-0.40125">
        <ele>3</ele>
        <time>2012-01-13T13:33:53Z</time>
      </trkpt>
      <trkpt lat="49.16226" lon="-0.40123">
        <ele>3</ele>
        <time>2012-01-13T13:33:54Z</time>
      </trkpt>
      <trkpt lat="49.16225" lon="-0.40121">
        <ele>3</ele>
        <time>2012-01-13T13:33:55Z</time>
      </trkpt>
      <trkpt lat="49.16225" lon="-0.4012">
        <ele>3.2</ele>
        <time>2012-01-13T13:33:56Z</time>
      </trkpt>
      <trkpt lat="49.16224" lon="-0.40118">
        <ele>3.2</ele>
        <time>2012-01-13T13:33:57Z</time>
      </trkpt>
      <trkpt lat="49.16224" lon="-0.40116">
        <ele>3.2</ele>
        <time>2012-01-13T13:33:58Z</time>
      </trkpt>
      <trkpt lat="49.16224" lon="-0.40114">
        <ele>3.2</ele>
        <time>2012-01-13T13:33:59Z</time>
      </trkpt>
      <trkpt lat="49.16223" lon="-0.40112">
        <ele>3.2</ele>
        <time>2012-01-13T13:34:00Z</time>
      </trkpt>
      <trkpt lat="49.16224" lon="-0.40111">
        <ele>3.2</ele>
        <time>2012-01-13T13:34:01Z</time>
      </trkpt>
      <trkpt lat="49.16224" lon="-0.40109">
        <ele>3.2</ele>
        <time>2012-01-13T13:34:02Z</time>
      </trkpt>
      <trkpt lat="49.16224" lon="-0.40107">
        <ele>3.2</ele>
        <time>2012-01-13T13:34:03Z</time>
      </trkpt>
      <trkpt lat="49.16225" lon="-0.40106">
        <ele>3.2</ele>
        <time>2012-01-13T13:34:04Z</time>
      </trkpt>
      <trkpt lat="49.16225" lon="-0.40105">
        <ele>3.2</ele>
        <time>2012-01-13T13:34:05Z</time>
      </trkpt>
      <trkpt lat="49.16225" lon="-0.40103">
        <ele>3.5</ele>
        <time>2012-01-13T13:34:06Z</time>
      </trkpt>
      <trkpt lat="49.16225" lon="-0.40102">
        <ele>3.7</ele>
        <time>2012-01-13T13:34:07Z</time>
      </trkpt>
      <trkpt lat="49.16225" lon="-0.40101">
        <ele>3.9</ele>
        <time>2012-01-13T13:34:08Z</time>
      </trkpt>
      <trkpt lat="49.16225" lon="-0.401">
        <ele>4</ele>
        <time>2012-01-13T13:34:09Z</time>
      </trkpt>
      <trkpt lat="49.16225" lon="-0.40098">
        <ele>4</ele>
        <time>2012-01-13T13:34:10Z</time>
      </trkpt>
      <trkpt lat="49.16225" lon="-0.40096">
        <ele>4</ele>
        <time>2012-01-13T13:34:11Z</time>
      </trkpt>
      <trkpt lat="49.16224" lon="-0.40095">
        <ele>4</ele>
        <time>2012-01-13T13:34:12Z</time>
      </trkpt>
      <trkpt lat="49.16223" lon="-0.40093">
        <ele>4.3</ele>
        <time>2012-01-13T13:34:13Z</time>
      </trkpt>
      <trkpt lat="49.16223" lon="-0.40091">
        <ele>4.5</ele>
        <time>2012-01-13T13:34:14Z</time>
      </trkpt>
      <trkpt lat="49.16222" lon="-0.4009">
        <ele>5.3</ele>
        <time>2012-01-13T13:34:15Z</time>
      </trkpt>
      <trkpt lat="49.16222" lon="-0.40088">
        <ele>5.5</ele>
        <time>2012-01-13T13:34:16Z</time>
      </trkpt>
      <trkpt lat="49.16221" lon="-0.40087">
        <ele>5.9</ele>
        <time>2012-01-13T13:34:17Z</time>
      </trkpt>
      <trkpt lat="49.1622" lon="-0.40085">
        <ele>6</ele>
        <time>2012-01-13T13:34:18Z</time>
      </trkpt>
      <trkpt lat="49.16219" lon="-0.40084">
        <ele>6</ele>
        <time>2012-01-13T13:34:19Z</time>
      </trkpt>
      <trkpt lat="49.16218" lon="-0.40082">
        <ele>6.3</ele>
        <time>2012-01-13T13:34:20Z</time>
      </trkpt>
      <trkpt lat="49.16217" lon="-0.40081">
        <ele>6.4</ele>
        <time>2012-01-13T13:34:21Z</time>
      </trkpt>
      <trkpt lat="49.16216" lon="-0.4008">
        <ele>6.4</ele>
        <time>2012-01-13T13:34:22Z</time>
      </trkpt>
      <trkpt lat="49.16215" lon="-0.40079">
        <ele>6.5</ele>
        <time>2012-01-13T13:34:23Z</time>
      </trkpt>
      <trkpt lat="49.16214" lon="-0.40078">
        <ele>6.5</ele>
        <time>2012-01-13T13:34:24Z</time>
      </trkpt>
      <trkpt lat="49.16213" lon="-0.40076">
        <ele>6.8</ele>
        <time>2012-01-13T13:34:25Z</time>
      </trkpt>
      <trkpt lat="49.16211" lon="-0.40075">
        <ele>7</ele>
        <time>2012-01-13T13:34:26Z</time>
      </trkpt>
      <trkpt lat="49.1621" lon="-0.40074">
        <ele>7</ele>
        <time>2012-01-13T13:34:27Z</time>
      </trkpt>
      <trkpt lat="49.1621" lon="-0.40073">
        <ele>7.3</ele>
        <time>2012-01-13T13:34:28Z</time>
      </trkpt>
      <trkpt lat="49.16209" lon="-0.40072">
        <ele>7.3</ele>
        <time>2012-01-13T13:34:29Z</time>
      </trkpt>
      <trkpt lat="49.16208" lon="-0.4007">
        <ele>7.3</ele>
        <time>2012-01-13T13:34:30Z</time>
      </trkpt>
      <trkpt lat="49.16207" lon="-0.40068">
        <ele>7.4</ele>
        <time>2012-01-13T13:34:31Z</time>
      </trkpt>
      <trkpt lat="49.16206" lon="-0.40067">
        <ele>7.4</ele>
        <time>2012-01-13T13:34:32Z</time>
      </trkpt>
      <trkpt lat="49.16206" lon="-0.40066">
        <ele>7.4</ele>
        <time>2012-01-13T13:34:33Z</time>
      </trkpt>
      <trkpt lat="49.16205" lon="-0.40065">
        <ele>7.4</ele>
        <time>2012-01-13T13:34:34Z</time>
      </trkpt>
      <trkpt lat="49.16204" lon="-0.40065">
        <ele>7.4</ele>
        <time>2012-01-13T13:34:35Z</time>
      </trkpt>
      <trkpt lat="49.16202" lon="-0.40065">
        <ele>7.4</ele>
        <time>2012-01-13T13:34:36Z</time>
      </trkpt>
      <trkpt lat="49.16201" lon="-0.40064">
        <ele>7.4</ele>
        <time>2012-01-13T13:34:37Z</time>
      </trkpt>
      <trkpt lat="49.162" lon="-0.40064">
        <ele>7.4</ele>
        <time>2012-01-13T13:34:38Z</time>
      </trkpt>
      <trkpt lat="49.16199" lon="-0.40065">
        <ele>7.4</ele>
        <time>2012-01-13T13:34:39Z</time>
      </trkpt>
      <trkpt lat="49.16198" lon="-0.40065">
        <ele>7.5</ele>
        <time>2012-01-13T13:34:40Z</time>
      </trkpt>
      <trkpt lat="49.16197" lon="-0.40065">
        <ele>7.5</ele>
        <time>2012-01-13T13:34:41Z</time>
      </trkpt>
      <trkpt lat="49.16196" lon="-0.40065">
        <ele>7.5</ele>
        <time>2012-01-13T13:34:42Z</time>
      </trkpt>
      <trkpt lat="49.16194" lon="-0.40065">
        <ele>7.5</ele>
        <time>2012-01-13T13:34:43Z</time>
      </trkpt>
      <trkpt lat="49.16193" lon="-0.40065">
        <ele>7.5</ele>
        <time>2012-01-13T13:34:44Z</time>
      </trkpt>
      <trkpt lat="49.16192" lon="-0.40065">
        <ele>7.9</ele>
        <time>2012-01-13T13:34:45Z</time>
      </trkpt>
      <trkpt lat="49.16191" lon="-0.40064">
        <ele>7.9</ele>
        <time>2012-01-13T13:34:46Z</time>
      </trkpt>
      <trkpt lat="49.1619" lon="-0.40064">
        <ele>8</ele>
        <time>2012-01-13T13:34:47Z</time>
      </trkpt>
      <trkpt lat="49.16189" lon="-0.40064">
        <ele>8</ele>
        <time>2012-01-13T13:34:48Z</time>
      </trkpt>
      <trkpt lat="49.16188" lon="-0.40063">
        <ele>8</ele>
        <time>2012-01-13T13:34:49Z</time>
      </trkpt>
      <trkpt lat="49.16187" lon="-0.40062">
        <ele>8.1</ele>
        <time>2012-01-13T13:34:50Z</time>
      </trkpt>
      <trkpt lat="49.16185" lon="-0.40062">
        <ele>8.1</ele>
        <time>2012-01-13T13:34:51Z</time>
      </trkpt>
      <trkpt lat="49.16184" lon="-0.40061">
        <ele>8.1</ele>
        <time>2012-01-13T13:34:52Z</time>
      </trkpt>
      <trkpt lat="49.16183" lon="-0.4006">
        <ele>8.1</ele>
        <time>2012-01-13T13:34:53Z</time>
      </trkpt>
      <trkpt lat="49.16182" lon="-0.40059">
        <ele>8</ele>
        <time>2012-01-13T13:34:54Z</time>
      </trkpt>
      <trkpt lat="49.16181" lon="-0.40058">
        <ele>8</ele>
        <time>2012-01-13T13:34:55Z</time>
      </trkpt>
      <trkpt lat="49.1618" lon="-0.40057">
        <ele>8</ele>
        <time>2012-01-13T13:34:56Z</time>
      </trkpt>
      <trkpt lat="49.1618" lon="-0.40057">
        <ele>8.1</ele>
        <time>2012-01-13T13:34:57Z</time>
      </trkpt>
      <trkpt lat="49.16179" lon="-0.40056">
        <ele>8.5</ele>
        <time>2012-01-13T13:34:58Z</time>
      </trkpt>
      <trkpt lat="49.16179" lon="-0.40056">
        <ele>8.6</ele>
        <time>2012-01-13T13:34:59Z</time>
      </trkpt>
      <trkpt lat="49.16179" lon="-0.40056">
        <ele>8.8</ele>
        <time>2012-01-13T13:35:00Z</time>
      </trkpt>
      <trkpt lat="49.16179" lon="-0.40056">
        <ele>9</ele>
        <time>2012-01-13T13:35:01Z</time>
      </trkpt>
      <trkpt lat="49.16178" lon="-0.40055">
        <ele>8.8</ele>
        <time>2012-01-13T13:35:02Z</time>
      </trkpt>
      <trkpt lat="49.16177" lon="-0.40053">
        <ele>8.5</ele>
        <time>2012-01-13T13:35:03Z</time>
      </trkpt>
      <trkpt lat="49.16177" lon="-0.40051">
        <ele>8.5</ele>
        <time>2012-01-13T13:35:04Z</time>
      </trkpt>
      <trkpt lat="49.16176" lon="-0.4005">
        <ele>8.3</ele>
        <time>2012-01-13T13:35:05Z</time>
      </trkpt>
      <trkpt lat="49.16175" lon="-0.40049">
        <ele>8.3</ele>
        <time>2012-01-13T13:35:06Z</time>
      </trkpt>
      <trkpt lat="49.16174" lon="-0.40047">
        <ele>8.3</ele>
        <time>2012-01-13T13:35:07Z</time>
      </trkpt>
      <trkpt lat="49.16173" lon="-0.40046">
        <ele>8.1</ele>
        <time>2012-01-13T13:35:08Z</time>
      </trkpt>
      <trkpt lat="49.16172" lon="-0.40045">
        <ele>8.1</ele>
        <time>2012-01-13T13:35:09Z</time>
      </trkpt>
      <trkpt lat="49.16171" lon="-0.40043">
        <ele>8.1</ele>
        <time>2012-01-13T13:35:10Z</time>
      </trkpt>
      <trkpt lat="49.1617" lon="-0.40041">
        <ele>8.1</ele>
        <time>2012-01-13T13:35:11Z</time>
      </trkpt>
      <trkpt lat="49.1617" lon="-0.4004">
        <ele>8.1</ele>
        <time>2012-01-13T13:35:12Z</time>
      </trkpt>
      <trkpt lat="49.16169" lon="-0.40038">
        <ele>8.1</ele>
        <time>2012-01-13T13:35:13Z</time>
      </trkpt>
      <trkpt lat="49.16169" lon="-0.40036">
        <ele>8.1</ele>
        <time>2012-01-13T13:35:14Z</time>
      </trkpt>
      <trkpt lat="49.16168" lon="-0.40035">
        <ele>8</ele>
        <time>2012-01-13T13:35:15Z</time>
      </trkpt>
      <trkpt lat="49.16167" lon="-0.40033">
        <ele>7.8</ele>
        <time>2012-01-13T13:35:16Z</time>
      </trkpt>
      <trkpt lat="49.16167" lon="-0.40031">
        <ele>7.8</ele>
        <time>2012-01-13T13:35:17Z</time>
      </trkpt>
      <trkpt lat="49.16166" lon="-0.4003">
        <ele>7.5</ele>
        <time>2012-01-13T13:35:18Z</time>
      </trkpt>
      <trkpt lat="49.16166" lon="-0.40028">
        <ele>7.4</ele>
        <time>2012-01-13T13:35:19Z</time>
      </trkpt>
      <trkpt lat="49.16166" lon="-0.40026">
        <ele>7.3</ele>
        <time>2012-01-13T13:35:20Z</time>
      </trkpt>
      <trkpt lat="49.16165" lon="-0.40025">
        <ele>7</ele>
        <time>2012-01-13T13:35:21Z</time>
      </trkpt>
      <trkpt lat="49.16165" lon="-0.40023">
        <ele>7</ele>
        <time>2012-01-13T13:35:22Z</time>
      </trkpt>
      <trkpt lat="49.16165" lon="-0.40022">
        <ele>7</ele>
        <time>2012-01-13T13:35:23Z</time>
      </trkpt>
      <trkpt lat="49.16164" lon="-0.4002">
        <ele>7</ele>
        <time>2012-01-13T13:35:24Z</time>
      </trkpt>
      <trkpt lat="49.16164" lon="-0.40019">
        <ele>6.8</ele>
        <time>2012-01-13T13:35:25Z</time>
      </trkpt>
      <trkpt lat="49.16164" lon="-0.40017">
        <ele>6.8</ele>
        <time>2012-01-13T13:35:26Z</time>
      </trkpt>
      <trkpt lat="49.16163" lon="-0.40015">
        <ele>6.5</ele>
        <time>2012-01-13T13:35:27Z</time>
      </trkpt>
      <trkpt lat="49.16163" lon="-0.40014">
        <ele>6.5</ele>
        <time>2012-01-13T13:35:28Z</time>
      </trkpt>
      <trkpt lat="49.16162" lon="-0.40012">
        <ele>6.4</ele>
        <time>2012-01-13T13:35:29Z</time>
      </trkpt>
      <trkpt lat="49.16162" lon="-0.4001">
        <ele>6.3</ele>
        <time>2012-01-13T13:35:30Z</time>
      </trkpt>
      <trkpt lat="49.16162" lon="-0.40009">
        <ele>6</ele>
        <time>2012-01-13T13:35:31Z</time>
      </trkpt>
      <trkpt lat="49.16161" lon="-0.40007">
        <ele>6</ele>
        <time>2012-01-13T13:35:32Z</time>
      </trkpt>
      <trkpt lat="49.16161" lon="-0.40006">
        <ele>6</ele>
        <time>2012-01-13T13:35:33Z</time>
      </trkpt>
      <trkpt lat="49.16161" lon="-0.40004">
        <ele>5.9</ele>
        <time>2012-01-13T13:35:34Z</time>
      </trkpt>
      <trkpt lat="49.1616" lon="-0.40002">
        <ele>5.8</ele>
        <time>2012-01-13T13:35:35Z</time>
      </trkpt>
      <trkpt lat="49.1616" lon="-0.4">
        <ele>5.8</ele>
        <time>2012-01-13T13:35:36Z</time>
      </trkpt>
      <trkpt lat="49.1616" lon="-0.39999">
        <ele>5.8</ele>
        <time>2012-01-13T13:35:37Z</time>
      </trkpt>
      <trkpt lat="49.16159" lon="-0.39997">
        <ele>5.9</ele>
        <time>2012-01-13T13:35:38Z</time>
      </trkpt>
      <trkpt lat="49.16159" lon="-0.39995">
        <ele>6</ele>
        <time>2012-01-13T13:35:39Z</time>
      </trkpt>
      <trkpt lat="49.16159" lon="-0.39994">
        <ele>6</ele>
        <time>2012-01-13T13:35:40Z</time>
      </trkpt>
      <trkpt lat="49.16158" lon="-0.39992">
        <ele>6</ele>
        <time>2012-01-13T13:35:41Z</time>
      </trkpt>
      <trkpt lat="49.16158" lon="-0.3999">
        <ele>6</ele>
        <time>2012-01-13T13:35:42Z</time>
      </trkpt>
      <trkpt lat="49.16158" lon="-0.39989">
        <ele>6.4</ele>
        <time>2012-01-13T13:35:43Z</time>
      </trkpt>
      <trkpt lat="49.16157" lon="-0.39987">
        <ele>6.3</ele>
        <time>2012-01-13T13:35:44Z</time>
      </trkpt>
      <trkpt lat="49.16157" lon="-0.39985">
        <ele>6.3</ele>
        <time>2012-01-13T13:35:45Z</time>
      </trkpt>
      <trkpt lat="49.16157" lon="-0.39984">
        <ele>6.3</ele>
        <time>2012-01-13T13:35:46Z</time>
      </trkpt>
      <trkpt lat="49.16156" lon="-0.39982">
        <ele>6</ele>
        <time>2012-01-13T13:35:47Z</time>
      </trkpt>
      <trkpt lat="49.16156" lon="-0.3998">
        <ele>6</ele>
        <time>2012-01-13T13:35:48Z</time>
      </trkpt>
      <trkpt lat="49.16156" lon="-0.39978">
        <ele>6</ele>
        <time>2012-01-13T13:35:49Z</time>
      </trkpt>
      <trkpt lat="49.16155" lon="-0.39977">
        <ele>6</ele>
        <time>2012-01-13T13:35:50Z</time>
      </trkpt>
      <trkpt lat="49.16155" lon="-0.39975">
        <ele>6</ele>
        <time>2012-01-13T13:35:51Z</time>
      </trkpt>
      <trkpt lat="49.16155" lon="-0.39973">
        <ele>6.3</ele>
        <time>2012-01-13T13:35:52Z</time>
      </trkpt>
      <trkpt lat="49.16154" lon="-0.39971">
        <ele>6.3</ele>
        <time>2012-01-13T13:35:53Z</time>
      </trkpt>
      <trkpt lat="49.16154" lon="-0.3997">
        <ele>6</ele>
        <time>2012-01-13T13:35:54Z</time>
      </trkpt>
      <trkpt lat="49.16153" lon="-0.39968">
        <ele>6.3</ele>
        <time>2012-01-13T13:35:55Z</time>
      </trkpt>
      <trkpt lat="49.16153" lon="-0.39966">
        <ele>6.3</ele>
        <time>2012-01-13T13:35:56Z</time>
      </trkpt>
      <trkpt lat="49.16153" lon="-0.39964">
        <ele>6.4</ele>
        <time>2012-01-13T13:35:57Z</time>
      </trkpt>
      <trkpt lat="49.16152" lon="-0.39963">
        <ele>6.4</ele>
        <time>2012-01-13T13:35:58Z</time>
      </trkpt>
      <trkpt lat="49.16152" lon="-0.39961">
        <ele>6.3</ele>
        <time>2012-01-13T13:35:59Z</time>
      </trkpt>
      <trkpt lat="49.16152" lon="-0.39959">
        <ele>6.3</ele>
        <time>2012-01-13T13:36:00Z</time>
      </trkpt>
      <trkpt lat="49.16151" lon="-0.39958">
        <ele>6.3</ele>
        <time>2012-01-13T13:36:01Z</time>
      </trkpt>
      <trkpt lat="49.16151" lon="-0.39956">
        <ele>6</ele>
        <time>2012-01-13T13:36:02Z</time>
      </trkpt>
      <trkpt lat="49.16151" lon="-0.39954">
        <ele>6</ele>
        <time>2012-01-13T13:36:03Z</time>
      </trkpt>
      <trkpt lat="49.1615" lon="-0.39953">
        <ele>6</ele>
        <time>2012-01-13T13:36:04Z</time>
      </trkpt>
      <trkpt lat="49.1615" lon="-0.39951">
        <ele>6</ele>
        <time>2012-01-13T13:36:05Z</time>
      </trkpt>
      <trkpt lat="49.16149" lon="-0.39949">
        <ele>6</ele>
        <time>2012-01-13T13:36:06Z</time>
      </trkpt>
      <trkpt lat="49.16149" lon="-0.39947">
        <ele>6</ele>
        <time>2012-01-13T13:36:07Z</time>
      </trkpt>
      <trkpt lat="49.16149" lon="-0.39946">
        <ele>5.9</ele>
        <time>2012-01-13T13:36:08Z</time>
      </trkpt>
      <trkpt lat="49.16148" lon="-0.39944">
        <ele>5.8</ele>
        <time>2012-01-13T13:36:09Z</time>
      </trkpt>
      <trkpt lat="49.16148" lon="-0.39942">
        <ele>5.8</ele>
        <time>2012-01-13T13:36:10Z</time>
      </trkpt>
      <trkpt lat="49.16148" lon="-0.39941">
        <ele>5.8</ele>
        <time>2012-01-13T13:36:11Z</time>
      </trkpt>
      <trkpt lat="49.16147" lon="-0.39939">
        <ele>5.8</ele>
        <time>2012-01-13T13:36:12Z</time>
      </trkpt>
      <trkpt lat="49.16147" lon="-0.39937">
        <ele>5.5</ele>
        <time>2012-01-13T13:36:13Z</time>
      </trkpt>
      <trkpt lat="49.16147" lon="-0.39935">
        <ele>5.5</ele>
        <time>2012-01-13T13:36:14Z</time>
      </trkpt>
      <trkpt lat="49.16146" lon="-0.39934">
        <ele>5.5</ele>
        <time>2012-01-13T13:36:15Z</time>
      </trkpt>
      <trkpt lat="49.16146" lon="-0.39932">
        <ele>5.5</ele>
        <time>2012-01-13T13:36:16Z</time>
      </trkpt>
      <trkpt lat="49.16146" lon="-0.3993">
        <ele>5.5</ele>
        <time>2012-01-13T13:36:17Z</time>
      </trkpt>
      <trkpt lat="49.16145" lon="-0.39929">
        <ele>5.5</ele>
        <time>2012-01-13T13:36:18Z</time>
      </trkpt>
      <trkpt lat="49.16145" lon="-0.39927">
        <ele>5.5</ele>
        <time>2012-01-13T13:36:19Z</time>
      </trkpt>
      <trkpt lat="49.16144" lon="-0.39926">
        <ele>5.4</ele>
        <time>2012-01-13T13:36:20Z</time>
      </trkpt>
      <trkpt lat="49.16144" lon="-0.39924">
        <ele>5.3</ele>
        <time>2012-01-13T13:36:21Z</time>
      </trkpt>
      <trkpt lat="49.16144" lon="-0.39923">
        <ele>5.5</ele>
        <time>2012-01-13T13:36:22Z</time>
      </trkpt>
      <trkpt lat="49.16143" lon="-0.39921">
        <ele>5.5</ele>
        <time>2012-01-13T13:36:23Z</time>
      </trkpt>
      <trkpt lat="49.16143" lon="-0.39919">
        <ele>5.5</ele>
        <time>2012-01-13T13:36:24Z</time>
      </trkpt>
      <trkpt lat="49.16143" lon="-0.39918">
        <ele>5.4</ele>
        <time>2012-01-13T13:36:25Z</time>
      </trkpt>
      <trkpt lat="49.16143" lon="-0.39916">
        <ele>5.5</ele>
        <time>2012-01-13T13:36:26Z</time>
      </trkpt>
      <trkpt lat="49.16143" lon="-0.39914">
        <ele>5</ele>
        <time>2012-01-13T13:36:27Z</time>
      </trkpt>
      <trkpt lat="49.16143" lon="-0.39913">
        <ele>5</ele>
        <time>2012-01-13T13:36:28Z</time>
      </trkpt>
      <trkpt lat="49.16143" lon="-0.39911">
        <ele>5.3</ele>
        <time>2012-01-13T13:36:29Z</time>
      </trkpt>
      <trkpt lat="49.16144" lon="-0.3991">
        <ele>5.3</ele>
        <time>2012-01-13T13:36:30Z</time>
      </trkpt>
      <trkpt lat="49.16144" lon="-0.39908">
        <ele>5</ele>
        <time>2012-01-13T13:36:31Z</time>
      </trkpt>
      <trkpt lat="49.16145" lon="-0.39907">
        <ele>5</ele>
        <time>2012-01-13T13:36:32Z</time>
      </trkpt>
      <trkpt lat="49.16145" lon="-0.39906">
        <ele>5</ele>
        <time>2012-01-13T13:36:33Z</time>
      </trkpt>
      <trkpt lat="49.16145" lon="-0.39905">
        <ele>5.3</ele>
        <time>2012-01-13T13:36:34Z</time>
      </trkpt>
      <trkpt lat="49.16146" lon="-0.39904">
        <ele>5.4</ele>
        <time>2012-01-13T13:36:35Z</time>
      </trkpt>
      <trkpt lat="49.16146" lon="-0.39903">
        <ele>5.3</ele>
        <time>2012-01-13T13:36:36Z</time>
      </trkpt>
      <trkpt lat="49.16147" lon="-0.39903">
        <ele>5.3</ele>
        <time>2012-01-13T13:36:37Z</time>
      </trkpt>
      <trkpt lat="49.16147" lon="-0.39902">
        <ele>5.5</ele>
        <time>2012-01-13T13:36:38Z</time>
      </trkpt>
      <trkpt lat="49.16147" lon="-0.39902">
        <ele>5.5</ele>
        <time>2012-01-13T13:36:39Z</time>
      </trkpt>
      <trkpt lat="49.16148" lon="-0.39901">
        <ele>5.8</ele>
        <time>2012-01-13T13:36:40Z</time>
      </trkpt>
      <trkpt lat="49.16148" lon="-0.39901">
        <ele>6</ele>
        <time>2012-01-13T13:36:41Z</time>
      </trkpt>
      <trkpt lat="49.16149" lon="-0.39901">
        <ele>5.9</ele>
        <time>2012-01-13T13:36:42Z</time>
      </trkpt>
      <trkpt lat="49.16149" lon="-0.39901">
        <ele>5.9</ele>
        <time>2012-01-13T13:36:43Z</time>
      </trkpt>
      <trkpt lat="49.16149" lon="-0.39901">
        <ele>5.8</ele>
        <time>2012-01-13T13:36:44Z</time>
      </trkpt>
      <trkpt lat="49.16149" lon="-0.39902">
        <ele>5.8</ele>
        <time>2012-01-13T13:36:45Z</time>
      </trkpt>
      <trkpt lat="49.16149" lon="-0.39902">
        <ele>5.5</ele>
        <time>2012-01-13T13:36:46Z</time>
      </trkpt>
      <trkpt lat="49.16149" lon="-0.39902">
        <ele>5.5</ele>
        <time>2012-01-13T13:36:47Z</time>
      </trkpt>
      <trkpt lat="49.16149" lon="-0.39903">
        <ele>5.5</ele>
        <time>2012-01-13T13:36:48Z</time>
      </trkpt>
      <trkpt lat="49.16149" lon="-0.39903">
        <ele>5.5</ele>
        <time>2012-01-13T13:36:49Z</time>
      </trkpt>
      <trkpt lat="49.16149" lon="-0.39903">
        <ele>5.4</ele>
        <time>2012-01-13T13:36:50Z</time>
      </trkpt>
      <trkpt lat="49.16149" lon="-0.39903">
        <ele>5.3</ele>
        <time>2012-01-13T13:36:51Z</time>
      </trkpt>
      <trkpt lat="49.16149" lon="-0.39903">
        <ele>5.3</ele>
        <time>2012-01-13T13:36:51Z</time>
      </trkpt>
      <trkpt lat="49.16175" lon="-0.39892">
        <ele>6.5</ele>
        <time>2012-01-13T14:02:30Z</time>
      </trkpt>
      <trkpt lat="49.16174" lon="-0.39892">
        <ele>6.5</ele>
        <time>2012-01-13T14:02:31Z</time>
      </trkpt>
      <trkpt lat="49.16174" lon="-0.39892">
        <ele>6.5</ele>
        <time>2012-01-13T14:02:32Z</time>
      </trkpt>
      <trkpt lat="49.16174" lon="-0.39892">
        <ele>6.4</ele>
        <time>2012-01-13T14:02:33Z</time>
      </trkpt>
      <trkpt lat="49.16173" lon="-0.39892">
        <ele>6.5</ele>
        <time>2012-01-13T14:02:34Z</time>
      </trkpt>
      <trkpt lat="49.16173" lon="-0.39892">
        <ele>6.5</ele>
        <time>2012-01-13T14:02:35Z</time>
      </trkpt>
      <trkpt lat="49.16173" lon="-0.39892">
        <ele>6.8</ele>
        <time>2012-01-13T14:02:36Z</time>
      </trkpt>
      <trkpt lat="49.16172" lon="-0.39892">
        <ele>7</ele>
        <time>2012-01-13T14:02:37Z</time>
      </trkpt>
      <trkpt lat="49.16172" lon="-0.39892">
        <ele>7.4</ele>
        <time>2012-01-13T14:02:38Z</time>
      </trkpt>
      <trkpt lat="49.16171" lon="-0.39892">
        <ele>7.5</ele>
        <time>2012-01-13T14:02:39Z</time>
      </trkpt>
      <trkpt lat="49.16171" lon="-0.39892">
        <ele>7.4</ele>
        <time>2012-01-13T14:02:40Z</time>
      </trkpt>
      <trkpt lat="49.1617" lon="-0.39893">
        <ele>7</ele>
        <time>2012-01-13T14:02:41Z</time>
      </trkpt>
      <trkpt lat="49.16169" lon="-0.39893">
        <ele>7</ele>
        <time>2012-01-13T14:02:42Z</time>
      </trkpt>
      <trkpt lat="49.16168" lon="-0.39893">
        <ele>7</ele>
        <time>2012-01-13T14:02:43Z</time>
      </trkpt>
      <trkpt lat="49.16167" lon="-0.39894">
        <ele>7</ele>
        <time>2012-01-13T14:02:44Z</time>
      </trkpt>
      <trkpt lat="49.16166" lon="-0.39894">
        <ele>7.5</ele>
        <time>2012-01-13T14:02:45Z</time>
      </trkpt>
      <trkpt lat="49.16165" lon="-0.39895">
        <ele>7.4</ele>
        <time>2012-01-13T14:02:46Z</time>
      </trkpt>
      <trkpt lat="49.16164" lon="-0.39895">
        <ele>7.4</ele>
        <time>2012-01-13T14:02:47Z</time>
      </trkpt>
      <trkpt lat="49.16163" lon="-0.39895">
        <ele>7.5</ele>
        <time>2012-01-13T14:02:48Z</time>
      </trkpt>
      <trkpt lat="49.16163" lon="-0.39896">
        <ele>7.3</ele>
        <time>2012-01-13T14:02:49Z</time>
      </trkpt>
      <trkpt lat="49.16162" lon="-0.39897">
        <ele>6.8</ele>
        <time>2012-01-13T14:02:50Z</time>
      </trkpt>
      <trkpt lat="49.16162" lon="-0.39897">
        <ele>6.5</ele>
        <time>2012-01-13T14:02:51Z</time>
      </trkpt>
      <trkpt lat="49.16161" lon="-0.39897">
        <ele>6.5</ele>
        <time>2012-01-13T14:02:52Z</time>
      </trkpt>
      <trkpt lat="49.16161" lon="-0.39898">
        <ele>6.5</ele>
        <time>2012-01-13T14:02:53Z</time>
      </trkpt>
      <trkpt lat="49.1616" lon="-0.39898">
        <ele>6.3</ele>
        <time>2012-01-13T14:02:54Z</time>
      </trkpt>
      <trkpt lat="49.16159" lon="-0.39898">
        <ele>6.4</ele>
        <time>2012-01-13T14:02:55Z</time>
      </trkpt>
      <trkpt lat="49.16159" lon="-0.39898">
        <ele>6.5</ele>
        <time>2012-01-13T14:02:56Z</time>
      </trkpt>
      <trkpt lat="49.16158" lon="-0.39898">
        <ele>6</ele>
        <time>2012-01-13T14:02:57Z</time>
      </trkpt>
      <trkpt lat="49.16156" lon="-0.39899">
        <ele>6.5</ele>
        <time>2012-01-13T14:02:58Z</time>
      </trkpt>
      <trkpt lat="49.16155" lon="-0.39899">
        <ele>6.8</ele>
        <time>2012-01-13T14:02:59Z</time>
      </trkpt>
      <trkpt lat="49.16154" lon="-0.399">
        <ele>7.5</ele>
        <time>2012-01-13T14:03:00Z</time>
      </trkpt>
      <trkpt lat="49.16153" lon="-0.399">
        <ele>7.8</ele>
        <time>2012-01-13T14:03:01Z</time>
      </trkpt>
      <trkpt lat="49.16152" lon="-0.39901">
        <ele>8.3</ele>
        <time>2012-01-13T14:03:02Z</time>
      </trkpt>
      <trkpt lat="49.16151" lon="-0.39901">
        <ele>8.5</ele>
        <time>2012-01-13T14:03:03Z</time>
      </trkpt>
      <trkpt lat="49.1615" lon="-0.39901">
        <ele>8.5</ele>
        <time>2012-01-13T14:03:04Z</time>
      </trkpt>
      <trkpt lat="49.16149" lon="-0.39901">
        <ele>8.8</ele>
        <time>2012-01-13T14:03:05Z</time>
      </trkpt>
      <trkpt lat="49.16148" lon="-0.39901">
        <ele>9</ele>
        <time>2012-01-13T14:03:06Z</time>
      </trkpt>
      <trkpt lat="49.16147" lon="-0.39902">
        <ele>9.1</ele>
        <time>2012-01-13T14:03:07Z</time>
      </trkpt>
      <trkpt lat="49.16146" lon="-0.39903">
        <ele>9.1</ele>
        <time>2012-01-13T14:03:08Z</time>
      </trkpt>
      <trkpt lat="49.16145" lon="-0.39904">
        <ele>9.3</ele>
        <time>2012-01-13T14:03:09Z</time>
      </trkpt>
      <trkpt lat="49.16145" lon="-0.39905">
        <ele>9.6</ele>
        <time>2012-01-13T14:03:10Z</time>
      </trkpt>
      <trkpt lat="49.16144" lon="-0.39906">
        <ele>9.6</ele>
        <time>2012-01-13T14:03:11Z</time>
      </trkpt>
      <trkpt lat="49.16143" lon="-0.39908">
        <ele>9.6</ele>
        <time>2012-01-13T14:03:12Z</time>
      </trkpt>
      <trkpt lat="49.16143" lon="-0.39909">
        <ele>9.6</ele>
        <time>2012-01-13T14:03:13Z</time>
      </trkpt>
      <trkpt lat="49.16143" lon="-0.39911">
        <ele>9.6</ele>
        <time>2012-01-13T14:03:14Z</time>
      </trkpt>
      <trkpt lat="49.16143" lon="-0.39912">
        <ele>9.8</ele>
        <time>2012-01-13T14:03:15Z</time>
      </trkpt>
      <trkpt lat="49.16143" lon="-0.39914">
        <ele>10</ele>
        <time>2012-01-13T14:03:16Z</time>
      </trkpt>
      <trkpt lat="49.16143" lon="-0.39916">
        <ele>10</ele>
        <time>2012-01-13T14:03:17Z</time>
      </trkpt>
      <trkpt lat="49.16143" lon="-0.39917">
        <ele>9.8</ele>
        <time>2012-01-13T14:03:18Z</time>
      </trkpt>
      <trkpt lat="49.16143" lon="-0.39919">
        <ele>10</ele>
        <time>2012-01-13T14:03:19Z</time>
      </trkpt>
      <trkpt lat="49.16143" lon="-0.39921">
        <ele>10</ele>
        <time>2012-01-13T14:03:20Z</time>
      </trkpt>
      <trkpt lat="49.16143" lon="-0.39922">
        <ele>9.8</ele>
        <time>2012-01-13T14:03:21Z</time>
      </trkpt>
      <trkpt lat="49.16144" lon="-0.39924">
        <ele>9.8</ele>
        <time>2012-01-13T14:03:22Z</time>
      </trkpt>
      <trkpt lat="49.16144" lon="-0.39926">
        <ele>10</ele>
        <time>2012-01-13T14:03:23Z</time>
      </trkpt>
      <trkpt lat="49.16144" lon="-0.39927">
        <ele>10</ele>
        <time>2012-01-13T14:03:24Z</time>
      </trkpt>
      <trkpt lat="49.16145" lon="-0.39928">
        <ele>10</ele>
        <time>2012-01-13T14:03:25Z</time>
      </trkpt>
      <trkpt lat="49.16145" lon="-0.3993">
        <ele>10.1</ele>
        <time>2012-01-13T14:03:26Z</time>
      </trkpt>
      <trkpt lat="49.16145" lon="-0.39932">
        <ele>10.1</ele>
        <time>2012-01-13T14:03:27Z</time>
      </trkpt>
      <trkpt lat="49.16145" lon="-0.39933">
        <ele>10</ele>
        <time>2012-01-13T14:03:28Z</time>
      </trkpt>
      <trkpt lat="49.16146" lon="-0.39935">
        <ele>10</ele>
        <time>2012-01-13T14:03:29Z</time>
      </trkpt>
      <trkpt lat="49.16146" lon="-0.39936">
        <ele>10</ele>
        <time>2012-01-13T14:03:30Z</time>
      </trkpt>
      <trkpt lat="49.16146" lon="-0.39938">
        <ele>10</ele>
        <time>2012-01-13T14:03:31Z</time>
      </trkpt>
      <trkpt lat="49.16147" lon="-0.3994">
        <ele>9.8</ele>
        <time>2012-01-13T14:03:32Z</time>
      </trkpt>
      <trkpt lat="49.16147" lon="-0.39941">
        <ele>9.8</ele>
        <time>2012-01-13T14:03:33Z</time>
      </trkpt>
      <trkpt lat="49.16147" lon="-0.39943">
        <ele>9.8</ele>
        <time>2012-01-13T14:03:34Z</time>
      </trkpt>
      <trkpt lat="49.16148" lon="-0.39945">
        <ele>10</ele>
        <time>2012-01-13T14:03:35Z</time>
      </trkpt>
      <trkpt lat="49.16148" lon="-0.39946">
        <ele>10.1</ele>
        <time>2012-01-13T14:03:36Z</time>
      </trkpt>
      <trkpt lat="49.16148" lon="-0.39948">
        <ele>10</ele>
        <time>2012-01-13T14:03:37Z</time>
      </trkpt>
      <trkpt lat="49.16149" lon="-0.39949">
        <ele>9.8</ele>
        <time>2012-01-13T14:03:38Z</time>
      </trkpt>
      <trkpt lat="49.16149" lon="-0.39951">
        <ele>9.8</ele>
        <time>2012-01-13T14:03:39Z</time>
      </trkpt>
      <trkpt lat="49.1615" lon="-0.39953">
        <ele>9.8</ele>
        <time>2012-01-13T14:03:40Z</time>
      </trkpt>
      <trkpt lat="49.1615" lon="-0.39954">
        <ele>9.8</ele>
        <time>2012-01-13T14:03:41Z</time>
      </trkpt>
      <trkpt lat="49.16151" lon="-0.39956">
        <ele>9.8</ele>
        <time>2012-01-13T14:03:42Z</time>
      </trkpt>
      <trkpt lat="49.16151" lon="-0.39958">
        <ele>9.8</ele>
        <time>2012-01-13T14:03:43Z</time>
      </trkpt>
      <trkpt lat="49.16151" lon="-0.39959">
        <ele>9.8</ele>
        <time>2012-01-13T14:03:44Z</time>
      </trkpt>
      <trkpt lat="49.16152" lon="-0.39961">
        <ele>9.8</ele>
        <time>2012-01-13T14:03:45Z</time>
      </trkpt>
      <trkpt lat="49.16152" lon="-0.39963">
        <ele>9.8</ele>
        <time>2012-01-13T14:03:46Z</time>
      </trkpt>
      <trkpt lat="49.16152" lon="-0.39965">
        <ele>9.8</ele>
        <time>2012-01-13T14:03:47Z</time>
      </trkpt>
      <trkpt lat="49.16153" lon="-0.39966">
        <ele>9.8</ele>
        <time>2012-01-13T14:03:48Z</time>
      </trkpt>
      <trkpt lat="49.16153" lon="-0.39968">
        <ele>9.8</ele>
        <time>2012-01-13T14:03:49Z</time>
      </trkpt>
      <trkpt lat="49.16154" lon="-0.3997">
        <ele>9.6</ele>
        <time>2012-01-13T14:03:50Z</time>
      </trkpt>
      <trkpt lat="49.16154" lon="-0.39971">
        <ele>9.3</ele>
        <time>2012-01-13T14:03:51Z</time>
      </trkpt>
      <trkpt lat="49.16154" lon="-0.39973">
        <ele>9.1</ele>
        <time>2012-01-13T14:03:52Z</time>
      </trkpt>
      <trkpt lat="49.16155" lon="-0.39974">
        <ele>9.1</ele>
        <time>2012-01-13T14:03:53Z</time>
      </trkpt>
      <trkpt lat="49.16155" lon="-0.39976">
        <ele>9.1</ele>
        <time>2012-01-13T14:03:54Z</time>
      </trkpt>
      <trkpt lat="49.16155" lon="-0.39978">
        <ele>9</ele>
        <time>2012-01-13T14:03:55Z</time>
      </trkpt>
      <trkpt lat="49.16156" lon="-0.3998">
        <ele>8.8</ele>
        <time>2012-01-13T14:03:56Z</time>
      </trkpt>
      <trkpt lat="49.16156" lon="-0.39981">
        <ele>8.8</ele>
        <time>2012-01-13T14:03:57Z</time>
      </trkpt>
      <trkpt lat="49.16156" lon="-0.39983">
        <ele>8.8</ele>
        <time>2012-01-13T14:03:58Z</time>
      </trkpt>
      <trkpt lat="49.16156" lon="-0.39985">
        <ele>9</ele>
        <time>2012-01-13T14:03:59Z</time>
      </trkpt>
      <trkpt lat="49.16157" lon="-0.39986">
        <ele>8.8</ele>
        <time>2012-01-13T14:04:00Z</time>
      </trkpt>
      <trkpt lat="49.16157" lon="-0.39988">
        <ele>8.8</ele>
        <time>2012-01-13T14:04:01Z</time>
      </trkpt>
      <trkpt lat="49.16157" lon="-0.3999">
        <ele>8.8</ele>
        <time>2012-01-13T14:04:02Z</time>
      </trkpt>
      <trkpt lat="49.16157" lon="-0.39992">
        <ele>8.8</ele>
        <time>2012-01-13T14:04:03Z</time>
      </trkpt>
      <trkpt lat="49.16158" lon="-0.39993">
        <ele>8.8</ele>
        <time>2012-01-13T14:04:04Z</time>
      </trkpt>
      <trkpt lat="49.16158" lon="-0.39995">
        <ele>8.8</ele>
        <time>2012-01-13T14:04:05Z</time>
      </trkpt>
      <trkpt lat="49.16158" lon="-0.39996">
        <ele>9.1</ele>
        <time>2012-01-13T14:04:06Z</time>
      </trkpt>
      <trkpt lat="49.16159" lon="-0.39998">
        <ele>9.1</ele>
        <time>2012-01-13T14:04:07Z</time>
      </trkpt>
      <trkpt lat="49.16159" lon="-0.4">
        <ele>9.3</ele>
        <time>2012-01-13T14:04:08Z</time>
      </trkpt>
      <trkpt lat="49.1616" lon="-0.40002">
        <ele>9.3</ele>
        <time>2012-01-13T14:04:09Z</time>
      </trkpt>
      <trkpt lat="49.1616" lon="-0.40004">
        <ele>9.3</ele>
        <time>2012-01-13T14:04:10Z</time>
      </trkpt>
      <trkpt lat="49.1616" lon="-0.40005">
        <ele>9.3</ele>
        <time>2012-01-13T14:04:11Z</time>
      </trkpt>
      <trkpt lat="49.16161" lon="-0.40007">
        <ele>9.1</ele>
        <time>2012-01-13T14:04:12Z</time>
      </trkpt>
      <trkpt lat="49.16161" lon="-0.40009">
        <ele>9.3</ele>
        <time>2012-01-13T14:04:13Z</time>
      </trkpt>
      <trkpt lat="49.16161" lon="-0.4001">
        <ele>9.5</ele>
        <time>2012-01-13T14:04:14Z</time>
      </trkpt>
      <trkpt lat="49.16162" lon="-0.40012">
        <ele>9.3</ele>
        <time>2012-01-13T14:04:15Z</time>
      </trkpt>
      <trkpt lat="49.16162" lon="-0.40014">
        <ele>9.5</ele>
        <time>2012-01-13T14:04:16Z</time>
      </trkpt>
      <trkpt lat="49.16162" lon="-0.40016">
        <ele>9.6</ele>
        <time>2012-01-13T14:04:17Z</time>
      </trkpt>
      <trkpt lat="49.16163" lon="-0.40017">
        <ele>9.8</ele>
        <time>2012-01-13T14:04:18Z</time>
      </trkpt>
      <trkpt lat="49.16163" lon="-0.40019">
        <ele>9.6</ele>
        <time>2012-01-13T14:04:19Z</time>
      </trkpt>
      <trkpt lat="49.16163" lon="-0.4002">
        <ele>9.6</ele>
        <time>2012-01-13T14:04:20Z</time>
      </trkpt>
      <trkpt lat="49.16163" lon="-0.40022">
        <ele>9.6</ele>
        <time>2012-01-13T14:04:21Z</time>
      </trkpt>
      <trkpt lat="49.16164" lon="-0.40024">
        <ele>9.6</ele>
        <time>2012-01-13T14:04:22Z</time>
      </trkpt>
      <trkpt lat="49.16164" lon="-0.40025">
        <ele>9.6</ele>
        <time>2012-01-13T14:04:23Z</time>
      </trkpt>
      <trkpt lat="49.16164" lon="-0.40027">
        <ele>9.3</ele>
        <time>2012-01-13T14:04:24Z</time>
      </trkpt>
      <trkpt lat="49.16165" lon="-0.40029">
        <ele>9.3</ele>
        <time>2012-01-13T14:04:25Z</time>
      </trkpt>
      <trkpt lat="49.16165" lon="-0.4003">
        <ele>9.3</ele>
        <time>2012-01-13T14:04:26Z</time>
      </trkpt>
      <trkpt lat="49.16166" lon="-0.40032">
        <ele>9.3</ele>
        <time>2012-01-13T14:04:27Z</time>
      </trkpt>
      <trkpt lat="49.16166" lon="-0.40033">
        <ele>9.5</ele>
        <time>2012-01-13T14:04:28Z</time>
      </trkpt>
      <trkpt lat="49.16166" lon="-0.40035">
        <ele>9.6</ele>
        <time>2012-01-13T14:04:29Z</time>
      </trkpt>
      <trkpt lat="49.16167" lon="-0.40036">
        <ele>9.6</ele>
        <time>2012-01-13T14:04:30Z</time>
      </trkpt>
      <trkpt lat="49.16167" lon="-0.40038">
        <ele>9.5</ele>
        <time>2012-01-13T14:04:31Z</time>
      </trkpt>
      <trkpt lat="49.16168" lon="-0.40039">
        <ele>9.5</ele>
        <time>2012-01-13T14:04:32Z</time>
      </trkpt>
      <trkpt lat="49.16168" lon="-0.4004">
        <ele>9.3</ele>
        <time>2012-01-13T14:04:33Z</time>
      </trkpt>
      <trkpt lat="49.16169" lon="-0.40042">
        <ele>9.3</ele>
        <time>2012-01-13T14:04:34Z</time>
      </trkpt>
      <trkpt lat="49.16169" lon="-0.40043">
        <ele>9.3</ele>
        <time>2012-01-13T14:04:35Z</time>
      </trkpt>
      <trkpt lat="49.1617" lon="-0.40045">
        <ele>9.3</ele>
        <time>2012-01-13T14:04:36Z</time>
      </trkpt>
      <trkpt lat="49.1617" lon="-0.40046">
        <ele>9.3</ele>
        <time>2012-01-13T14:04:37Z</time>
      </trkpt>
      <trkpt lat="49.16171" lon="-0.40047">
        <ele>9.3</ele>
        <time>2012-01-13T14:04:38Z</time>
      </trkpt>
      <trkpt lat="49.16172" lon="-0.40049">
        <ele>9.3</ele>
        <time>2012-01-13T14:04:39Z</time>
      </trkpt>
      <trkpt lat="49.16173" lon="-0.4005">
        <ele>9.1</ele>
        <time>2012-01-13T14:04:40Z</time>
      </trkpt>
      <trkpt lat="49.16174" lon="-0.40051">
        <ele>9.1</ele>
        <time>2012-01-13T14:04:41Z</time>
      </trkpt>
      <trkpt lat="49.16174" lon="-0.40052">
        <ele>9.1</ele>
        <time>2012-01-13T14:04:42Z</time>
      </trkpt>
      <trkpt lat="49.16175" lon="-0.40054">
        <ele>9.1</ele>
        <time>2012-01-13T14:04:43Z</time>
      </trkpt>
      <trkpt lat="49.16176" lon="-0.40055">
        <ele>9.1</ele>
        <time>2012-01-13T14:04:44Z</time>
      </trkpt>
      <trkpt lat="49.16177" lon="-0.40056">
        <ele>9</ele>
        <time>2012-01-13T14:04:45Z</time>
      </trkpt>
      <trkpt lat="49.16178" lon="-0.40057">
        <ele>9</ele>
        <time>2012-01-13T14:04:46Z</time>
      </trkpt>
      <trkpt lat="49.16179" lon="-0.40058">
        <ele>9</ele>
        <time>2012-01-13T14:04:47Z</time>
      </trkpt>
      <trkpt lat="49.1618" lon="-0.40058">
        <ele>9</ele>
        <time>2012-01-13T14:04:48Z</time>
      </trkpt>
      <trkpt lat="49.16181" lon="-0.40059">
        <ele>9.1</ele>
        <time>2012-01-13T14:04:49Z</time>
      </trkpt>
      <trkpt lat="49.16182" lon="-0.4006">
        <ele>9.1</ele>
        <time>2012-01-13T14:04:50Z</time>
      </trkpt>
      <trkpt lat="49.16183" lon="-0.4006">
        <ele>9.1</ele>
        <time>2012-01-13T14:04:51Z</time>
      </trkpt>
      <trkpt lat="49.16184" lon="-0.40061">
        <ele>9.1</ele>
        <time>2012-01-13T14:04:52Z</time>
      </trkpt>
      <trkpt lat="49.16185" lon="-0.40061">
        <ele>9.1</ele>
        <time>2012-01-13T14:04:53Z</time>
      </trkpt>
      <trkpt lat="49.16186" lon="-0.40061">
        <ele>9.1</ele>
        <time>2012-01-13T14:04:54Z</time>
      </trkpt>
      <trkpt lat="49.16187" lon="-0.40062">
        <ele>9.1</ele>
        <time>2012-01-13T14:04:55Z</time>
      </trkpt>
      <trkpt lat="49.16188" lon="-0.40062">
        <ele>9.1</ele>
        <time>2012-01-13T14:04:56Z</time>
      </trkpt>
      <trkpt lat="49.1619" lon="-0.40062">
        <ele>9.1</ele>
        <time>2012-01-13T14:04:57Z</time>
      </trkpt>
      <trkpt lat="49.16191" lon="-0.40062">
        <ele>9.1</ele>
        <time>2012-01-13T14:04:58Z</time>
      </trkpt>
      <trkpt lat="49.16192" lon="-0.40062">
        <ele>9.1</ele>
        <time>2012-01-13T14:04:59Z</time>
      </trkpt>
      <trkpt lat="49.16193" lon="-0.40062">
        <ele>9</ele>
        <time>2012-01-13T14:05:00Z</time>
      </trkpt>
      <trkpt lat="49.16194" lon="-0.40062">
        <ele>9</ele>
        <time>2012-01-13T14:05:01Z</time>
      </trkpt>
      <trkpt lat="49.16196" lon="-0.40061">
        <ele>9</ele>
        <time>2012-01-13T14:05:02Z</time>
      </trkpt>
      <trkpt lat="49.16197" lon="-0.40061">
        <ele>9</ele>
        <time>2012-01-13T14:05:03Z</time>
      </trkpt>
      <trkpt lat="49.16198" lon="-0.40061">
        <ele>9</ele>
        <time>2012-01-13T14:05:04Z</time>
      </trkpt>
      <trkpt lat="49.16199" lon="-0.40061">
        <ele>9</ele>
        <time>2012-01-13T14:05:05Z</time>
      </trkpt>
      <trkpt lat="49.16201" lon="-0.40061">
        <ele>9</ele>
        <time>2012-01-13T14:05:06Z</time>
      </trkpt>
      <trkpt lat="49.16202" lon="-0.40061">
        <ele>9</ele>
        <time>2012-01-13T14:05:07Z</time>
      </trkpt>
      <trkpt lat="49.16203" lon="-0.40061">
        <ele>8.8</ele>
        <time>2012-01-13T14:05:08Z</time>
      </trkpt>
      <trkpt lat="49.16203" lon="-0.40062">
        <ele>8.8</ele>
        <time>2012-01-13T14:05:09Z</time>
      </trkpt>
      <trkpt lat="49.16204" lon="-0.40064">
        <ele>8.6</ele>
        <time>2012-01-13T14:05:10Z</time>
      </trkpt>
      <trkpt lat="49.16204" lon="-0.40065">
        <ele>8.6</ele>
        <time>2012-01-13T14:05:11Z</time>
      </trkpt>
      <trkpt lat="49.16205" lon="-0.40066">
        <ele>8.3</ele>
        <time>2012-01-13T14:05:12Z</time>
      </trkpt>
      <trkpt lat="49.16206" lon="-0.40067">
        <ele>8.3</ele>
        <time>2012-01-13T14:05:13Z</time>
      </trkpt>
      <trkpt lat="49.16207" lon="-0.40068">
        <ele>8.3</ele>
        <time>2012-01-13T14:05:14Z</time>
      </trkpt>
      <trkpt lat="49.16208" lon="-0.40069">
        <ele>8.1</ele>
        <time>2012-01-13T14:05:15Z</time>
      </trkpt>
      <trkpt lat="49.16209" lon="-0.4007">
        <ele>8.1</ele>
        <time>2012-01-13T14:05:16Z</time>
      </trkpt>
      <trkpt lat="49.16209" lon="-0.40071">
        <ele>8.1</ele>
        <time>2012-01-13T14:05:17Z</time>
      </trkpt>
      <trkpt lat="49.1621" lon="-0.40072">
        <ele>8.3</ele>
        <time>2012-01-13T14:05:18Z</time>
      </trkpt>
      <trkpt lat="49.16212" lon="-0.40073">
        <ele>8.3</ele>
        <time>2012-01-13T14:05:19Z</time>
      </trkpt>
      <trkpt lat="49.16213" lon="-0.40073">
        <ele>8.3</ele>
        <time>2012-01-13T14:05:20Z</time>
      </trkpt>
      <trkpt lat="49.16214" lon="-0.40074">
        <ele>8.1</ele>
        <time>2012-01-13T14:05:21Z</time>
      </trkpt>
      <trkpt lat="49.16215" lon="-0.40075">
        <ele>8.3</ele>
        <time>2012-01-13T14:05:22Z</time>
      </trkpt>
      <trkpt lat="49.16216" lon="-0.40076">
        <ele>8.1</ele>
        <time>2012-01-13T14:05:23Z</time>
      </trkpt>
      <trkpt lat="49.16217" lon="-0.40077">
        <ele>8.3</ele>
        <time>2012-01-13T14:05:24Z</time>
      </trkpt>
      <trkpt lat="49.16218" lon="-0.40077">
        <ele>8.3</ele>
        <time>2012-01-13T14:05:25Z</time>
      </trkpt>
      <trkpt lat="49.16219" lon="-0.40079">
        <ele>8.3</ele>
        <time>2012-01-13T14:05:26Z</time>
      </trkpt>
      <trkpt lat="49.16219" lon="-0.4008">
        <ele>8.1</ele>
        <time>2012-01-13T14:05:27Z</time>
      </trkpt>
      <trkpt lat="49.1622" lon="-0.40081">
        <ele>8.1</ele>
        <time>2012-01-13T14:05:28Z</time>
      </trkpt>
      <trkpt lat="49.16221" lon="-0.40082">
        <ele>8.1</ele>
        <time>2012-01-13T14:05:29Z</time>
      </trkpt>
      <trkpt lat="49.16222" lon="-0.40084">
        <ele>8.1</ele>
        <time>2012-01-13T14:05:30Z</time>
      </trkpt>
      <trkpt lat="49.16223" lon="-0.40084">
        <ele>8.1</ele>
        <time>2012-01-13T14:05:31Z</time>
      </trkpt>
      <trkpt lat="49.16224" lon="-0.40085">
        <ele>8.1</ele>
        <time>2012-01-13T14:05:32Z</time>
      </trkpt>
      <trkpt lat="49.16225" lon="-0.40085">
        <ele>8</ele>
        <time>2012-01-13T14:05:33Z</time>
      </trkpt>
      <trkpt lat="49.16226" lon="-0.40085">
        <ele>8</ele>
        <time>2012-01-13T14:05:34Z</time>
      </trkpt>
      <trkpt lat="49.16227" lon="-0.40084">
        <ele>7.9</ele>
        <time>2012-01-13T14:05:35Z</time>
      </trkpt>
      <trkpt lat="49.16228" lon="-0.40083">
        <ele>7.5</ele>
        <time>2012-01-13T14:05:36Z</time>
      </trkpt>
      <trkpt lat="49.16229" lon="-0.40081">
        <ele>7.5</ele>
        <time>2012-01-13T14:05:37Z</time>
      </trkpt>
      <trkpt lat="49.16229" lon="-0.4008">
        <ele>7.5</ele>
        <time>2012-01-13T14:05:38Z</time>
      </trkpt>
      <trkpt lat="49.1623" lon="-0.40078">
        <ele>7.5</ele>
        <time>2012-01-13T14:05:39Z</time>
      </trkpt>
      <trkpt lat="49.16231" lon="-0.40077">
        <ele>7.5</ele>
        <time>2012-01-13T14:05:40Z</time>
      </trkpt>
      <trkpt lat="49.16232" lon="-0.40076">
        <ele>7.5</ele>
        <time>2012-01-13T14:05:41Z</time>
      </trkpt>
      <trkpt lat="49.16232" lon="-0.40075">
        <ele>7.5</ele>
        <time>2012-01-13T14:05:42Z</time>
      </trkpt>
      <trkpt lat="49.16233" lon="-0.40073">
        <ele>7.5</ele>
        <time>2012-01-13T14:05:43Z</time>
      </trkpt>
      <trkpt lat="49.16234" lon="-0.40072">
        <ele>7.5</ele>
        <time>2012-01-13T14:05:44Z</time>
      </trkpt>
      <trkpt lat="49.16234" lon="-0.40071">
        <ele>7.4</ele>
        <time>2012-01-13T14:05:45Z</time>
      </trkpt>
      <trkpt lat="49.16235" lon="-0.40069">
        <ele>7.3</ele>
        <time>2012-01-13T14:05:46Z</time>
      </trkpt>
      <trkpt lat="49.16236" lon="-0.40068">
        <ele>7</ele>
        <time>2012-01-13T14:05:47Z</time>
      </trkpt>
      <trkpt lat="49.16236" lon="-0.40066">
        <ele>7</ele>
        <time>2012-01-13T14:05:48Z</time>
      </trkpt>
      <trkpt lat="49.16237" lon="-0.40065">
        <ele>7.4</ele>
        <time>2012-01-13T14:05:49Z</time>
      </trkpt>
      <trkpt lat="49.16238" lon="-0.40063">
        <ele>7.5</ele>
        <time>2012-01-13T14:05:50Z</time>
      </trkpt>
      <trkpt lat="49.16239" lon="-0.40062">
        <ele>7.5</ele>
        <time>2012-01-13T14:05:51Z</time>
      </trkpt>
      <trkpt lat="49.16239" lon="-0.40061">
        <ele>7.5</ele>
        <time>2012-01-13T14:05:52Z</time>
      </trkpt>
      <trkpt lat="49.1624" lon="-0.4006">
        <ele>8</ele>
        <time>2012-01-13T14:05:53Z</time>
      </trkpt>
      <trkpt lat="49.16241" lon="-0.40059">
        <ele>7.5</ele>
        <time>2012-01-13T14:05:54Z</time>
      </trkpt>
      <trkpt lat="49.16242" lon="-0.40057">
        <ele>7.5</ele>
        <time>2012-01-13T14:05:55Z</time>
      </trkpt>
      <trkpt lat="49.16242" lon="-0.40056">
        <ele>7.5</ele>
        <time>2012-01-13T14:05:56Z</time>
      </trkpt>
      <trkpt lat="49.16243" lon="-0.40054">
        <ele>7.5</ele>
        <time>2012-01-13T14:05:57Z</time>
      </trkpt>
      <trkpt lat="49.16243" lon="-0.40053">
        <ele>7.5</ele>
        <time>2012-01-13T14:05:58Z</time>
      </trkpt>
      <trkpt lat="49.16244" lon="-0.40051">
        <ele>7.5</ele>
        <time>2012-01-13T14:05:59Z</time>
      </trkpt>
      <trkpt lat="49.16245" lon="-0.4005">
        <ele>7.5</ele>
        <time>2012-01-13T14:06:00Z</time>
      </trkpt>
      <trkpt lat="49.16245" lon="-0.40049">
        <ele>7.9</ele>
        <time>2012-01-13T14:06:01Z</time>
      </trkpt>
      <trkpt lat="49.16246" lon="-0.40047">
        <ele>7.9</ele>
        <time>2012-01-13T14:06:02Z</time>
      </trkpt>
      <trkpt lat="49.16246" lon="-0.40046">
        <ele>8</ele>
        <time>2012-01-13T14:06:03Z</time>
      </trkpt>
      <trkpt lat="49.16247" lon="-0.40044">
        <ele>8</ele>
        <time>2012-01-13T14:06:04Z</time>
      </trkpt>
      <trkpt lat="49.16247" lon="-0.40043">
        <ele>8</ele>
        <time>2012-01-13T14:06:05Z</time>
      </trkpt>
      <trkpt lat="49.16248" lon="-0.40041">
        <ele>7.9</ele>
        <time>2012-01-13T14:06:06Z</time>
      </trkpt>
      <trkpt lat="49.16248" lon="-0.40039">
        <ele>7.9</ele>
        <time>2012-01-13T14:06:07Z</time>
      </trkpt>
      <trkpt lat="49.16249" lon="-0.40038">
        <ele>7.8</ele>
        <time>2012-01-13T14:06:08Z</time>
      </trkpt>
      <trkpt lat="49.16249" lon="-0.40037">
        <ele>7.5</ele>
        <time>2012-01-13T14:06:09Z</time>
      </trkpt>
      <trkpt lat="49.1625" lon="-0.40035">
        <ele>7.5</ele>
        <time>2012-01-13T14:06:10Z</time>
      </trkpt>
      <trkpt lat="49.1625" lon="-0.40034">
        <ele>7.5</ele>
        <time>2012-01-13T14:06:11Z</time>
      </trkpt>
      <trkpt lat="49.16251" lon="-0.40032">
        <ele>7.5</ele>
        <time>2012-01-13T14:06:12Z</time>
      </trkpt>
      <trkpt lat="49.16251" lon="-0.40031">
        <ele>7.5</ele>
        <time>2012-01-13T14:06:13Z</time>
      </trkpt>
      <trkpt lat="49.16251" lon="-0.4003">
        <ele>7.3</ele>
        <time>2012-01-13T14:06:14Z</time>
      </trkpt>
      <trkpt lat="49.16251" lon="-0.4003">
        <ele>7.3</ele>
        <time>2012-01-13T14:06:14Z</time>
      </trkpt>
      <trkpt lat="49.16261" lon="-0.39995">
        <ele>3.7</ele>
        <time>2012-01-13T14:06:43Z</time>
      </trkpt>
      <trkpt lat="49.16262" lon="-0.39993">
        <ele>3.5</ele>
        <time>2012-01-13T14:06:44Z</time>
      </trkpt>
      <trkpt lat="49.16262" lon="-0.39992">
        <ele>3.5</ele>
        <time>2012-01-13T14:06:45Z</time>
      </trkpt>
      <trkpt lat="49.16262" lon="-0.39991">
        <ele>3.4</ele>
        <time>2012-01-13T14:06:46Z</time>
      </trkpt>
      <trkpt lat="49.16263" lon="-0.3999">
        <ele>3.2</ele>
        <time>2012-01-13T14:06:47Z</time>
      </trkpt>
      <trkpt lat="49.16263" lon="-0.39988">
        <ele>3</ele>
        <time>2012-01-13T14:06:48Z</time>
      </trkpt>
      <trkpt lat="49.16263" lon="-0.39987">
        <ele>3</ele>
        <time>2012-01-13T14:06:49Z</time>
      </trkpt>
      <trkpt lat="49.16263" lon="-0.39986">
        <ele>3.2</ele>
        <time>2012-01-13T14:06:50Z</time>
      </trkpt>
      <trkpt lat="49.16264" lon="-0.39985">
        <ele>3.2</ele>
        <time>2012-01-13T14:06:51Z</time>
      </trkpt>
      <trkpt lat="49.16264" lon="-0.39984">
        <ele>3</ele>
        <time>2012-01-13T14:06:52Z</time>
      </trkpt>
      <trkpt lat="49.16264" lon="-0.39983">
        <ele>3</ele>
        <time>2012-01-13T14:06:53Z</time>
      </trkpt>
      <trkpt lat="49.16265" lon="-0.39982">
        <ele>3</ele>
        <time>2012-01-13T14:06:54Z</time>
      </trkpt>
      <trkpt lat="49.16265" lon="-0.39981">
        <ele>3</ele>
        <time>2012-01-13T14:06:55Z</time>
      </trkpt>
      <trkpt lat="49.16266" lon="-0.3998">
        <ele>3</ele>
        <time>2012-01-13T14:06:56Z</time>
      </trkpt>
      <trkpt lat="49.16266" lon="-0.39979">
        <ele>2.9</ele>
        <time>2012-01-13T14:06:57Z</time>
      </trkpt>
      <trkpt lat="49.16266" lon="-0.39977">
        <ele>2.9</ele>
        <time>2012-01-13T14:06:58Z</time>
      </trkpt>
      <trkpt lat="49.16267" lon="-0.39976">
        <ele>3</ele>
        <time>2012-01-13T14:06:59Z</time>
      </trkpt>
      <trkpt lat="49.16267" lon="-0.39974">
        <ele>3.2</ele>
        <time>2012-01-13T14:07:00Z</time>
      </trkpt>
      <trkpt lat="49.16267" lon="-0.39973">
        <ele>3.2</ele>
        <time>2012-01-13T14:07:01Z</time>
      </trkpt>
      <trkpt lat="49.16268" lon="-0.39972">
        <ele>3.4</ele>
        <time>2012-01-13T14:07:02Z</time>
      </trkpt>
      <trkpt lat="49.16268" lon="-0.3997">
        <ele>3.2</ele>
        <time>2012-01-13T14:07:03Z</time>
      </trkpt>
      <trkpt lat="49.16269" lon="-0.39969">
        <ele>3.2</ele>
        <time>2012-01-13T14:07:04Z</time>
      </trkpt>
      <trkpt lat="49.16269" lon="-0.39968">
        <ele>3</ele>
        <time>2012-01-13T14:07:05Z</time>
      </trkpt>
      <trkpt lat="49.1627" lon="-0.39966">
        <ele>3.2</ele>
        <time>2012-01-13T14:07:06Z</time>
      </trkpt>
      <trkpt lat="49.16271" lon="-0.39965">
        <ele>3.2</ele>
        <time>2012-01-13T14:07:07Z</time>
      </trkpt>
      <trkpt lat="49.16271" lon="-0.39964">
        <ele>3.2</ele>
        <time>2012-01-13T14:07:08Z</time>
      </trkpt>
      <trkpt lat="49.16272" lon="-0.39963">
        <ele>3.2</ele>
        <time>2012-01-13T14:07:09Z</time>
      </trkpt>
      <trkpt lat="49.16272" lon="-0.39962">
        <ele>3.7</ele>
        <time>2012-01-13T14:07:10Z</time>
      </trkpt>
      <trkpt lat="49.16272" lon="-0.3996">
        <ele>4</ele>
        <time>2012-01-13T14:07:11Z</time>
      </trkpt>
      <trkpt lat="49.16273" lon="-0.39958">
        <ele>3.5</ele>
        <time>2012-01-13T14:07:12Z</time>
      </trkpt>
      <trkpt lat="49.16273" lon="-0.39957">
        <ele>4</ele>
        <time>2012-01-13T14:07:13Z</time>
      </trkpt>
      <trkpt lat="49.16274" lon="-0.39954">
        <ele>4.5</ele>
        <time>2012-01-13T14:07:15Z</time>
      </trkpt>
      <trkpt lat="49.16275" lon="-0.39953">
        <ele>4.5</ele>
        <time>2012-01-13T14:07:16Z</time>
      </trkpt>
      <trkpt lat="49.16275" lon="-0.39952">
        <ele>4.5</ele>
        <time>2012-01-13T14:07:17Z</time>
      </trkpt>
      <trkpt lat="49.16275" lon="-0.39951">
        <ele>4.8</ele>
        <time>2012-01-13T14:07:18Z</time>
      </trkpt>
      <trkpt lat="49.16276" lon="-0.39949">
        <ele>4.8</ele>
        <time>2012-01-13T14:07:19Z</time>
      </trkpt>
      <trkpt lat="49.16276" lon="-0.39948">
        <ele>4.9</ele>
        <time>2012-01-13T14:07:20Z</time>
      </trkpt>
      <trkpt lat="49.16277" lon="-0.39946">
        <ele>5.3</ele>
        <time>2012-01-13T14:07:21Z</time>
      </trkpt>
      <trkpt lat="49.16277" lon="-0.39945">
        <ele>5.5</ele>
        <time>2012-01-13T14:07:22Z</time>
      </trkpt>
      <trkpt lat="49.16278" lon="-0.39944">
        <ele>6.3</ele>
        <time>2012-01-13T14:07:23Z</time>
      </trkpt>
      <trkpt lat="49.16278" lon="-0.39942">
        <ele>6.5</ele>
        <time>2012-01-13T14:07:24Z</time>
      </trkpt>
      <trkpt lat="49.16279" lon="-0.39941">
        <ele>6</ele>
        <time>2012-01-13T14:07:25Z</time>
      </trkpt>
      <trkpt lat="49.16279" lon="-0.3994">
        <ele>6</ele>
        <time>2012-01-13T14:07:26Z</time>
      </trkpt>
      <trkpt lat="49.1628" lon="-0.39938">
        <ele>6.3</ele>
        <time>2012-01-13T14:07:27Z</time>
      </trkpt>
      <trkpt lat="49.16281" lon="-0.39937">
        <ele>6.3</ele>
        <time>2012-01-13T14:07:28Z</time>
      </trkpt>
      <trkpt lat="49.16281" lon="-0.39935">
        <ele>6.3</ele>
        <time>2012-01-13T14:07:29Z</time>
      </trkpt>
      <trkpt lat="49.16282" lon="-0.39933">
        <ele>6.5</ele>
        <time>2012-01-13T14:07:30Z</time>
      </trkpt>
      <trkpt lat="49.16282" lon="-0.39931">
        <ele>6.5</ele>
        <time>2012-01-13T14:07:31Z</time>
      </trkpt>
      <trkpt lat="49.16283" lon="-0.3993">
        <ele>6</ele>
        <time>2012-01-13T14:07:32Z</time>
      </trkpt>
      <trkpt lat="49.16283" lon="-0.39929">
        <ele>6</ele>
        <time>2012-01-13T14:07:33Z</time>
      </trkpt>
      <trkpt lat="49.16284" lon="-0.39927">
        <ele>6</ele>
        <time>2012-01-13T14:07:34Z</time>
      </trkpt>
      <trkpt lat="49.16284" lon="-0.39926">
        <ele>5.8</ele>
        <time>2012-01-13T14:07:35Z</time>
      </trkpt>
      <trkpt lat="49.16285" lon="-0.39924">
        <ele>5.8</ele>
        <time>2012-01-13T14:07:36Z</time>
      </trkpt>
      <trkpt lat="49.16285" lon="-0.39923">
        <ele>6</ele>
        <time>2012-01-13T14:07:37Z</time>
      </trkpt>
      <trkpt lat="49.16286" lon="-0.39921">
        <ele>6.4</ele>
        <time>2012-01-13T14:07:38Z</time>
      </trkpt>
      <trkpt lat="49.16286" lon="-0.39919">
        <ele>6.4</ele>
        <time>2012-01-13T14:07:39Z</time>
      </trkpt>
      <trkpt lat="49.16286" lon="-0.39918">
        <ele>6.5</ele>
        <time>2012-01-13T14:07:40Z</time>
      </trkpt>
      <trkpt lat="49.16287" lon="-0.39916">
        <ele>7</ele>
        <time>2012-01-13T14:07:41Z</time>
      </trkpt>
      <trkpt lat="49.16287" lon="-0.39914">
        <ele>7</ele>
        <time>2012-01-13T14:07:42Z</time>
      </trkpt>
      <trkpt lat="49.16288" lon="-0.39912">
        <ele>7.3</ele>
        <time>2012-01-13T14:07:43Z</time>
      </trkpt>
      <trkpt lat="49.16288" lon="-0.3991">
        <ele>7.5</ele>
        <time>2012-01-13T14:07:44Z</time>
      </trkpt>
      <trkpt lat="49.16289" lon="-0.39909">
        <ele>8.1</ele>
        <time>2012-01-13T14:07:45Z</time>
      </trkpt>
      <trkpt lat="49.1629" lon="-0.39907">
        <ele>8</ele>
        <time>2012-01-13T14:07:46Z</time>
      </trkpt>
      <trkpt lat="49.16291" lon="-0.39905">
        <ele>7.5</ele>
        <time>2012-01-13T14:07:47Z</time>
      </trkpt>
      <trkpt lat="49.16292" lon="-0.39904">
        <ele>7</ele>
        <time>2012-01-13T14:07:48Z</time>
      </trkpt>
      <trkpt lat="49.16293" lon="-0.39902">
        <ele>6.5</ele>
        <time>2012-01-13T14:07:49Z</time>
      </trkpt>
      <trkpt lat="49.16294" lon="-0.399">
        <ele>6.4</ele>
        <time>2012-01-13T14:07:50Z</time>
      </trkpt>
      <trkpt lat="49.16294" lon="-0.39899">
        <ele>6.4</ele>
        <time>2012-01-13T14:07:51Z</time>
      </trkpt>
      <trkpt lat="49.16295" lon="-0.39898">
        <ele>5.5</ele>
        <time>2012-01-13T14:07:52Z</time>
      </trkpt>
      <trkpt lat="49.16295" lon="-0.39896">
        <ele>6</ele>
        <time>2012-01-13T14:07:53Z</time>
      </trkpt>
      <trkpt lat="49.16296" lon="-0.39895">
        <ele>5.5</ele>
        <time>2012-01-13T14:07:54Z</time>
      </trkpt>
      <trkpt lat="49.16296" lon="-0.39894">
        <ele>5.4</ele>
        <time>2012-01-13T14:07:55Z</time>
      </trkpt>
      <trkpt lat="49.16297" lon="-0.39892">
        <ele>5.5</ele>
        <time>2012-01-13T14:07:56Z</time>
      </trkpt>
      <trkpt lat="49.16297" lon="-0.39891">
        <ele>5.5</ele>
        <time>2012-01-13T14:07:57Z</time>
      </trkpt>
      <trkpt lat="49.16297" lon="-0.3989">
        <ele>6</ele>
        <time>2012-01-13T14:07:58Z</time>
      </trkpt>
      <trkpt lat="49.16298" lon="-0.39889">
        <ele>6</ele>
        <time>2012-01-13T14:07:59Z</time>
      </trkpt>
      <trkpt lat="49.16299" lon="-0.39887">
        <ele>6</ele>
        <time>2012-01-13T14:08:00Z</time>
      </trkpt>
      <trkpt lat="49.16299" lon="-0.39886">
        <ele>6.5</ele>
        <time>2012-01-13T14:08:01Z</time>
      </trkpt>
      <trkpt lat="49.163" lon="-0.39885">
        <ele>6.4</ele>
        <time>2012-01-13T14:08:02Z</time>
      </trkpt>
      <trkpt lat="49.16301" lon="-0.39883">
        <ele>6.5</ele>
        <time>2012-01-13T14:08:03Z</time>
      </trkpt>
      <trkpt lat="49.16301" lon="-0.39882">
        <ele>7.3</ele>
        <time>2012-01-13T14:08:04Z</time>
      </trkpt>
      <trkpt lat="49.16302" lon="-0.3988">
        <ele>8.1</ele>
        <time>2012-01-13T14:08:05Z</time>
      </trkpt>
      <trkpt lat="49.16302" lon="-0.39879">
        <ele>8.6</ele>
        <time>2012-01-13T14:08:06Z</time>
      </trkpt>
      <trkpt lat="49.16303" lon="-0.39877">
        <ele>8.8</ele>
        <time>2012-01-13T14:08:07Z</time>
      </trkpt>
      <trkpt lat="49.16304" lon="-0.39876">
        <ele>9</ele>
        <time>2012-01-13T14:08:08Z</time>
      </trkpt>
      <trkpt lat="49.16304" lon="-0.39874">
        <ele>9.6</ele>
        <time>2012-01-13T14:08:09Z</time>
      </trkpt>
      <trkpt lat="49.16305" lon="-0.39873">
        <ele>10.1</ele>
        <time>2012-01-13T14:08:10Z</time>
      </trkpt>
      <trkpt lat="49.16305" lon="-0.39871">
        <ele>10.3</ele>
        <time>2012-01-13T14:08:11Z</time>
      </trkpt>
      <trkpt lat="49.16306" lon="-0.3987">
        <ele>10.5</ele>
        <time>2012-01-13T14:08:12Z</time>
      </trkpt>
      <trkpt lat="49.16306" lon="-0.39868">
        <ele>11.1</ele>
        <time>2012-01-13T14:08:13Z</time>
      </trkpt>
      <trkpt lat="49.16306" lon="-0.39867">
        <ele>11.3</ele>
        <time>2012-01-13T14:08:14Z</time>
      </trkpt>
      <trkpt lat="49.16307" lon="-0.39865">
        <ele>11.3</ele>
        <time>2012-01-13T14:08:15Z</time>
      </trkpt>
      <trkpt lat="49.16308" lon="-0.39863">
        <ele>11.6</ele>
        <time>2012-01-13T14:08:16Z</time>
      </trkpt>
      <trkpt lat="49.16308" lon="-0.39862">
        <ele>12.1</ele>
        <time>2012-01-13T14:08:17Z</time>
      </trkpt>
      <trkpt lat="49.16309" lon="-0.39861">
        <ele>12.3</ele>
        <time>2012-01-13T14:08:18Z</time>
      </trkpt>
      <trkpt lat="49.16309" lon="-0.3986">
        <ele>12.6</ele>
        <time>2012-01-13T14:08:19Z</time>
      </trkpt>
      <trkpt lat="49.16309" lon="-0.39858">
        <ele>12.6</ele>
        <time>2012-01-13T14:08:20Z</time>
      </trkpt>
      <trkpt lat="49.16309" lon="-0.39856">
        <ele>12</ele>
        <time>2012-01-13T14:08:21Z</time>
      </trkpt>
      <trkpt lat="49.16309" lon="-0.39854">
        <ele>11.3</ele>
        <time>2012-01-13T14:08:22Z</time>
      </trkpt>
      <trkpt lat="49.1631" lon="-0.39852">
        <ele>10.6</ele>
        <time>2012-01-13T14:08:23Z</time>
      </trkpt>
      <trkpt lat="49.16311" lon="-0.39851">
        <ele>10.5</ele>
        <time>2012-01-13T14:08:24Z</time>
      </trkpt>
      <trkpt lat="49.16311" lon="-0.39849">
        <ele>10.1</ele>
        <time>2012-01-13T14:08:25Z</time>
      </trkpt>
      <trkpt lat="49.16312" lon="-0.39848">
        <ele>9.8</ele>
        <time>2012-01-13T14:08:26Z</time>
      </trkpt>
      <trkpt lat="49.16312" lon="-0.39847">
        <ele>9.5</ele>
        <time>2012-01-13T14:08:27Z</time>
      </trkpt>
      <trkpt lat="49.16313" lon="-0.39845">
        <ele>9.5</ele>
        <time>2012-01-13T14:08:28Z</time>
      </trkpt>
      <trkpt lat="49.16313" lon="-0.39843">
        <ele>9.8</ele>
        <time>2012-01-13T14:08:29Z</time>
      </trkpt>
      <trkpt lat="49.16314" lon="-0.39842">
        <ele>9.3</ele>
        <time>2012-01-13T14:08:30Z</time>
      </trkpt>
      <trkpt lat="49.16314" lon="-0.39841">
        <ele>9.3</ele>
        <time>2012-01-13T14:08:31Z</time>
      </trkpt>
      <trkpt lat="49.16315" lon="-0.3984">
        <ele>9.3</ele>
        <time>2012-01-13T14:08:32Z</time>
      </trkpt>
      <trkpt lat="49.16315" lon="-0.39838">
        <ele>9.1</ele>
        <time>2012-01-13T14:08:33Z</time>
      </trkpt>
      <trkpt lat="49.16315" lon="-0.39837">
        <ele>9.3</ele>
        <time>2012-01-13T14:08:34Z</time>
      </trkpt>
      <trkpt lat="49.16315" lon="-0.39836">
        <ele>9.5</ele>
        <time>2012-01-13T14:08:35Z</time>
      </trkpt>
      <trkpt lat="49.16316" lon="-0.39835">
        <ele>9.6</ele>
        <time>2012-01-13T14:08:36Z</time>
      </trkpt>
      <trkpt lat="49.16316" lon="-0.39833">
        <ele>10</ele>
        <time>2012-01-13T14:08:37Z</time>
      </trkpt>
      <trkpt lat="49.16317" lon="-0.39832">
        <ele>11</ele>
        <time>2012-01-13T14:08:38Z</time>
      </trkpt>
      <trkpt lat="49.16317" lon="-0.39831">
        <ele>11.3</ele>
        <time>2012-01-13T14:08:39Z</time>
      </trkpt>
      <trkpt lat="49.16318" lon="-0.3983">
        <ele>11.6</ele>
        <time>2012-01-13T14:08:40Z</time>
      </trkpt>
      <trkpt lat="49.16318" lon="-0.39829">
        <ele>12</ele>
        <time>2012-01-13T14:08:41Z</time>
      </trkpt>
      <trkpt lat="49.16319" lon="-0.39827">
        <ele>12.3</ele>
        <time>2012-01-13T14:08:42Z</time>
      </trkpt>
      <trkpt lat="49.16319" lon="-0.39826">
        <ele>12.6</ele>
        <time>2012-01-13T14:08:43Z</time>
      </trkpt>
      <trkpt lat="49.1632" lon="-0.39824">
        <ele>12.6</ele>
        <time>2012-01-13T14:08:44Z</time>
      </trkpt>
      <trkpt lat="49.16321" lon="-0.39823">
        <ele>12.8</ele>
        <time>2012-01-13T14:08:45Z</time>
      </trkpt>
      <trkpt lat="49.16322" lon="-0.39821">
        <ele>13.3</ele>
        <time>2012-01-13T14:08:46Z</time>
      </trkpt>
      <trkpt lat="49.16323" lon="-0.39819">
        <ele>12.8</ele>
        <time>2012-01-13T14:08:47Z</time>
      </trkpt>
      <trkpt lat="49.16324" lon="-0.39818">
        <ele>12.5</ele>
        <time>2012-01-13T14:08:48Z</time>
      </trkpt>
      <trkpt lat="49.16325" lon="-0.39816">
        <ele>12.8</ele>
        <time>2012-01-13T14:08:49Z</time>
      </trkpt>
      <trkpt lat="49.16325" lon="-0.39815">
        <ele>12.8</ele>
        <time>2012-01-13T14:08:50Z</time>
      </trkpt>
      <trkpt lat="49.16326" lon="-0.39813">
        <ele>12.1</ele>
        <time>2012-01-13T14:08:51Z</time>
      </trkpt>
      <trkpt lat="49.16327" lon="-0.39812">
        <ele>12.3</ele>
        <time>2012-01-13T14:08:52Z</time>
      </trkpt>
      <trkpt lat="49.16328" lon="-0.39811">
        <ele>12.5</ele>
        <time>2012-01-13T14:08:53Z</time>
      </trkpt>
      <trkpt lat="49.16328" lon="-0.3981">
        <ele>13.1</ele>
        <time>2012-01-13T14:08:54Z</time>
      </trkpt>
      <trkpt lat="49.16329" lon="-0.39808">
        <ele>13.8</ele>
        <time>2012-01-13T14:08:55Z</time>
      </trkpt>
      <trkpt lat="49.16329" lon="-0.39807">
        <ele>14.3</ele>
        <time>2012-01-13T14:08:56Z</time>
      </trkpt>
      <trkpt lat="49.1633" lon="-0.39805">
        <ele>15.1</ele>
        <time>2012-01-13T14:08:57Z</time>
      </trkpt>
      <trkpt lat="49.16331" lon="-0.39804">
        <ele>15.5</ele>
        <time>2012-01-13T14:08:58Z</time>
      </trkpt>
      <trkpt lat="49.16331" lon="-0.39802">
        <ele>15.8</ele>
        <time>2012-01-13T14:08:59Z</time>
      </trkpt>
      <trkpt lat="49.16331" lon="-0.39801">
        <ele>16.2</ele>
        <time>2012-01-13T14:09:00Z</time>
      </trkpt>
      <trkpt lat="49.16332" lon="-0.398">
        <ele>16.7</ele>
        <time>2012-01-13T14:09:01Z</time>
      </trkpt>
      <trkpt lat="49.16332" lon="-0.39799">
        <ele>16.7</ele>
        <time>2012-01-13T14:09:02Z</time>
      </trkpt>
      <trkpt lat="49.16332" lon="-0.39798">
        <ele>16.7</ele>
        <time>2012-01-13T14:09:03Z</time>
      </trkpt>
      <trkpt lat="49.16332" lon="-0.39796">
        <ele>16.2</ele>
        <time>2012-01-13T14:09:04Z</time>
      </trkpt>
      <trkpt lat="49.16333" lon="-0.39795">
        <ele>16.5</ele>
        <time>2012-01-13T14:09:05Z</time>
      </trkpt>
      <trkpt lat="49.16333" lon="-0.39793">
        <ele>16.6</ele>
        <time>2012-01-13T14:09:06Z</time>
      </trkpt>
      <trkpt lat="49.16333" lon="-0.39792">
        <ele>17</ele>
        <time>2012-01-13T14:09:07Z</time>
      </trkpt>
      <trkpt lat="49.16334" lon="-0.39791">
        <ele>16.6</ele>
        <time>2012-01-13T14:09:08Z</time>
      </trkpt>
      <trkpt lat="49.16334" lon="-0.39789">
        <ele>17</ele>
        <time>2012-01-13T14:09:09Z</time>
      </trkpt>
      <trkpt lat="49.16335" lon="-0.39788">
        <ele>17.2</ele>
        <time>2012-01-13T14:09:10Z</time>
      </trkpt>
      <trkpt lat="49.16336" lon="-0.39786">
        <ele>16.2</ele>
        <time>2012-01-13T14:09:11Z</time>
      </trkpt>
      <trkpt lat="49.16337" lon="-0.39784">
        <ele>15.6</ele>
        <time>2012-01-13T14:09:12Z</time>
      </trkpt>
      <trkpt lat="49.16337" lon="-0.39783">
        <ele>15.3</ele>
        <time>2012-01-13T14:09:13Z</time>
      </trkpt>
      <trkpt lat="49.16338" lon="-0.39781">
        <ele>14.6</ele>
        <time>2012-01-13T14:09:14Z</time>
      </trkpt>
      <trkpt lat="49.16339" lon="-0.3978">
        <ele>13.8</ele>
        <time>2012-01-13T14:09:15Z</time>
      </trkpt>
      <trkpt lat="49.1634" lon="-0.39779">
        <ele>13.5</ele>
        <time>2012-01-13T14:09:16Z</time>
      </trkpt>
      <trkpt lat="49.16341" lon="-0.39778">
        <ele>12.8</ele>
        <time>2012-01-13T14:09:17Z</time>
      </trkpt>
      <trkpt lat="49.16341" lon="-0.39776">
        <ele>11.6</ele>
        <time>2012-01-13T14:09:18Z</time>
      </trkpt>
      <trkpt lat="49.16342" lon="-0.39774">
        <ele>12.1</ele>
        <time>2012-01-13T14:09:19Z</time>
      </trkpt>
      <trkpt lat="49.16342" lon="-0.39773">
        <ele>12.1</ele>
        <time>2012-01-13T14:09:20Z</time>
      </trkpt>
      <trkpt lat="49.16343" lon="-0.39772">
        <ele>12.8</ele>
        <time>2012-01-13T14:09:21Z</time>
      </trkpt>
      <trkpt lat="49.16343" lon="-0.3977">
        <ele>13.1</ele>
        <time>2012-01-13T14:09:22Z</time>
      </trkpt>
      <trkpt lat="49.16344" lon="-0.39769">
        <ele>13.6</ele>
        <time>2012-01-13T14:09:23Z</time>
      </trkpt>
      <trkpt lat="49.16344" lon="-0.39769">
        <ele>13.3</ele>
        <time>2012-01-13T14:09:24Z</time>
      </trkpt>
      <trkpt lat="49.16344" lon="-0.39768">
        <ele>13.1</ele>
        <time>2012-01-13T14:09:25Z</time>
      </trkpt>
      <trkpt lat="49.16344" lon="-0.39768">
        <ele>13</ele>
        <time>2012-01-13T14:09:26Z</time>
      </trkpt>
      <trkpt lat="49.16344" lon="-0.39768">
        <ele>13.1</ele>
        <time>2012-01-13T14:09:27Z</time>
      </trkpt>
      <trkpt lat="49.16344" lon="-0.39767">
        <ele>12.8</ele>
        <time>2012-01-13T14:09:28Z</time>
      </trkpt>
      <trkpt lat="49.16345" lon="-0.39766">
        <ele>13</ele>
        <time>2012-01-13T14:09:29Z</time>
      </trkpt>
      <trkpt lat="49.16345" lon="-0.39765">
        <ele>13.3</ele>
        <time>2012-01-13T14:09:30Z</time>
      </trkpt>
      <trkpt lat="49.16346" lon="-0.39764">
        <ele>14.3</ele>
        <time>2012-01-13T14:09:31Z</time>
      </trkpt>
      <trkpt lat="49.16346" lon="-0.39762">
        <ele>14.3</ele>
        <time>2012-01-13T14:09:32Z</time>
      </trkpt>
      <trkpt lat="49.16347" lon="-0.3976">
        <ele>14</ele>
        <time>2012-01-13T14:09:33Z</time>
      </trkpt>
      <trkpt lat="49.16348" lon="-0.39759">
        <ele>14.3</ele>
        <time>2012-01-13T14:09:34Z</time>
      </trkpt>
      <trkpt lat="49.16348" lon="-0.39757">
        <ele>14.6</ele>
        <time>2012-01-13T14:09:35Z</time>
      </trkpt>
      <trkpt lat="49.16349" lon="-0.39756">
        <ele>15</ele>
        <time>2012-01-13T14:09:36Z</time>
      </trkpt>
      <trkpt lat="49.16349" lon="-0.39754">
        <ele>15.3</ele>
        <time>2012-01-13T14:09:37Z</time>
      </trkpt>
      <trkpt lat="49.16349" lon="-0.39753">
        <ele>16.2</ele>
        <time>2012-01-13T14:09:38Z</time>
      </trkpt>
      <trkpt lat="49.1635" lon="-0.39752">
        <ele>16.5</ele>
        <time>2012-01-13T14:09:39Z</time>
      </trkpt>
      <trkpt lat="49.1635" lon="-0.39751">
        <ele>17.2</ele>
        <time>2012-01-13T14:09:40Z</time>
      </trkpt>
      <trkpt lat="49.16351" lon="-0.3975">
        <ele>18.1</ele>
        <time>2012-01-13T14:09:41Z</time>
      </trkpt>
      <trkpt lat="49.16351" lon="-0.39748">
        <ele>18.1</ele>
        <time>2012-01-13T14:09:42Z</time>
      </trkpt>
      <trkpt lat="49.16352" lon="-0.39747">
        <ele>18.6</ele>
        <time>2012-01-13T14:09:43Z</time>
      </trkpt>
      <trkpt lat="49.16352" lon="-0.39745">
        <ele>19.1</ele>
        <time>2012-01-13T14:09:44Z</time>
      </trkpt>
      <trkpt lat="49.16352" lon="-0.39744">
        <ele>20.2</ele>
        <time>2012-01-13T14:09:45Z</time>
      </trkpt>
      <trkpt lat="49.16353" lon="-0.39742">
        <ele>20.7</ele>
        <time>2012-01-13T14:09:46Z</time>
      </trkpt>
      <trkpt lat="49.16354" lon="-0.39741">
        <ele>21</ele>
        <time>2012-01-13T14:09:47Z</time>
      </trkpt>
      <trkpt lat="49.16354" lon="-0.3974">
        <ele>21.2</ele>
        <time>2012-01-13T14:09:48Z</time>
      </trkpt>
      <trkpt lat="49.16355" lon="-0.39738">
        <ele>19.7</ele>
        <time>2012-01-13T14:09:49Z</time>
      </trkpt>
      <trkpt lat="49.16355" lon="-0.39736">
        <ele>18.2</ele>
        <time>2012-01-13T14:09:50Z</time>
      </trkpt>
      <trkpt lat="49.16356" lon="-0.39735">
        <ele>17.6</ele>
        <time>2012-01-13T14:09:51Z</time>
      </trkpt>
      <trkpt lat="49.16357" lon="-0.39732">
        <ele>17.2</ele>
        <time>2012-01-13T14:09:52Z</time>
      </trkpt>
      <trkpt lat="49.16358" lon="-0.3973">
        <ele>16.2</ele>
        <time>2012-01-13T14:09:53Z</time>
      </trkpt>
      <trkpt lat="49.16358" lon="-0.39728">
        <ele>15.5</ele>
        <time>2012-01-13T14:09:54Z</time>
      </trkpt>
      <trkpt lat="49.16359" lon="-0.39726">
        <ele>15.6</ele>
        <time>2012-01-13T14:09:55Z</time>
      </trkpt>
      <trkpt lat="49.1636" lon="-0.39724">
        <ele>16.6</ele>
        <time>2012-01-13T14:09:56Z</time>
      </trkpt>
      <trkpt lat="49.1636" lon="-0.39723">
        <ele>17.1</ele>
        <time>2012-01-13T14:09:57Z</time>
      </trkpt>
      <trkpt lat="49.16361" lon="-0.39722">
        <ele>18</ele>
        <time>2012-01-13T14:09:58Z</time>
      </trkpt>
      <trkpt lat="49.16361" lon="-0.3972">
        <ele>18.5</ele>
        <time>2012-01-13T14:09:59Z</time>
      </trkpt>
      <trkpt lat="49.16362" lon="-0.39719">
        <ele>18.7</ele>
        <time>2012-01-13T14:10:00Z</time>
      </trkpt>
      <trkpt lat="49.16362" lon="-0.39718">
        <ele>19.2</ele>
        <time>2012-01-13T14:10:01Z</time>
      </trkpt>
      <trkpt lat="49.16362" lon="-0.39716">
        <ele>19.2</ele>
        <time>2012-01-13T14:10:02Z</time>
      </trkpt>
      <trkpt lat="49.16362" lon="-0.39715">
        <ele>19.1</ele>
        <time>2012-01-13T14:10:03Z</time>
      </trkpt>
      <trkpt lat="49.16363" lon="-0.39714">
        <ele>19.2</ele>
        <time>2012-01-13T14:10:04Z</time>
      </trkpt>
      <trkpt lat="49.16363" lon="-0.39713">
        <ele>19.7</ele>
        <time>2012-01-13T14:10:05Z</time>
      </trkpt>
      <trkpt lat="49.16363" lon="-0.39711">
        <ele>20.1</ele>
        <time>2012-01-13T14:10:06Z</time>
      </trkpt>
      <trkpt lat="49.16364" lon="-0.3971">
        <ele>20.2</ele>
        <time>2012-01-13T14:10:07Z</time>
      </trkpt>
      <trkpt lat="49.16365" lon="-0.39709">
        <ele>20.1</ele>
        <time>2012-01-13T14:10:08Z</time>
      </trkpt>
      <trkpt lat="49.16366" lon="-0.39708">
        <ele>20.1</ele>
        <time>2012-01-13T14:10:09Z</time>
      </trkpt>
      <trkpt lat="49.16366" lon="-0.39707">
        <ele>20.2</ele>
        <time>2012-01-13T14:10:10Z</time>
      </trkpt>
      <trkpt lat="49.16367" lon="-0.39706">
        <ele>20.5</ele>
        <time>2012-01-13T14:10:11Z</time>
      </trkpt>
      <trkpt lat="49.16367" lon="-0.39705">
        <ele>20.6</ele>
        <time>2012-01-13T14:10:12Z</time>
      </trkpt>
      <trkpt lat="49.16368" lon="-0.39703">
        <ele>21</ele>
        <time>2012-01-13T14:10:13Z</time>
      </trkpt>
      <trkpt lat="49.16368" lon="-0.39702">
        <ele>21.7</ele>
        <time>2012-01-13T14:10:14Z</time>
      </trkpt>
      <trkpt lat="49.16368" lon="-0.39701">
        <ele>22</ele>
        <time>2012-01-13T14:10:15Z</time>
      </trkpt>
      <trkpt lat="49.16369" lon="-0.397">
        <ele>21.6</ele>
        <time>2012-01-13T14:10:16Z</time>
      </trkpt>
      <trkpt lat="49.1637" lon="-0.39698">
        <ele>20.1</ele>
        <time>2012-01-13T14:10:17Z</time>
      </trkpt>
      <trkpt lat="49.1637" lon="-0.39696">
        <ele>19</ele>
        <time>2012-01-13T14:10:18Z</time>
      </trkpt>
      <trkpt lat="49.16371" lon="-0.39695">
        <ele>19.5</ele>
        <time>2012-01-13T14:10:19Z</time>
      </trkpt>
      <trkpt lat="49.16372" lon="-0.39693">
        <ele>19.2</ele>
        <time>2012-01-13T14:10:20Z</time>
      </trkpt>
      <trkpt lat="49.16373" lon="-0.39692">
        <ele>17.2</ele>
        <time>2012-01-13T14:10:21Z</time>
      </trkpt>
      <trkpt lat="49.16374" lon="-0.3969">
        <ele>16.6</ele>
        <time>2012-01-13T14:10:22Z</time>
      </trkpt>
      <trkpt lat="49.16374" lon="-0.39688">
        <ele>15.6</ele>
        <time>2012-01-13T14:10:23Z</time>
      </trkpt>
      <trkpt lat="49.16375" lon="-0.39687">
        <ele>15.5</ele>
        <time>2012-01-13T14:10:24Z</time>
      </trkpt>
      <trkpt lat="49.16376" lon="-0.39685">
        <ele>14.6</ele>
        <time>2012-01-13T14:10:25Z</time>
      </trkpt>
      <trkpt lat="49.16376" lon="-0.39684">
        <ele>13.6</ele>
        <time>2012-01-13T14:10:26Z</time>
      </trkpt>
      <trkpt lat="49.16376" lon="-0.39682">
        <ele>12.5</ele>
        <time>2012-01-13T14:10:27Z</time>
      </trkpt>
      <trkpt lat="49.16377" lon="-0.39681">
        <ele>12.3</ele>
        <time>2012-01-13T14:10:28Z</time>
      </trkpt>
      <trkpt lat="49.16378" lon="-0.3968">
        <ele>13.6</ele>
        <time>2012-01-13T14:10:29Z</time>
      </trkpt>
      <trkpt lat="49.16378" lon="-0.39679">
        <ele>14.8</ele>
        <time>2012-01-13T14:10:30Z</time>
      </trkpt>
      <trkpt lat="49.16379" lon="-0.39677">
        <ele>16</ele>
        <time>2012-01-13T14:10:31Z</time>
      </trkpt>
      <trkpt lat="49.16379" lon="-0.39676">
        <ele>15.1</ele>
        <time>2012-01-13T14:10:32Z</time>
      </trkpt>
      <trkpt lat="49.16379" lon="-0.39674">
        <ele>14.5</ele>
        <time>2012-01-13T14:10:33Z</time>
      </trkpt>
      <trkpt lat="49.1638" lon="-0.39673">
        <ele>13.8</ele>
        <time>2012-01-13T14:10:34Z</time>
      </trkpt>
      <trkpt lat="49.16381" lon="-0.39672">
        <ele>12.3</ele>
        <time>2012-01-13T14:10:35Z</time>
      </trkpt>
      <trkpt lat="49.16382" lon="-0.3967">
        <ele>11.6</ele>
        <time>2012-01-13T14:10:36Z</time>
      </trkpt>
      <trkpt lat="49.16383" lon="-0.39669">
        <ele>10.3</ele>
        <time>2012-01-13T14:10:37Z</time>
      </trkpt>
      <trkpt lat="49.16384" lon="-0.39667">
        <ele>9.3</ele>
        <time>2012-01-13T14:10:38Z</time>
      </trkpt>
      <trkpt lat="49.16385" lon="-0.39666">
        <ele>8.8</ele>
        <time>2012-01-13T14:10:39Z</time>
      </trkpt>
      <trkpt lat="49.16385" lon="-0.39664">
        <ele>8.3</ele>
        <time>2012-01-13T14:10:40Z</time>
      </trkpt>
      <trkpt lat="49.16386" lon="-0.39663">
        <ele>7.4</ele>
        <time>2012-01-13T14:10:41Z</time>
      </trkpt>
      <trkpt lat="49.16387" lon="-0.39662">
        <ele>7</ele>
        <time>2012-01-13T14:10:42Z</time>
      </trkpt>
      <trkpt lat="49.16387" lon="-0.39661">
        <ele>7</ele>
        <time>2012-01-13T14:10:43Z</time>
      </trkpt>
      <trkpt lat="49.16387" lon="-0.3966">
        <ele>7.8</ele>
        <time>2012-01-13T14:10:44Z</time>
      </trkpt>
      <trkpt lat="49.16388" lon="-0.39659">
        <ele>9.1</ele>
        <time>2012-01-13T14:10:45Z</time>
      </trkpt>
      <trkpt lat="49.16389" lon="-0.39657">
        <ele>10.1</ele>
        <time>2012-01-13T14:10:46Z</time>
      </trkpt>
      <trkpt lat="49.16389" lon="-0.39656">
        <ele>10.6</ele>
        <time>2012-01-13T14:10:47Z</time>
      </trkpt>
      <trkpt lat="49.1639" lon="-0.39654">
        <ele>11.6</ele>
        <time>2012-01-13T14:10:48Z</time>
      </trkpt>
      <trkpt lat="49.1639" lon="-0.39652">
        <ele>11.3</ele>
        <time>2012-01-13T14:10:49Z</time>
      </trkpt>
      <trkpt lat="49.1639" lon="-0.3965">
        <ele>10.8</ele>
        <time>2012-01-13T14:10:50Z</time>
      </trkpt>
      <trkpt lat="49.16391" lon="-0.39648">
        <ele>10.5</ele>
        <time>2012-01-13T14:10:51Z</time>
      </trkpt>
      <trkpt lat="49.16391" lon="-0.39647">
        <ele>10.8</ele>
        <time>2012-01-13T14:10:52Z</time>
      </trkpt>
      <trkpt lat="49.16392" lon="-0.39645">
        <ele>10.1</ele>
        <time>2012-01-13T14:10:53Z</time>
      </trkpt>
      <trkpt lat="49.16392" lon="-0.39644">
        <ele>9.8</ele>
        <time>2012-01-13T14:10:54Z</time>
      </trkpt>
      <trkpt lat="49.16393" lon="-0.39643">
        <ele>9.3</ele>
        <time>2012-01-13T14:10:55Z</time>
      </trkpt>
      <trkpt lat="49.16393" lon="-0.39641">
        <ele>9.8</ele>
        <time>2012-01-13T14:10:56Z</time>
      </trkpt>
      <trkpt lat="49.16394" lon="-0.39639">
        <ele>9.6</ele>
        <time>2012-01-13T14:10:57Z</time>
      </trkpt>
      <trkpt lat="49.16394" lon="-0.39638">
        <ele>9.8</ele>
        <time>2012-01-13T14:10:58Z</time>
      </trkpt>
      <trkpt lat="49.16394" lon="-0.39637">
        <ele>9.1</ele>
        <time>2012-01-13T14:10:59Z</time>
      </trkpt>
      <trkpt lat="49.16395" lon="-0.39635">
        <ele>9</ele>
        <time>2012-01-13T14:11:00Z</time>
      </trkpt>
      <trkpt lat="49.16396" lon="-0.39633">
        <ele>9.8</ele>
        <time>2012-01-13T14:11:01Z</time>
      </trkpt>
      <trkpt lat="49.16397" lon="-0.39631">
        <ele>11.1</ele>
        <time>2012-01-13T14:11:02Z</time>
      </trkpt>
      <trkpt lat="49.16398" lon="-0.3963">
        <ele>10.3</ele>
        <time>2012-01-13T14:11:03Z</time>
      </trkpt>
      <trkpt lat="49.16398" lon="-0.39628">
        <ele>9.8</ele>
        <time>2012-01-13T14:11:04Z</time>
      </trkpt>
      <trkpt lat="49.16399" lon="-0.39627">
        <ele>9.3</ele>
        <time>2012-01-13T14:11:05Z</time>
      </trkpt>
      <trkpt lat="49.164" lon="-0.39625">
        <ele>8.8</ele>
        <time>2012-01-13T14:11:06Z</time>
      </trkpt>
      <trkpt lat="49.164" lon="-0.39624">
        <ele>8.3</ele>
        <time>2012-01-13T14:11:07Z</time>
      </trkpt>
      <trkpt lat="49.16401" lon="-0.39623">
        <ele>8.6</ele>
        <time>2012-01-13T14:11:08Z</time>
      </trkpt>
      <trkpt lat="49.16402" lon="-0.39622">
        <ele>9</ele>
        <time>2012-01-13T14:11:09Z</time>
      </trkpt>
      <trkpt lat="49.16402" lon="-0.3962">
        <ele>8.6</ele>
        <time>2012-01-13T14:11:10Z</time>
      </trkpt>
      <trkpt lat="49.16402" lon="-0.39619">
        <ele>9</ele>
        <time>2012-01-13T14:11:11Z</time>
      </trkpt>
      <trkpt lat="49.16402" lon="-0.39618">
        <ele>9.6</ele>
        <time>2012-01-13T14:11:12Z</time>
      </trkpt>
      <trkpt lat="49.16403" lon="-0.39617">
        <ele>10.3</ele>
        <time>2012-01-13T14:11:13Z</time>
      </trkpt>
      <trkpt lat="49.16404" lon="-0.39615">
        <ele>11.5</ele>
        <time>2012-01-13T14:11:14Z</time>
      </trkpt>
      <trkpt lat="49.16404" lon="-0.39613">
        <ele>13</ele>
        <time>2012-01-13T14:11:15Z</time>
      </trkpt>
      <trkpt lat="49.16405" lon="-0.39611">
        <ele>13.6</ele>
        <time>2012-01-13T14:11:16Z</time>
      </trkpt>
      <trkpt lat="49.16405" lon="-0.3961">
        <ele>14.3</ele>
        <time>2012-01-13T14:11:17Z</time>
      </trkpt>
      <trkpt lat="49.16406" lon="-0.39609">
        <ele>15.1</ele>
        <time>2012-01-13T14:11:18Z</time>
      </trkpt>
      <trkpt lat="49.16406" lon="-0.39607">
        <ele>15.6</ele>
        <time>2012-01-13T14:11:19Z</time>
      </trkpt>
      <trkpt lat="49.16407" lon="-0.39606">
        <ele>16.2</ele>
        <time>2012-01-13T14:11:20Z</time>
      </trkpt>
      <trkpt lat="49.16407" lon="-0.39604">
        <ele>16.7</ele>
        <time>2012-01-13T14:11:21Z</time>
      </trkpt>
      <trkpt lat="49.16408" lon="-0.39603">
        <ele>17.5</ele>
        <time>2012-01-13T14:11:22Z</time>
      </trkpt>
      <trkpt lat="49.16408" lon="-0.39602">
        <ele>18.1</ele>
        <time>2012-01-13T14:11:23Z</time>
      </trkpt>
      <trkpt lat="49.16409" lon="-0.396">
        <ele>18.7</ele>
        <time>2012-01-13T14:11:24Z</time>
      </trkpt>
      <trkpt lat="49.1641" lon="-0.39599">
        <ele>17.7</ele>
        <time>2012-01-13T14:11:25Z</time>
      </trkpt>
      <trkpt lat="49.1641" lon="-0.39597">
        <ele>17.2</ele>
        <time>2012-01-13T14:11:26Z</time>
      </trkpt>
      <trkpt lat="49.16411" lon="-0.39594">
        <ele>15.8</ele>
        <time>2012-01-13T14:11:27Z</time>
      </trkpt>
      <trkpt lat="49.16412" lon="-0.39592">
        <ele>13.8</ele>
        <time>2012-01-13T14:11:28Z</time>
      </trkpt>
      <trkpt lat="49.16412" lon="-0.39589">
        <ele>11.5</ele>
        <time>2012-01-13T14:11:29Z</time>
      </trkpt>
      <trkpt lat="49.16412" lon="-0.39586">
        <ele>9.8</ele>
        <time>2012-01-13T14:11:30Z</time>
      </trkpt>
      <trkpt lat="49.16413" lon="-0.39585">
        <ele>8.6</ele>
        <time>2012-01-13T14:11:31Z</time>
      </trkpt>
      <trkpt lat="49.16414" lon="-0.39583">
        <ele>8.6</ele>
        <time>2012-01-13T14:11:32Z</time>
      </trkpt>
      <trkpt lat="49.16415" lon="-0.39582">
        <ele>8.1</ele>
        <time>2012-01-13T14:11:33Z</time>
      </trkpt>
      <trkpt lat="49.16415" lon="-0.39581">
        <ele>7.9</ele>
        <time>2012-01-13T14:11:34Z</time>
      </trkpt>
      <trkpt lat="49.16416" lon="-0.3958">
        <ele>8</ele>
        <time>2012-01-13T14:11:35Z</time>
      </trkpt>
      <trkpt lat="49.16416" lon="-0.39578">
        <ele>8.5</ele>
        <time>2012-01-13T14:11:36Z</time>
      </trkpt>
      <trkpt lat="49.16416" lon="-0.39577">
        <ele>8.6</ele>
        <time>2012-01-13T14:11:37Z</time>
      </trkpt>
      <trkpt lat="49.16417" lon="-0.39576">
        <ele>8.6</ele>
        <time>2012-01-13T14:11:38Z</time>
      </trkpt>
      <trkpt lat="49.16417" lon="-0.39575">
        <ele>9.1</ele>
        <time>2012-01-13T14:11:39Z</time>
      </trkpt>
      <trkpt lat="49.16418" lon="-0.39574">
        <ele>9.8</ele>
        <time>2012-01-13T14:11:40Z</time>
      </trkpt>
      <trkpt lat="49.16418" lon="-0.39572">
        <ele>10.1</ele>
        <time>2012-01-13T14:11:41Z</time>
      </trkpt>
      <trkpt lat="49.16419" lon="-0.39571">
        <ele>10.5</ele>
        <time>2012-01-13T14:11:42Z</time>
      </trkpt>
      <trkpt lat="49.16419" lon="-0.3957">
        <ele>10.3</ele>
        <time>2012-01-13T14:11:43Z</time>
      </trkpt>
      <trkpt lat="49.16419" lon="-0.39569">
        <ele>10.3</ele>
        <time>2012-01-13T14:11:44Z</time>
      </trkpt>
      <trkpt lat="49.1642" lon="-0.39567">
        <ele>10.6</ele>
        <time>2012-01-13T14:11:45Z</time>
      </trkpt>
      <trkpt lat="49.1642" lon="-0.39566">
        <ele>11</ele>
        <time>2012-01-13T14:11:46Z</time>
      </trkpt>
      <trkpt lat="49.16421" lon="-0.39564">
        <ele>11.1</ele>
        <time>2012-01-13T14:11:47Z</time>
      </trkpt>
      <trkpt lat="49.16422" lon="-0.39563">
        <ele>12.1</ele>
        <time>2012-01-13T14:11:48Z</time>
      </trkpt>
      <trkpt lat="49.16423" lon="-0.39561">
        <ele>11.5</ele>
        <time>2012-01-13T14:11:49Z</time>
      </trkpt>
      <trkpt lat="49.16423" lon="-0.3956">
        <ele>10.3</ele>
        <time>2012-01-13T14:11:50Z</time>
      </trkpt>
      <trkpt lat="49.16423" lon="-0.39558">
        <ele>9.8</ele>
        <time>2012-01-13T14:11:51Z</time>
      </trkpt>
      <trkpt lat="49.16424" lon="-0.39557">
        <ele>9</ele>
        <time>2012-01-13T14:11:52Z</time>
      </trkpt>
      <trkpt lat="49.16424" lon="-0.39556">
        <ele>8.6</ele>
        <time>2012-01-13T14:11:53Z</time>
      </trkpt>
      <trkpt lat="49.16425" lon="-0.39554">
        <ele>9.3</ele>
        <time>2012-01-13T14:11:54Z</time>
      </trkpt>
      <trkpt lat="49.16425" lon="-0.39553">
        <ele>10.5</ele>
        <time>2012-01-13T14:11:55Z</time>
      </trkpt>
      <trkpt lat="49.16426" lon="-0.39551">
        <ele>10.8</ele>
        <time>2012-01-13T14:11:56Z</time>
      </trkpt>
      <trkpt lat="49.16426" lon="-0.3955">
        <ele>11</ele>
        <time>2012-01-13T14:11:57Z</time>
      </trkpt>
      <trkpt lat="49.16427" lon="-0.39548">
        <ele>10.8</ele>
        <time>2012-01-13T14:11:58Z</time>
      </trkpt>
      <trkpt lat="49.16429" lon="-0.39547">
        <ele>10.5</ele>
        <time>2012-01-13T14:11:59Z</time>
      </trkpt>
      <trkpt lat="49.16429" lon="-0.39546">
        <ele>11</ele>
        <time>2012-01-13T14:12:00Z</time>
      </trkpt>
      <trkpt lat="49.16429" lon="-0.39545">
        <ele>11.3</ele>
        <time>2012-01-13T14:12:01Z</time>
      </trkpt>
      <trkpt lat="49.1643" lon="-0.39543">
        <ele>11.5</ele>
        <time>2012-01-13T14:12:02Z</time>
      </trkpt>
      <trkpt lat="49.1643" lon="-0.39542">
        <ele>11.6</ele>
        <time>2012-01-13T14:12:03Z</time>
      </trkpt>
      <trkpt lat="49.1643" lon="-0.3954">
        <ele>11.8</ele>
        <time>2012-01-13T14:12:04Z</time>
      </trkpt>
      <trkpt lat="49.16431" lon="-0.39539">
        <ele>11.8</ele>
        <time>2012-01-13T14:12:05Z</time>
      </trkpt>
      <trkpt lat="49.16431" lon="-0.39537">
        <ele>12.8</ele>
        <time>2012-01-13T14:12:06Z</time>
      </trkpt>
      <trkpt lat="49.16432" lon="-0.39536">
        <ele>13.6</ele>
        <time>2012-01-13T14:12:07Z</time>
      </trkpt>
      <trkpt lat="49.16432" lon="-0.39534">
        <ele>13.8</ele>
        <time>2012-01-13T14:12:08Z</time>
      </trkpt>
      <trkpt lat="49.16432" lon="-0.39533">
        <ele>14.6</ele>
        <time>2012-01-13T14:12:09Z</time>
      </trkpt>
      <trkpt lat="49.16432" lon="-0.39532">
        <ele>15.1</ele>
        <time>2012-01-13T14:12:10Z</time>
      </trkpt>
      <trkpt lat="49.16433" lon="-0.3953">
        <ele>15.5</ele>
        <time>2012-01-13T14:12:11Z</time>
      </trkpt>
      <trkpt lat="49.16433" lon="-0.39529">
        <ele>15.6</ele>
        <time>2012-01-13T14:12:12Z</time>
      </trkpt>
      <trkpt lat="49.16434" lon="-0.39528">
        <ele>16</ele>
        <time>2012-01-13T14:12:13Z</time>
      </trkpt>
      <trkpt lat="49.16435" lon="-0.39527">
        <ele>16.2</ele>
        <time>2012-01-13T14:12:14Z</time>
      </trkpt>
      <trkpt lat="49.16435" lon="-0.39525">
        <ele>16.7</ele>
        <time>2012-01-13T14:12:15Z</time>
      </trkpt>
      <trkpt lat="49.16436" lon="-0.39524">
        <ele>17.2</ele>
        <time>2012-01-13T14:12:16Z</time>
      </trkpt>
      <trkpt lat="49.16436" lon="-0.39523">
        <ele>17.5</ele>
        <time>2012-01-13T14:12:17Z</time>
      </trkpt>
      <trkpt lat="49.16437" lon="-0.39521">
        <ele>18.2</ele>
        <time>2012-01-13T14:12:18Z</time>
      </trkpt>
      <trkpt lat="49.16438" lon="-0.39519">
        <ele>19.5</ele>
        <time>2012-01-13T14:12:19Z</time>
      </trkpt>
      <trkpt lat="49.16438" lon="-0.39518">
        <ele>19.7</ele>
        <time>2012-01-13T14:12:20Z</time>
      </trkpt>
      <trkpt lat="49.16439" lon="-0.39516">
        <ele>19</ele>
        <time>2012-01-13T14:12:21Z</time>
      </trkpt>
      <trkpt lat="49.1644" lon="-0.39514">
        <ele>17.7</ele>
        <time>2012-01-13T14:12:22Z</time>
      </trkpt>
      <trkpt lat="49.16441" lon="-0.39512">
        <ele>17</ele>
        <time>2012-01-13T14:12:23Z</time>
      </trkpt>
      <trkpt lat="49.16442" lon="-0.39511">
        <ele>16.6</ele>
        <time>2012-01-13T14:12:24Z</time>
      </trkpt>
      <trkpt lat="49.16443" lon="-0.39508">
        <ele>14.8</ele>
        <time>2012-01-13T14:12:25Z</time>
      </trkpt>
      <trkpt lat="49.16443" lon="-0.39507">
        <ele>13</ele>
        <time>2012-01-13T14:12:26Z</time>
      </trkpt>
      <trkpt lat="49.16444" lon="-0.39506">
        <ele>11.1</ele>
        <time>2012-01-13T14:12:27Z</time>
      </trkpt>
      <trkpt lat="49.16444" lon="-0.39505">
        <ele>10</ele>
        <time>2012-01-13T14:12:28Z</time>
      </trkpt>
      <trkpt lat="49.16444" lon="-0.39504">
        <ele>9.6</ele>
        <time>2012-01-13T14:12:29Z</time>
      </trkpt>
      <trkpt lat="49.16444" lon="-0.39503">
        <ele>9.8</ele>
        <time>2012-01-13T14:12:30Z</time>
      </trkpt>
      <trkpt lat="49.16445" lon="-0.39501">
        <ele>10</ele>
        <time>2012-01-13T14:12:31Z</time>
      </trkpt>
      <trkpt lat="49.16445" lon="-0.395">
        <ele>10</ele>
        <time>2012-01-13T14:12:32Z</time>
      </trkpt>
      <trkpt lat="49.16446" lon="-0.39498">
        <ele>9.8</ele>
        <time>2012-01-13T14:12:33Z</time>
      </trkpt>
      <trkpt lat="49.16446" lon="-0.39497">
        <ele>9.3</ele>
        <time>2012-01-13T14:12:34Z</time>
      </trkpt>
      <trkpt lat="49.16447" lon="-0.39495">
        <ele>8.8</ele>
        <time>2012-01-13T14:12:35Z</time>
      </trkpt>
      <trkpt lat="49.16447" lon="-0.39493">
        <ele>8.5</ele>
        <time>2012-01-13T14:12:36Z</time>
      </trkpt>
      <trkpt lat="49.16447" lon="-0.39491">
        <ele>8.1</ele>
        <time>2012-01-13T14:12:37Z</time>
      </trkpt>
      <trkpt lat="49.16447" lon="-0.39489">
        <ele>7.5</ele>
        <time>2012-01-13T14:12:38Z</time>
      </trkpt>
      <trkpt lat="49.16447" lon="-0.39488">
        <ele>7.3</ele>
        <time>2012-01-13T14:12:39Z</time>
      </trkpt>
      <trkpt lat="49.16448" lon="-0.39486">
        <ele>6.9</ele>
        <time>2012-01-13T14:12:40Z</time>
      </trkpt>
      <trkpt lat="49.16448" lon="-0.39484">
        <ele>6.5</ele>
        <time>2012-01-13T14:12:41Z</time>
      </trkpt>
      <trkpt lat="49.16448" lon="-0.39482">
        <ele>6.3</ele>
        <time>2012-01-13T14:12:42Z</time>
      </trkpt>
      <trkpt lat="49.16449" lon="-0.3948">
        <ele>5.9</ele>
        <time>2012-01-13T14:12:43Z</time>
      </trkpt>
      <trkpt lat="49.1645" lon="-0.39478">
        <ele>5.5</ele>
        <time>2012-01-13T14:12:44Z</time>
      </trkpt>
      <trkpt lat="49.16451" lon="-0.39476">
        <ele>5</ele>
        <time>2012-01-13T14:12:45Z</time>
      </trkpt>
      <trkpt lat="49.16451" lon="-0.39474">
        <ele>5</ele>
        <time>2012-01-13T14:12:46Z</time>
      </trkpt>
      <trkpt lat="49.16452" lon="-0.39472">
        <ele>5</ele>
        <time>2012-01-13T14:12:47Z</time>
      </trkpt>
      <trkpt lat="49.16452" lon="-0.39471">
        <ele>5.3</ele>
        <time>2012-01-13T14:12:48Z</time>
      </trkpt>
      <trkpt lat="49.16452" lon="-0.39469">
        <ele>5.4</ele>
        <time>2012-01-13T14:12:49Z</time>
      </trkpt>
      <trkpt lat="49.16453" lon="-0.39468">
        <ele>5.5</ele>
        <time>2012-01-13T14:12:50Z</time>
      </trkpt>
      <trkpt lat="49.16453" lon="-0.39466">
        <ele>6</ele>
        <time>2012-01-13T14:12:51Z</time>
      </trkpt>
      <trkpt lat="49.16454" lon="-0.39465">
        <ele>6</ele>
        <time>2012-01-13T14:12:52Z</time>
      </trkpt>
      <trkpt lat="49.16455" lon="-0.39463">
        <ele>6.5</ele>
        <time>2012-01-13T14:12:53Z</time>
      </trkpt>
      <trkpt lat="49.16456" lon="-0.39462">
        <ele>7</ele>
        <time>2012-01-13T14:12:54Z</time>
      </trkpt>
      <trkpt lat="49.16456" lon="-0.39461">
        <ele>7.4</ele>
        <time>2012-01-13T14:12:55Z</time>
      </trkpt>
      <trkpt lat="49.16457" lon="-0.39459">
        <ele>6.9</ele>
        <time>2012-01-13T14:12:56Z</time>
      </trkpt>
      <trkpt lat="49.16459" lon="-0.39457">
        <ele>6.5</ele>
        <time>2012-01-13T14:12:57Z</time>
      </trkpt>
      <trkpt lat="49.1646" lon="-0.39456">
        <ele>6.5</ele>
        <time>2012-01-13T14:12:58Z</time>
      </trkpt>
      <trkpt lat="49.16461" lon="-0.39454">
        <ele>6.5</ele>
        <time>2012-01-13T14:12:59Z</time>
      </trkpt>
      <trkpt lat="49.16462" lon="-0.39453">
        <ele>7.4</ele>
        <time>2012-01-13T14:13:00Z</time>
      </trkpt>
      <trkpt lat="49.16462" lon="-0.39452">
        <ele>7.5</ele>
        <time>2012-01-13T14:13:01Z</time>
      </trkpt>
      <trkpt lat="49.16463" lon="-0.39451">
        <ele>7.8</ele>
        <time>2012-01-13T14:13:02Z</time>
      </trkpt>
      <trkpt lat="49.16463" lon="-0.3945">
        <ele>7.8</ele>
        <time>2012-01-13T14:13:03Z</time>
      </trkpt>
      <trkpt lat="49.16464" lon="-0.39448">
        <ele>7.9</ele>
        <time>2012-01-13T14:13:04Z</time>
      </trkpt>
      <trkpt lat="49.16465" lon="-0.39447">
        <ele>8.3</ele>
        <time>2012-01-13T14:13:05Z</time>
      </trkpt>
      <trkpt lat="49.16466" lon="-0.39446">
        <ele>8.3</ele>
        <time>2012-01-13T14:13:06Z</time>
      </trkpt>
      <trkpt lat="49.16467" lon="-0.39444">
        <ele>8.6</ele>
        <time>2012-01-13T14:13:07Z</time>
      </trkpt>
      <trkpt lat="49.16468" lon="-0.39443">
        <ele>8.6</ele>
        <time>2012-01-13T14:13:08Z</time>
      </trkpt>
      <trkpt lat="49.16469" lon="-0.39442">
        <ele>8.8</ele>
        <time>2012-01-13T14:13:09Z</time>
      </trkpt>
      <trkpt lat="49.1647" lon="-0.39441">
        <ele>9</ele>
        <time>2012-01-13T14:13:10Z</time>
      </trkpt>
      <trkpt lat="49.16471" lon="-0.39439">
        <ele>9.1</ele>
        <time>2012-01-13T14:13:11Z</time>
      </trkpt>
      <trkpt lat="49.16473" lon="-0.39439">
        <ele>9.6</ele>
        <time>2012-01-13T14:13:12Z</time>
      </trkpt>
      <trkpt lat="49.16474" lon="-0.39438">
        <ele>10.1</ele>
        <time>2012-01-13T14:13:13Z</time>
      </trkpt>
      <trkpt lat="49.16474" lon="-0.39438">
        <ele>10.3</ele>
        <time>2012-01-13T14:13:14Z</time>
      </trkpt>
      <trkpt lat="49.16475" lon="-0.39438">
        <ele>10.8</ele>
        <time>2012-01-13T14:13:15Z</time>
      </trkpt>
      <trkpt lat="49.16476" lon="-0.39437">
        <ele>10.6</ele>
        <time>2012-01-13T14:13:16Z</time>
      </trkpt>
      <trkpt lat="49.16477" lon="-0.39437">
        <ele>10.8</ele>
        <time>2012-01-13T14:13:17Z</time>
      </trkpt>
      <trkpt lat="49.16478" lon="-0.39437">
        <ele>11.1</ele>
        <time>2012-01-13T14:13:18Z</time>
      </trkpt>
      <trkpt lat="49.1648" lon="-0.39436">
        <ele>11.1</ele>
        <time>2012-01-13T14:13:19Z</time>
      </trkpt>
      <trkpt lat="49.16481" lon="-0.39435">
        <ele>10.6</ele>
        <time>2012-01-13T14:13:20Z</time>
      </trkpt>
      <trkpt lat="49.16482" lon="-0.39435">
        <ele>10.3</ele>
        <time>2012-01-13T14:13:21Z</time>
      </trkpt>
      <trkpt lat="49.16483" lon="-0.39434">
        <ele>10.1</ele>
        <time>2012-01-13T14:13:22Z</time>
      </trkpt>
      <trkpt lat="49.16484" lon="-0.39433">
        <ele>10.1</ele>
        <time>2012-01-13T14:13:23Z</time>
      </trkpt>
      <trkpt lat="49.16486" lon="-0.39433">
        <ele>10.3</ele>
        <time>2012-01-13T14:13:24Z</time>
      </trkpt>
      <trkpt lat="49.16487" lon="-0.39432">
        <ele>10.3</ele>
        <time>2012-01-13T14:13:25Z</time>
      </trkpt>
      <trkpt lat="49.16488" lon="-0.39432">
        <ele>9.8</ele>
        <time>2012-01-13T14:13:26Z</time>
      </trkpt>
      <trkpt lat="49.16489" lon="-0.39432">
        <ele>8.8</ele>
        <time>2012-01-13T14:13:27Z</time>
      </trkpt>
      <trkpt lat="49.1649" lon="-0.39432">
        <ele>8.1</ele>
        <time>2012-01-13T14:13:28Z</time>
      </trkpt>
      <trkpt lat="49.16491" lon="-0.39431">
        <ele>7.8</ele>
        <time>2012-01-13T14:13:29Z</time>
      </trkpt>
      <trkpt lat="49.16492" lon="-0.39431">
        <ele>7.5</ele>
        <time>2012-01-13T14:13:30Z</time>
      </trkpt>
      <trkpt lat="49.16493" lon="-0.39431">
        <ele>7.5</ele>
        <time>2012-01-13T14:13:31Z</time>
      </trkpt>
      <trkpt lat="49.16494" lon="-0.39431">
        <ele>7</ele>
        <time>2012-01-13T14:13:32Z</time>
      </trkpt>
      <trkpt lat="49.16495" lon="-0.3943">
        <ele>6.5</ele>
        <time>2012-01-13T14:13:33Z</time>
      </trkpt>
      <trkpt lat="49.16496" lon="-0.3943">
        <ele>6.4</ele>
        <time>2012-01-13T14:13:34Z</time>
      </trkpt>
      <trkpt lat="49.16497" lon="-0.3943">
        <ele>5.9</ele>
        <time>2012-01-13T14:13:35Z</time>
      </trkpt>
      <trkpt lat="49.16497" lon="-0.39429">
        <ele>5.8</ele>
        <time>2012-01-13T14:13:36Z</time>
      </trkpt>
      <trkpt lat="49.16499" lon="-0.39429">
        <ele>5.5</ele>
        <time>2012-01-13T14:13:37Z</time>
      </trkpt>
      <trkpt lat="49.165" lon="-0.39428">
        <ele>5.5</ele>
        <time>2012-01-13T14:13:38Z</time>
      </trkpt>
      <trkpt lat="49.16501" lon="-0.39428">
        <ele>6</ele>
        <time>2012-01-13T14:13:39Z</time>
      </trkpt>
      <trkpt lat="49.16502" lon="-0.39428">
        <ele>5.8</ele>
        <time>2012-01-13T14:13:40Z</time>
      </trkpt>
      <trkpt lat="49.16503" lon="-0.39428">
        <ele>5.3</ele>
        <time>2012-01-13T14:13:41Z</time>
      </trkpt>
      <trkpt lat="49.16504" lon="-0.39428">
        <ele>5.3</ele>
        <time>2012-01-13T14:13:42Z</time>
      </trkpt>
      <trkpt lat="49.16505" lon="-0.39427">
        <ele>5.8</ele>
        <time>2012-01-13T14:13:43Z</time>
      </trkpt>
      <trkpt lat="49.16506" lon="-0.39427">
        <ele>6.5</ele>
        <time>2012-01-13T14:13:44Z</time>
      </trkpt>
      <trkpt lat="49.16507" lon="-0.39426">
        <ele>6</ele>
        <time>2012-01-13T14:13:45Z</time>
      </trkpt>
      <trkpt lat="49.16508" lon="-0.39426">
        <ele>4.5</ele>
        <time>2012-01-13T14:13:46Z</time>
      </trkpt>
      <trkpt lat="49.16509" lon="-0.39426">
        <ele>4.5</ele>
        <time>2012-01-13T14:13:47Z</time>
      </trkpt>
      <trkpt lat="49.1651" lon="-0.39425">
        <ele>5</ele>
        <time>2012-01-13T14:13:48Z</time>
      </trkpt>
      <trkpt lat="49.16511" lon="-0.39424">
        <ele>5.3</ele>
        <time>2012-01-13T14:13:49Z</time>
      </trkpt>
      <trkpt lat="49.16512" lon="-0.39423">
        <ele>5.5</ele>
        <time>2012-01-13T14:13:50Z</time>
      </trkpt>
      <trkpt lat="49.16513" lon="-0.39422">
        <ele>5.8</ele>
        <time>2012-01-13T14:13:51Z</time>
      </trkpt>
      <trkpt lat="49.16514" lon="-0.39421">
        <ele>5.9</ele>
        <time>2012-01-13T14:13:52Z</time>
      </trkpt>
      <trkpt lat="49.16515" lon="-0.39421">
        <ele>6</ele>
        <time>2012-01-13T14:13:53Z</time>
      </trkpt>
      <trkpt lat="49.16516" lon="-0.3942">
        <ele>6.5</ele>
        <time>2012-01-13T14:13:54Z</time>
      </trkpt>
      <trkpt lat="49.16517" lon="-0.39419">
        <ele>6.3</ele>
        <time>2012-01-13T14:13:55Z</time>
      </trkpt>
      <trkpt lat="49.16518" lon="-0.39419">
        <ele>5.9</ele>
        <time>2012-01-13T14:13:56Z</time>
      </trkpt>
      <trkpt lat="49.1652" lon="-0.39418">
        <ele>6</ele>
        <time>2012-01-13T14:13:57Z</time>
      </trkpt>
      <trkpt lat="49.16521" lon="-0.39417">
        <ele>5.4</ele>
        <time>2012-01-13T14:13:58Z</time>
      </trkpt>
      <trkpt lat="49.16522" lon="-0.39416">
        <ele>4.5</ele>
        <time>2012-01-13T14:13:59Z</time>
      </trkpt>
      <trkpt lat="49.16523" lon="-0.39416">
        <ele>4.4</ele>
        <time>2012-01-13T14:14:00Z</time>
      </trkpt>
      <trkpt lat="49.16523" lon="-0.39414">
        <ele>4.5</ele>
        <time>2012-01-13T14:14:01Z</time>
      </trkpt>
      <trkpt lat="49.16524" lon="-0.39413">
        <ele>5</ele>
        <time>2012-01-13T14:14:02Z</time>
      </trkpt>
      <trkpt lat="49.16525" lon="-0.39411">
        <ele>4.8</ele>
        <time>2012-01-13T14:14:03Z</time>
      </trkpt>
      <trkpt lat="49.16526" lon="-0.3941">
        <ele>4</ele>
        <time>2012-01-13T14:14:04Z</time>
      </trkpt>
      <trkpt lat="49.16527" lon="-0.39409">
        <ele>3.5</ele>
        <time>2012-01-13T14:14:05Z</time>
      </trkpt>
      <trkpt lat="49.16528" lon="-0.39408">
        <ele>2.9</ele>
        <time>2012-01-13T14:14:06Z</time>
      </trkpt>
      <trkpt lat="49.16529" lon="-0.39407">
        <ele>3.2</ele>
        <time>2012-01-13T14:14:07Z</time>
      </trkpt>
      <trkpt lat="49.1653" lon="-0.39405">
        <ele>3.4</ele>
        <time>2012-01-13T14:14:08Z</time>
      </trkpt>
      <trkpt lat="49.16531" lon="-0.39403">
        <ele>2.9</ele>
        <time>2012-01-13T14:14:09Z</time>
      </trkpt>
      <trkpt lat="49.16532" lon="-0.39402">
        <ele>2.9</ele>
        <time>2012-01-13T14:14:10Z</time>
      </trkpt>
      <trkpt lat="49.16532" lon="-0.39401">
        <ele>2</ele>
        <time>2012-01-13T14:14:11Z</time>
      </trkpt>
      <trkpt lat="49.16533" lon="-0.39399">
        <ele>1.5</ele>
        <time>2012-01-13T14:14:12Z</time>
      </trkpt>
      <trkpt lat="49.16533" lon="-0.39397">
        <ele>1.2</ele>
        <time>2012-01-13T14:14:13Z</time>
      </trkpt>
      <trkpt lat="49.16534" lon="-0.39396">
        <ele>1</ele>
        <time>2012-01-13T14:14:14Z</time>
      </trkpt>
      <trkpt lat="49.16534" lon="-0.39394">
        <ele>1</ele>
        <time>2012-01-13T14:14:15Z</time>
      </trkpt>
      <trkpt lat="49.16535" lon="-0.39392">
        <ele>1.6</ele>
        <time>2012-01-13T14:14:16Z</time>
      </trkpt>
      <trkpt lat="49.16536" lon="-0.3939">
        <ele>2.2</ele>
        <time>2012-01-13T14:14:17Z</time>
      </trkpt>
      <trkpt lat="49.16536" lon="-0.39389">
        <ele>2.5</ele>
        <time>2012-01-13T14:14:18Z</time>
      </trkpt>
      <trkpt lat="49.16537" lon="-0.39387">
        <ele>2.4</ele>
        <time>2012-01-13T14:14:19Z</time>
      </trkpt>
      <trkpt lat="49.16538" lon="-0.39386">
        <ele>2.2</ele>
        <time>2012-01-13T14:14:20Z</time>
      </trkpt>
      <trkpt lat="49.16538" lon="-0.39384">
        <ele>2.7</ele>
        <time>2012-01-13T14:14:21Z</time>
      </trkpt>
      <trkpt lat="49.16539" lon="-0.39382">
        <ele>2.7</ele>
        <time>2012-01-13T14:14:22Z</time>
      </trkpt>
      <trkpt lat="49.16539" lon="-0.39381">
        <ele>2.4</ele>
        <time>2012-01-13T14:14:23Z</time>
      </trkpt>
      <trkpt lat="49.1654" lon="-0.39379">
        <ele>2</ele>
        <time>2012-01-13T14:14:24Z</time>
      </trkpt>
      <trkpt lat="49.1654" lon="-0.39378">
        <ele>2.4</ele>
        <time>2012-01-13T14:14:25Z</time>
      </trkpt>
      <trkpt lat="49.16541" lon="-0.39377">
        <ele>2.2</ele>
        <time>2012-01-13T14:14:26Z</time>
      </trkpt>
      <trkpt lat="49.16542" lon="-0.39376">
        <ele>2</ele>
        <time>2012-01-13T14:14:27Z</time>
      </trkpt>
      <trkpt lat="49.16542" lon="-0.39374">
        <ele>1.7</ele>
        <time>2012-01-13T14:14:28Z</time>
      </trkpt>
      <trkpt lat="49.16543" lon="-0.39373">
        <ele>1.5</ele>
        <time>2012-01-13T14:14:29Z</time>
      </trkpt>
      <trkpt lat="49.16543" lon="-0.39372">
        <ele>1.2</ele>
        <time>2012-01-13T14:14:30Z</time>
      </trkpt>
      <trkpt lat="49.16543" lon="-0.39371">
        <ele>1.2</ele>
        <time>2012-01-13T14:14:31Z</time>
      </trkpt>
      <trkpt lat="49.16544" lon="-0.39369">
        <ele>1.2</ele>
        <time>2012-01-13T14:14:32Z</time>
      </trkpt>
      <trkpt lat="49.16545" lon="-0.39368">
        <ele>1.2</ele>
        <time>2012-01-13T14:14:33Z</time>
      </trkpt>
      <trkpt lat="49.16545" lon="-0.39366">
        <ele>1.1</ele>
        <time>2012-01-13T14:14:34Z</time>
      </trkpt>
      <trkpt lat="49.16546" lon="-0.39365">
        <ele>0.8</ele>
        <time>2012-01-13T14:14:35Z</time>
      </trkpt>
      <trkpt lat="49.16546" lon="-0.39363">
        <ele>0.6</ele>
        <time>2012-01-13T14:14:36Z</time>
      </trkpt>
      <trkpt lat="49.16547" lon="-0.39362">
        <ele>0.6</ele>
        <time>2012-01-13T14:14:37Z</time>
      </trkpt>
      <trkpt lat="49.16547" lon="-0.3936">
        <ele>0.5</ele>
        <time>2012-01-13T14:14:38Z</time>
      </trkpt>
      <trkpt lat="49.16548" lon="-0.39358">
        <ele>0.5</ele>
        <time>2012-01-13T14:14:39Z</time>
      </trkpt>
      <trkpt lat="49.16549" lon="-0.39356">
        <ele>0.4</ele>
        <time>2012-01-13T14:14:40Z</time>
      </trkpt>
      <trkpt lat="49.16549" lon="-0.39354">
        <ele>0.6</ele>
        <time>2012-01-13T14:14:41Z</time>
      </trkpt>
      <trkpt lat="49.1655" lon="-0.39353">
        <ele>0.8</ele>
        <time>2012-01-13T14:14:42Z</time>
      </trkpt>
      <trkpt lat="49.16551" lon="-0.39351">
        <ele>1.2</ele>
        <time>2012-01-13T14:14:43Z</time>
      </trkpt>
      <trkpt lat="49.16551" lon="-0.39349">
        <ele>2.2</ele>
        <time>2012-01-13T14:14:44Z</time>
      </trkpt>
      <trkpt lat="49.16552" lon="-0.39347">
        <ele>2.7</ele>
        <time>2012-01-13T14:14:45Z</time>
      </trkpt>
      <trkpt lat="49.16553" lon="-0.39346">
        <ele>2.7</ele>
        <time>2012-01-13T14:14:46Z</time>
      </trkpt>
      <trkpt lat="49.16553" lon="-0.39344">
        <ele>2.7</ele>
        <time>2012-01-13T14:14:47Z</time>
      </trkpt>
      <trkpt lat="49.16554" lon="-0.39343">
        <ele>3</ele>
        <time>2012-01-13T14:14:48Z</time>
      </trkpt>
      <trkpt lat="49.16554" lon="-0.39341">
        <ele>3.2</ele>
        <time>2012-01-13T14:14:49Z</time>
      </trkpt>
      <trkpt lat="49.16554" lon="-0.39339">
        <ele>3</ele>
        <time>2012-01-13T14:14:50Z</time>
      </trkpt>
      <trkpt lat="49.16554" lon="-0.39337">
        <ele>3.4</ele>
        <time>2012-01-13T14:14:51Z</time>
      </trkpt>
      <trkpt lat="49.16555" lon="-0.39335">
        <ele>2.9</ele>
        <time>2012-01-13T14:14:52Z</time>
      </trkpt>
      <trkpt lat="49.16555" lon="-0.39334">
        <ele>3.2</ele>
        <time>2012-01-13T14:14:53Z</time>
      </trkpt>
      <trkpt lat="49.16556" lon="-0.39333">
        <ele>2.7</ele>
        <time>2012-01-13T14:14:54Z</time>
      </trkpt>
      <trkpt lat="49.16556" lon="-0.39332">
        <ele>2.4</ele>
        <time>2012-01-13T14:14:55Z</time>
      </trkpt>
      <trkpt lat="49.16556" lon="-0.3933">
        <ele>2.5</ele>
        <time>2012-01-13T14:14:56Z</time>
      </trkpt>
      <trkpt lat="49.16557" lon="-0.39328">
        <ele>2.7</ele>
        <time>2012-01-13T14:14:57Z</time>
      </trkpt>
      <trkpt lat="49.16557" lon="-0.39327">
        <ele>3</ele>
        <time>2012-01-13T14:14:58Z</time>
      </trkpt>
      <trkpt lat="49.16558" lon="-0.39325">
        <ele>3.2</ele>
        <time>2012-01-13T14:14:59Z</time>
      </trkpt>
      <trkpt lat="49.16558" lon="-0.39324">
        <ele>3.2</ele>
        <time>2012-01-13T14:15:00Z</time>
      </trkpt>
      <trkpt lat="49.16559" lon="-0.39323">
        <ele>3.5</ele>
        <time>2012-01-13T14:15:01Z</time>
      </trkpt>
      <trkpt lat="49.1656" lon="-0.39321">
        <ele>3.7</ele>
        <time>2012-01-13T14:15:02Z</time>
      </trkpt>
      <trkpt lat="49.1656" lon="-0.3932">
        <ele>4</ele>
        <time>2012-01-13T14:15:03Z</time>
      </trkpt>
      <trkpt lat="49.16561" lon="-0.39318">
        <ele>4.5</ele>
        <time>2012-01-13T14:15:04Z</time>
      </trkpt>
      <trkpt lat="49.16561" lon="-0.39316">
        <ele>4.8</ele>
        <time>2012-01-13T14:15:05Z</time>
      </trkpt>
      <trkpt lat="49.16562" lon="-0.39315">
        <ele>5</ele>
        <time>2012-01-13T14:15:06Z</time>
      </trkpt>
      <trkpt lat="49.16562" lon="-0.39313">
        <ele>4.9</ele>
        <time>2012-01-13T14:15:07Z</time>
      </trkpt>
      <trkpt lat="49.16562" lon="-0.39312">
        <ele>4.5</ele>
        <time>2012-01-13T14:15:08Z</time>
      </trkpt>
      <trkpt lat="49.16563" lon="-0.3931">
        <ele>4.5</ele>
        <time>2012-01-13T14:15:09Z</time>
      </trkpt>
      <trkpt lat="49.16563" lon="-0.39309">
        <ele>4.3</ele>
        <time>2012-01-13T14:15:10Z</time>
      </trkpt>
      <trkpt lat="49.16564" lon="-0.39307">
        <ele>4</ele>
        <time>2012-01-13T14:15:11Z</time>
      </trkpt>
      <trkpt lat="49.16564" lon="-0.39306">
        <ele>4.5</ele>
        <time>2012-01-13T14:15:12Z</time>
      </trkpt>
      <trkpt lat="49.16564" lon="-0.39304">
        <ele>5</ele>
        <time>2012-01-13T14:15:13Z</time>
      </trkpt>
      <trkpt lat="49.16565" lon="-0.39303">
        <ele>5.3</ele>
        <time>2012-01-13T14:15:14Z</time>
      </trkpt>
      <trkpt lat="49.16566" lon="-0.39301">
        <ele>5</ele>
        <time>2012-01-13T14:15:15Z</time>
      </trkpt>
      <trkpt lat="49.16566" lon="-0.39299">
        <ele>4.8</ele>
        <time>2012-01-13T14:15:16Z</time>
      </trkpt>
      <trkpt lat="49.16567" lon="-0.39298">
        <ele>4.3</ele>
        <time>2012-01-13T14:15:17Z</time>
      </trkpt>
      <trkpt lat="49.16567" lon="-0.39297">
        <ele>4.3</ele>
        <time>2012-01-13T14:15:18Z</time>
      </trkpt>
      <trkpt lat="49.16568" lon="-0.39296">
        <ele>4.5</ele>
        <time>2012-01-13T14:15:19Z</time>
      </trkpt>
      <trkpt lat="49.16568" lon="-0.39295">
        <ele>4.8</ele>
        <time>2012-01-13T14:15:20Z</time>
      </trkpt>
      <trkpt lat="49.16569" lon="-0.39293">
        <ele>5</ele>
        <time>2012-01-13T14:15:21Z</time>
      </trkpt>
      <trkpt lat="49.1657" lon="-0.39292">
        <ele>5.3</ele>
        <time>2012-01-13T14:15:22Z</time>
      </trkpt>
      <trkpt lat="49.1657" lon="-0.3929">
        <ele>5.5</ele>
        <time>2012-01-13T14:15:23Z</time>
      </trkpt>
      <trkpt lat="49.16571" lon="-0.39289">
        <ele>6.4</ele>
        <time>2012-01-13T14:15:24Z</time>
      </trkpt>
      <trkpt lat="49.16571" lon="-0.39288">
        <ele>7</ele>
        <time>2012-01-13T14:15:25Z</time>
      </trkpt>
      <trkpt lat="49.16571" lon="-0.39287">
        <ele>7</ele>
        <time>2012-01-13T14:15:26Z</time>
      </trkpt>
      <trkpt lat="49.16572" lon="-0.39285">
        <ele>7</ele>
        <time>2012-01-13T14:15:27Z</time>
      </trkpt>
      <trkpt lat="49.16572" lon="-0.39284">
        <ele>6.5</ele>
        <time>2012-01-13T14:15:28Z</time>
      </trkpt>
      <trkpt lat="49.16573" lon="-0.39283">
        <ele>6.3</ele>
        <time>2012-01-13T14:15:29Z</time>
      </trkpt>
      <trkpt lat="49.16573" lon="-0.39282">
        <ele>6.4</ele>
        <time>2012-01-13T14:15:30Z</time>
      </trkpt>
      <trkpt lat="49.16574" lon="-0.39281">
        <ele>6.4</ele>
        <time>2012-01-13T14:15:31Z</time>
      </trkpt>
      <trkpt lat="49.16574" lon="-0.39279">
        <ele>6</ele>
        <time>2012-01-13T14:15:32Z</time>
      </trkpt>
      <trkpt lat="49.16575" lon="-0.39278">
        <ele>5.8</ele>
        <time>2012-01-13T14:15:33Z</time>
      </trkpt>
      <trkpt lat="49.16576" lon="-0.39276">
        <ele>5.5</ele>
        <time>2012-01-13T14:15:34Z</time>
      </trkpt>
      <trkpt lat="49.16576" lon="-0.39275">
        <ele>6</ele>
        <time>2012-01-13T14:15:35Z</time>
      </trkpt>
      <trkpt lat="49.16577" lon="-0.39273">
        <ele>6</ele>
        <time>2012-01-13T14:15:36Z</time>
      </trkpt>
      <trkpt lat="49.16577" lon="-0.39272">
        <ele>5.5</ele>
        <time>2012-01-13T14:15:37Z</time>
      </trkpt>
      <trkpt lat="49.16577" lon="-0.3927">
        <ele>5.3</ele>
        <time>2012-01-13T14:15:38Z</time>
      </trkpt>
      <trkpt lat="49.16578" lon="-0.39268">
        <ele>4.8</ele>
        <time>2012-01-13T14:15:39Z</time>
      </trkpt>
      <trkpt lat="49.16578" lon="-0.39267">
        <ele>4</ele>
        <time>2012-01-13T14:15:40Z</time>
      </trkpt>
      <trkpt lat="49.16579" lon="-0.39265">
        <ele>4.3</ele>
        <time>2012-01-13T14:15:41Z</time>
      </trkpt>
      <trkpt lat="49.16579" lon="-0.39264">
        <ele>4.3</ele>
        <time>2012-01-13T14:15:42Z</time>
      </trkpt>
      <trkpt lat="49.16579" lon="-0.39263">
        <ele>4.5</ele>
        <time>2012-01-13T14:15:43Z</time>
      </trkpt>
      <trkpt lat="49.1658" lon="-0.39263">
        <ele>4.5</ele>
        <time>2012-01-13T14:15:44Z</time>
      </trkpt>
      <trkpt lat="49.1658" lon="-0.39263">
        <ele>4.5</ele>
        <time>2012-01-13T14:15:45Z</time>
      </trkpt>
      <trkpt lat="49.16581" lon="-0.39261">
        <ele>4.4</ele>
        <time>2012-01-13T14:15:46Z</time>
      </trkpt>
      <trkpt lat="49.16582" lon="-0.3926">
        <ele>4.4</ele>
        <time>2012-01-13T14:15:47Z</time>
      </trkpt>
      <trkpt lat="49.16582" lon="-0.39258">
        <ele>4.5</ele>
        <time>2012-01-13T14:15:48Z</time>
      </trkpt>
      <trkpt lat="49.16583" lon="-0.39256">
        <ele>4.5</ele>
        <time>2012-01-13T14:15:49Z</time>
      </trkpt>
      <trkpt lat="49.16584" lon="-0.39255">
        <ele>4.8</ele>
        <time>2012-01-13T14:15:50Z</time>
      </trkpt>
      <trkpt lat="49.16584" lon="-0.39253">
        <ele>4.5</ele>
        <time>2012-01-13T14:15:51Z</time>
      </trkpt>
      <trkpt lat="49.16585" lon="-0.39252">
        <ele>4.4</ele>
        <time>2012-01-13T14:15:52Z</time>
      </trkpt>
      <trkpt lat="49.16585" lon="-0.39251">
        <ele>4.3</ele>
        <time>2012-01-13T14:15:53Z</time>
      </trkpt>
      <trkpt lat="49.16587" lon="-0.39249">
        <ele>4.4</ele>
        <time>2012-01-13T14:15:54Z</time>
      </trkpt>
      <trkpt lat="49.16587" lon="-0.39247">
        <ele>4.8</ele>
        <time>2012-01-13T14:15:55Z</time>
      </trkpt>
      <trkpt lat="49.16588" lon="-0.39245">
        <ele>4.5</ele>
        <time>2012-01-13T14:15:56Z</time>
      </trkpt>
      <trkpt lat="49.16588" lon="-0.39244">
        <ele>4.4</ele>
        <time>2012-01-13T14:15:57Z</time>
      </trkpt>
      <trkpt lat="49.16589" lon="-0.39243">
        <ele>4.4</ele>
        <time>2012-01-13T14:15:58Z</time>
      </trkpt>
      <trkpt lat="49.16589" lon="-0.39241">
        <ele>4.5</ele>
        <time>2012-01-13T14:15:59Z</time>
      </trkpt>
      <trkpt lat="49.1659" lon="-0.39239">
        <ele>4.9</ele>
        <time>2012-01-13T14:16:00Z</time>
      </trkpt>
      <trkpt lat="49.16591" lon="-0.39237">
        <ele>5</ele>
        <time>2012-01-13T14:16:01Z</time>
      </trkpt>
      <trkpt lat="49.16591" lon="-0.39236">
        <ele>5.3</ele>
        <time>2012-01-13T14:16:02Z</time>
      </trkpt>
      <trkpt lat="49.16592" lon="-0.39234">
        <ele>5</ele>
        <time>2012-01-13T14:16:03Z</time>
      </trkpt>
      <trkpt lat="49.16592" lon="-0.39233">
        <ele>5.3</ele>
        <time>2012-01-13T14:16:04Z</time>
      </trkpt>
      <trkpt lat="49.16592" lon="-0.39232">
        <ele>5</ele>
        <time>2012-01-13T14:16:05Z</time>
      </trkpt>
      <trkpt lat="49.16593" lon="-0.39231">
        <ele>5</ele>
        <time>2012-01-13T14:16:06Z</time>
      </trkpt>
      <trkpt lat="49.16594" lon="-0.39229">
        <ele>5</ele>
        <time>2012-01-13T14:16:07Z</time>
      </trkpt>
      <trkpt lat="49.16594" lon="-0.39228">
        <ele>5</ele>
        <time>2012-01-13T14:16:08Z</time>
      </trkpt>
      <trkpt lat="49.16595" lon="-0.39226">
        <ele>5</ele>
        <time>2012-01-13T14:16:09Z</time>
      </trkpt>
      <trkpt lat="49.16595" lon="-0.39225">
        <ele>4.5</ele>
        <time>2012-01-13T14:16:10Z</time>
      </trkpt>
      <trkpt lat="49.16595" lon="-0.39224">
        <ele>4.5</ele>
        <time>2012-01-13T14:16:11Z</time>
      </trkpt>
      <trkpt lat="49.16596" lon="-0.39223">
        <ele>4.4</ele>
        <time>2012-01-13T14:16:12Z</time>
      </trkpt>
      <trkpt lat="49.16596" lon="-0.39221">
        <ele>4</ele>
        <time>2012-01-13T14:16:13Z</time>
      </trkpt>
      <trkpt lat="49.16597" lon="-0.39219">
        <ele>3.7</ele>
        <time>2012-01-13T14:16:14Z</time>
      </trkpt>
      <trkpt lat="49.16597" lon="-0.39218">
        <ele>3.7</ele>
        <time>2012-01-13T14:16:15Z</time>
      </trkpt>
      <trkpt lat="49.16598" lon="-0.39217">
        <ele>3.5</ele>
        <time>2012-01-13T14:16:16Z</time>
      </trkpt>
      <trkpt lat="49.16599" lon="-0.39215">
        <ele>3.2</ele>
        <time>2012-01-13T14:16:17Z</time>
      </trkpt>
      <trkpt lat="49.166" lon="-0.39214">
        <ele>3.2</ele>
        <time>2012-01-13T14:16:18Z</time>
      </trkpt>
      <trkpt lat="49.166" lon="-0.39212">
        <ele>2.7</ele>
        <time>2012-01-13T14:16:19Z</time>
      </trkpt>
      <trkpt lat="49.16601" lon="-0.39211">
        <ele>2.7</ele>
        <time>2012-01-13T14:16:20Z</time>
      </trkpt>
      <trkpt lat="49.16601" lon="-0.3921">
        <ele>2.5</ele>
        <time>2012-01-13T14:16:21Z</time>
      </trkpt>
      <trkpt lat="49.16602" lon="-0.39208">
        <ele>2.5</ele>
        <time>2012-01-13T14:16:22Z</time>
      </trkpt>
      <trkpt lat="49.16602" lon="-0.39207">
        <ele>2.5</ele>
        <time>2012-01-13T14:16:23Z</time>
      </trkpt>
      <trkpt lat="49.16603" lon="-0.39205">
        <ele>2</ele>
        <time>2012-01-13T14:16:24Z</time>
      </trkpt>
      <trkpt lat="49.16603" lon="-0.39204">
        <ele>1.7</ele>
        <time>2012-01-13T14:16:25Z</time>
      </trkpt>
      <trkpt lat="49.16603" lon="-0.39203">
        <ele>0.8</ele>
        <time>2012-01-13T14:16:26Z</time>
      </trkpt>
      <trkpt lat="49.16604" lon="-0.39202">
        <ele>0.8</ele>
        <time>2012-01-13T14:16:27Z</time>
      </trkpt>
      <trkpt lat="49.16604" lon="-0.392">
        <ele>1.2</ele>
        <time>2012-01-13T14:16:28Z</time>
      </trkpt>
      <trkpt lat="49.16605" lon="-0.39198">
        <ele>1.5</ele>
        <time>2012-01-13T14:16:29Z</time>
      </trkpt>
      <trkpt lat="49.16605" lon="-0.39196">
        <ele>1.6</ele>
        <time>2012-01-13T14:16:30Z</time>
      </trkpt>
      <trkpt lat="49.16606" lon="-0.39195">
        <ele>1.6</ele>
        <time>2012-01-13T14:16:31Z</time>
      </trkpt>
      <trkpt lat="49.16606" lon="-0.39194">
        <ele>1.6</ele>
        <time>2012-01-13T14:16:32Z</time>
      </trkpt>
      <trkpt lat="49.16606" lon="-0.39193">
        <ele>1.2</ele>
        <time>2012-01-13T14:16:33Z</time>
      </trkpt>
      <trkpt lat="49.16607" lon="-0.39191">
        <ele>1.2</ele>
        <time>2012-01-13T14:16:34Z</time>
      </trkpt>
      <trkpt lat="49.16607" lon="-0.3919">
        <ele>0.8</ele>
        <time>2012-01-13T14:16:35Z</time>
      </trkpt>
      <trkpt lat="49.16608" lon="-0.39189">
        <ele>0.8</ele>
        <time>2012-01-13T14:16:36Z</time>
      </trkpt>
      <trkpt lat="49.16608" lon="-0.39187">
        <ele>0.2</ele>
        <time>2012-01-13T14:16:37Z</time>
      </trkpt>
      <trkpt lat="49.16608" lon="-0.39186">
        <ele>-0.6</ele>
        <time>2012-01-13T14:16:38Z</time>
      </trkpt>
      <trkpt lat="49.16609" lon="-0.39184">
        <ele>-0.4</ele>
        <time>2012-01-13T14:16:39Z</time>
      </trkpt>
      <trkpt lat="49.16609" lon="-0.39183">
        <ele>-0.5</ele>
        <time>2012-01-13T14:16:40Z</time>
      </trkpt>
      <trkpt lat="49.1661" lon="-0.39181">
        <ele>-0.5</ele>
        <time>2012-01-13T14:16:41Z</time>
      </trkpt>
      <trkpt lat="49.1661" lon="-0.3918">
        <ele>-0.6</ele>
        <time>2012-01-13T14:16:42Z</time>
      </trkpt>
      <trkpt lat="49.1661" lon="-0.39179">
        <ele>-0.6</ele>
        <time>2012-01-13T14:16:43Z</time>
      </trkpt>
      <trkpt lat="49.16611" lon="-0.39178">
        <ele>-0.5</ele>
        <time>2012-01-13T14:16:44Z</time>
      </trkpt>
      <trkpt lat="49.16611" lon="-0.39177">
        <ele>-0.6</ele>
        <time>2012-01-13T14:16:45Z</time>
      </trkpt>
      <trkpt lat="49.16611" lon="-0.39175">
        <ele>-1.1</ele>
        <time>2012-01-13T14:16:46Z</time>
      </trkpt>
      <trkpt lat="49.16612" lon="-0.39173">
        <ele>-0.6</ele>
        <time>2012-01-13T14:16:47Z</time>
      </trkpt>
      <trkpt lat="49.16612" lon="-0.39172">
        <ele>-1</ele>
        <time>2012-01-13T14:16:48Z</time>
      </trkpt>
      <trkpt lat="49.16613" lon="-0.3917">
        <ele>-0.8</ele>
        <time>2012-01-13T14:16:49Z</time>
      </trkpt>
      <trkpt lat="49.16613" lon="-0.39169">
        <ele>-1.7</ele>
        <time>2012-01-13T14:16:50Z</time>
      </trkpt>
      <trkpt lat="49.16614" lon="-0.39168">
        <ele>-2.2</ele>
        <time>2012-01-13T14:16:51Z</time>
      </trkpt>
      <trkpt lat="49.16614" lon="-0.39166">
        <ele>-2.4</ele>
        <time>2012-01-13T14:16:52Z</time>
      </trkpt>
      <trkpt lat="49.16615" lon="-0.39164">
        <ele>-2.5</ele>
        <time>2012-01-13T14:16:53Z</time>
      </trkpt>
      <trkpt lat="49.16616" lon="-0.39163">
        <ele>-2.2</ele>
        <time>2012-01-13T14:16:54Z</time>
      </trkpt>
      <trkpt lat="49.16616" lon="-0.39161">
        <ele>-1.7</ele>
        <time>2012-01-13T14:16:55Z</time>
      </trkpt>
      <trkpt lat="49.16616" lon="-0.3916">
        <ele>-1.7</ele>
        <time>2012-01-13T14:16:56Z</time>
      </trkpt>
      <trkpt lat="49.16617" lon="-0.39159">
        <ele>-1.2</ele>
        <time>2012-01-13T14:16:57Z</time>
      </trkpt>
      <trkpt lat="49.16617" lon="-0.39157">
        <ele>-1.1</ele>
        <time>2012-01-13T14:16:58Z</time>
      </trkpt>
      <trkpt lat="49.16618" lon="-0.39156">
        <ele>-1.1</ele>
        <time>2012-01-13T14:16:59Z</time>
      </trkpt>
      <trkpt lat="49.16618" lon="-0.39155">
        <ele>-0.8</ele>
        <time>2012-01-13T14:17:00Z</time>
      </trkpt>
      <trkpt lat="49.16618" lon="-0.39154">
        <ele>-1</ele>
        <time>2012-01-13T14:17:01Z</time>
      </trkpt>
      <trkpt lat="49.16619" lon="-0.39152">
        <ele>-0.6</ele>
        <time>2012-01-13T14:17:02Z</time>
      </trkpt>
      <trkpt lat="49.16619" lon="-0.3915">
        <ele>-0.4</ele>
        <time>2012-01-13T14:17:03Z</time>
      </trkpt>
      <trkpt lat="49.1662" lon="-0.39149">
        <ele>-0.4</ele>
        <time>2012-01-13T14:17:04Z</time>
      </trkpt>
      <trkpt lat="49.16621" lon="-0.39147">
        <ele>-0.2</ele>
        <time>2012-01-13T14:17:05Z</time>
      </trkpt>
      <trkpt lat="49.16622" lon="-0.39146">
        <ele>0.1</ele>
        <time>2012-01-13T14:17:06Z</time>
      </trkpt>
      <trkpt lat="49.16622" lon="-0.39145">
        <ele>0.1</ele>
        <time>2012-01-13T14:17:07Z</time>
      </trkpt>
      <trkpt lat="49.16622" lon="-0.39143">
        <ele>-0.2</ele>
        <time>2012-01-13T14:17:08Z</time>
      </trkpt>
      <trkpt lat="49.16623" lon="-0.39142">
        <ele>0.1</ele>
        <time>2012-01-13T14:17:09Z</time>
      </trkpt>
      <trkpt lat="49.16623" lon="-0.39141">
        <ele>0.6</ele>
        <time>2012-01-13T14:17:10Z</time>
      </trkpt>
      <trkpt lat="49.16624" lon="-0.3914">
        <ele>0.8</ele>
        <time>2012-01-13T14:17:11Z</time>
      </trkpt>
      <trkpt lat="49.16624" lon="-0.39139">
        <ele>1.2</ele>
        <time>2012-01-13T14:17:12Z</time>
      </trkpt>
      <trkpt lat="49.16625" lon="-0.39138">
        <ele>1.2</ele>
        <time>2012-01-13T14:17:13Z</time>
      </trkpt>
      <trkpt lat="49.16625" lon="-0.39136">
        <ele>1.2</ele>
        <time>2012-01-13T14:17:14Z</time>
      </trkpt>
      <trkpt lat="49.16626" lon="-0.39135">
        <ele>1.2</ele>
        <time>2012-01-13T14:17:15Z</time>
      </trkpt>
      <trkpt lat="49.16627" lon="-0.39133">
        <ele>1.2</ele>
        <time>2012-01-13T14:17:16Z</time>
      </trkpt>
      <trkpt lat="49.16627" lon="-0.39132">
        <ele>1.5</ele>
        <time>2012-01-13T14:17:17Z</time>
      </trkpt>
      <trkpt lat="49.16627" lon="-0.39131">
        <ele>1.6</ele>
        <time>2012-01-13T14:17:18Z</time>
      </trkpt>
      <trkpt lat="49.16628" lon="-0.3913">
        <ele>1.5</ele>
        <time>2012-01-13T14:17:19Z</time>
      </trkpt>
      <trkpt lat="49.16628" lon="-0.39128">
        <ele>1.2</ele>
        <time>2012-01-13T14:17:20Z</time>
      </trkpt>
      <trkpt lat="49.16629" lon="-0.39126">
        <ele>1.1</ele>
        <time>2012-01-13T14:17:21Z</time>
      </trkpt>
      <trkpt lat="49.16629" lon="-0.39125">
        <ele>0.6</ele>
        <time>2012-01-13T14:17:22Z</time>
      </trkpt>
      <trkpt lat="49.1663" lon="-0.39123">
        <ele>0.6</ele>
        <time>2012-01-13T14:17:23Z</time>
      </trkpt>
      <trkpt lat="49.16631" lon="-0.39122">
        <ele>0.6</ele>
        <time>2012-01-13T14:17:24Z</time>
      </trkpt>
      <trkpt lat="49.16631" lon="-0.3912">
        <ele>0.5</ele>
        <time>2012-01-13T14:17:25Z</time>
      </trkpt>
      <trkpt lat="49.16632" lon="-0.39119">
        <ele>0.5</ele>
        <time>2012-01-13T14:17:26Z</time>
      </trkpt>
      <trkpt lat="49.16632" lon="-0.39117">
        <ele>0.5</ele>
        <time>2012-01-13T14:17:27Z</time>
      </trkpt>
      <trkpt lat="49.16633" lon="-0.39116">
        <ele>0.8</ele>
        <time>2012-01-13T14:17:28Z</time>
      </trkpt>
      <trkpt lat="49.16633" lon="-0.39114">
        <ele>1</ele>
        <time>2012-01-13T14:17:29Z</time>
      </trkpt>
      <trkpt lat="49.16634" lon="-0.39113">
        <ele>0.8</ele>
        <time>2012-01-13T14:17:30Z</time>
      </trkpt>
      <trkpt lat="49.16634" lon="-0.39111">
        <ele>0.8</ele>
        <time>2012-01-13T14:17:31Z</time>
      </trkpt>
      <trkpt lat="49.16635" lon="-0.3911">
        <ele>0.8</ele>
        <time>2012-01-13T14:17:32Z</time>
      </trkpt>
      <trkpt lat="49.16635" lon="-0.39108">
        <ele>1.1</ele>
        <time>2012-01-13T14:17:33Z</time>
      </trkpt>
      <trkpt lat="49.16636" lon="-0.39106">
        <ele>1.6</ele>
        <time>2012-01-13T14:17:34Z</time>
      </trkpt>
      <trkpt lat="49.16637" lon="-0.39105">
        <ele>1.6</ele>
        <time>2012-01-13T14:17:35Z</time>
      </trkpt>
      <trkpt lat="49.16637" lon="-0.39104">
        <ele>1.7</ele>
        <time>2012-01-13T14:17:36Z</time>
      </trkpt>
      <trkpt lat="49.16637" lon="-0.39102">
        <ele>2</ele>
        <time>2012-01-13T14:17:37Z</time>
      </trkpt>
      <trkpt lat="49.16638" lon="-0.39101">
        <ele>2.4</ele>
        <time>2012-01-13T14:17:38Z</time>
      </trkpt>
      <trkpt lat="49.16638" lon="-0.39099">
        <ele>3</ele>
        <time>2012-01-13T14:17:39Z</time>
      </trkpt>
      <trkpt lat="49.16639" lon="-0.39098">
        <ele>2.9</ele>
        <time>2012-01-13T14:17:40Z</time>
      </trkpt>
      <trkpt lat="49.16639" lon="-0.39096">
        <ele>3.4</ele>
        <time>2012-01-13T14:17:41Z</time>
      </trkpt>
      <trkpt lat="49.1664" lon="-0.39095">
        <ele>3.7</ele>
        <time>2012-01-13T14:17:42Z</time>
      </trkpt>
      <trkpt lat="49.1664" lon="-0.39094">
        <ele>3.5</ele>
        <time>2012-01-13T14:17:43Z</time>
      </trkpt>
      <trkpt lat="49.1664" lon="-0.39092">
        <ele>3.4</ele>
        <time>2012-01-13T14:17:44Z</time>
      </trkpt>
      <trkpt lat="49.16641" lon="-0.3909">
        <ele>3.7</ele>
        <time>2012-01-13T14:17:45Z</time>
      </trkpt>
      <trkpt lat="49.16642" lon="-0.39089">
        <ele>3.9</ele>
        <time>2012-01-13T14:17:46Z</time>
      </trkpt>
      <trkpt lat="49.16642" lon="-0.39087">
        <ele>3.5</ele>
        <time>2012-01-13T14:17:47Z</time>
      </trkpt>
      <trkpt lat="49.16643" lon="-0.39086">
        <ele>3.7</ele>
        <time>2012-01-13T14:17:48Z</time>
      </trkpt>
      <trkpt lat="49.16643" lon="-0.39084">
        <ele>3.5</ele>
        <time>2012-01-13T14:17:49Z</time>
      </trkpt>
      <trkpt lat="49.16644" lon="-0.39082">
        <ele>3.5</ele>
        <time>2012-01-13T14:17:50Z</time>
      </trkpt>
      <trkpt lat="49.16644" lon="-0.3908">
        <ele>3.9</ele>
        <time>2012-01-13T14:17:51Z</time>
      </trkpt>
      <trkpt lat="49.16645" lon="-0.39078">
        <ele>4.5</ele>
        <time>2012-01-13T14:17:52Z</time>
      </trkpt>
      <trkpt lat="49.16646" lon="-0.39076">
        <ele>5</ele>
        <time>2012-01-13T14:17:53Z</time>
      </trkpt>
      <trkpt lat="49.16647" lon="-0.39075">
        <ele>4.9</ele>
        <time>2012-01-13T14:17:54Z</time>
      </trkpt>
      <trkpt lat="49.16647" lon="-0.39074">
        <ele>6</ele>
        <time>2012-01-13T14:17:55Z</time>
      </trkpt>
      <trkpt lat="49.16648" lon="-0.39072">
        <ele>6.9</ele>
        <time>2012-01-13T14:17:56Z</time>
      </trkpt>
      <trkpt lat="49.16649" lon="-0.39071">
        <ele>7.3</ele>
        <time>2012-01-13T14:17:57Z</time>
      </trkpt>
      <trkpt lat="49.1665" lon="-0.39069">
        <ele>7.4</ele>
        <time>2012-01-13T14:17:58Z</time>
      </trkpt>
      <trkpt lat="49.1665" lon="-0.39068">
        <ele>6.8</ele>
        <time>2012-01-13T14:17:59Z</time>
      </trkpt>
      <trkpt lat="49.16651" lon="-0.39067">
        <ele>6.8</ele>
        <time>2012-01-13T14:18:00Z</time>
      </trkpt>
      <trkpt lat="49.16651" lon="-0.39066">
        <ele>6.3</ele>
        <time>2012-01-13T14:18:01Z</time>
      </trkpt>
      <trkpt lat="49.16652" lon="-0.39065">
        <ele>6</ele>
        <time>2012-01-13T14:18:02Z</time>
      </trkpt>
      <trkpt lat="49.16653" lon="-0.39063">
        <ele>6</ele>
        <time>2012-01-13T14:18:03Z</time>
      </trkpt>
      <trkpt lat="49.16654" lon="-0.39061">
        <ele>5.3</ele>
        <time>2012-01-13T14:18:04Z</time>
      </trkpt>
      <trkpt lat="49.16655" lon="-0.3906">
        <ele>5.3</ele>
        <time>2012-01-13T14:18:05Z</time>
      </trkpt>
      <trkpt lat="49.16655" lon="-0.39059">
        <ele>4.4</ele>
        <time>2012-01-13T14:18:06Z</time>
      </trkpt>
      <trkpt lat="49.16655" lon="-0.39058">
        <ele>3.4</ele>
        <time>2012-01-13T14:18:07Z</time>
      </trkpt>
      <trkpt lat="49.16656" lon="-0.39056">
        <ele>2.7</ele>
        <time>2012-01-13T14:18:08Z</time>
      </trkpt>
      <trkpt lat="49.16656" lon="-0.39054">
        <ele>2.5</ele>
        <time>2012-01-13T14:18:09Z</time>
      </trkpt>
      <trkpt lat="49.16657" lon="-0.39052">
        <ele>2</ele>
        <time>2012-01-13T14:18:10Z</time>
      </trkpt>
      <trkpt lat="49.16657" lon="-0.3905">
        <ele>2</ele>
        <time>2012-01-13T14:18:11Z</time>
      </trkpt>
      <trkpt lat="49.16657" lon="-0.39049">
        <ele>2</ele>
        <time>2012-01-13T14:18:12Z</time>
      </trkpt>
      <trkpt lat="49.16658" lon="-0.39047">
        <ele>1.7</ele>
        <time>2012-01-13T14:18:13Z</time>
      </trkpt>
      <trkpt lat="49.16658" lon="-0.39045">
        <ele>1.7</ele>
        <time>2012-01-13T14:18:14Z</time>
      </trkpt>
      <trkpt lat="49.16659" lon="-0.39044">
        <ele>1.7</ele>
        <time>2012-01-13T14:18:15Z</time>
      </trkpt>
      <trkpt lat="49.16659" lon="-0.39042">
        <ele>2</ele>
        <time>2012-01-13T14:18:16Z</time>
      </trkpt>
      <trkpt lat="49.1666" lon="-0.3904">
        <ele>2.7</ele>
        <time>2012-01-13T14:18:17Z</time>
      </trkpt>
      <trkpt lat="49.16661" lon="-0.39037">
        <ele>3.9</ele>
        <time>2012-01-13T14:18:18Z</time>
      </trkpt>
      <trkpt lat="49.16662" lon="-0.39036">
        <ele>5</ele>
        <time>2012-01-13T14:18:19Z</time>
      </trkpt>
      <trkpt lat="49.16663" lon="-0.39034">
        <ele>5.5</ele>
        <time>2012-01-13T14:18:20Z</time>
      </trkpt>
      <trkpt lat="49.16664" lon="-0.39033">
        <ele>6.5</ele>
        <time>2012-01-13T14:18:21Z</time>
      </trkpt>
      <trkpt lat="49.16664" lon="-0.39031">
        <ele>6.9</ele>
        <time>2012-01-13T14:18:22Z</time>
      </trkpt>
      <trkpt lat="49.16664" lon="-0.39029">
        <ele>6.5</ele>
        <time>2012-01-13T14:18:23Z</time>
      </trkpt>
      <trkpt lat="49.16665" lon="-0.39027">
        <ele>6.3</ele>
        <time>2012-01-13T14:18:24Z</time>
      </trkpt>
      <trkpt lat="49.16665" lon="-0.39025">
        <ele>5.9</ele>
        <time>2012-01-13T14:18:25Z</time>
      </trkpt>
      <trkpt lat="49.16666" lon="-0.39023">
        <ele>5.8</ele>
        <time>2012-01-13T14:18:26Z</time>
      </trkpt>
      <trkpt lat="49.16666" lon="-0.39021">
        <ele>5.3</ele>
        <time>2012-01-13T14:18:27Z</time>
      </trkpt>
      <trkpt lat="49.16667" lon="-0.3902">
        <ele>5.5</ele>
        <time>2012-01-13T14:18:28Z</time>
      </trkpt>
      <trkpt lat="49.16667" lon="-0.39018">
        <ele>5</ele>
        <time>2012-01-13T14:18:29Z</time>
      </trkpt>
      <trkpt lat="49.16667" lon="-0.39016">
        <ele>4.5</ele>
        <time>2012-01-13T14:18:30Z</time>
      </trkpt>
      <trkpt lat="49.16668" lon="-0.39015">
        <ele>3.2</ele>
        <time>2012-01-13T14:18:31Z</time>
      </trkpt>
      <trkpt lat="49.16668" lon="-0.39013">
        <ele>2.2</ele>
        <time>2012-01-13T14:18:32Z</time>
      </trkpt>
      <trkpt lat="49.16668" lon="-0.39012">
        <ele>1.2</ele>
        <time>2012-01-13T14:18:33Z</time>
      </trkpt>
      <trkpt lat="49.16669" lon="-0.39011">
        <ele>0.8</ele>
        <time>2012-01-13T14:18:34Z</time>
      </trkpt>
      <trkpt lat="49.16669" lon="-0.39009">
        <ele>0.6</ele>
        <time>2012-01-13T14:18:35Z</time>
      </trkpt>
      <trkpt lat="49.1667" lon="-0.39007">
        <ele>0.3</ele>
        <time>2012-01-13T14:18:36Z</time>
      </trkpt>
      <trkpt lat="49.1667" lon="-0.39006">
        <ele>0.2</ele>
        <time>2012-01-13T14:18:37Z</time>
      </trkpt>
      <trkpt lat="49.16671" lon="-0.39004">
        <ele>0.2</ele>
        <time>2012-01-13T14:18:38Z</time>
      </trkpt>
      <trkpt lat="49.16671" lon="-0.39003">
        <ele>-0.2</ele>
        <time>2012-01-13T14:18:39Z</time>
      </trkpt>
      <trkpt lat="49.16671" lon="-0.39001">
        <ele>-0.1</ele>
        <time>2012-01-13T14:18:40Z</time>
      </trkpt>
      <trkpt lat="49.16672" lon="-0.39">
        <ele>0.4</ele>
        <time>2012-01-13T14:18:41Z</time>
      </trkpt>
      <trkpt lat="49.16673" lon="-0.38998">
        <ele>0.1</ele>
        <time>2012-01-13T14:18:42Z</time>
      </trkpt>
      <trkpt lat="49.16673" lon="-0.38997">
        <ele>0.2</ele>
        <time>2012-01-13T14:18:43Z</time>
      </trkpt>
      <trkpt lat="49.16673" lon="-0.38995">
        <ele>0.6</ele>
        <time>2012-01-13T14:18:44Z</time>
      </trkpt>
      <trkpt lat="49.16674" lon="-0.38993">
        <ele>1.2</ele>
        <time>2012-01-13T14:18:45Z</time>
      </trkpt>
      <trkpt lat="49.16675" lon="-0.38992">
        <ele>1.7</ele>
        <time>2012-01-13T14:18:46Z</time>
      </trkpt>
      <trkpt lat="49.16675" lon="-0.3899">
        <ele>1.6</ele>
        <time>2012-01-13T14:18:47Z</time>
      </trkpt>
      <trkpt lat="49.16676" lon="-0.38989">
        <ele>1.6</ele>
        <time>2012-01-13T14:18:48Z</time>
      </trkpt>
      <trkpt lat="49.16676" lon="-0.38987">
        <ele>1.7</ele>
        <time>2012-01-13T14:18:49Z</time>
      </trkpt>
      <trkpt lat="49.16677" lon="-0.38986">
        <ele>1.7</ele>
        <time>2012-01-13T14:18:50Z</time>
      </trkpt>
      <trkpt lat="49.16677" lon="-0.38984">
        <ele>1.7</ele>
        <time>2012-01-13T14:18:51Z</time>
      </trkpt>
      <trkpt lat="49.16677" lon="-0.38983">
        <ele>1.7</ele>
        <time>2012-01-13T14:18:52Z</time>
      </trkpt>
      <trkpt lat="49.16678" lon="-0.38981">
        <ele>1.7</ele>
        <time>2012-01-13T14:18:53Z</time>
      </trkpt>
      <trkpt lat="49.16678" lon="-0.38979">
        <ele>1.2</ele>
        <time>2012-01-13T14:18:54Z</time>
      </trkpt>
      <trkpt lat="49.16679" lon="-0.38978">
        <ele>1.2</ele>
        <time>2012-01-13T14:18:55Z</time>
      </trkpt>
      <trkpt lat="49.16679" lon="-0.38976">
        <ele>1.2</ele>
        <time>2012-01-13T14:18:56Z</time>
      </trkpt>
      <trkpt lat="49.1668" lon="-0.38975">
        <ele>1.1</ele>
        <time>2012-01-13T14:18:57Z</time>
      </trkpt>
      <trkpt lat="49.1668" lon="-0.38974">
        <ele>0.8</ele>
        <time>2012-01-13T14:18:58Z</time>
      </trkpt>
      <trkpt lat="49.16681" lon="-0.38972">
        <ele>0.8</ele>
        <time>2012-01-13T14:18:59Z</time>
      </trkpt>
      <trkpt lat="49.16681" lon="-0.3897">
        <ele>0.8</ele>
        <time>2012-01-13T14:19:00Z</time>
      </trkpt>
      <trkpt lat="49.16681" lon="-0.38969">
        <ele>1</ele>
        <time>2012-01-13T14:19:01Z</time>
      </trkpt>
      <trkpt lat="49.16681" lon="-0.38968">
        <ele>1.2</ele>
        <time>2012-01-13T14:19:02Z</time>
      </trkpt>
      <trkpt lat="49.16682" lon="-0.38967">
        <ele>1.7</ele>
        <time>2012-01-13T14:19:03Z</time>
      </trkpt>
      <trkpt lat="49.16682" lon="-0.38967">
        <ele>2.2</ele>
        <time>2012-01-13T14:19:04Z</time>
      </trkpt>
      <trkpt lat="49.16682" lon="-0.38967">
        <ele>2.5</ele>
        <time>2012-01-13T14:19:05Z</time>
      </trkpt>
      <trkpt lat="49.16682" lon="-0.38967">
        <ele>2.5</ele>
        <time>2012-01-13T14:19:06Z</time>
      </trkpt>
      <trkpt lat="49.16682" lon="-0.38967">
        <ele>2.5</ele>
        <time>2012-01-13T14:19:07Z</time>
      </trkpt>
      <trkpt lat="49.16682" lon="-0.38967">
        <ele>2.5</ele>
        <time>2012-01-13T14:19:08Z</time>
      </trkpt>
      <trkpt lat="49.16682" lon="-0.38967">
        <ele>2.7</ele>
        <time>2012-01-13T14:19:09Z</time>
      </trkpt>
      <trkpt lat="49.16681" lon="-0.38966">
        <ele>2.4</ele>
        <time>2012-01-13T14:19:10Z</time>
      </trkpt>
      <trkpt lat="49.16681" lon="-0.38966">
        <ele>2</ele>
        <time>2012-01-13T14:19:11Z</time>
      </trkpt>
      <trkpt lat="49.16681" lon="-0.38966">
        <ele>1.6</ele>
        <time>2012-01-13T14:19:12Z</time>
      </trkpt>
      <trkpt lat="49.16681" lon="-0.38966">
        <ele>2</ele>
        <time>2012-01-13T14:19:13Z</time>
      </trkpt>
      <trkpt lat="49.16681" lon="-0.38965">
        <ele>2.5</ele>
        <time>2012-01-13T14:19:14Z</time>
      </trkpt>
      <trkpt lat="49.16682" lon="-0.38964">
        <ele>2.4</ele>
        <time>2012-01-13T14:19:15Z</time>
      </trkpt>
      <trkpt lat="49.16682" lon="-0.38962">
        <ele>2.9</ele>
        <time>2012-01-13T14:19:16Z</time>
      </trkpt>
      <trkpt lat="49.16682" lon="-0.3896">
        <ele>3.5</ele>
        <time>2012-01-13T14:19:17Z</time>
      </trkpt>
      <trkpt lat="49.16682" lon="-0.38958">
        <ele>3.4</ele>
        <time>2012-01-13T14:19:18Z</time>
      </trkpt>
      <trkpt lat="49.16683" lon="-0.38956">
        <ele>3.4</ele>
        <time>2012-01-13T14:19:19Z</time>
      </trkpt>
      <trkpt lat="49.16684" lon="-0.38955">
        <ele>3.7</ele>
        <time>2012-01-13T14:19:20Z</time>
      </trkpt>
      <trkpt lat="49.16684" lon="-0.38954">
        <ele>3.9</ele>
        <time>2012-01-13T14:19:21Z</time>
      </trkpt>
      <trkpt lat="49.16685" lon="-0.38953">
        <ele>4</ele>
        <time>2012-01-13T14:19:22Z</time>
      </trkpt>
      <trkpt lat="49.16685" lon="-0.38951">
        <ele>4.5</ele>
        <time>2012-01-13T14:19:23Z</time>
      </trkpt>
      <trkpt lat="49.16685" lon="-0.38949">
        <ele>4.5</ele>
        <time>2012-01-13T14:19:24Z</time>
      </trkpt>
      <trkpt lat="49.16686" lon="-0.38948">
        <ele>4.5</ele>
        <time>2012-01-13T14:19:25Z</time>
      </trkpt>
      <trkpt lat="49.16686" lon="-0.38946">
        <ele>4</ele>
        <time>2012-01-13T14:19:26Z</time>
      </trkpt>
      <trkpt lat="49.16686" lon="-0.38945">
        <ele>4</ele>
        <time>2012-01-13T14:19:27Z</time>
      </trkpt>
      <trkpt lat="49.16687" lon="-0.38943">
        <ele>4</ele>
        <time>2012-01-13T14:19:28Z</time>
      </trkpt>
      <trkpt lat="49.16687" lon="-0.38943">
        <ele>3.5</ele>
        <time>2012-01-13T14:19:29Z</time>
      </trkpt>
      <trkpt lat="49.16688" lon="-0.38941">
        <ele>3.5</ele>
        <time>2012-01-13T14:19:30Z</time>
      </trkpt>
      <trkpt lat="49.16688" lon="-0.3894">
        <ele>3.2</ele>
        <time>2012-01-13T14:19:31Z</time>
      </trkpt>
      <trkpt lat="49.16689" lon="-0.38938">
        <ele>3.2</ele>
        <time>2012-01-13T14:19:32Z</time>
      </trkpt>
      <trkpt lat="49.1669" lon="-0.38937">
        <ele>3.5</ele>
        <time>2012-01-13T14:19:33Z</time>
      </trkpt>
      <trkpt lat="49.1669" lon="-0.38936">
        <ele>3.5</ele>
        <time>2012-01-13T14:19:34Z</time>
      </trkpt>
      <trkpt lat="49.16691" lon="-0.38934">
        <ele>4</ele>
        <time>2012-01-13T14:19:35Z</time>
      </trkpt>
      <trkpt lat="49.16692" lon="-0.38933">
        <ele>4.5</ele>
        <time>2012-01-13T14:19:36Z</time>
      </trkpt>
      <trkpt lat="49.16693" lon="-0.38931">
        <ele>5</ele>
        <time>2012-01-13T14:19:37Z</time>
      </trkpt>
      <trkpt lat="49.16694" lon="-0.38929">
        <ele>5.4</ele>
        <time>2012-01-13T14:19:38Z</time>
      </trkpt>
      <trkpt lat="49.16694" lon="-0.38928">
        <ele>6</ele>
        <time>2012-01-13T14:19:39Z</time>
      </trkpt>
      <trkpt lat="49.16695" lon="-0.38927">
        <ele>5.8</ele>
        <time>2012-01-13T14:19:40Z</time>
      </trkpt>
      <trkpt lat="49.16695" lon="-0.38926">
        <ele>5.5</ele>
        <time>2012-01-13T14:19:41Z</time>
      </trkpt>
      <trkpt lat="49.16696" lon="-0.38924">
        <ele>5.8</ele>
        <time>2012-01-13T14:19:42Z</time>
      </trkpt>
      <trkpt lat="49.16696" lon="-0.38922">
        <ele>5.5</ele>
        <time>2012-01-13T14:19:43Z</time>
      </trkpt>
      <trkpt lat="49.16697" lon="-0.38921">
        <ele>5.5</ele>
        <time>2012-01-13T14:19:44Z</time>
      </trkpt>
      <trkpt lat="49.16698" lon="-0.3892">
        <ele>5.5</ele>
        <time>2012-01-13T14:19:45Z</time>
      </trkpt>
      <trkpt lat="49.16699" lon="-0.38919">
        <ele>5.4</ele>
        <time>2012-01-13T14:19:46Z</time>
      </trkpt>
      <trkpt lat="49.16699" lon="-0.38918">
        <ele>5.5</ele>
        <time>2012-01-13T14:19:47Z</time>
      </trkpt>
      <trkpt lat="49.167" lon="-0.38917">
        <ele>5.9</ele>
        <time>2012-01-13T14:19:48Z</time>
      </trkpt>
      <trkpt lat="49.16701" lon="-0.38916">
        <ele>5.5</ele>
        <time>2012-01-13T14:19:49Z</time>
      </trkpt>
      <trkpt lat="49.16701" lon="-0.38915">
        <ele>5</ele>
        <time>2012-01-13T14:19:50Z</time>
      </trkpt>
      <trkpt lat="49.16702" lon="-0.38914">
        <ele>4.9</ele>
        <time>2012-01-13T14:19:51Z</time>
      </trkpt>
      <trkpt lat="49.16702" lon="-0.38913">
        <ele>5</ele>
        <time>2012-01-13T14:19:52Z</time>
      </trkpt>
      <trkpt lat="49.16702" lon="-0.38912">
        <ele>4.8</ele>
        <time>2012-01-13T14:19:53Z</time>
      </trkpt>
      <trkpt lat="49.16703" lon="-0.38911">
        <ele>4.5</ele>
        <time>2012-01-13T14:19:54Z</time>
      </trkpt>
      <trkpt lat="49.16704" lon="-0.3891">
        <ele>4</ele>
        <time>2012-01-13T14:19:55Z</time>
      </trkpt>
      <trkpt lat="49.16704" lon="-0.38909">
        <ele>3.5</ele>
        <time>2012-01-13T14:19:56Z</time>
      </trkpt>
      <trkpt lat="49.16705" lon="-0.38908">
        <ele>4</ele>
        <time>2012-01-13T14:19:57Z</time>
      </trkpt>
      <trkpt lat="49.16706" lon="-0.38908">
        <ele>4</ele>
        <time>2012-01-13T14:19:58Z</time>
      </trkpt>
      <trkpt lat="49.16707" lon="-0.38906">
        <ele>4</ele>
        <time>2012-01-13T14:19:59Z</time>
      </trkpt>
      <trkpt lat="49.16708" lon="-0.38906">
        <ele>4.3</ele>
        <time>2012-01-13T14:20:00Z</time>
      </trkpt>
      <trkpt lat="49.16709" lon="-0.38905">
        <ele>4</ele>
        <time>2012-01-13T14:20:01Z</time>
      </trkpt>
      <trkpt lat="49.16709" lon="-0.38904">
        <ele>4</ele>
        <time>2012-01-13T14:20:02Z</time>
      </trkpt>
      <trkpt lat="49.1671" lon="-0.38903">
        <ele>4.5</ele>
        <time>2012-01-13T14:20:03Z</time>
      </trkpt>
      <trkpt lat="49.16712" lon="-0.38902">
        <ele>4.5</ele>
        <time>2012-01-13T14:20:04Z</time>
      </trkpt>
      <trkpt lat="49.16712" lon="-0.38901">
        <ele>4.3</ele>
        <time>2012-01-13T14:20:05Z</time>
      </trkpt>
      <trkpt lat="49.16713" lon="-0.389">
        <ele>4.9</ele>
        <time>2012-01-13T14:20:06Z</time>
      </trkpt>
      <trkpt lat="49.16714" lon="-0.38899">
        <ele>5</ele>
        <time>2012-01-13T14:20:07Z</time>
      </trkpt>
      <trkpt lat="49.16715" lon="-0.38898">
        <ele>5</ele>
        <time>2012-01-13T14:20:08Z</time>
      </trkpt>
      <trkpt lat="49.16716" lon="-0.38897">
        <ele>5.3</ele>
        <time>2012-01-13T14:20:09Z</time>
      </trkpt>
      <trkpt lat="49.16717" lon="-0.38896">
        <ele>5.4</ele>
        <time>2012-01-13T14:20:10Z</time>
      </trkpt>
      <trkpt lat="49.16717" lon="-0.38895">
        <ele>5.9</ele>
        <time>2012-01-13T14:20:11Z</time>
      </trkpt>
      <trkpt lat="49.16718" lon="-0.38895">
        <ele>5.9</ele>
        <time>2012-01-13T14:20:12Z</time>
      </trkpt>
      <trkpt lat="49.16719" lon="-0.38894">
        <ele>5.8</ele>
        <time>2012-01-13T14:20:13Z</time>
      </trkpt>
      <trkpt lat="49.1672" lon="-0.38893">
        <ele>6</ele>
        <time>2012-01-13T14:20:14Z</time>
      </trkpt>
      <trkpt lat="49.16721" lon="-0.38892">
        <ele>6.5</ele>
        <time>2012-01-13T14:20:15Z</time>
      </trkpt>
      <trkpt lat="49.16722" lon="-0.38891">
        <ele>6.5</ele>
        <time>2012-01-13T14:20:16Z</time>
      </trkpt>
      <trkpt lat="49.16723" lon="-0.3889">
        <ele>6.3</ele>
        <time>2012-01-13T14:20:17Z</time>
      </trkpt>
      <trkpt lat="49.16724" lon="-0.38889">
        <ele>6.8</ele>
        <time>2012-01-13T14:20:18Z</time>
      </trkpt>
      <trkpt lat="49.16725" lon="-0.38888">
        <ele>6.8</ele>
        <time>2012-01-13T14:20:19Z</time>
      </trkpt>
      <trkpt lat="49.16726" lon="-0.38887">
        <ele>7</ele>
        <time>2012-01-13T14:20:20Z</time>
      </trkpt>
      <trkpt lat="49.16727" lon="-0.38886">
        <ele>7</ele>
        <time>2012-01-13T14:20:21Z</time>
      </trkpt>
      <trkpt lat="49.16728" lon="-0.38886">
        <ele>7</ele>
        <time>2012-01-13T14:20:22Z</time>
      </trkpt>
      <trkpt lat="49.16729" lon="-0.38885">
        <ele>7</ele>
        <time>2012-01-13T14:20:23Z</time>
      </trkpt>
      <trkpt lat="49.1673" lon="-0.38884">
        <ele>7.4</ele>
        <time>2012-01-13T14:20:24Z</time>
      </trkpt>
      <trkpt lat="49.16731" lon="-0.38883">
        <ele>7.5</ele>
        <time>2012-01-13T14:20:25Z</time>
      </trkpt>
      <trkpt lat="49.16732" lon="-0.38882">
        <ele>7.5</ele>
        <time>2012-01-13T14:20:26Z</time>
      </trkpt>
      <trkpt lat="49.16733" lon="-0.38881">
        <ele>7.5</ele>
        <time>2012-01-13T14:20:27Z</time>
      </trkpt>
      <trkpt lat="49.16734" lon="-0.3888">
        <ele>7.5</ele>
        <time>2012-01-13T14:20:28Z</time>
      </trkpt>
      <trkpt lat="49.16735" lon="-0.3888">
        <ele>7.9</ele>
        <time>2012-01-13T14:20:29Z</time>
      </trkpt>
      <trkpt lat="49.16736" lon="-0.38879">
        <ele>8.1</ele>
        <time>2012-01-13T14:20:30Z</time>
      </trkpt>
      <trkpt lat="49.16737" lon="-0.38878">
        <ele>9</ele>
        <time>2012-01-13T14:20:31Z</time>
      </trkpt>
      <trkpt lat="49.16738" lon="-0.38877">
        <ele>9.8</ele>
        <time>2012-01-13T14:20:32Z</time>
      </trkpt>
      <trkpt lat="49.16739" lon="-0.38876">
        <ele>9.8</ele>
        <time>2012-01-13T14:20:33Z</time>
      </trkpt>
      <trkpt lat="49.1674" lon="-0.38876">
        <ele>10.1</ele>
        <time>2012-01-13T14:20:34Z</time>
      </trkpt>
      <trkpt lat="49.16741" lon="-0.38875">
        <ele>10.6</ele>
        <time>2012-01-13T14:20:35Z</time>
      </trkpt>
      <trkpt lat="49.16742" lon="-0.38875">
        <ele>11.3</ele>
        <time>2012-01-13T14:20:36Z</time>
      </trkpt>
      <trkpt lat="49.16743" lon="-0.38874">
        <ele>12.1</ele>
        <time>2012-01-13T14:20:37Z</time>
      </trkpt>
      <trkpt lat="49.16744" lon="-0.38874">
        <ele>12.5</ele>
        <time>2012-01-13T14:20:38Z</time>
      </trkpt>
      <trkpt lat="49.16746" lon="-0.38873">
        <ele>12.8</ele>
        <time>2012-01-13T14:20:39Z</time>
      </trkpt>
      <trkpt lat="49.16747" lon="-0.38873">
        <ele>13.1</ele>
        <time>2012-01-13T14:20:40Z</time>
      </trkpt>
      <trkpt lat="49.16747" lon="-0.38872">
        <ele>13.3</ele>
        <time>2012-01-13T14:20:41Z</time>
      </trkpt>
      <trkpt lat="49.16748" lon="-0.38872">
        <ele>13.6</ele>
        <time>2012-01-13T14:20:42Z</time>
      </trkpt>
      <trkpt lat="49.16749" lon="-0.38871">
        <ele>13.6</ele>
        <time>2012-01-13T14:20:43Z</time>
      </trkpt>
      <trkpt lat="49.1675" lon="-0.38871">
        <ele>13.6</ele>
        <time>2012-01-13T14:20:44Z</time>
      </trkpt>
      <trkpt lat="49.16751" lon="-0.3887">
        <ele>13.6</ele>
        <time>2012-01-13T14:20:45Z</time>
      </trkpt>
      <trkpt lat="49.16752" lon="-0.3887">
        <ele>13.5</ele>
        <time>2012-01-13T14:20:46Z</time>
      </trkpt>
      <trkpt lat="49.16753" lon="-0.38869">
        <ele>13.5</ele>
        <time>2012-01-13T14:20:47Z</time>
      </trkpt>
      <trkpt lat="49.16754" lon="-0.38868">
        <ele>13.6</ele>
        <time>2012-01-13T14:20:48Z</time>
      </trkpt>
      <trkpt lat="49.16754" lon="-0.38868">
        <ele>13.5</ele>
        <time>2012-01-13T14:20:49Z</time>
      </trkpt>
      <trkpt lat="49.16755" lon="-0.38867">
        <ele>13.6</ele>
        <time>2012-01-13T14:20:50Z</time>
      </trkpt>
      <trkpt lat="49.16757" lon="-0.38867">
        <ele>13.3</ele>
        <time>2012-01-13T14:20:51Z</time>
      </trkpt>
      <trkpt lat="49.16758" lon="-0.38866">
        <ele>13.1</ele>
        <time>2012-01-13T14:20:52Z</time>
      </trkpt>
      <trkpt lat="49.16758" lon="-0.38865">
        <ele>12.8</ele>
        <time>2012-01-13T14:20:53Z</time>
      </trkpt>
      <trkpt lat="49.16759" lon="-0.38864">
        <ele>13.3</ele>
        <time>2012-01-13T14:20:54Z</time>
      </trkpt>
      <trkpt lat="49.1676" lon="-0.38863">
        <ele>13.1</ele>
        <time>2012-01-13T14:20:55Z</time>
      </trkpt>
      <trkpt lat="49.16762" lon="-0.38863">
        <ele>12.6</ele>
        <time>2012-01-13T14:20:56Z</time>
      </trkpt>
      <trkpt lat="49.16763" lon="-0.38862">
        <ele>12.3</ele>
        <time>2012-01-13T14:20:57Z</time>
      </trkpt>
      <trkpt lat="49.16764" lon="-0.38862">
        <ele>12.3</ele>
        <time>2012-01-13T14:20:58Z</time>
      </trkpt>
      <trkpt lat="49.16764" lon="-0.38862">
        <ele>12.1</ele>
        <time>2012-01-13T14:20:59Z</time>
      </trkpt>
      <trkpt lat="49.16765" lon="-0.38862">
        <ele>11.8</ele>
        <time>2012-01-13T14:21:00Z</time>
      </trkpt>
      <trkpt lat="49.16766" lon="-0.38861">
        <ele>11.8</ele>
        <time>2012-01-13T14:21:01Z</time>
      </trkpt>
      <trkpt lat="49.16767" lon="-0.38861">
        <ele>12</ele>
        <time>2012-01-13T14:21:02Z</time>
      </trkpt>
      <trkpt lat="49.16768" lon="-0.3886">
        <ele>11.3</ele>
        <time>2012-01-13T14:21:03Z</time>
      </trkpt>
      <trkpt lat="49.16769" lon="-0.3886">
        <ele>11.3</ele>
        <time>2012-01-13T14:21:04Z</time>
      </trkpt>
      <trkpt lat="49.1677" lon="-0.38859">
        <ele>11.3</ele>
        <time>2012-01-13T14:21:05Z</time>
      </trkpt>
      <trkpt lat="49.16771" lon="-0.38859">
        <ele>11.3</ele>
        <time>2012-01-13T14:21:06Z</time>
      </trkpt>
      <trkpt lat="49.16772" lon="-0.38858">
        <ele>11.3</ele>
        <time>2012-01-13T14:21:07Z</time>
      </trkpt>
      <trkpt lat="49.16773" lon="-0.38858">
        <ele>11.5</ele>
        <time>2012-01-13T14:21:08Z</time>
      </trkpt>
      <trkpt lat="49.16774" lon="-0.38858">
        <ele>11.8</ele>
        <time>2012-01-13T14:21:09Z</time>
      </trkpt>
      <trkpt lat="49.16775" lon="-0.38858">
        <ele>11.5</ele>
        <time>2012-01-13T14:21:10Z</time>
      </trkpt>
      <trkpt lat="49.16776" lon="-0.38857">
        <ele>11.3</ele>
        <time>2012-01-13T14:21:11Z</time>
      </trkpt>
      <trkpt lat="49.16778" lon="-0.38857">
        <ele>11.1</ele>
        <time>2012-01-13T14:21:12Z</time>
      </trkpt>
      <trkpt lat="49.16779" lon="-0.38856">
        <ele>11.3</ele>
        <time>2012-01-13T14:21:13Z</time>
      </trkpt>
      <trkpt lat="49.1678" lon="-0.38856">
        <ele>11.1</ele>
        <time>2012-01-13T14:21:14Z</time>
      </trkpt>
      <trkpt lat="49.16781" lon="-0.38856">
        <ele>11.5</ele>
        <time>2012-01-13T14:21:15Z</time>
      </trkpt>
      <trkpt lat="49.16783" lon="-0.38856">
        <ele>11.3</ele>
        <time>2012-01-13T14:21:16Z</time>
      </trkpt>
      <trkpt lat="49.16784" lon="-0.38855">
        <ele>11.1</ele>
        <time>2012-01-13T14:21:17Z</time>
      </trkpt>
      <trkpt lat="49.16785" lon="-0.38855">
        <ele>11.1</ele>
        <time>2012-01-13T14:21:18Z</time>
      </trkpt>
      <trkpt lat="49.16786" lon="-0.38855">
        <ele>11.1</ele>
        <time>2012-01-13T14:21:19Z</time>
      </trkpt>
      <trkpt lat="49.16787" lon="-0.38855">
        <ele>10.8</ele>
        <time>2012-01-13T14:21:20Z</time>
      </trkpt>
      <trkpt lat="49.16788" lon="-0.38855">
        <ele>10.8</ele>
        <time>2012-01-13T14:21:21Z</time>
      </trkpt>
      <trkpt lat="49.16789" lon="-0.38854">
        <ele>10.6</ele>
        <time>2012-01-13T14:21:22Z</time>
      </trkpt>
      <trkpt lat="49.1679" lon="-0.38854">
        <ele>11</ele>
        <time>2012-01-13T14:21:23Z</time>
      </trkpt>
      <trkpt lat="49.16791" lon="-0.38853">
        <ele>11.1</ele>
        <time>2012-01-13T14:21:24Z</time>
      </trkpt>
      <trkpt lat="49.16792" lon="-0.38853">
        <ele>11.1</ele>
        <time>2012-01-13T14:21:25Z</time>
      </trkpt>
      <trkpt lat="49.16793" lon="-0.38852">
        <ele>11.3</ele>
        <time>2012-01-13T14:21:26Z</time>
      </trkpt>
      <trkpt lat="49.16794" lon="-0.38852">
        <ele>11.6</ele>
        <time>2012-01-13T14:21:27Z</time>
      </trkpt>
      <trkpt lat="49.16795" lon="-0.38851">
        <ele>12</ele>
        <time>2012-01-13T14:21:28Z</time>
      </trkpt>
      <trkpt lat="49.16796" lon="-0.38851">
        <ele>12.1</ele>
        <time>2012-01-13T14:21:29Z</time>
      </trkpt>
      <trkpt lat="49.16797" lon="-0.38851">
        <ele>12</ele>
        <time>2012-01-13T14:21:30Z</time>
      </trkpt>
      <trkpt lat="49.16799" lon="-0.38852">
        <ele>12.1</ele>
        <time>2012-01-13T14:21:31Z</time>
      </trkpt>
      <trkpt lat="49.168" lon="-0.38852">
        <ele>12.6</ele>
        <time>2012-01-13T14:21:32Z</time>
      </trkpt>
      <trkpt lat="49.16801" lon="-0.38851">
        <ele>13.1</ele>
        <time>2012-01-13T14:21:33Z</time>
      </trkpt>
      <trkpt lat="49.16802" lon="-0.38851">
        <ele>13.5</ele>
        <time>2012-01-13T14:21:34Z</time>
      </trkpt>
      <trkpt lat="49.16803" lon="-0.38851">
        <ele>13.6</ele>
        <time>2012-01-13T14:21:35Z</time>
      </trkpt>
      <trkpt lat="49.16804" lon="-0.38851">
        <ele>13.6</ele>
        <time>2012-01-13T14:21:36Z</time>
      </trkpt>
      <trkpt lat="49.16806" lon="-0.38851">
        <ele>13.8</ele>
        <time>2012-01-13T14:21:37Z</time>
      </trkpt>
      <trkpt lat="49.16807" lon="-0.38851">
        <ele>13.6</ele>
        <time>2012-01-13T14:21:38Z</time>
      </trkpt>
      <trkpt lat="49.16808" lon="-0.38851">
        <ele>13.6</ele>
        <time>2012-01-13T14:21:39Z</time>
      </trkpt>
      <trkpt lat="49.16809" lon="-0.3885">
        <ele>13.3</ele>
        <time>2012-01-13T14:21:40Z</time>
      </trkpt>
      <trkpt lat="49.1681" lon="-0.3885">
        <ele>12.8</ele>
        <time>2012-01-13T14:21:41Z</time>
      </trkpt>
      <trkpt lat="49.16812" lon="-0.38849">
        <ele>12.6</ele>
        <time>2012-01-13T14:21:42Z</time>
      </trkpt>
      <trkpt lat="49.16813" lon="-0.38849">
        <ele>12.1</ele>
        <time>2012-01-13T14:21:43Z</time>
      </trkpt>
      <trkpt lat="49.16814" lon="-0.38848">
        <ele>12</ele>
        <time>2012-01-13T14:21:44Z</time>
      </trkpt>
      <trkpt lat="49.16815" lon="-0.38848">
        <ele>12.1</ele>
        <time>2012-01-13T14:21:45Z</time>
      </trkpt>
      <trkpt lat="49.16816" lon="-0.38847">
        <ele>12.3</ele>
        <time>2012-01-13T14:21:46Z</time>
      </trkpt>
      <trkpt lat="49.16817" lon="-0.38847">
        <ele>12.6</ele>
        <time>2012-01-13T14:21:47Z</time>
      </trkpt>
      <trkpt lat="49.16817" lon="-0.38846">
        <ele>12.8</ele>
        <time>2012-01-13T14:21:48Z</time>
      </trkpt>
      <trkpt lat="49.16818" lon="-0.38846">
        <ele>13.1</ele>
        <time>2012-01-13T14:21:49Z</time>
      </trkpt>
      <trkpt lat="49.16819" lon="-0.38845">
        <ele>12.8</ele>
        <time>2012-01-13T14:21:50Z</time>
      </trkpt>
      <trkpt lat="49.16819" lon="-0.38845">
        <ele>13</ele>
        <time>2012-01-13T14:21:51Z</time>
      </trkpt>
      <trkpt lat="49.1682" lon="-0.38845">
        <ele>13.1</ele>
        <time>2012-01-13T14:21:52Z</time>
      </trkpt>
      <trkpt lat="49.16821" lon="-0.38845">
        <ele>13.3</ele>
        <time>2012-01-13T14:21:53Z</time>
      </trkpt>
      <trkpt lat="49.16821" lon="-0.38846">
        <ele>13.6</ele>
        <time>2012-01-13T14:21:54Z</time>
      </trkpt>
      <trkpt lat="49.16822" lon="-0.38847">
        <ele>13.6</ele>
        <time>2012-01-13T14:21:55Z</time>
      </trkpt>
      <trkpt lat="49.16823" lon="-0.38847">
        <ele>13.5</ele>
        <time>2012-01-13T14:21:56Z</time>
      </trkpt>
      <trkpt lat="49.16824" lon="-0.38848">
        <ele>13.3</ele>
        <time>2012-01-13T14:21:57Z</time>
      </trkpt>
      <trkpt lat="49.16825" lon="-0.38848">
        <ele>13.5</ele>
        <time>2012-01-13T14:21:58Z</time>
      </trkpt>
      <trkpt lat="49.16826" lon="-0.38849">
        <ele>13.3</ele>
        <time>2012-01-13T14:21:59Z</time>
      </trkpt>
      <trkpt lat="49.16827" lon="-0.3885">
        <ele>13.6</ele>
        <time>2012-01-13T14:22:00Z</time>
      </trkpt>
      <trkpt lat="49.16828" lon="-0.3885">
        <ele>13.8</ele>
        <time>2012-01-13T14:22:01Z</time>
      </trkpt>
      <trkpt lat="49.16829" lon="-0.38851">
        <ele>13.8</ele>
        <time>2012-01-13T14:22:02Z</time>
      </trkpt>
      <trkpt lat="49.1683" lon="-0.38852">
        <ele>14</ele>
        <time>2012-01-13T14:22:03Z</time>
      </trkpt>
      <trkpt lat="49.16831" lon="-0.38852">
        <ele>14</ele>
        <time>2012-01-13T14:22:04Z</time>
      </trkpt>
      <trkpt lat="49.16831" lon="-0.38852">
        <ele>14.5</ele>
        <time>2012-01-13T14:22:05Z</time>
      </trkpt>
      <trkpt lat="49.16832" lon="-0.38852">
        <ele>14.8</ele>
        <time>2012-01-13T14:22:06Z</time>
      </trkpt>
      <trkpt lat="49.16833" lon="-0.38852">
        <ele>15</ele>
        <time>2012-01-13T14:22:07Z</time>
      </trkpt>
      <trkpt lat="49.16834" lon="-0.38853">
        <ele>14.8</ele>
        <time>2012-01-13T14:22:08Z</time>
      </trkpt>
      <trkpt lat="49.16835" lon="-0.38853">
        <ele>14.5</ele>
        <time>2012-01-13T14:22:09Z</time>
      </trkpt>
      <trkpt lat="49.16836" lon="-0.38853">
        <ele>14.5</ele>
        <time>2012-01-13T14:22:10Z</time>
      </trkpt>
      <trkpt lat="49.16838" lon="-0.38852">
        <ele>14.5</ele>
        <time>2012-01-13T14:22:11Z</time>
      </trkpt>
      <trkpt lat="49.16839" lon="-0.38852">
        <ele>14.3</ele>
        <time>2012-01-13T14:22:12Z</time>
      </trkpt>
      <trkpt lat="49.1684" lon="-0.38853">
        <ele>13.8</ele>
        <time>2012-01-13T14:22:13Z</time>
      </trkpt>
      <trkpt lat="49.16841" lon="-0.38853">
        <ele>13.8</ele>
        <time>2012-01-13T14:22:14Z</time>
      </trkpt>
      <trkpt lat="49.16842" lon="-0.38854">
        <ele>13.6</ele>
        <time>2012-01-13T14:22:15Z</time>
      </trkpt>
      <trkpt lat="49.16843" lon="-0.38855">
        <ele>14</ele>
        <time>2012-01-13T14:22:16Z</time>
      </trkpt>
      <trkpt lat="49.16844" lon="-0.38856">
        <ele>13.8</ele>
        <time>2012-01-13T14:22:17Z</time>
      </trkpt>
      <trkpt lat="49.16844" lon="-0.38857">
        <ele>13.6</ele>
        <time>2012-01-13T14:22:18Z</time>
      </trkpt>
      <trkpt lat="49.16845" lon="-0.38857">
        <ele>13.8</ele>
        <time>2012-01-13T14:22:19Z</time>
      </trkpt>
      <trkpt lat="49.16846" lon="-0.38858">
        <ele>13.8</ele>
        <time>2012-01-13T14:22:20Z</time>
      </trkpt>
      <trkpt lat="49.16847" lon="-0.38859">
        <ele>14.1</ele>
        <time>2012-01-13T14:22:21Z</time>
      </trkpt>
      <trkpt lat="49.16848" lon="-0.3886">
        <ele>14.3</ele>
        <time>2012-01-13T14:22:22Z</time>
      </trkpt>
      <trkpt lat="49.16849" lon="-0.3886">
        <ele>14.6</ele>
        <time>2012-01-13T14:22:23Z</time>
      </trkpt>
      <trkpt lat="49.16849" lon="-0.38861">
        <ele>14.5</ele>
        <time>2012-01-13T14:22:24Z</time>
      </trkpt>
      <trkpt lat="49.1685" lon="-0.38862">
        <ele>14.8</ele>
        <time>2012-01-13T14:22:25Z</time>
      </trkpt>
      <trkpt lat="49.16851" lon="-0.38863">
        <ele>15</ele>
        <time>2012-01-13T14:22:26Z</time>
      </trkpt>
      <trkpt lat="49.16852" lon="-0.38863">
        <ele>15.1</ele>
        <time>2012-01-13T14:22:27Z</time>
      </trkpt>
      <trkpt lat="49.16853" lon="-0.38863">
        <ele>15.1</ele>
        <time>2012-01-13T14:22:28Z</time>
      </trkpt>
      <trkpt lat="49.16854" lon="-0.38863">
        <ele>15</ele>
        <time>2012-01-13T14:22:29Z</time>
      </trkpt>
      <trkpt lat="49.16855" lon="-0.38863">
        <ele>15.1</ele>
        <time>2012-01-13T14:22:30Z</time>
      </trkpt>
      <trkpt lat="49.16856" lon="-0.38863">
        <ele>16.2</ele>
        <time>2012-01-13T14:22:31Z</time>
      </trkpt>
      <trkpt lat="49.16857" lon="-0.38863">
        <ele>16.1</ele>
        <time>2012-01-13T14:22:32Z</time>
      </trkpt>
      <trkpt lat="49.16858" lon="-0.38863">
        <ele>16.2</ele>
        <time>2012-01-13T14:22:33Z</time>
      </trkpt>
      <trkpt lat="49.16859" lon="-0.38863">
        <ele>16.2</ele>
        <time>2012-01-13T14:22:34Z</time>
      </trkpt>
      <trkpt lat="49.1686" lon="-0.38863">
        <ele>16</ele>
        <time>2012-01-13T14:22:35Z</time>
      </trkpt>
      <trkpt lat="49.16862" lon="-0.38863">
        <ele>15.3</ele>
        <time>2012-01-13T14:22:36Z</time>
      </trkpt>
      <trkpt lat="49.16864" lon="-0.38863">
        <ele>15.6</ele>
        <time>2012-01-13T14:22:37Z</time>
      </trkpt>
      <trkpt lat="49.16865" lon="-0.38863">
        <ele>16.2</ele>
        <time>2012-01-13T14:22:38Z</time>
      </trkpt>
      <trkpt lat="49.16866" lon="-0.38864">
        <ele>18</ele>
        <time>2012-01-13T14:22:39Z</time>
      </trkpt>
      <trkpt lat="49.16868" lon="-0.38864">
        <ele>18.1</ele>
        <time>2012-01-13T14:22:40Z</time>
      </trkpt>
      <trkpt lat="49.16869" lon="-0.38864">
        <ele>17.7</ele>
        <time>2012-01-13T14:22:41Z</time>
      </trkpt>
      <trkpt lat="49.1687" lon="-0.38865">
        <ele>17.5</ele>
        <time>2012-01-13T14:22:42Z</time>
      </trkpt>
      <trkpt lat="49.16871" lon="-0.38866">
        <ele>17.1</ele>
        <time>2012-01-13T14:22:43Z</time>
      </trkpt>
      <trkpt lat="49.16871" lon="-0.38867">
        <ele>16.7</ele>
        <time>2012-01-13T14:22:44Z</time>
      </trkpt>
      <trkpt lat="49.16872" lon="-0.38869">
        <ele>16.2</ele>
        <time>2012-01-13T14:22:45Z</time>
      </trkpt>
      <trkpt lat="49.16872" lon="-0.3887">
        <ele>16.2</ele>
        <time>2012-01-13T14:22:46Z</time>
      </trkpt>
      <trkpt lat="49.16873" lon="-0.38871">
        <ele>15.6</ele>
        <time>2012-01-13T14:22:47Z</time>
      </trkpt>
      <trkpt lat="49.16873" lon="-0.38873">
        <ele>14.6</ele>
        <time>2012-01-13T14:22:48Z</time>
      </trkpt>
      <trkpt lat="49.16874" lon="-0.38874">
        <ele>14.1</ele>
        <time>2012-01-13T14:22:49Z</time>
      </trkpt>
      <trkpt lat="49.16874" lon="-0.38876">
        <ele>13.6</ele>
        <time>2012-01-13T14:22:50Z</time>
      </trkpt>
      <trkpt lat="49.16875" lon="-0.38877">
        <ele>13.1</ele>
        <time>2012-01-13T14:22:51Z</time>
      </trkpt>
      <trkpt lat="49.16875" lon="-0.38879">
        <ele>12.8</ele>
        <time>2012-01-13T14:22:52Z</time>
      </trkpt>
      <trkpt lat="49.16875" lon="-0.3888">
        <ele>12.6</ele>
        <time>2012-01-13T14:22:53Z</time>
      </trkpt>
      <trkpt lat="49.16875" lon="-0.38882">
        <ele>12.3</ele>
        <time>2012-01-13T14:22:54Z</time>
      </trkpt>
      <trkpt lat="49.16875" lon="-0.38883">
        <ele>12</ele>
        <time>2012-01-13T14:22:55Z</time>
      </trkpt>
      <trkpt lat="49.16875" lon="-0.38885">
        <ele>11.6</ele>
        <time>2012-01-13T14:22:56Z</time>
      </trkpt>
      <trkpt lat="49.16875" lon="-0.38886">
        <ele>11.3</ele>
        <time>2012-01-13T14:22:57Z</time>
      </trkpt>
      <trkpt lat="49.16875" lon="-0.38888">
        <ele>11.3</ele>
        <time>2012-01-13T14:22:58Z</time>
      </trkpt>
      <trkpt lat="49.16875" lon="-0.38889">
        <ele>11</ele>
        <time>2012-01-13T14:22:59Z</time>
      </trkpt>
      <trkpt lat="49.16875" lon="-0.38891">
        <ele>10.8</ele>
        <time>2012-01-13T14:23:00Z</time>
      </trkpt>
      <trkpt lat="49.16875" lon="-0.38893">
        <ele>10.6</ele>
        <time>2012-01-13T14:23:01Z</time>
      </trkpt>
      <trkpt lat="49.16875" lon="-0.38894">
        <ele>10.6</ele>
        <time>2012-01-13T14:23:02Z</time>
      </trkpt>
      <trkpt lat="49.16875" lon="-0.38896">
        <ele>10.5</ele>
        <time>2012-01-13T14:23:03Z</time>
      </trkpt>
      <trkpt lat="49.16875" lon="-0.38897">
        <ele>10.3</ele>
        <time>2012-01-13T14:23:04Z</time>
      </trkpt>
      <trkpt lat="49.16875" lon="-0.38899">
        <ele>10.3</ele>
        <time>2012-01-13T14:23:05Z</time>
      </trkpt>
      <trkpt lat="49.16875" lon="-0.38901">
        <ele>10.1</ele>
        <time>2012-01-13T14:23:06Z</time>
      </trkpt>
      <trkpt lat="49.16875" lon="-0.38902">
        <ele>10.1</ele>
        <time>2012-01-13T14:23:07Z</time>
      </trkpt>
      <trkpt lat="49.16875" lon="-0.38904">
        <ele>10.1</ele>
        <time>2012-01-13T14:23:08Z</time>
      </trkpt>
      <trkpt lat="49.16875" lon="-0.38905">
        <ele>10.1</ele>
        <time>2012-01-13T14:23:09Z</time>
      </trkpt>
      <trkpt lat="49.16875" lon="-0.38907">
        <ele>10.3</ele>
        <time>2012-01-13T14:23:10Z</time>
      </trkpt>
      <trkpt lat="49.16875" lon="-0.38908">
        <ele>10.5</ele>
        <time>2012-01-13T14:23:11Z</time>
      </trkpt>
      <trkpt lat="49.16875" lon="-0.38909">
        <ele>10.5</ele>
        <time>2012-01-13T14:23:12Z</time>
      </trkpt>
      <trkpt lat="49.16875" lon="-0.38911">
        <ele>10.6</ele>
        <time>2012-01-13T14:23:13Z</time>
      </trkpt>
      <trkpt lat="49.16875" lon="-0.38912">
        <ele>11</ele>
        <time>2012-01-13T14:23:14Z</time>
      </trkpt>
      <trkpt lat="49.16875" lon="-0.38914">
        <ele>11.1</ele>
        <time>2012-01-13T14:23:15Z</time>
      </trkpt>
      <trkpt lat="49.16875" lon="-0.38915">
        <ele>11.6</ele>
        <time>2012-01-13T14:23:16Z</time>
      </trkpt>
      <trkpt lat="49.16875" lon="-0.38917">
        <ele>11.5</ele>
        <time>2012-01-13T14:23:17Z</time>
      </trkpt>
      <trkpt lat="49.16875" lon="-0.38918">
        <ele>11.3</ele>
        <time>2012-01-13T14:23:18Z</time>
      </trkpt>
      <trkpt lat="49.16875" lon="-0.38919">
        <ele>11.6</ele>
        <time>2012-01-13T14:23:19Z</time>
      </trkpt>
      <trkpt lat="49.16875" lon="-0.38921">
        <ele>11.8</ele>
        <time>2012-01-13T14:23:20Z</time>
      </trkpt>
      <trkpt lat="49.16874" lon="-0.38922">
        <ele>11.3</ele>
        <time>2012-01-13T14:23:21Z</time>
      </trkpt>
      <trkpt lat="49.16874" lon="-0.38923">
        <ele>11.3</ele>
        <time>2012-01-13T14:23:22Z</time>
      </trkpt>
      <trkpt lat="49.16874" lon="-0.38924">
        <ele>11.3</ele>
        <time>2012-01-13T14:23:23Z</time>
      </trkpt>
      <trkpt lat="49.16875" lon="-0.38926">
        <ele>11.1</ele>
        <time>2012-01-13T14:23:24Z</time>
      </trkpt>
      <trkpt lat="49.16875" lon="-0.38927">
        <ele>10.8</ele>
        <time>2012-01-13T14:23:25Z</time>
      </trkpt>
      <trkpt lat="49.16875" lon="-0.38928">
        <ele>10.6</ele>
        <time>2012-01-13T14:23:26Z</time>
      </trkpt>
      <trkpt lat="49.16875" lon="-0.38929">
        <ele>10.5</ele>
        <time>2012-01-13T14:23:27Z</time>
      </trkpt>
      <trkpt lat="49.16875" lon="-0.3893">
        <ele>10.1</ele>
        <time>2012-01-13T14:23:28Z</time>
      </trkpt>
      <trkpt lat="49.16875" lon="-0.38932">
        <ele>10</ele>
        <time>2012-01-13T14:23:29Z</time>
      </trkpt>
      <trkpt lat="49.16875" lon="-0.38932">
        <ele>10.1</ele>
        <time>2012-01-13T14:23:30Z</time>
      </trkpt>
      <trkpt lat="49.16875" lon="-0.38932">
        <ele>10.3</ele>
        <time>2012-01-13T14:23:31Z</time>
      </trkpt>
      <trkpt lat="49.16874" lon="-0.38933">
        <ele>10</ele>
        <time>2012-01-13T14:23:32Z</time>
      </trkpt>
      <trkpt lat="49.16875" lon="-0.38934">
        <ele>10</ele>
        <time>2012-01-13T14:23:33Z</time>
      </trkpt>
      <trkpt lat="49.16874" lon="-0.38935">
        <ele>10.1</ele>
        <time>2012-01-13T14:23:34Z</time>
      </trkpt>
      <trkpt lat="49.16874" lon="-0.38937">
        <ele>9.8</ele>
        <time>2012-01-13T14:23:35Z</time>
      </trkpt>
      <trkpt lat="49.16874" lon="-0.38938">
        <ele>9.8</ele>
        <time>2012-01-13T14:23:36Z</time>
      </trkpt>
      <trkpt lat="49.16874" lon="-0.3894">
        <ele>9.6</ele>
        <time>2012-01-13T14:23:37Z</time>
      </trkpt>
      <trkpt lat="49.16874" lon="-0.38942">
        <ele>9.6</ele>
        <time>2012-01-13T14:23:38Z</time>
      </trkpt>
      <trkpt lat="49.16874" lon="-0.38943">
        <ele>9.6</ele>
        <time>2012-01-13T14:23:39Z</time>
      </trkpt>
      <trkpt lat="49.16874" lon="-0.38944">
        <ele>9.5</ele>
        <time>2012-01-13T14:23:40Z</time>
      </trkpt>
      <trkpt lat="49.16874" lon="-0.38946">
        <ele>9.6</ele>
        <time>2012-01-13T14:23:41Z</time>
      </trkpt>
      <trkpt lat="49.16874" lon="-0.38947">
        <ele>9.6</ele>
        <time>2012-01-13T14:23:42Z</time>
      </trkpt>
      <trkpt lat="49.16874" lon="-0.38949">
        <ele>9.8</ele>
        <time>2012-01-13T14:23:43Z</time>
      </trkpt>
      <trkpt lat="49.16873" lon="-0.3895">
        <ele>9.8</ele>
        <time>2012-01-13T14:23:44Z</time>
      </trkpt>
      <trkpt lat="49.16873" lon="-0.38951">
        <ele>9.6</ele>
        <time>2012-01-13T14:23:45Z</time>
      </trkpt>
      <trkpt lat="49.16873" lon="-0.38953">
        <ele>9.6</ele>
        <time>2012-01-13T14:23:46Z</time>
      </trkpt>
      <trkpt lat="49.16873" lon="-0.38955">
        <ele>9.8</ele>
        <time>2012-01-13T14:23:47Z</time>
      </trkpt>
      <trkpt lat="49.16873" lon="-0.38956">
        <ele>10.1</ele>
        <time>2012-01-13T14:23:48Z</time>
      </trkpt>
      <trkpt lat="49.16873" lon="-0.38957">
        <ele>10.1</ele>
        <time>2012-01-13T14:23:49Z</time>
      </trkpt>
      <trkpt lat="49.16873" lon="-0.38958">
        <ele>10.3</ele>
        <time>2012-01-13T14:23:50Z</time>
      </trkpt>
      <trkpt lat="49.16873" lon="-0.3896">
        <ele>10.6</ele>
        <time>2012-01-13T14:23:51Z</time>
      </trkpt>
      <trkpt lat="49.16873" lon="-0.38962">
        <ele>11.1</ele>
        <time>2012-01-13T14:23:52Z</time>
      </trkpt>
      <trkpt lat="49.16873" lon="-0.38964">
        <ele>11.1</ele>
        <time>2012-01-13T14:23:53Z</time>
      </trkpt>
      <trkpt lat="49.16873" lon="-0.38965">
        <ele>11.3</ele>
        <time>2012-01-13T14:23:54Z</time>
      </trkpt>
      <trkpt lat="49.16873" lon="-0.38966">
        <ele>11.5</ele>
        <time>2012-01-13T14:23:55Z</time>
      </trkpt>
      <trkpt lat="49.16873" lon="-0.38968">
        <ele>11.8</ele>
        <time>2012-01-13T14:23:56Z</time>
      </trkpt>
      <trkpt lat="49.16873" lon="-0.3897">
        <ele>12.1</ele>
        <time>2012-01-13T14:23:57Z</time>
      </trkpt>
      <trkpt lat="49.16873" lon="-0.38971">
        <ele>12.5</ele>
        <time>2012-01-13T14:23:58Z</time>
      </trkpt>
      <trkpt lat="49.16873" lon="-0.38973">
        <ele>12.6</ele>
        <time>2012-01-13T14:23:59Z</time>
      </trkpt>
      <trkpt lat="49.16874" lon="-0.38974">
        <ele>13.1</ele>
        <time>2012-01-13T14:24:00Z</time>
      </trkpt>
      <trkpt lat="49.16873" lon="-0.38977">
        <ele>13.1</ele>
        <time>2012-01-13T14:24:01Z</time>
      </trkpt>
      <trkpt lat="49.16873" lon="-0.38978">
        <ele>12.8</ele>
        <time>2012-01-13T14:24:02Z</time>
      </trkpt>
      <trkpt lat="49.16873" lon="-0.3898">
        <ele>12.6</ele>
        <time>2012-01-13T14:24:03Z</time>
      </trkpt>
      <trkpt lat="49.16873" lon="-0.38981">
        <ele>12.5</ele>
        <time>2012-01-13T14:24:04Z</time>
      </trkpt>
      <trkpt lat="49.16873" lon="-0.38983">
        <ele>12.3</ele>
        <time>2012-01-13T14:24:05Z</time>
      </trkpt>
      <trkpt lat="49.16873" lon="-0.38984">
        <ele>12.1</ele>
        <time>2012-01-13T14:24:06Z</time>
      </trkpt>
      <trkpt lat="49.16873" lon="-0.38985">
        <ele>12.5</ele>
        <time>2012-01-13T14:24:07Z</time>
      </trkpt>
      <trkpt lat="49.16873" lon="-0.38985">
        <ele>12.5</ele>
        <time>2012-01-13T14:24:08Z</time>
      </trkpt>
      <trkpt lat="49.16873" lon="-0.38985">
        <ele>12.6</ele>
        <time>2012-01-13T14:24:09Z</time>
      </trkpt>
      <trkpt lat="49.16873" lon="-0.38985">
        <ele>12.8</ele>
        <time>2012-01-13T14:24:10Z</time>
      </trkpt>
      <trkpt lat="49.16873" lon="-0.38985">
        <ele>12.5</ele>
        <time>2012-01-13T14:24:11Z</time>
      </trkpt>
      <trkpt lat="49.16873" lon="-0.38985">
        <ele>12</ele>
        <time>2012-01-13T14:24:12Z</time>
      </trkpt>
      <trkpt lat="49.16873" lon="-0.38986">
        <ele>11.5</ele>
        <time>2012-01-13T14:24:13Z</time>
      </trkpt>
      <trkpt lat="49.16872" lon="-0.38987">
        <ele>10.8</ele>
        <time>2012-01-13T14:24:14Z</time>
      </trkpt>
      <trkpt lat="49.16872" lon="-0.38989">
        <ele>10.3</ele>
        <time>2012-01-13T14:24:15Z</time>
      </trkpt>
      <trkpt lat="49.16871" lon="-0.3899">
        <ele>9.6</ele>
        <time>2012-01-13T14:24:16Z</time>
      </trkpt>
      <trkpt lat="49.16871" lon="-0.38992">
        <ele>9.1</ele>
        <time>2012-01-13T14:24:17Z</time>
      </trkpt>
      <trkpt lat="49.16871" lon="-0.38993">
        <ele>8.6</ele>
        <time>2012-01-13T14:24:18Z</time>
      </trkpt>
      <trkpt lat="49.16871" lon="-0.38995">
        <ele>8.3</ele>
        <time>2012-01-13T14:24:19Z</time>
      </trkpt>
      <trkpt lat="49.1687" lon="-0.38996">
        <ele>8.1</ele>
        <time>2012-01-13T14:24:20Z</time>
      </trkpt>
      <trkpt lat="49.1687" lon="-0.38998">
        <ele>7.5</ele>
        <time>2012-01-13T14:24:21Z</time>
      </trkpt>
      <trkpt lat="49.1687" lon="-0.38999">
        <ele>7.4</ele>
        <time>2012-01-13T14:24:22Z</time>
      </trkpt>
      <trkpt lat="49.1687" lon="-0.39">
        <ele>7.3</ele>
        <time>2012-01-13T14:24:23Z</time>
      </trkpt>
      <trkpt lat="49.1687" lon="-0.39002">
        <ele>7</ele>
        <time>2012-01-13T14:24:24Z</time>
      </trkpt>
      <trkpt lat="49.1687" lon="-0.39004">
        <ele>7.5</ele>
        <time>2012-01-13T14:24:25Z</time>
      </trkpt>
      <trkpt lat="49.1687" lon="-0.39005">
        <ele>7.4</ele>
        <time>2012-01-13T14:24:26Z</time>
      </trkpt>
      <trkpt lat="49.1687" lon="-0.39007">
        <ele>7.5</ele>
        <time>2012-01-13T14:24:27Z</time>
      </trkpt>
      <trkpt lat="49.1687" lon="-0.39008">
        <ele>7.9</ele>
        <time>2012-01-13T14:24:28Z</time>
      </trkpt>
      <trkpt lat="49.1687" lon="-0.39009">
        <ele>8.1</ele>
        <time>2012-01-13T14:24:29Z</time>
      </trkpt>
      <trkpt lat="49.1687" lon="-0.39011">
        <ele>8.3</ele>
        <time>2012-01-13T14:24:30Z</time>
      </trkpt>
      <trkpt lat="49.1687" lon="-0.39014">
        <ele>8.3</ele>
        <time>2012-01-13T14:24:31Z</time>
      </trkpt>
      <trkpt lat="49.1687" lon="-0.39015">
        <ele>8</ele>
        <time>2012-01-13T14:24:32Z</time>
      </trkpt>
      <trkpt lat="49.16869" lon="-0.39016">
        <ele>7.8</ele>
        <time>2012-01-13T14:24:33Z</time>
      </trkpt>
      <trkpt lat="49.16869" lon="-0.39017">
        <ele>7.8</ele>
        <time>2012-01-13T14:24:34Z</time>
      </trkpt>
      <trkpt lat="49.16868" lon="-0.39019">
        <ele>7.5</ele>
        <time>2012-01-13T14:24:35Z</time>
      </trkpt>
      <trkpt lat="49.16868" lon="-0.39021">
        <ele>7.5</ele>
        <time>2012-01-13T14:24:36Z</time>
      </trkpt>
      <trkpt lat="49.16867" lon="-0.39023">
        <ele>7.3</ele>
        <time>2012-01-13T14:24:37Z</time>
      </trkpt>
      <trkpt lat="49.16867" lon="-0.39024">
        <ele>7</ele>
        <time>2012-01-13T14:24:38Z</time>
      </trkpt>
      <trkpt lat="49.16867" lon="-0.39026">
        <ele>6.5</ele>
        <time>2012-01-13T14:24:39Z</time>
      </trkpt>
      <trkpt lat="49.16866" lon="-0.39027">
        <ele>6.5</ele>
        <time>2012-01-13T14:24:40Z</time>
      </trkpt>
      <trkpt lat="49.16866" lon="-0.39028">
        <ele>6</ele>
        <time>2012-01-13T14:24:41Z</time>
      </trkpt>
      <trkpt lat="49.16865" lon="-0.3903">
        <ele>6</ele>
        <time>2012-01-13T14:24:42Z</time>
      </trkpt>
      <trkpt lat="49.16864" lon="-0.39031">
        <ele>5.5</ele>
        <time>2012-01-13T14:24:43Z</time>
      </trkpt>
      <trkpt lat="49.16864" lon="-0.39033">
        <ele>5.5</ele>
        <time>2012-01-13T14:24:44Z</time>
      </trkpt>
      <trkpt lat="49.16864" lon="-0.39034">
        <ele>5.4</ele>
        <time>2012-01-13T14:24:45Z</time>
      </trkpt>
      <trkpt lat="49.16863" lon="-0.39036">
        <ele>5.3</ele>
        <time>2012-01-13T14:24:46Z</time>
      </trkpt>
      <trkpt lat="49.16863" lon="-0.39037">
        <ele>5.4</ele>
        <time>2012-01-13T14:24:47Z</time>
      </trkpt>
      <trkpt lat="49.16862" lon="-0.39039">
        <ele>5</ele>
        <time>2012-01-13T14:24:48Z</time>
      </trkpt>
      <trkpt lat="49.16862" lon="-0.3904">
        <ele>5</ele>
        <time>2012-01-13T14:24:49Z</time>
      </trkpt>
      <trkpt lat="49.16861" lon="-0.39042">
        <ele>4.9</ele>
        <time>2012-01-13T14:24:50Z</time>
      </trkpt>
      <trkpt lat="49.16861" lon="-0.39043">
        <ele>4.4</ele>
        <time>2012-01-13T14:24:51Z</time>
      </trkpt>
      <trkpt lat="49.1686" lon="-0.39044">
        <ele>4.3</ele>
        <time>2012-01-13T14:24:52Z</time>
      </trkpt>
      <trkpt lat="49.1686" lon="-0.39046">
        <ele>4.3</ele>
        <time>2012-01-13T14:24:53Z</time>
      </trkpt>
      <trkpt lat="49.1686" lon="-0.39047">
        <ele>4.5</ele>
        <time>2012-01-13T14:24:54Z</time>
      </trkpt>
      <trkpt lat="49.1686" lon="-0.39049">
        <ele>4.3</ele>
        <time>2012-01-13T14:24:55Z</time>
      </trkpt>
      <trkpt lat="49.1686" lon="-0.3905">
        <ele>3.7</ele>
        <time>2012-01-13T14:24:56Z</time>
      </trkpt>
      <trkpt lat="49.16859" lon="-0.39052">
        <ele>3.5</ele>
        <time>2012-01-13T14:24:57Z</time>
      </trkpt>
      <trkpt lat="49.16859" lon="-0.39053">
        <ele>3.5</ele>
        <time>2012-01-13T14:24:58Z</time>
      </trkpt>
      <trkpt lat="49.16858" lon="-0.39055">
        <ele>3.5</ele>
        <time>2012-01-13T14:24:59Z</time>
      </trkpt>
      <trkpt lat="49.16858" lon="-0.39057">
        <ele>3.9</ele>
        <time>2012-01-13T14:25:00Z</time>
      </trkpt>
      <trkpt lat="49.16857" lon="-0.39058">
        <ele>4.4</ele>
        <time>2012-01-13T14:25:01Z</time>
      </trkpt>
      <trkpt lat="49.16857" lon="-0.3906">
        <ele>5</ele>
        <time>2012-01-13T14:25:02Z</time>
      </trkpt>
      <trkpt lat="49.16857" lon="-0.39061">
        <ele>5.5</ele>
        <time>2012-01-13T14:25:03Z</time>
      </trkpt>
      <trkpt lat="49.16856" lon="-0.39063">
        <ele>6.3</ele>
        <time>2012-01-13T14:25:04Z</time>
      </trkpt>
      <trkpt lat="49.16856" lon="-0.39064">
        <ele>7</ele>
        <time>2012-01-13T14:25:05Z</time>
      </trkpt>
      <trkpt lat="49.16856" lon="-0.39066">
        <ele>7.4</ele>
        <time>2012-01-13T14:25:06Z</time>
      </trkpt>
      <trkpt lat="49.16855" lon="-0.39067">
        <ele>8.1</ele>
        <time>2012-01-13T14:25:07Z</time>
      </trkpt>
      <trkpt lat="49.16855" lon="-0.39068">
        <ele>8</ele>
        <time>2012-01-13T14:25:08Z</time>
      </trkpt>
      <trkpt lat="49.16854" lon="-0.3907">
        <ele>8.1</ele>
        <time>2012-01-13T14:25:09Z</time>
      </trkpt>
      <trkpt lat="49.16854" lon="-0.39072">
        <ele>8.3</ele>
        <time>2012-01-13T14:25:10Z</time>
      </trkpt>
      <trkpt lat="49.16853" lon="-0.39074">
        <ele>8.5</ele>
        <time>2012-01-13T14:25:11Z</time>
      </trkpt>
      <trkpt lat="49.16853" lon="-0.39075">
        <ele>8.5</ele>
        <time>2012-01-13T14:25:12Z</time>
      </trkpt>
      <trkpt lat="49.16852" lon="-0.39077">
        <ele>8.3</ele>
        <time>2012-01-13T14:25:13Z</time>
      </trkpt>
      <trkpt lat="49.16852" lon="-0.39078">
        <ele>8.6</ele>
        <time>2012-01-13T14:25:14Z</time>
      </trkpt>
      <trkpt lat="49.16852" lon="-0.3908">
        <ele>9</ele>
        <time>2012-01-13T14:25:15Z</time>
      </trkpt>
      <trkpt lat="49.16852" lon="-0.39082">
        <ele>9.3</ele>
        <time>2012-01-13T14:25:16Z</time>
      </trkpt>
      <trkpt lat="49.16851" lon="-0.39084">
        <ele>9.3</ele>
        <time>2012-01-13T14:25:17Z</time>
      </trkpt>
      <trkpt lat="49.16851" lon="-0.39086">
        <ele>9.3</ele>
        <time>2012-01-13T14:25:18Z</time>
      </trkpt>
      <trkpt lat="49.16851" lon="-0.39087">
        <ele>9.3</ele>
        <time>2012-01-13T14:25:19Z</time>
      </trkpt>
      <trkpt lat="49.16851" lon="-0.39089">
        <ele>9.5</ele>
        <time>2012-01-13T14:25:20Z</time>
      </trkpt>
      <trkpt lat="49.16851" lon="-0.39091">
        <ele>9.6</ele>
        <time>2012-01-13T14:25:21Z</time>
      </trkpt>
      <trkpt lat="49.1685" lon="-0.39092">
        <ele>9.6</ele>
        <time>2012-01-13T14:25:22Z</time>
      </trkpt>
      <trkpt lat="49.1685" lon="-0.39093">
        <ele>9.6</ele>
        <time>2012-01-13T14:25:23Z</time>
      </trkpt>
      <trkpt lat="49.1685" lon="-0.39095">
        <ele>10.1</ele>
        <time>2012-01-13T14:25:24Z</time>
      </trkpt>
      <trkpt lat="49.1685" lon="-0.39096">
        <ele>10.3</ele>
        <time>2012-01-13T14:25:25Z</time>
      </trkpt>
      <trkpt lat="49.1685" lon="-0.39098">
        <ele>10.1</ele>
        <time>2012-01-13T14:25:26Z</time>
      </trkpt>
      <trkpt lat="49.16849" lon="-0.39099">
        <ele>10.1</ele>
        <time>2012-01-13T14:25:27Z</time>
      </trkpt>
      <trkpt lat="49.1685" lon="-0.39101">
        <ele>10.1</ele>
        <time>2012-01-13T14:25:28Z</time>
      </trkpt>
      <trkpt lat="49.1685" lon="-0.39102">
        <ele>10.3</ele>
        <time>2012-01-13T14:25:29Z</time>
      </trkpt>
      <trkpt lat="49.1685" lon="-0.39104">
        <ele>10.1</ele>
        <time>2012-01-13T14:25:30Z</time>
      </trkpt>
      <trkpt lat="49.16849" lon="-0.39106">
        <ele>10.3</ele>
        <time>2012-01-13T14:25:31Z</time>
      </trkpt>
      <trkpt lat="49.16849" lon="-0.39107">
        <ele>9.6</ele>
        <time>2012-01-13T14:25:32Z</time>
      </trkpt>
      <trkpt lat="49.16849" lon="-0.39109">
        <ele>9.5</ele>
        <time>2012-01-13T14:25:33Z</time>
      </trkpt>
      <trkpt lat="49.16849" lon="-0.39111">
        <ele>9.6</ele>
        <time>2012-01-13T14:25:34Z</time>
      </trkpt>
      <trkpt lat="49.16849" lon="-0.39112">
        <ele>9.6</ele>
        <time>2012-01-13T14:25:35Z</time>
      </trkpt>
      <trkpt lat="49.16848" lon="-0.39114">
        <ele>9.3</ele>
        <time>2012-01-13T14:25:36Z</time>
      </trkpt>
      <trkpt lat="49.16848" lon="-0.39116">
        <ele>9</ele>
        <time>2012-01-13T14:25:37Z</time>
      </trkpt>
      <trkpt lat="49.16849" lon="-0.39117">
        <ele>9.6</ele>
        <time>2012-01-13T14:25:38Z</time>
      </trkpt>
      <trkpt lat="49.16848" lon="-0.39118">
        <ele>9.6</ele>
        <time>2012-01-13T14:25:39Z</time>
      </trkpt>
      <trkpt lat="49.16848" lon="-0.39119">
        <ele>9.8</ele>
        <time>2012-01-13T14:25:40Z</time>
      </trkpt>
      <trkpt lat="49.16847" lon="-0.39121">
        <ele>9.8</ele>
        <time>2012-01-13T14:25:41Z</time>
      </trkpt>
      <trkpt lat="49.16846" lon="-0.39123">
        <ele>9.6</ele>
        <time>2012-01-13T14:25:42Z</time>
      </trkpt>
      <trkpt lat="49.16845" lon="-0.39124">
        <ele>9.6</ele>
        <time>2012-01-13T14:25:43Z</time>
      </trkpt>
      <trkpt lat="49.16845" lon="-0.39125">
        <ele>9.1</ele>
        <time>2012-01-13T14:25:44Z</time>
      </trkpt>
      <trkpt lat="49.16845" lon="-0.39127">
        <ele>9.1</ele>
        <time>2012-01-13T14:25:45Z</time>
      </trkpt>
      <trkpt lat="49.16845" lon="-0.39129">
        <ele>9.3</ele>
        <time>2012-01-13T14:25:46Z</time>
      </trkpt>
      <trkpt lat="49.16845" lon="-0.39131">
        <ele>9.3</ele>
        <time>2012-01-13T14:25:47Z</time>
      </trkpt>
      <trkpt lat="49.16845" lon="-0.39133">
        <ele>9.5</ele>
        <time>2012-01-13T14:25:48Z</time>
      </trkpt>
      <trkpt lat="49.16845" lon="-0.39134">
        <ele>9.6</ele>
        <time>2012-01-13T14:25:49Z</time>
      </trkpt>
      <trkpt lat="49.16845" lon="-0.39136">
        <ele>9.6</ele>
        <time>2012-01-13T14:25:50Z</time>
      </trkpt>
      <trkpt lat="49.16844" lon="-0.39137">
        <ele>9.3</ele>
        <time>2012-01-13T14:25:51Z</time>
      </trkpt>
      <trkpt lat="49.16844" lon="-0.39139">
        <ele>9.6</ele>
        <time>2012-01-13T14:25:52Z</time>
      </trkpt>
      <trkpt lat="49.16843" lon="-0.3914">
        <ele>9.6</ele>
        <time>2012-01-13T14:25:53Z</time>
      </trkpt>
      <trkpt lat="49.16843" lon="-0.39142">
        <ele>9.6</ele>
        <time>2012-01-13T14:25:54Z</time>
      </trkpt>
      <trkpt lat="49.16843" lon="-0.39143">
        <ele>9.6</ele>
        <time>2012-01-13T14:25:55Z</time>
      </trkpt>
      <trkpt lat="49.16843" lon="-0.39144">
        <ele>9.6</ele>
        <time>2012-01-13T14:25:56Z</time>
      </trkpt>
      <trkpt lat="49.16842" lon="-0.39146">
        <ele>9.6</ele>
        <time>2012-01-13T14:25:57Z</time>
      </trkpt>
      <trkpt lat="49.16842" lon="-0.39148">
        <ele>9.8</ele>
        <time>2012-01-13T14:25:58Z</time>
      </trkpt>
      <trkpt lat="49.16842" lon="-0.3915">
        <ele>10</ele>
        <time>2012-01-13T14:25:59Z</time>
      </trkpt>
      <trkpt lat="49.16842" lon="-0.39151">
        <ele>10.1</ele>
        <time>2012-01-13T14:26:00Z</time>
      </trkpt>
      <trkpt lat="49.16843" lon="-0.39153">
        <ele>10.8</ele>
        <time>2012-01-13T14:26:01Z</time>
      </trkpt>
      <trkpt lat="49.16843" lon="-0.39155">
        <ele>11.1</ele>
        <time>2012-01-13T14:26:02Z</time>
      </trkpt>
      <trkpt lat="49.16844" lon="-0.39157">
        <ele>11</ele>
        <time>2012-01-13T14:26:03Z</time>
      </trkpt>
      <trkpt lat="49.16844" lon="-0.39159">
        <ele>11.3</ele>
        <time>2012-01-13T14:26:04Z</time>
      </trkpt>
      <trkpt lat="49.16843" lon="-0.3916">
        <ele>11.3</ele>
        <time>2012-01-13T14:26:05Z</time>
      </trkpt>
      <trkpt lat="49.16843" lon="-0.39162">
        <ele>11.1</ele>
        <time>2012-01-13T14:26:06Z</time>
      </trkpt>
      <trkpt lat="49.16843" lon="-0.39163">
        <ele>11.5</ele>
        <time>2012-01-13T14:26:07Z</time>
      </trkpt>
      <trkpt lat="49.16843" lon="-0.39165">
        <ele>11.3</ele>
        <time>2012-01-13T14:26:08Z</time>
      </trkpt>
      <trkpt lat="49.16842" lon="-0.39167">
        <ele>11.3</ele>
        <time>2012-01-13T14:26:09Z</time>
      </trkpt>
      <trkpt lat="49.16841" lon="-0.39168">
        <ele>11.3</ele>
        <time>2012-01-13T14:26:10Z</time>
      </trkpt>
      <trkpt lat="49.16841" lon="-0.3917">
        <ele>11.5</ele>
        <time>2012-01-13T14:26:11Z</time>
      </trkpt>
      <trkpt lat="49.16841" lon="-0.39171">
        <ele>11.3</ele>
        <time>2012-01-13T14:26:12Z</time>
      </trkpt>
      <trkpt lat="49.16841" lon="-0.39173">
        <ele>11.1</ele>
        <time>2012-01-13T14:26:13Z</time>
      </trkpt>
      <trkpt lat="49.16842" lon="-0.39175">
        <ele>11.3</ele>
        <time>2012-01-13T14:26:14Z</time>
      </trkpt>
      <trkpt lat="49.16842" lon="-0.39176">
        <ele>11.8</ele>
        <time>2012-01-13T14:26:15Z</time>
      </trkpt>
      <trkpt lat="49.16843" lon="-0.39178">
        <ele>11.8</ele>
        <time>2012-01-13T14:26:16Z</time>
      </trkpt>
      <trkpt lat="49.16843" lon="-0.39179">
        <ele>11.6</ele>
        <time>2012-01-13T14:26:17Z</time>
      </trkpt>
      <trkpt lat="49.16843" lon="-0.39181">
        <ele>11.1</ele>
        <time>2012-01-13T14:26:18Z</time>
      </trkpt>
      <trkpt lat="49.16843" lon="-0.39182">
        <ele>10.6</ele>
        <time>2012-01-13T14:26:19Z</time>
      </trkpt>
      <trkpt lat="49.16843" lon="-0.39184">
        <ele>10.5</ele>
        <time>2012-01-13T14:26:20Z</time>
      </trkpt>
      <trkpt lat="49.16843" lon="-0.39185">
        <ele>10.5</ele>
        <time>2012-01-13T14:26:21Z</time>
      </trkpt>
      <trkpt lat="49.16844" lon="-0.39187">
        <ele>10</ele>
        <time>2012-01-13T14:26:22Z</time>
      </trkpt>
      <trkpt lat="49.16844" lon="-0.39188">
        <ele>9.3</ele>
        <time>2012-01-13T14:26:23Z</time>
      </trkpt>
      <trkpt lat="49.16844" lon="-0.3919">
        <ele>9</ele>
        <time>2012-01-13T14:26:24Z</time>
      </trkpt>
      <trkpt lat="49.16844" lon="-0.39191">
        <ele>9</ele>
        <time>2012-01-13T14:26:25Z</time>
      </trkpt>
      <trkpt lat="49.16844" lon="-0.39192">
        <ele>9</ele>
        <time>2012-01-13T14:26:26Z</time>
      </trkpt>
      <trkpt lat="49.16845" lon="-0.39193">
        <ele>8.6</ele>
        <time>2012-01-13T14:26:27Z</time>
      </trkpt>
      <trkpt lat="49.16844" lon="-0.39194">
        <ele>8.1</ele>
        <time>2012-01-13T14:26:28Z</time>
      </trkpt>
      <trkpt lat="49.16845" lon="-0.39196">
        <ele>7.9</ele>
        <time>2012-01-13T14:26:29Z</time>
      </trkpt>
      <trkpt lat="49.16845" lon="-0.39197">
        <ele>7.5</ele>
        <time>2012-01-13T14:26:30Z</time>
      </trkpt>
      <trkpt lat="49.16845" lon="-0.39199">
        <ele>7.5</ele>
        <time>2012-01-13T14:26:31Z</time>
      </trkpt>
      <trkpt lat="49.16845" lon="-0.392">
        <ele>7.8</ele>
        <time>2012-01-13T14:26:32Z</time>
      </trkpt>
      <trkpt lat="49.16845" lon="-0.39203">
        <ele>9.3</ele>
        <time>2012-01-13T14:26:34Z</time>
      </trkpt>
      <trkpt lat="49.16845" lon="-0.39204">
        <ele>9</ele>
        <time>2012-01-13T14:26:35Z</time>
      </trkpt>
      <trkpt lat="49.16845" lon="-0.39207">
        <ele>8.8</ele>
        <time>2012-01-13T14:26:36Z</time>
      </trkpt>
      <trkpt lat="49.16845" lon="-0.39209">
        <ele>8.8</ele>
        <time>2012-01-13T14:26:37Z</time>
      </trkpt>
      <trkpt lat="49.16845" lon="-0.3921">
        <ele>8.8</ele>
        <time>2012-01-13T14:26:38Z</time>
      </trkpt>
      <trkpt lat="49.16845" lon="-0.39212">
        <ele>8.6</ele>
        <time>2012-01-13T14:26:39Z</time>
      </trkpt>
      <trkpt lat="49.16845" lon="-0.39213">
        <ele>8.1</ele>
        <time>2012-01-13T14:26:40Z</time>
      </trkpt>
      <trkpt lat="49.16845" lon="-0.39215">
        <ele>8.6</ele>
        <time>2012-01-13T14:26:41Z</time>
      </trkpt>
      <trkpt lat="49.16846" lon="-0.39217">
        <ele>9</ele>
        <time>2012-01-13T14:26:42Z</time>
      </trkpt>
      <trkpt lat="49.16846" lon="-0.39219">
        <ele>8.8</ele>
        <time>2012-01-13T14:26:43Z</time>
      </trkpt>
      <trkpt lat="49.16846" lon="-0.3922">
        <ele>8.8</ele>
        <time>2012-01-13T14:26:44Z</time>
      </trkpt>
      <trkpt lat="49.16846" lon="-0.39222">
        <ele>9.1</ele>
        <time>2012-01-13T14:26:45Z</time>
      </trkpt>
      <trkpt lat="49.16846" lon="-0.39224">
        <ele>9.1</ele>
        <time>2012-01-13T14:26:46Z</time>
      </trkpt>
      <trkpt lat="49.16846" lon="-0.39226">
        <ele>9</ele>
        <time>2012-01-13T14:26:47Z</time>
      </trkpt>
      <trkpt lat="49.16846" lon="-0.39227">
        <ele>8.6</ele>
        <time>2012-01-13T14:26:48Z</time>
      </trkpt>
      <trkpt lat="49.16846" lon="-0.39229">
        <ele>8.1</ele>
        <time>2012-01-13T14:26:49Z</time>
      </trkpt>
      <trkpt lat="49.16846" lon="-0.39231">
        <ele>8.6</ele>
        <time>2012-01-13T14:26:50Z</time>
      </trkpt>
      <trkpt lat="49.16846" lon="-0.39232">
        <ele>8.6</ele>
        <time>2012-01-13T14:26:51Z</time>
      </trkpt>
      <trkpt lat="49.16846" lon="-0.39233">
        <ele>8.5</ele>
        <time>2012-01-13T14:26:52Z</time>
      </trkpt>
      <trkpt lat="49.16846" lon="-0.39234">
        <ele>8.3</ele>
        <time>2012-01-13T14:26:53Z</time>
      </trkpt>
      <trkpt lat="49.16845" lon="-0.39235">
        <ele>8.5</ele>
        <time>2012-01-13T14:26:54Z</time>
      </trkpt>
      <trkpt lat="49.16845" lon="-0.39237">
        <ele>8.6</ele>
        <time>2012-01-13T14:26:55Z</time>
      </trkpt>
      <trkpt lat="49.16844" lon="-0.39238">
        <ele>8.6</ele>
        <time>2012-01-13T14:26:56Z</time>
      </trkpt>
      <trkpt lat="49.16845" lon="-0.3924">
        <ele>8.8</ele>
        <time>2012-01-13T14:26:57Z</time>
      </trkpt>
      <trkpt lat="49.16845" lon="-0.39242">
        <ele>9</ele>
        <time>2012-01-13T14:26:58Z</time>
      </trkpt>
      <trkpt lat="49.16844" lon="-0.39243">
        <ele>9.1</ele>
        <time>2012-01-13T14:26:59Z</time>
      </trkpt>
      <trkpt lat="49.16844" lon="-0.39245">
        <ele>9.1</ele>
        <time>2012-01-13T14:27:00Z</time>
      </trkpt>
      <trkpt lat="49.16844" lon="-0.39247">
        <ele>8.8</ele>
        <time>2012-01-13T14:27:01Z</time>
      </trkpt>
      <trkpt lat="49.16844" lon="-0.39249">
        <ele>8.5</ele>
        <time>2012-01-13T14:27:02Z</time>
      </trkpt>
      <trkpt lat="49.16844" lon="-0.3925">
        <ele>8.3</ele>
        <time>2012-01-13T14:27:03Z</time>
      </trkpt>
      <trkpt lat="49.16843" lon="-0.39252">
        <ele>8.3</ele>
        <time>2012-01-13T14:27:04Z</time>
      </trkpt>
      <trkpt lat="49.16843" lon="-0.39254">
        <ele>8</ele>
        <time>2012-01-13T14:27:05Z</time>
      </trkpt>
      <trkpt lat="49.16843" lon="-0.39256">
        <ele>7.8</ele>
        <time>2012-01-13T14:27:06Z</time>
      </trkpt>
      <trkpt lat="49.16843" lon="-0.39257">
        <ele>8.1</ele>
        <time>2012-01-13T14:27:07Z</time>
      </trkpt>
      <trkpt lat="49.16843" lon="-0.39259">
        <ele>8.3</ele>
        <time>2012-01-13T14:27:08Z</time>
      </trkpt>
      <trkpt lat="49.16843" lon="-0.3926">
        <ele>8.5</ele>
        <time>2012-01-13T14:27:09Z</time>
      </trkpt>
      <trkpt lat="49.16843" lon="-0.39262">
        <ele>8.6</ele>
        <time>2012-01-13T14:27:10Z</time>
      </trkpt>
      <trkpt lat="49.16842" lon="-0.39264">
        <ele>8.6</ele>
        <time>2012-01-13T14:27:11Z</time>
      </trkpt>
      <trkpt lat="49.16842" lon="-0.39265">
        <ele>8.5</ele>
        <time>2012-01-13T14:27:12Z</time>
      </trkpt>
      <trkpt lat="49.16842" lon="-0.39267">
        <ele>8.6</ele>
        <time>2012-01-13T14:27:13Z</time>
      </trkpt>
      <trkpt lat="49.16842" lon="-0.39268">
        <ele>8.8</ele>
        <time>2012-01-13T14:27:14Z</time>
      </trkpt>
      <trkpt lat="49.16842" lon="-0.3927">
        <ele>8.8</ele>
        <time>2012-01-13T14:27:15Z</time>
      </trkpt>
      <trkpt lat="49.16842" lon="-0.39272">
        <ele>8.8</ele>
        <time>2012-01-13T14:27:16Z</time>
      </trkpt>
      <trkpt lat="49.16842" lon="-0.39273">
        <ele>8.8</ele>
        <time>2012-01-13T14:27:17Z</time>
      </trkpt>
      <trkpt lat="49.16842" lon="-0.39275">
        <ele>8.8</ele>
        <time>2012-01-13T14:27:18Z</time>
      </trkpt>
      <trkpt lat="49.16842" lon="-0.39276">
        <ele>8.5</ele>
        <time>2012-01-13T14:27:19Z</time>
      </trkpt>
      <trkpt lat="49.16842" lon="-0.39278">
        <ele>8.6</ele>
        <time>2012-01-13T14:27:20Z</time>
      </trkpt>
      <trkpt lat="49.16842" lon="-0.3928">
        <ele>8.6</ele>
        <time>2012-01-13T14:27:21Z</time>
      </trkpt>
      <trkpt lat="49.16842" lon="-0.39282">
        <ele>8.8</ele>
        <time>2012-01-13T14:27:22Z</time>
      </trkpt>
      <trkpt lat="49.16842" lon="-0.39283">
        <ele>9.3</ele>
        <time>2012-01-13T14:27:23Z</time>
      </trkpt>
      <trkpt lat="49.16842" lon="-0.39284">
        <ele>9.6</ele>
        <time>2012-01-13T14:27:24Z</time>
      </trkpt>
      <trkpt lat="49.16842" lon="-0.39285">
        <ele>9.6</ele>
        <time>2012-01-13T14:27:25Z</time>
      </trkpt>
      <trkpt lat="49.16842" lon="-0.39287">
        <ele>10</ele>
        <time>2012-01-13T14:27:26Z</time>
      </trkpt>
      <trkpt lat="49.16842" lon="-0.39289">
        <ele>10.1</ele>
        <time>2012-01-13T14:27:27Z</time>
      </trkpt>
      <trkpt lat="49.16842" lon="-0.3929">
        <ele>10.6</ele>
        <time>2012-01-13T14:27:28Z</time>
      </trkpt>
      <trkpt lat="49.16842" lon="-0.39291">
        <ele>10.8</ele>
        <time>2012-01-13T14:27:29Z</time>
      </trkpt>
      <trkpt lat="49.16841" lon="-0.39292">
        <ele>10.6</ele>
        <time>2012-01-13T14:27:30Z</time>
      </trkpt>
      <trkpt lat="49.16841" lon="-0.39294">
        <ele>10.8</ele>
        <time>2012-01-13T14:27:31Z</time>
      </trkpt>
      <trkpt lat="49.16841" lon="-0.39296">
        <ele>10.6</ele>
        <time>2012-01-13T14:27:32Z</time>
      </trkpt>
      <trkpt lat="49.1684" lon="-0.39298">
        <ele>10.3</ele>
        <time>2012-01-13T14:27:33Z</time>
      </trkpt>
      <trkpt lat="49.1684" lon="-0.39299">
        <ele>10</ele>
        <time>2012-01-13T14:27:34Z</time>
      </trkpt>
      <trkpt lat="49.1684" lon="-0.393">
        <ele>10</ele>
        <time>2012-01-13T14:27:35Z</time>
      </trkpt>
      <trkpt lat="49.1684" lon="-0.39302">
        <ele>10</ele>
        <time>2012-01-13T14:27:36Z</time>
      </trkpt>
      <trkpt lat="49.1684" lon="-0.39303">
        <ele>10</ele>
        <time>2012-01-13T14:27:37Z</time>
      </trkpt>
      <trkpt lat="49.16839" lon="-0.39305">
        <ele>9.5</ele>
        <time>2012-01-13T14:27:38Z</time>
      </trkpt>
      <trkpt lat="49.16839" lon="-0.39307">
        <ele>9.1</ele>
        <time>2012-01-13T14:27:39Z</time>
      </trkpt>
      <trkpt lat="49.16839" lon="-0.39309">
        <ele>9.5</ele>
        <time>2012-01-13T14:27:40Z</time>
      </trkpt>
      <trkpt lat="49.16839" lon="-0.3931">
        <ele>9.8</ele>
        <time>2012-01-13T14:27:41Z</time>
      </trkpt>
      <trkpt lat="49.16839" lon="-0.39312">
        <ele>9.8</ele>
        <time>2012-01-13T14:27:42Z</time>
      </trkpt>
      <trkpt lat="49.16839" lon="-0.39314">
        <ele>10</ele>
        <time>2012-01-13T14:27:43Z</time>
      </trkpt>
      <trkpt lat="49.16839" lon="-0.39316">
        <ele>9.8</ele>
        <time>2012-01-13T14:27:44Z</time>
      </trkpt>
      <trkpt lat="49.16839" lon="-0.39317">
        <ele>9.6</ele>
        <time>2012-01-13T14:27:45Z</time>
      </trkpt>
      <trkpt lat="49.16839" lon="-0.39319">
        <ele>9.6</ele>
        <time>2012-01-13T14:27:46Z</time>
      </trkpt>
      <trkpt lat="49.1684" lon="-0.3932">
        <ele>9.5</ele>
        <time>2012-01-13T14:27:47Z</time>
      </trkpt>
      <trkpt lat="49.16839" lon="-0.39322">
        <ele>8.8</ele>
        <time>2012-01-13T14:27:48Z</time>
      </trkpt>
      <trkpt lat="49.16839" lon="-0.39325">
        <ele>8.6</ele>
        <time>2012-01-13T14:27:49Z</time>
      </trkpt>
      <trkpt lat="49.16839" lon="-0.39326">
        <ele>8.5</ele>
        <time>2012-01-13T14:27:50Z</time>
      </trkpt>
      <trkpt lat="49.16839" lon="-0.39327">
        <ele>8.8</ele>
        <time>2012-01-13T14:27:51Z</time>
      </trkpt>
      <trkpt lat="49.16839" lon="-0.39329">
        <ele>9.1</ele>
        <time>2012-01-13T14:27:52Z</time>
      </trkpt>
      <trkpt lat="49.16839" lon="-0.3933">
        <ele>9.3</ele>
        <time>2012-01-13T14:27:53Z</time>
      </trkpt>
      <trkpt lat="49.16839" lon="-0.39332">
        <ele>9.5</ele>
        <time>2012-01-13T14:27:54Z</time>
      </trkpt>
      <trkpt lat="49.16839" lon="-0.39334">
        <ele>9.1</ele>
        <time>2012-01-13T14:27:55Z</time>
      </trkpt>
      <trkpt lat="49.16839" lon="-0.39336">
        <ele>9.3</ele>
        <time>2012-01-13T14:27:56Z</time>
      </trkpt>
      <trkpt lat="49.16839" lon="-0.39337">
        <ele>9.5</ele>
        <time>2012-01-13T14:27:57Z</time>
      </trkpt>
      <trkpt lat="49.16839" lon="-0.39338">
        <ele>9.8</ele>
        <time>2012-01-13T14:27:58Z</time>
      </trkpt>
      <trkpt lat="49.16838" lon="-0.3934">
        <ele>10</ele>
        <time>2012-01-13T14:27:59Z</time>
      </trkpt>
      <trkpt lat="49.16838" lon="-0.39342">
        <ele>10.1</ele>
        <time>2012-01-13T14:28:00Z</time>
      </trkpt>
      <trkpt lat="49.16838" lon="-0.39343">
        <ele>10.6</ele>
        <time>2012-01-13T14:28:01Z</time>
      </trkpt>
      <trkpt lat="49.16838" lon="-0.39345">
        <ele>10.8</ele>
        <time>2012-01-13T14:28:02Z</time>
      </trkpt>
      <trkpt lat="49.16838" lon="-0.39346">
        <ele>11.3</ele>
        <time>2012-01-13T14:28:03Z</time>
      </trkpt>
      <trkpt lat="49.16839" lon="-0.39348">
        <ele>11.6</ele>
        <time>2012-01-13T14:28:04Z</time>
      </trkpt>
      <trkpt lat="49.16839" lon="-0.3935">
        <ele>12.1</ele>
        <time>2012-01-13T14:28:05Z</time>
      </trkpt>
      <trkpt lat="49.16839" lon="-0.39352">
        <ele>11.6</ele>
        <time>2012-01-13T14:28:06Z</time>
      </trkpt>
      <trkpt lat="49.16839" lon="-0.39353">
        <ele>11.8</ele>
        <time>2012-01-13T14:28:07Z</time>
      </trkpt>
      <trkpt lat="49.16839" lon="-0.39355">
        <ele>11.8</ele>
        <time>2012-01-13T14:28:08Z</time>
      </trkpt>
      <trkpt lat="49.16839" lon="-0.39356">
        <ele>11.5</ele>
        <time>2012-01-13T14:28:09Z</time>
      </trkpt>
      <trkpt lat="49.16839" lon="-0.39358">
        <ele>11.3</ele>
        <time>2012-01-13T14:28:10Z</time>
      </trkpt>
      <trkpt lat="49.16839" lon="-0.3936">
        <ele>11.3</ele>
        <time>2012-01-13T14:28:11Z</time>
      </trkpt>
      <trkpt lat="49.16839" lon="-0.39362">
        <ele>11.3</ele>
        <time>2012-01-13T14:28:12Z</time>
      </trkpt>
      <trkpt lat="49.16839" lon="-0.39363">
        <ele>11.6</ele>
        <time>2012-01-13T14:28:13Z</time>
      </trkpt>
      <trkpt lat="49.16839" lon="-0.39365">
        <ele>11.6</ele>
        <time>2012-01-13T14:28:14Z</time>
      </trkpt>
      <trkpt lat="49.16839" lon="-0.39367">
        <ele>11.6</ele>
        <time>2012-01-13T14:28:15Z</time>
      </trkpt>
      <trkpt lat="49.16839" lon="-0.39369">
        <ele>11.5</ele>
        <time>2012-01-13T14:28:16Z</time>
      </trkpt>
      <trkpt lat="49.16839" lon="-0.3937">
        <ele>11.1</ele>
        <time>2012-01-13T14:28:17Z</time>
      </trkpt>
      <trkpt lat="49.16839" lon="-0.39372">
        <ele>11.5</ele>
        <time>2012-01-13T14:28:18Z</time>
      </trkpt>
      <trkpt lat="49.16839" lon="-0.39374">
        <ele>10.8</ele>
        <time>2012-01-13T14:28:19Z</time>
      </trkpt>
      <trkpt lat="49.16839" lon="-0.39375">
        <ele>10.5</ele>
        <time>2012-01-13T14:28:20Z</time>
      </trkpt>
      <trkpt lat="49.16838" lon="-0.39377">
        <ele>10.3</ele>
        <time>2012-01-13T14:28:21Z</time>
      </trkpt>
      <trkpt lat="49.16838" lon="-0.39379">
        <ele>10.5</ele>
        <time>2012-01-13T14:28:22Z</time>
      </trkpt>
      <trkpt lat="49.16838" lon="-0.39379">
        <ele>10.5</ele>
        <time>2012-01-13T14:28:23Z</time>
      </trkpt>
      <trkpt lat="49.16838" lon="-0.3938">
        <ele>10.3</ele>
        <time>2012-01-13T14:28:24Z</time>
      </trkpt>
      <trkpt lat="49.16838" lon="-0.39382">
        <ele>10.1</ele>
        <time>2012-01-13T14:28:25Z</time>
      </trkpt>
      <trkpt lat="49.16839" lon="-0.39384">
        <ele>10.3</ele>
        <time>2012-01-13T14:28:26Z</time>
      </trkpt>
      <trkpt lat="49.16839" lon="-0.39386">
        <ele>10.1</ele>
        <time>2012-01-13T14:28:27Z</time>
      </trkpt>
      <trkpt lat="49.16839" lon="-0.39387">
        <ele>10.1</ele>
        <time>2012-01-13T14:28:28Z</time>
      </trkpt>
      <trkpt lat="49.16839" lon="-0.39389">
        <ele>10.1</ele>
        <time>2012-01-13T14:28:29Z</time>
      </trkpt>
      <trkpt lat="49.1684" lon="-0.39391">
        <ele>9.8</ele>
        <time>2012-01-13T14:28:30Z</time>
      </trkpt>
      <trkpt lat="49.1684" lon="-0.39392">
        <ele>10</ele>
        <time>2012-01-13T14:28:31Z</time>
      </trkpt>
      <trkpt lat="49.1684" lon="-0.39394">
        <ele>10</ele>
        <time>2012-01-13T14:28:32Z</time>
      </trkpt>
      <trkpt lat="49.1684" lon="-0.39396">
        <ele>9.6</ele>
        <time>2012-01-13T14:28:33Z</time>
      </trkpt>
      <trkpt lat="49.1684" lon="-0.39398">
        <ele>9.6</ele>
        <time>2012-01-13T14:28:34Z</time>
      </trkpt>
      <trkpt lat="49.16841" lon="-0.394">
        <ele>9.5</ele>
        <time>2012-01-13T14:28:35Z</time>
      </trkpt>
      <trkpt lat="49.16841" lon="-0.39402">
        <ele>9.1</ele>
        <time>2012-01-13T14:28:36Z</time>
      </trkpt>
      <trkpt lat="49.16841" lon="-0.39404">
        <ele>8.8</ele>
        <time>2012-01-13T14:28:37Z</time>
      </trkpt>
      <trkpt lat="49.1684" lon="-0.39406">
        <ele>8.3</ele>
        <time>2012-01-13T14:28:38Z</time>
      </trkpt>
      <trkpt lat="49.1684" lon="-0.39408">
        <ele>8.3</ele>
        <time>2012-01-13T14:28:39Z</time>
      </trkpt>
      <trkpt lat="49.1684" lon="-0.39409">
        <ele>8.6</ele>
        <time>2012-01-13T14:28:40Z</time>
      </trkpt>
      <trkpt lat="49.1684" lon="-0.39411">
        <ele>8.6</ele>
        <time>2012-01-13T14:28:41Z</time>
      </trkpt>
      <trkpt lat="49.1684" lon="-0.39412">
        <ele>8.3</ele>
        <time>2012-01-13T14:28:42Z</time>
      </trkpt>
      <trkpt lat="49.1684" lon="-0.39414">
        <ele>8.5</ele>
        <time>2012-01-13T14:28:43Z</time>
      </trkpt>
      <trkpt lat="49.1684" lon="-0.39416">
        <ele>8.3</ele>
        <time>2012-01-13T14:28:44Z</time>
      </trkpt>
      <trkpt lat="49.1684" lon="-0.39418">
        <ele>8.3</ele>
        <time>2012-01-13T14:28:45Z</time>
      </trkpt>
      <trkpt lat="49.1684" lon="-0.3942">
        <ele>8.3</ele>
        <time>2012-01-13T14:28:46Z</time>
      </trkpt>
      <trkpt lat="49.1684" lon="-0.39421">
        <ele>8.1</ele>
        <time>2012-01-13T14:28:47Z</time>
      </trkpt>
      <trkpt lat="49.1684" lon="-0.39423">
        <ele>7.9</ele>
        <time>2012-01-13T14:28:48Z</time>
      </trkpt>
      <trkpt lat="49.16839" lon="-0.39425">
        <ele>7.5</ele>
        <time>2012-01-13T14:28:49Z</time>
      </trkpt>
      <trkpt lat="49.16839" lon="-0.39427">
        <ele>7.8</ele>
        <time>2012-01-13T14:28:50Z</time>
      </trkpt>
      <trkpt lat="49.16839" lon="-0.39428">
        <ele>8.1</ele>
        <time>2012-01-13T14:28:51Z</time>
      </trkpt>
      <trkpt lat="49.16839" lon="-0.3943">
        <ele>8.3</ele>
        <time>2012-01-13T14:28:52Z</time>
      </trkpt>
      <trkpt lat="49.16839" lon="-0.39431">
        <ele>8.5</ele>
        <time>2012-01-13T14:28:53Z</time>
      </trkpt>
      <trkpt lat="49.16838" lon="-0.39433">
        <ele>8.8</ele>
        <time>2012-01-13T14:28:54Z</time>
      </trkpt>
      <trkpt lat="49.16838" lon="-0.39435">
        <ele>9.1</ele>
        <time>2012-01-13T14:28:55Z</time>
      </trkpt>
      <trkpt lat="49.16838" lon="-0.39436">
        <ele>9.6</ele>
        <time>2012-01-13T14:28:56Z</time>
      </trkpt>
      <trkpt lat="49.16838" lon="-0.39437">
        <ele>9.8</ele>
        <time>2012-01-13T14:28:57Z</time>
      </trkpt>
      <trkpt lat="49.16838" lon="-0.39438">
        <ele>10.1</ele>
        <time>2012-01-13T14:28:58Z</time>
      </trkpt>
      <trkpt lat="49.16838" lon="-0.3944">
        <ele>10.1</ele>
        <time>2012-01-13T14:28:59Z</time>
      </trkpt>
      <trkpt lat="49.16837" lon="-0.39441">
        <ele>10.1</ele>
        <time>2012-01-13T14:29:00Z</time>
      </trkpt>
      <trkpt lat="49.16837" lon="-0.39443">
        <ele>10.3</ele>
        <time>2012-01-13T14:29:01Z</time>
      </trkpt>
      <trkpt lat="49.16837" lon="-0.39445">
        <ele>10.3</ele>
        <time>2012-01-13T14:29:02Z</time>
      </trkpt>
      <trkpt lat="49.16836" lon="-0.39447">
        <ele>10.6</ele>
        <time>2012-01-13T14:29:03Z</time>
      </trkpt>
      <trkpt lat="49.16836" lon="-0.39448">
        <ele>10.6</ele>
        <time>2012-01-13T14:29:04Z</time>
      </trkpt>
      <trkpt lat="49.16837" lon="-0.3945">
        <ele>10.6</ele>
        <time>2012-01-13T14:29:05Z</time>
      </trkpt>
      <trkpt lat="49.16837" lon="-0.39452">
        <ele>10.6</ele>
        <time>2012-01-13T14:29:06Z</time>
      </trkpt>
      <trkpt lat="49.16837" lon="-0.39454">
        <ele>11</ele>
        <time>2012-01-13T14:29:07Z</time>
      </trkpt>
      <trkpt lat="49.16837" lon="-0.39456">
        <ele>11.1</ele>
        <time>2012-01-13T14:29:08Z</time>
      </trkpt>
      <trkpt lat="49.16837" lon="-0.39458">
        <ele>11.5</ele>
        <time>2012-01-13T14:29:09Z</time>
      </trkpt>
      <trkpt lat="49.16837" lon="-0.39459">
        <ele>11.3</ele>
        <time>2012-01-13T14:29:10Z</time>
      </trkpt>
      <trkpt lat="49.16837" lon="-0.3946">
        <ele>11.6</ele>
        <time>2012-01-13T14:29:11Z</time>
      </trkpt>
      <trkpt lat="49.16837" lon="-0.39462">
        <ele>11.6</ele>
        <time>2012-01-13T14:29:12Z</time>
      </trkpt>
      <trkpt lat="49.16837" lon="-0.39464">
        <ele>11.3</ele>
        <time>2012-01-13T14:29:13Z</time>
      </trkpt>
      <trkpt lat="49.16837" lon="-0.39466">
        <ele>10.8</ele>
        <time>2012-01-13T14:29:14Z</time>
      </trkpt>
      <trkpt lat="49.16837" lon="-0.39468">
        <ele>10.3</ele>
        <time>2012-01-13T14:29:15Z</time>
      </trkpt>
      <trkpt lat="49.16838" lon="-0.39469">
        <ele>9.8</ele>
        <time>2012-01-13T14:29:16Z</time>
      </trkpt>
      <trkpt lat="49.16838" lon="-0.39471">
        <ele>9.5</ele>
        <time>2012-01-13T14:29:17Z</time>
      </trkpt>
      <trkpt lat="49.16837" lon="-0.39473">
        <ele>9.1</ele>
        <time>2012-01-13T14:29:18Z</time>
      </trkpt>
      <trkpt lat="49.16837" lon="-0.39475">
        <ele>9</ele>
        <time>2012-01-13T14:29:19Z</time>
      </trkpt>
      <trkpt lat="49.16837" lon="-0.39477">
        <ele>8.6</ele>
        <time>2012-01-13T14:29:20Z</time>
      </trkpt>
      <trkpt lat="49.16837" lon="-0.39479">
        <ele>8.5</ele>
        <time>2012-01-13T14:29:21Z</time>
      </trkpt>
      <trkpt lat="49.16837" lon="-0.3948">
        <ele>8.5</ele>
        <time>2012-01-13T14:29:22Z</time>
      </trkpt>
      <trkpt lat="49.16837" lon="-0.39482">
        <ele>8.5</ele>
        <time>2012-01-13T14:29:23Z</time>
      </trkpt>
      <trkpt lat="49.16837" lon="-0.39484">
        <ele>8.3</ele>
        <time>2012-01-13T14:29:24Z</time>
      </trkpt>
      <trkpt lat="49.16838" lon="-0.39486">
        <ele>8.1</ele>
        <time>2012-01-13T14:29:25Z</time>
      </trkpt>
      <trkpt lat="49.16838" lon="-0.39487">
        <ele>7.9</ele>
        <time>2012-01-13T14:29:26Z</time>
      </trkpt>
      <trkpt lat="49.16838" lon="-0.39488">
        <ele>7.9</ele>
        <time>2012-01-13T14:29:27Z</time>
      </trkpt>
      <trkpt lat="49.16838" lon="-0.39489">
        <ele>7.5</ele>
        <time>2012-01-13T14:29:28Z</time>
      </trkpt>
      <trkpt lat="49.16838" lon="-0.39491">
        <ele>7.5</ele>
        <time>2012-01-13T14:29:29Z</time>
      </trkpt>
      <trkpt lat="49.16839" lon="-0.39492">
        <ele>7.5</ele>
        <time>2012-01-13T14:29:30Z</time>
      </trkpt>
      <trkpt lat="49.16839" lon="-0.39494">
        <ele>7.5</ele>
        <time>2012-01-13T14:29:31Z</time>
      </trkpt>
      <trkpt lat="49.16839" lon="-0.39496">
        <ele>7.4</ele>
        <time>2012-01-13T14:29:32Z</time>
      </trkpt>
      <trkpt lat="49.16839" lon="-0.39497">
        <ele>7.3</ele>
        <time>2012-01-13T14:29:33Z</time>
      </trkpt>
      <trkpt lat="49.16839" lon="-0.39499">
        <ele>7</ele>
        <time>2012-01-13T14:29:34Z</time>
      </trkpt>
      <trkpt lat="49.16839" lon="-0.39501">
        <ele>7.3</ele>
        <time>2012-01-13T14:29:35Z</time>
      </trkpt>
      <trkpt lat="49.16839" lon="-0.39503">
        <ele>7.4</ele>
        <time>2012-01-13T14:29:36Z</time>
      </trkpt>
      <trkpt lat="49.16839" lon="-0.39504">
        <ele>7.3</ele>
        <time>2012-01-13T14:29:37Z</time>
      </trkpt>
      <trkpt lat="49.16839" lon="-0.39506">
        <ele>7.4</ele>
        <time>2012-01-13T14:29:38Z</time>
      </trkpt>
      <trkpt lat="49.16839" lon="-0.39507">
        <ele>7.5</ele>
        <time>2012-01-13T14:29:39Z</time>
      </trkpt>
      <trkpt lat="49.16839" lon="-0.39509">
        <ele>7.5</ele>
        <time>2012-01-13T14:29:40Z</time>
      </trkpt>
      <trkpt lat="49.16839" lon="-0.3951">
        <ele>7.3</ele>
        <time>2012-01-13T14:29:41Z</time>
      </trkpt>
      <trkpt lat="49.16839" lon="-0.39512">
        <ele>7.3</ele>
        <time>2012-01-13T14:29:42Z</time>
      </trkpt>
      <trkpt lat="49.16839" lon="-0.39514">
        <ele>7.4</ele>
        <time>2012-01-13T14:29:43Z</time>
      </trkpt>
      <trkpt lat="49.16839" lon="-0.39515">
        <ele>7.5</ele>
        <time>2012-01-13T14:29:44Z</time>
      </trkpt>
      <trkpt lat="49.16839" lon="-0.39517">
        <ele>7.5</ele>
        <time>2012-01-13T14:29:45Z</time>
      </trkpt>
      <trkpt lat="49.16838" lon="-0.39519">
        <ele>7.3</ele>
        <time>2012-01-13T14:29:46Z</time>
      </trkpt>
      <trkpt lat="49.16838" lon="-0.39521">
        <ele>7</ele>
        <time>2012-01-13T14:29:47Z</time>
      </trkpt>
      <trkpt lat="49.16838" lon="-0.39523">
        <ele>6.8</ele>
        <time>2012-01-13T14:29:48Z</time>
      </trkpt>
      <trkpt lat="49.16837" lon="-0.39524">
        <ele>7</ele>
        <time>2012-01-13T14:29:49Z</time>
      </trkpt>
      <trkpt lat="49.16837" lon="-0.39525">
        <ele>7</ele>
        <time>2012-01-13T14:29:50Z</time>
      </trkpt>
      <trkpt lat="49.16837" lon="-0.39527">
        <ele>7.3</ele>
        <time>2012-01-13T14:29:51Z</time>
      </trkpt>
      <trkpt lat="49.16837" lon="-0.39528">
        <ele>7.3</ele>
        <time>2012-01-13T14:29:52Z</time>
      </trkpt>
      <trkpt lat="49.16837" lon="-0.3953">
        <ele>7.4</ele>
        <time>2012-01-13T14:29:53Z</time>
      </trkpt>
      <trkpt lat="49.16837" lon="-0.39531">
        <ele>7.8</ele>
        <time>2012-01-13T14:29:54Z</time>
      </trkpt>
      <trkpt lat="49.16837" lon="-0.39532">
        <ele>7.8</ele>
        <time>2012-01-13T14:29:55Z</time>
      </trkpt>
      <trkpt lat="49.16837" lon="-0.39534">
        <ele>7.8</ele>
        <time>2012-01-13T14:29:56Z</time>
      </trkpt>
      <trkpt lat="49.16837" lon="-0.39535">
        <ele>8</ele>
        <time>2012-01-13T14:29:57Z</time>
      </trkpt>
      <trkpt lat="49.16838" lon="-0.39536">
        <ele>8.1</ele>
        <time>2012-01-13T14:29:58Z</time>
      </trkpt>
      <trkpt lat="49.16838" lon="-0.39536">
        <ele>8.5</ele>
        <time>2012-01-13T14:29:59Z</time>
      </trkpt>
      <trkpt lat="49.16838" lon="-0.39537">
        <ele>8.5</ele>
        <time>2012-01-13T14:30:00Z</time>
      </trkpt>
      <trkpt lat="49.16838" lon="-0.39537">
        <ele>8.3</ele>
        <time>2012-01-13T14:30:01Z</time>
      </trkpt>
      <trkpt lat="49.16838" lon="-0.39538">
        <ele>8.6</ele>
        <time>2012-01-13T14:30:02Z</time>
      </trkpt>
      <trkpt lat="49.16838" lon="-0.39539">
        <ele>8.6</ele>
        <time>2012-01-13T14:30:03Z</time>
      </trkpt>
      <trkpt lat="49.16839" lon="-0.3954">
        <ele>8.8</ele>
        <time>2012-01-13T14:30:04Z</time>
      </trkpt>
      <trkpt lat="49.16839" lon="-0.39542">
        <ele>8.8</ele>
        <time>2012-01-13T14:30:05Z</time>
      </trkpt>
      <trkpt lat="49.16839" lon="-0.39544">
        <ele>8.8</ele>
        <time>2012-01-13T14:30:06Z</time>
      </trkpt>
      <trkpt lat="49.16839" lon="-0.39546">
        <ele>8.8</ele>
        <time>2012-01-13T14:30:07Z</time>
      </trkpt>
      <trkpt lat="49.16839" lon="-0.39547">
        <ele>8.5</ele>
        <time>2012-01-13T14:30:08Z</time>
      </trkpt>
      <trkpt lat="49.16839" lon="-0.39549">
        <ele>7.9</ele>
        <time>2012-01-13T14:30:09Z</time>
      </trkpt>
      <trkpt lat="49.16839" lon="-0.3955">
        <ele>7.8</ele>
        <time>2012-01-13T14:30:10Z</time>
      </trkpt>
      <trkpt lat="49.16839" lon="-0.39552">
        <ele>7.8</ele>
        <time>2012-01-13T14:30:11Z</time>
      </trkpt>
      <trkpt lat="49.16839" lon="-0.39554">
        <ele>7.9</ele>
        <time>2012-01-13T14:30:12Z</time>
      </trkpt>
      <trkpt lat="49.16839" lon="-0.39556">
        <ele>8</ele>
        <time>2012-01-13T14:30:13Z</time>
      </trkpt>
      <trkpt lat="49.1684" lon="-0.39558">
        <ele>8.1</ele>
        <time>2012-01-13T14:30:14Z</time>
      </trkpt>
      <trkpt lat="49.1684" lon="-0.39559">
        <ele>8.1</ele>
        <time>2012-01-13T14:30:15Z</time>
      </trkpt>
      <trkpt lat="49.1684" lon="-0.39561">
        <ele>8.1</ele>
        <time>2012-01-13T14:30:16Z</time>
      </trkpt>
      <trkpt lat="49.1684" lon="-0.39562">
        <ele>8.3</ele>
        <time>2012-01-13T14:30:17Z</time>
      </trkpt>
      <trkpt lat="49.1684" lon="-0.39564">
        <ele>8.8</ele>
        <time>2012-01-13T14:30:18Z</time>
      </trkpt>
      <trkpt lat="49.1684" lon="-0.39566">
        <ele>8.6</ele>
        <time>2012-01-13T14:30:19Z</time>
      </trkpt>
      <trkpt lat="49.16839" lon="-0.39568">
        <ele>8.8</ele>
        <time>2012-01-13T14:30:20Z</time>
      </trkpt>
      <trkpt lat="49.16839" lon="-0.39569">
        <ele>9</ele>
        <time>2012-01-13T14:30:21Z</time>
      </trkpt>
      <trkpt lat="49.16839" lon="-0.3957">
        <ele>9.1</ele>
        <time>2012-01-13T14:30:22Z</time>
      </trkpt>
      <trkpt lat="49.16839" lon="-0.39571">
        <ele>9.3</ele>
        <time>2012-01-13T14:30:23Z</time>
      </trkpt>
      <trkpt lat="49.16839" lon="-0.39573">
        <ele>9.6</ele>
        <time>2012-01-13T14:30:24Z</time>
      </trkpt>
      <trkpt lat="49.16839" lon="-0.39575">
        <ele>10.1</ele>
        <time>2012-01-13T14:30:25Z</time>
      </trkpt>
      <trkpt lat="49.16839" lon="-0.39577">
        <ele>10.1</ele>
        <time>2012-01-13T14:30:26Z</time>
      </trkpt>
      <trkpt lat="49.16839" lon="-0.39578">
        <ele>10.6</ele>
        <time>2012-01-13T14:30:27Z</time>
      </trkpt>
      <trkpt lat="49.16839" lon="-0.39579">
        <ele>11.1</ele>
        <time>2012-01-13T14:30:28Z</time>
      </trkpt>
      <trkpt lat="49.16839" lon="-0.39581">
        <ele>11.5</ele>
        <time>2012-01-13T14:30:29Z</time>
      </trkpt>
      <trkpt lat="49.16839" lon="-0.39583">
        <ele>12</ele>
        <time>2012-01-13T14:30:30Z</time>
      </trkpt>
      <trkpt lat="49.16838" lon="-0.39584">
        <ele>12.6</ele>
        <time>2012-01-13T14:30:31Z</time>
      </trkpt>
      <trkpt lat="49.16838" lon="-0.39586">
        <ele>12.8</ele>
        <time>2012-01-13T14:30:32Z</time>
      </trkpt>
      <trkpt lat="49.16838" lon="-0.39587">
        <ele>13.3</ele>
        <time>2012-01-13T14:30:33Z</time>
      </trkpt>
      <trkpt lat="49.16838" lon="-0.39588">
        <ele>13.6</ele>
        <time>2012-01-13T14:30:34Z</time>
      </trkpt>
      <trkpt lat="49.16838" lon="-0.3959">
        <ele>14</ele>
        <time>2012-01-13T14:30:35Z</time>
      </trkpt>
      <trkpt lat="49.16838" lon="-0.39591">
        <ele>14.3</ele>
        <time>2012-01-13T14:30:36Z</time>
      </trkpt>
      <trkpt lat="49.16837" lon="-0.39593">
        <ele>14.3</ele>
        <time>2012-01-13T14:30:37Z</time>
      </trkpt>
      <trkpt lat="49.16837" lon="-0.39595">
        <ele>14.5</ele>
        <time>2012-01-13T14:30:38Z</time>
      </trkpt>
      <trkpt lat="49.16837" lon="-0.39597">
        <ele>14</ele>
        <time>2012-01-13T14:30:39Z</time>
      </trkpt>
      <trkpt lat="49.16837" lon="-0.39599">
        <ele>14</ele>
        <time>2012-01-13T14:30:40Z</time>
      </trkpt>
      <trkpt lat="49.16837" lon="-0.39601">
        <ele>13.6</ele>
        <time>2012-01-13T14:30:41Z</time>
      </trkpt>
      <trkpt lat="49.16837" lon="-0.39604">
        <ele>13.1</ele>
        <time>2012-01-13T14:30:42Z</time>
      </trkpt>
      <trkpt lat="49.16837" lon="-0.39605">
        <ele>12.8</ele>
        <time>2012-01-13T14:30:43Z</time>
      </trkpt>
      <trkpt lat="49.16836" lon="-0.39607">
        <ele>13.1</ele>
        <time>2012-01-13T14:30:44Z</time>
      </trkpt>
      <trkpt lat="49.16836" lon="-0.39608">
        <ele>13.1</ele>
        <time>2012-01-13T14:30:45Z</time>
      </trkpt>
      <trkpt lat="49.16837" lon="-0.3961">
        <ele>12.8</ele>
        <time>2012-01-13T14:30:46Z</time>
      </trkpt>
      <trkpt lat="49.16837" lon="-0.39612">
        <ele>12.6</ele>
        <time>2012-01-13T14:30:47Z</time>
      </trkpt>
      <trkpt lat="49.16837" lon="-0.39615">
        <ele>12.1</ele>
        <time>2012-01-13T14:30:48Z</time>
      </trkpt>
      <trkpt lat="49.16837" lon="-0.39617">
        <ele>11.6</ele>
        <time>2012-01-13T14:30:49Z</time>
      </trkpt>
      <trkpt lat="49.16837" lon="-0.39619">
        <ele>11.3</ele>
        <time>2012-01-13T14:30:50Z</time>
      </trkpt>
      <trkpt lat="49.16837" lon="-0.39621">
        <ele>11.1</ele>
        <time>2012-01-13T14:30:51Z</time>
      </trkpt>
      <trkpt lat="49.16837" lon="-0.39623">
        <ele>10.6</ele>
        <time>2012-01-13T14:30:52Z</time>
      </trkpt>
      <trkpt lat="49.16837" lon="-0.39625">
        <ele>10.5</ele>
        <time>2012-01-13T14:30:53Z</time>
      </trkpt>
      <trkpt lat="49.16837" lon="-0.39627">
        <ele>9.8</ele>
        <time>2012-01-13T14:30:54Z</time>
      </trkpt>
      <trkpt lat="49.16838" lon="-0.39629">
        <ele>9.3</ele>
        <time>2012-01-13T14:30:55Z</time>
      </trkpt>
      <trkpt lat="49.16838" lon="-0.39631">
        <ele>8.5</ele>
        <time>2012-01-13T14:30:56Z</time>
      </trkpt>
      <trkpt lat="49.16838" lon="-0.39632">
        <ele>8.3</ele>
        <time>2012-01-13T14:30:57Z</time>
      </trkpt>
      <trkpt lat="49.16838" lon="-0.39632">
        <ele>8.3</ele>
        <time>2012-01-13T14:30:58Z</time>
      </trkpt>
      <trkpt lat="49.16839" lon="-0.39633">
        <ele>8.1</ele>
        <time>2012-01-13T14:30:59Z</time>
      </trkpt>
      <trkpt lat="49.16839" lon="-0.39634">
        <ele>8</ele>
        <time>2012-01-13T14:31:00Z</time>
      </trkpt>
      <trkpt lat="49.16839" lon="-0.39636">
        <ele>7.5</ele>
        <time>2012-01-13T14:31:01Z</time>
      </trkpt>
      <trkpt lat="49.16839" lon="-0.39637">
        <ele>6.9</ele>
        <time>2012-01-13T14:31:02Z</time>
      </trkpt>
      <trkpt lat="49.1684" lon="-0.39638">
        <ele>6</ele>
        <time>2012-01-13T14:31:03Z</time>
      </trkpt>
      <trkpt lat="49.1684" lon="-0.3964">
        <ele>5.5</ele>
        <time>2012-01-13T14:31:04Z</time>
      </trkpt>
      <trkpt lat="49.16841" lon="-0.39641">
        <ele>5</ele>
        <time>2012-01-13T14:31:05Z</time>
      </trkpt>
      <trkpt lat="49.16841" lon="-0.39643">
        <ele>4.9</ele>
        <time>2012-01-13T14:31:06Z</time>
      </trkpt>
      <trkpt lat="49.16841" lon="-0.39644">
        <ele>4.5</ele>
        <time>2012-01-13T14:31:07Z</time>
      </trkpt>
      <trkpt lat="49.16841" lon="-0.39645">
        <ele>4.5</ele>
        <time>2012-01-13T14:31:08Z</time>
      </trkpt>
      <trkpt lat="49.16842" lon="-0.39647">
        <ele>4.5</ele>
        <time>2012-01-13T14:31:09Z</time>
      </trkpt>
      <trkpt lat="49.16842" lon="-0.39648">
        <ele>4</ele>
        <time>2012-01-13T14:31:10Z</time>
      </trkpt>
      <trkpt lat="49.16843" lon="-0.39649">
        <ele>3.7</ele>
        <time>2012-01-13T14:31:11Z</time>
      </trkpt>
      <trkpt lat="49.16843" lon="-0.3965">
        <ele>3.5</ele>
        <time>2012-01-13T14:31:12Z</time>
      </trkpt>
      <trkpt lat="49.16843" lon="-0.39652">
        <ele>3.5</ele>
        <time>2012-01-13T14:31:13Z</time>
      </trkpt>
      <trkpt lat="49.16844" lon="-0.39653">
        <ele>3</ele>
        <time>2012-01-13T14:31:14Z</time>
      </trkpt>
      <trkpt lat="49.16844" lon="-0.39654">
        <ele>3</ele>
        <time>2012-01-13T14:31:15Z</time>
      </trkpt>
      <trkpt lat="49.16844" lon="-0.39656">
        <ele>3.2</ele>
        <time>2012-01-13T14:31:16Z</time>
      </trkpt>
      <trkpt lat="49.16845" lon="-0.39657">
        <ele>3.5</ele>
        <time>2012-01-13T14:31:17Z</time>
      </trkpt>
      <trkpt lat="49.16845" lon="-0.39658">
        <ele>3.7</ele>
        <time>2012-01-13T14:31:18Z</time>
      </trkpt>
      <trkpt lat="49.16845" lon="-0.39659">
        <ele>4</ele>
        <time>2012-01-13T14:31:19Z</time>
      </trkpt>
      <trkpt lat="49.16846" lon="-0.3966">
        <ele>4.5</ele>
        <time>2012-01-13T14:31:20Z</time>
      </trkpt>
      <trkpt lat="49.16846" lon="-0.39662">
        <ele>4.5</ele>
        <time>2012-01-13T14:31:21Z</time>
      </trkpt>
      <trkpt lat="49.16846" lon="-0.39664">
        <ele>4.5</ele>
        <time>2012-01-13T14:31:22Z</time>
      </trkpt>
      <trkpt lat="49.16846" lon="-0.39665">
        <ele>4.9</ele>
        <time>2012-01-13T14:31:23Z</time>
      </trkpt>
      <trkpt lat="49.16846" lon="-0.39666">
        <ele>4.5</ele>
        <time>2012-01-13T14:31:24Z</time>
      </trkpt>
      <trkpt lat="49.16847" lon="-0.39668">
        <ele>4.8</ele>
        <time>2012-01-13T14:31:25Z</time>
      </trkpt>
      <trkpt lat="49.16847" lon="-0.39669">
        <ele>4.5</ele>
        <time>2012-01-13T14:31:26Z</time>
      </trkpt>
      <trkpt lat="49.16848" lon="-0.3967">
        <ele>4.5</ele>
        <time>2012-01-13T14:31:27Z</time>
      </trkpt>
      <trkpt lat="49.16847" lon="-0.39671">
        <ele>5</ele>
        <time>2012-01-13T14:31:28Z</time>
      </trkpt>
      <trkpt lat="49.16847" lon="-0.39672">
        <ele>5.8</ele>
        <time>2012-01-13T14:31:29Z</time>
      </trkpt>
      <trkpt lat="49.16847" lon="-0.39672">
        <ele>6.5</ele>
        <time>2012-01-13T14:31:30Z</time>
      </trkpt>
      <trkpt lat="49.16847" lon="-0.39673">
        <ele>7</ele>
        <time>2012-01-13T14:31:31Z</time>
      </trkpt>
      <trkpt lat="49.16847" lon="-0.39673">
        <ele>7.9</ele>
        <time>2012-01-13T14:31:32Z</time>
      </trkpt>
      <trkpt lat="49.16847" lon="-0.39674">
        <ele>8.6</ele>
        <time>2012-01-13T14:31:33Z</time>
      </trkpt>
      <trkpt lat="49.16847" lon="-0.39674">
        <ele>9.8</ele>
        <time>2012-01-13T14:31:34Z</time>
      </trkpt>
      <trkpt lat="49.16847" lon="-0.39675">
        <ele>10.8</ele>
        <time>2012-01-13T14:31:35Z</time>
      </trkpt>
      <trkpt lat="49.16847" lon="-0.39675">
        <ele>10.8</ele>
        <time>2012-01-13T14:31:36Z</time>
      </trkpt>
      <trkpt lat="49.16847" lon="-0.39676">
        <ele>10.8</ele>
        <time>2012-01-13T14:31:37Z</time>
      </trkpt>
      <trkpt lat="49.16846" lon="-0.39676">
        <ele>10.8</ele>
        <time>2012-01-13T14:31:38Z</time>
      </trkpt>
      <trkpt lat="49.16846" lon="-0.39677">
        <ele>10.6</ele>
        <time>2012-01-13T14:31:39Z</time>
      </trkpt>
      <trkpt lat="49.16846" lon="-0.39677">
        <ele>11.1</ele>
        <time>2012-01-13T14:31:40Z</time>
      </trkpt>
      <trkpt lat="49.16846" lon="-0.39678">
        <ele>11.5</ele>
        <time>2012-01-13T14:31:41Z</time>
      </trkpt>
      <trkpt lat="49.16846" lon="-0.39678">
        <ele>11.8</ele>
        <time>2012-01-13T14:31:42Z</time>
      </trkpt>
      <trkpt lat="49.16846" lon="-0.39679">
        <ele>12.1</ele>
        <time>2012-01-13T14:31:43Z</time>
      </trkpt>
      <trkpt lat="49.16846" lon="-0.39679">
        <ele>12.3</ele>
        <time>2012-01-13T14:31:44Z</time>
      </trkpt>
      <trkpt lat="49.16846" lon="-0.39679">
        <ele>12.1</ele>
        <time>2012-01-13T14:31:45Z</time>
      </trkpt>
      <trkpt lat="49.16846" lon="-0.3968">
        <ele>12.1</ele>
        <time>2012-01-13T14:31:46Z</time>
      </trkpt>
      <trkpt lat="49.16846" lon="-0.3968">
        <ele>12</ele>
        <time>2012-01-13T14:31:47Z</time>
      </trkpt>
      <trkpt lat="49.16846" lon="-0.3968">
        <ele>12</ele>
        <time>2012-01-13T14:31:48Z</time>
      </trkpt>
      <trkpt lat="49.16846" lon="-0.39681">
        <ele>12</ele>
        <time>2012-01-13T14:31:49Z</time>
      </trkpt>
      <trkpt lat="49.16846" lon="-0.39682">
        <ele>12.6</ele>
        <time>2012-01-13T14:31:50Z</time>
      </trkpt>
      <trkpt lat="49.16846" lon="-0.39682">
        <ele>13.1</ele>
        <time>2012-01-13T14:31:51Z</time>
      </trkpt>
      <trkpt lat="49.16846" lon="-0.39683">
        <ele>13.5</ele>
        <time>2012-01-13T14:31:52Z</time>
      </trkpt>
      <trkpt lat="49.16846" lon="-0.39683">
        <ele>13.8</ele>
        <time>2012-01-13T14:31:53Z</time>
      </trkpt>
      <trkpt lat="49.16846" lon="-0.39684">
        <ele>13.8</ele>
        <time>2012-01-13T14:31:54Z</time>
      </trkpt>
      <trkpt lat="49.16846" lon="-0.39684">
        <ele>13.6</ele>
        <time>2012-01-13T14:31:55Z</time>
      </trkpt>
      <trkpt lat="49.16846" lon="-0.39685">
        <ele>13.5</ele>
        <time>2012-01-13T14:31:56Z</time>
      </trkpt>
      <trkpt lat="49.16846" lon="-0.39685">
        <ele>13.3</ele>
        <time>2012-01-13T14:31:57Z</time>
      </trkpt>
      <trkpt lat="49.16846" lon="-0.39685">
        <ele>13.3</ele>
        <time>2012-01-13T14:31:58Z</time>
      </trkpt>
      <trkpt lat="49.16846" lon="-0.39686">
        <ele>13.3</ele>
        <time>2012-01-13T14:31:59Z</time>
      </trkpt>
      <trkpt lat="49.16846" lon="-0.39686">
        <ele>13.3</ele>
        <time>2012-01-13T14:32:00Z</time>
      </trkpt>
      <trkpt lat="49.16846" lon="-0.39686">
        <ele>13.3</ele>
        <time>2012-01-13T14:32:01Z</time>
      </trkpt>
      <trkpt lat="49.16846" lon="-0.39686">
        <ele>13.3</ele>
        <time>2012-01-13T14:32:02Z</time>
      </trkpt>
      <trkpt lat="49.16846" lon="-0.39686">
        <ele>13.5</ele>
        <time>2012-01-13T14:32:03Z</time>
      </trkpt>
      <trkpt lat="49.16846" lon="-0.39686">
        <ele>13.8</ele>
        <time>2012-01-13T14:32:04Z</time>
      </trkpt>
      <trkpt lat="49.16846" lon="-0.39687">
        <ele>14.1</ele>
        <time>2012-01-13T14:32:05Z</time>
      </trkpt>
      <trkpt lat="49.16846" lon="-0.39687">
        <ele>14.6</ele>
        <time>2012-01-13T14:32:06Z</time>
      </trkpt>
      <trkpt lat="49.16846" lon="-0.39687">
        <ele>15.1</ele>
        <time>2012-01-13T14:32:07Z</time>
      </trkpt>
      <trkpt lat="49.16846" lon="-0.39687">
        <ele>15.8</ele>
        <time>2012-01-13T14:32:08Z</time>
      </trkpt>
      <trkpt lat="49.16846" lon="-0.39687">
        <ele>16.2</ele>
        <time>2012-01-13T14:32:09Z</time>
      </trkpt>
      <trkpt lat="49.16846" lon="-0.39688">
        <ele>16.7</ele>
        <time>2012-01-13T14:32:10Z</time>
      </trkpt>
      <trkpt lat="49.16846" lon="-0.39688">
        <ele>16.7</ele>
        <time>2012-01-13T14:32:11Z</time>
      </trkpt>
      <trkpt lat="49.16846" lon="-0.39688">
        <ele>16.7</ele>
        <time>2012-01-13T14:32:12Z</time>
      </trkpt>
      <trkpt lat="49.16847" lon="-0.39688">
        <ele>16.5</ele>
        <time>2012-01-13T14:32:13Z</time>
      </trkpt>
      <trkpt lat="49.16847" lon="-0.39688">
        <ele>16</ele>
        <time>2012-01-13T14:32:14Z</time>
      </trkpt>
      <trkpt lat="49.16847" lon="-0.39689">
        <ele>15.3</ele>
        <time>2012-01-13T14:32:15Z</time>
      </trkpt>
      <trkpt lat="49.16847" lon="-0.3969">
        <ele>14.8</ele>
        <time>2012-01-13T14:32:16Z</time>
      </trkpt>
      <trkpt lat="49.16846" lon="-0.39691">
        <ele>14.3</ele>
        <time>2012-01-13T14:32:17Z</time>
      </trkpt>
      <trkpt lat="49.16846" lon="-0.39692">
        <ele>14</ele>
        <time>2012-01-13T14:32:18Z</time>
      </trkpt>
      <trkpt lat="49.16846" lon="-0.39693">
        <ele>13.5</ele>
        <time>2012-01-13T14:32:19Z</time>
      </trkpt>
      <trkpt lat="49.16847" lon="-0.39694">
        <ele>12.8</ele>
        <time>2012-01-13T14:32:20Z</time>
      </trkpt>
      <trkpt lat="49.16847" lon="-0.39696">
        <ele>12.8</ele>
        <time>2012-01-13T14:32:21Z</time>
      </trkpt>
      <trkpt lat="49.16848" lon="-0.39697">
        <ele>12.6</ele>
        <time>2012-01-13T14:32:22Z</time>
      </trkpt>
      <trkpt lat="49.16848" lon="-0.39698">
        <ele>12.6</ele>
        <time>2012-01-13T14:32:23Z</time>
      </trkpt>
      <trkpt lat="49.16849" lon="-0.39699">
        <ele>12.3</ele>
        <time>2012-01-13T14:32:24Z</time>
      </trkpt>
      <trkpt lat="49.16849" lon="-0.397">
        <ele>11.3</ele>
        <time>2012-01-13T14:32:25Z</time>
      </trkpt>
      <trkpt lat="49.16849" lon="-0.39701">
        <ele>11</ele>
        <time>2012-01-13T14:32:26Z</time>
      </trkpt>
      <trkpt lat="49.16849" lon="-0.39702">
        <ele>11.1</ele>
        <time>2012-01-13T14:32:27Z</time>
      </trkpt>
      <trkpt lat="49.16849" lon="-0.39703">
        <ele>11</ele>
        <time>2012-01-13T14:32:28Z</time>
      </trkpt>
      <trkpt lat="49.16849" lon="-0.39704">
        <ele>10.8</ele>
        <time>2012-01-13T14:32:29Z</time>
      </trkpt>
      <trkpt lat="49.16849" lon="-0.39705">
        <ele>11</ele>
        <time>2012-01-13T14:32:30Z</time>
      </trkpt>
      <trkpt lat="49.16849" lon="-0.39706">
        <ele>10.8</ele>
        <time>2012-01-13T14:32:31Z</time>
      </trkpt>
      <trkpt lat="49.16849" lon="-0.39707">
        <ele>11</ele>
        <time>2012-01-13T14:32:32Z</time>
      </trkpt>
      <trkpt lat="49.16849" lon="-0.39708">
        <ele>11.3</ele>
        <time>2012-01-13T14:32:33Z</time>
      </trkpt>
      <trkpt lat="49.16849" lon="-0.39709">
        <ele>11.6</ele>
        <time>2012-01-13T14:32:34Z</time>
      </trkpt>
      <trkpt lat="49.1685" lon="-0.39711">
        <ele>12.3</ele>
        <time>2012-01-13T14:32:35Z</time>
      </trkpt>
      <trkpt lat="49.1685" lon="-0.39712">
        <ele>12.6</ele>
        <time>2012-01-13T14:32:36Z</time>
      </trkpt>
      <trkpt lat="49.1685" lon="-0.39713">
        <ele>12.6</ele>
        <time>2012-01-13T14:32:37Z</time>
      </trkpt>
      <trkpt lat="49.1685" lon="-0.39713">
        <ele>13</ele>
        <time>2012-01-13T14:32:38Z</time>
      </trkpt>
      <trkpt lat="49.16849" lon="-0.39715">
        <ele>13.1</ele>
        <time>2012-01-13T14:32:39Z</time>
      </trkpt>
      <trkpt lat="49.16849" lon="-0.39716">
        <ele>13.1</ele>
        <time>2012-01-13T14:32:40Z</time>
      </trkpt>
      <trkpt lat="49.16849" lon="-0.39717">
        <ele>12.6</ele>
        <time>2012-01-13T14:32:41Z</time>
      </trkpt>
      <trkpt lat="49.16849" lon="-0.39718">
        <ele>12</ele>
        <time>2012-01-13T14:32:42Z</time>
      </trkpt>
      <trkpt lat="49.1685" lon="-0.39719">
        <ele>11.8</ele>
        <time>2012-01-13T14:32:43Z</time>
      </trkpt>
      <trkpt lat="49.1685" lon="-0.39721">
        <ele>11.6</ele>
        <time>2012-01-13T14:32:44Z</time>
      </trkpt>
      <trkpt lat="49.1685" lon="-0.39723">
        <ele>11.6</ele>
        <time>2012-01-13T14:32:45Z</time>
      </trkpt>
      <trkpt lat="49.1685" lon="-0.39725">
        <ele>11.5</ele>
        <time>2012-01-13T14:32:46Z</time>
      </trkpt>
      <trkpt lat="49.1685" lon="-0.39726">
        <ele>11.8</ele>
        <time>2012-01-13T14:32:47Z</time>
      </trkpt>
      <trkpt lat="49.1685" lon="-0.39728">
        <ele>10.8</ele>
        <time>2012-01-13T14:32:48Z</time>
      </trkpt>
      <trkpt lat="49.1685" lon="-0.39729">
        <ele>11.1</ele>
        <time>2012-01-13T14:32:49Z</time>
      </trkpt>
      <trkpt lat="49.16851" lon="-0.3973">
        <ele>11.1</ele>
        <time>2012-01-13T14:32:50Z</time>
      </trkpt>
      <trkpt lat="49.1685" lon="-0.39732">
        <ele>10.8</ele>
        <time>2012-01-13T14:32:51Z</time>
      </trkpt>
      <trkpt lat="49.1685" lon="-0.39733">
        <ele>10</ele>
        <time>2012-01-13T14:32:52Z</time>
      </trkpt>
      <trkpt lat="49.1685" lon="-0.39734">
        <ele>10.3</ele>
        <time>2012-01-13T14:32:53Z</time>
      </trkpt>
      <trkpt lat="49.1685" lon="-0.39736">
        <ele>10.5</ele>
        <time>2012-01-13T14:32:54Z</time>
      </trkpt>
      <trkpt lat="49.16849" lon="-0.39737">
        <ele>10.3</ele>
        <time>2012-01-13T14:32:55Z</time>
      </trkpt>
      <trkpt lat="49.16848" lon="-0.39739">
        <ele>8.8</ele>
        <time>2012-01-13T14:32:56Z</time>
      </trkpt>
      <trkpt lat="49.16848" lon="-0.3974">
        <ele>7.8</ele>
        <time>2012-01-13T14:32:57Z</time>
      </trkpt>
      <trkpt lat="49.16848" lon="-0.39742">
        <ele>7</ele>
        <time>2012-01-13T14:32:58Z</time>
      </trkpt>
      <trkpt lat="49.16848" lon="-0.39743">
        <ele>6</ele>
        <time>2012-01-13T14:32:59Z</time>
      </trkpt>
      <trkpt lat="49.16848" lon="-0.39745">
        <ele>5.8</ele>
        <time>2012-01-13T14:33:00Z</time>
      </trkpt>
      <trkpt lat="49.16848" lon="-0.39746">
        <ele>5.5</ele>
        <time>2012-01-13T14:33:01Z</time>
      </trkpt>
      <trkpt lat="49.16848" lon="-0.39747">
        <ele>4.8</ele>
        <time>2012-01-13T14:33:02Z</time>
      </trkpt>
      <trkpt lat="49.16847" lon="-0.39748">
        <ele>4</ele>
        <time>2012-01-13T14:33:03Z</time>
      </trkpt>
      <trkpt lat="49.16847" lon="-0.3975">
        <ele>3.4</ele>
        <time>2012-01-13T14:33:04Z</time>
      </trkpt>
      <trkpt lat="49.16847" lon="-0.39751">
        <ele>2.5</ele>
        <time>2012-01-13T14:33:05Z</time>
      </trkpt>
      <trkpt lat="49.16846" lon="-0.39752">
        <ele>2</ele>
        <time>2012-01-13T14:33:06Z</time>
      </trkpt>
      <trkpt lat="49.16845" lon="-0.39753">
        <ele>0.8</ele>
        <time>2012-01-13T14:33:07Z</time>
      </trkpt>
      <trkpt lat="49.16845" lon="-0.39754">
        <ele>-0.3</ele>
        <time>2012-01-13T14:33:08Z</time>
      </trkpt>
      <trkpt lat="49.16845" lon="-0.39756">
        <ele>-0.8</ele>
        <time>2012-01-13T14:33:09Z</time>
      </trkpt>
      <trkpt lat="49.16845" lon="-0.39757">
        <ele>0.1</ele>
        <time>2012-01-13T14:33:10Z</time>
      </trkpt>
      <trkpt lat="49.16845" lon="-0.39757">
        <ele>-0.3</ele>
        <time>2012-01-13T14:33:11Z</time>
      </trkpt>
      <trkpt lat="49.16845" lon="-0.39758">
        <ele>12</ele>
        <time>2012-01-13T14:33:12Z</time>
      </trkpt>
      <trkpt lat="49.16844" lon="-0.39758">
        <ele>1.1</ele>
        <time>2012-01-13T14:33:13Z</time>
      </trkpt>
      <trkpt lat="49.16844" lon="-0.39759">
        <ele>1.6</ele>
        <time>2012-01-13T14:33:14Z</time>
      </trkpt>
      <trkpt lat="49.16843" lon="-0.39759">
        <ele>2.2</ele>
        <time>2012-01-13T14:33:15Z</time>
      </trkpt>
      <trkpt lat="49.16842" lon="-0.39759">
        <ele>2.5</ele>
        <time>2012-01-13T14:33:16Z</time>
      </trkpt>
      <trkpt lat="49.16842" lon="-0.3976">
        <ele>4</ele>
        <time>2012-01-13T14:33:17Z</time>
      </trkpt>
      <trkpt lat="49.16841" lon="-0.39763">
        <ele>4.3</ele>
        <time>2012-01-13T14:33:18Z</time>
      </trkpt>
      <trkpt lat="49.16842" lon="-0.39766">
        <ele>4.5</ele>
        <time>2012-01-13T14:33:19Z</time>
      </trkpt>
      <trkpt lat="49.16842" lon="-0.39768">
        <ele>4.8</ele>
        <time>2012-01-13T14:33:20Z</time>
      </trkpt>
      <trkpt lat="49.16842" lon="-0.3977">
        <ele>4.8</ele>
        <time>2012-01-13T14:33:21Z</time>
      </trkpt>
      <trkpt lat="49.16842" lon="-0.39771">
        <ele>4.5</ele>
        <time>2012-01-13T14:33:22Z</time>
      </trkpt>
      <trkpt lat="49.16842" lon="-0.39773">
        <ele>5.9</ele>
        <time>2012-01-13T14:33:23Z</time>
      </trkpt>
      <trkpt lat="49.16842" lon="-0.39774">
        <ele>6.5</ele>
        <time>2012-01-13T14:33:24Z</time>
      </trkpt>
      <trkpt lat="49.16842" lon="-0.39776">
        <ele>7.5</ele>
        <time>2012-01-13T14:33:25Z</time>
      </trkpt>
      <trkpt lat="49.16842" lon="-0.39777">
        <ele>7.8</ele>
        <time>2012-01-13T14:33:26Z</time>
      </trkpt>
      <trkpt lat="49.16842" lon="-0.39779">
        <ele>8.1</ele>
        <time>2012-01-13T14:33:27Z</time>
      </trkpt>
      <trkpt lat="49.16843" lon="-0.39781">
        <ele>8.3</ele>
        <time>2012-01-13T14:33:28Z</time>
      </trkpt>
      <trkpt lat="49.16843" lon="-0.39783">
        <ele>8</ele>
        <time>2012-01-13T14:33:29Z</time>
      </trkpt>
      <trkpt lat="49.16842" lon="-0.39785">
        <ele>7</ele>
        <time>2012-01-13T14:33:30Z</time>
      </trkpt>
      <trkpt lat="49.16842" lon="-0.39787">
        <ele>6.8</ele>
        <time>2012-01-13T14:33:31Z</time>
      </trkpt>
      <trkpt lat="49.16841" lon="-0.39788">
        <ele>6</ele>
        <time>2012-01-13T14:33:32Z</time>
      </trkpt>
      <trkpt lat="49.16841" lon="-0.39789">
        <ele>6</ele>
        <time>2012-01-13T14:33:33Z</time>
      </trkpt>
      <trkpt lat="49.16842" lon="-0.39789">
        <ele>6</ele>
        <time>2012-01-13T14:33:34Z</time>
      </trkpt>
      <trkpt lat="49.16842" lon="-0.3979">
        <ele>6.4</ele>
        <time>2012-01-13T14:33:35Z</time>
      </trkpt>
      <trkpt lat="49.16842" lon="-0.39791">
        <ele>7.3</ele>
        <time>2012-01-13T14:33:36Z</time>
      </trkpt>
      <trkpt lat="49.16842" lon="-0.39793">
        <ele>7.8</ele>
        <time>2012-01-13T14:33:37Z</time>
      </trkpt>
      <trkpt lat="49.16842" lon="-0.39794">
        <ele>8.1</ele>
        <time>2012-01-13T14:33:38Z</time>
      </trkpt>
      <trkpt lat="49.16843" lon="-0.39795">
        <ele>8.6</ele>
        <time>2012-01-13T14:33:39Z</time>
      </trkpt>
      <trkpt lat="49.16843" lon="-0.39797">
        <ele>8.8</ele>
        <time>2012-01-13T14:33:40Z</time>
      </trkpt>
      <trkpt lat="49.16843" lon="-0.398">
        <ele>9.3</ele>
        <time>2012-01-13T14:33:41Z</time>
      </trkpt>
      <trkpt lat="49.16844" lon="-0.39802">
        <ele>9.6</ele>
        <time>2012-01-13T14:33:42Z</time>
      </trkpt>
      <trkpt lat="49.16844" lon="-0.39803">
        <ele>9.6</ele>
        <time>2012-01-13T14:33:43Z</time>
      </trkpt>
      <trkpt lat="49.16844" lon="-0.39805">
        <ele>10</ele>
        <time>2012-01-13T14:33:44Z</time>
      </trkpt>
      <trkpt lat="49.16844" lon="-0.39806">
        <ele>10.6</ele>
        <time>2012-01-13T14:33:45Z</time>
      </trkpt>
      <trkpt lat="49.16844" lon="-0.39808">
        <ele>10.8</ele>
        <time>2012-01-13T14:33:46Z</time>
      </trkpt>
      <trkpt lat="49.16844" lon="-0.39809">
        <ele>11.3</ele>
        <time>2012-01-13T14:33:47Z</time>
      </trkpt>
      <trkpt lat="49.16844" lon="-0.3981">
        <ele>11.8</ele>
        <time>2012-01-13T14:33:48Z</time>
      </trkpt>
      <trkpt lat="49.16844" lon="-0.39811">
        <ele>12.3</ele>
        <time>2012-01-13T14:33:49Z</time>
      </trkpt>
      <trkpt lat="49.16843" lon="-0.39813">
        <ele>12.5</ele>
        <time>2012-01-13T14:33:50Z</time>
      </trkpt>
      <trkpt lat="49.16843" lon="-0.39814">
        <ele>13.1</ele>
        <time>2012-01-13T14:33:51Z</time>
      </trkpt>
      <trkpt lat="49.16843" lon="-0.39815">
        <ele>13.5</ele>
        <time>2012-01-13T14:33:52Z</time>
      </trkpt>
      <trkpt lat="49.16843" lon="-0.39817">
        <ele>13.6</ele>
        <time>2012-01-13T14:33:53Z</time>
      </trkpt>
      <trkpt lat="49.16842" lon="-0.39818">
        <ele>13.1</ele>
        <time>2012-01-13T14:33:54Z</time>
      </trkpt>
      <trkpt lat="49.16842" lon="-0.3982">
        <ele>12.6</ele>
        <time>2012-01-13T14:33:55Z</time>
      </trkpt>
      <trkpt lat="49.16842" lon="-0.39822">
        <ele>11.8</ele>
        <time>2012-01-13T14:33:56Z</time>
      </trkpt>
      <trkpt lat="49.16842" lon="-0.39824">
        <ele>12.3</ele>
        <time>2012-01-13T14:33:57Z</time>
      </trkpt>
      <trkpt lat="49.16842" lon="-0.39826">
        <ele>12.6</ele>
        <time>2012-01-13T14:33:58Z</time>
      </trkpt>
      <trkpt lat="49.16842" lon="-0.39828">
        <ele>12.3</ele>
        <time>2012-01-13T14:33:59Z</time>
      </trkpt>
      <trkpt lat="49.16841" lon="-0.3983">
        <ele>12.5</ele>
        <time>2012-01-13T14:34:00Z</time>
      </trkpt>
      <trkpt lat="49.16841" lon="-0.39831">
        <ele>12.5</ele>
        <time>2012-01-13T14:34:01Z</time>
      </trkpt>
      <trkpt lat="49.16841" lon="-0.39832">
        <ele>12</ele>
        <time>2012-01-13T14:34:02Z</time>
      </trkpt>
      <trkpt lat="49.16841" lon="-0.39834">
        <ele>11.8</ele>
        <time>2012-01-13T14:34:03Z</time>
      </trkpt>
      <trkpt lat="49.16841" lon="-0.39835">
        <ele>12</ele>
        <time>2012-01-13T14:34:04Z</time>
      </trkpt>
      <trkpt lat="49.16841" lon="-0.39836">
        <ele>13.3</ele>
        <time>2012-01-13T14:34:05Z</time>
      </trkpt>
      <trkpt lat="49.16841" lon="-0.39837">
        <ele>14.1</ele>
        <time>2012-01-13T14:34:06Z</time>
      </trkpt>
      <trkpt lat="49.1684" lon="-0.39838">
        <ele>14.3</ele>
        <time>2012-01-13T14:34:07Z</time>
      </trkpt>
      <trkpt lat="49.1684" lon="-0.39839">
        <ele>14.6</ele>
        <time>2012-01-13T14:34:08Z</time>
      </trkpt>
      <trkpt lat="49.1684" lon="-0.3984">
        <ele>14.8</ele>
        <time>2012-01-13T14:34:09Z</time>
      </trkpt>
      <trkpt lat="49.1684" lon="-0.39841">
        <ele>15</ele>
        <time>2012-01-13T14:34:10Z</time>
      </trkpt>
      <trkpt lat="49.1684" lon="-0.39842">
        <ele>14.6</ele>
        <time>2012-01-13T14:34:11Z</time>
      </trkpt>
      <trkpt lat="49.16839" lon="-0.39843">
        <ele>14.5</ele>
        <time>2012-01-13T14:34:12Z</time>
      </trkpt>
      <trkpt lat="49.16838" lon="-0.39844">
        <ele>14.8</ele>
        <time>2012-01-13T14:34:13Z</time>
      </trkpt>
      <trkpt lat="49.16838" lon="-0.39845">
        <ele>15.1</ele>
        <time>2012-01-13T14:34:14Z</time>
      </trkpt>
      <trkpt lat="49.16838" lon="-0.39847">
        <ele>15.3</ele>
        <time>2012-01-13T14:34:15Z</time>
      </trkpt>
      <trkpt lat="49.16838" lon="-0.39849">
        <ele>14.5</ele>
        <time>2012-01-13T14:34:16Z</time>
      </trkpt>
      <trkpt lat="49.16838" lon="-0.39851">
        <ele>13.6</ele>
        <time>2012-01-13T14:34:17Z</time>
      </trkpt>
      <trkpt lat="49.16838" lon="-0.39853">
        <ele>13.8</ele>
        <time>2012-01-13T14:34:18Z</time>
      </trkpt>
      <trkpt lat="49.16838" lon="-0.39854">
        <ele>13.6</ele>
        <time>2012-01-13T14:34:19Z</time>
      </trkpt>
      <trkpt lat="49.16838" lon="-0.39856">
        <ele>14.3</ele>
        <time>2012-01-13T14:34:20Z</time>
      </trkpt>
      <trkpt lat="49.16837" lon="-0.39857">
        <ele>13.8</ele>
        <time>2012-01-13T14:34:21Z</time>
      </trkpt>
      <trkpt lat="49.16837" lon="-0.39859">
        <ele>14.1</ele>
        <time>2012-01-13T14:34:22Z</time>
      </trkpt>
      <trkpt lat="49.16836" lon="-0.3986">
        <ele>14.5</ele>
        <time>2012-01-13T14:34:23Z</time>
      </trkpt>
      <trkpt lat="49.16836" lon="-0.39862">
        <ele>13.6</ele>
        <time>2012-01-13T14:34:24Z</time>
      </trkpt>
      <trkpt lat="49.16835" lon="-0.39864">
        <ele>13.3</ele>
        <time>2012-01-13T14:34:25Z</time>
      </trkpt>
      <trkpt lat="49.16835" lon="-0.39865">
        <ele>13.6</ele>
        <time>2012-01-13T14:34:26Z</time>
      </trkpt>
      <trkpt lat="49.16834" lon="-0.39866">
        <ele>13.6</ele>
        <time>2012-01-13T14:34:27Z</time>
      </trkpt>
      <trkpt lat="49.16834" lon="-0.39867">
        <ele>13.6</ele>
        <time>2012-01-13T14:34:28Z</time>
      </trkpt>
      <trkpt lat="49.16834" lon="-0.39868">
        <ele>14</ele>
        <time>2012-01-13T14:34:29Z</time>
      </trkpt>
      <trkpt lat="49.16834" lon="-0.3987">
        <ele>14.5</ele>
        <time>2012-01-13T14:34:30Z</time>
      </trkpt>
      <trkpt lat="49.16834" lon="-0.3987">
        <ele>15.3</ele>
        <time>2012-01-13T14:34:31Z</time>
      </trkpt>
      <trkpt lat="49.16834" lon="-0.39871">
        <ele>16</ele>
        <time>2012-01-13T14:34:32Z</time>
      </trkpt>
      <trkpt lat="49.16835" lon="-0.39872">
        <ele>15.3</ele>
        <time>2012-01-13T14:34:33Z</time>
      </trkpt>
      <trkpt lat="49.16835" lon="-0.39874">
        <ele>15.1</ele>
        <time>2012-01-13T14:34:34Z</time>
      </trkpt>
      <trkpt lat="49.16836" lon="-0.39875">
        <ele>14.8</ele>
        <time>2012-01-13T14:34:35Z</time>
      </trkpt>
      <trkpt lat="49.16836" lon="-0.39875">
        <ele>14.6</ele>
        <time>2012-01-13T14:34:36Z</time>
      </trkpt>
      <trkpt lat="49.16837" lon="-0.39877">
        <ele>16.2</ele>
        <time>2012-01-13T14:34:37Z</time>
      </trkpt>
      <trkpt lat="49.16837" lon="-0.39877">
        <ele>15.8</ele>
        <time>2012-01-13T14:34:38Z</time>
      </trkpt>
      <trkpt lat="49.16837" lon="-0.39878">
        <ele>15.6</ele>
        <time>2012-01-13T14:34:39Z</time>
      </trkpt>
      <trkpt lat="49.16837" lon="-0.3988">
        <ele>15.5</ele>
        <time>2012-01-13T14:34:40Z</time>
      </trkpt>
      <trkpt lat="49.16837" lon="-0.39882">
        <ele>15</ele>
        <time>2012-01-13T14:34:41Z</time>
      </trkpt>
      <trkpt lat="49.16837" lon="-0.39883">
        <ele>15.1</ele>
        <time>2012-01-13T14:34:42Z</time>
      </trkpt>
      <trkpt lat="49.16837" lon="-0.39885">
        <ele>15.6</ele>
        <time>2012-01-13T14:34:43Z</time>
      </trkpt>
      <trkpt lat="49.16837" lon="-0.39886">
        <ele>15.8</ele>
        <time>2012-01-13T14:34:44Z</time>
      </trkpt>
      <trkpt lat="49.16838" lon="-0.39887">
        <ele>16</ele>
        <time>2012-01-13T14:34:45Z</time>
      </trkpt>
      <trkpt lat="49.16838" lon="-0.39888">
        <ele>16.5</ele>
        <time>2012-01-13T14:34:46Z</time>
      </trkpt>
      <trkpt lat="49.16838" lon="-0.39889">
        <ele>16.7</ele>
        <time>2012-01-13T14:34:47Z</time>
      </trkpt>
      <trkpt lat="49.16838" lon="-0.39891">
        <ele>16.7</ele>
        <time>2012-01-13T14:34:48Z</time>
      </trkpt>
      <trkpt lat="49.16838" lon="-0.39892">
        <ele>16.6</ele>
        <time>2012-01-13T14:34:49Z</time>
      </trkpt>
      <trkpt lat="49.16838" lon="-0.39893">
        <ele>15.8</ele>
        <time>2012-01-13T14:34:50Z</time>
      </trkpt>
      <trkpt lat="49.16838" lon="-0.39895">
        <ele>15.3</ele>
        <time>2012-01-13T14:34:51Z</time>
      </trkpt>
      <trkpt lat="49.16838" lon="-0.39896">
        <ele>14.8</ele>
        <time>2012-01-13T14:34:52Z</time>
      </trkpt>
      <trkpt lat="49.16838" lon="-0.39898">
        <ele>14.8</ele>
        <time>2012-01-13T14:34:53Z</time>
      </trkpt>
      <trkpt lat="49.16838" lon="-0.399">
        <ele>14.3</ele>
        <time>2012-01-13T14:34:54Z</time>
      </trkpt>
      <trkpt lat="49.16838" lon="-0.39902">
        <ele>14</ele>
        <time>2012-01-13T14:34:55Z</time>
      </trkpt>
      <trkpt lat="49.16838" lon="-0.39904">
        <ele>13.3</ele>
        <time>2012-01-13T14:34:56Z</time>
      </trkpt>
      <trkpt lat="49.16837" lon="-0.39906">
        <ele>12.6</ele>
        <time>2012-01-13T14:34:57Z</time>
      </trkpt>
      <trkpt lat="49.16837" lon="-0.39907">
        <ele>12.6</ele>
        <time>2012-01-13T14:34:58Z</time>
      </trkpt>
      <trkpt lat="49.16837" lon="-0.39909">
        <ele>12.5</ele>
        <time>2012-01-13T14:34:59Z</time>
      </trkpt>
      <trkpt lat="49.16838" lon="-0.3991">
        <ele>12.3</ele>
        <time>2012-01-13T14:35:00Z</time>
      </trkpt>
      <trkpt lat="49.16838" lon="-0.39911">
        <ele>12.3</ele>
        <time>2012-01-13T14:35:01Z</time>
      </trkpt>
      <trkpt lat="49.16838" lon="-0.39913">
        <ele>11.8</ele>
        <time>2012-01-13T14:35:02Z</time>
      </trkpt>
      <trkpt lat="49.16838" lon="-0.39914">
        <ele>11.8</ele>
        <time>2012-01-13T14:35:03Z</time>
      </trkpt>
      <trkpt lat="49.16838" lon="-0.39915">
        <ele>11.8</ele>
        <time>2012-01-13T14:35:04Z</time>
      </trkpt>
      <trkpt lat="49.16839" lon="-0.39917">
        <ele>11.3</ele>
        <time>2012-01-13T14:35:05Z</time>
      </trkpt>
      <trkpt lat="49.16839" lon="-0.39919">
        <ele>11.1</ele>
        <time>2012-01-13T14:35:06Z</time>
      </trkpt>
      <trkpt lat="49.1684" lon="-0.3992">
        <ele>11.3</ele>
        <time>2012-01-13T14:35:07Z</time>
      </trkpt>
      <trkpt lat="49.16841" lon="-0.3992">
        <ele>11.1</ele>
        <time>2012-01-13T14:35:08Z</time>
      </trkpt>
      <trkpt lat="49.16842" lon="-0.39921">
        <ele>11.6</ele>
        <time>2012-01-13T14:35:09Z</time>
      </trkpt>
      <trkpt lat="49.16843" lon="-0.39921">
        <ele>11.8</ele>
        <time>2012-01-13T14:35:10Z</time>
      </trkpt>
      <trkpt lat="49.16843" lon="-0.39922">
        <ele>11.3</ele>
        <time>2012-01-13T14:35:11Z</time>
      </trkpt>
      <trkpt lat="49.16844" lon="-0.39923">
        <ele>11.1</ele>
        <time>2012-01-13T14:35:12Z</time>
      </trkpt>
      <trkpt lat="49.16844" lon="-0.39924">
        <ele>11.3</ele>
        <time>2012-01-13T14:35:13Z</time>
      </trkpt>
      <trkpt lat="49.16845" lon="-0.39926">
        <ele>11.6</ele>
        <time>2012-01-13T14:35:14Z</time>
      </trkpt>
      <trkpt lat="49.16845" lon="-0.39927">
        <ele>11.6</ele>
        <time>2012-01-13T14:35:15Z</time>
      </trkpt>
      <trkpt lat="49.16844" lon="-0.39929">
        <ele>12.1</ele>
        <time>2012-01-13T14:35:16Z</time>
      </trkpt>
      <trkpt lat="49.16843" lon="-0.39929">
        <ele>12.6</ele>
        <time>2012-01-13T14:35:17Z</time>
      </trkpt>
      <trkpt lat="49.16843" lon="-0.39931">
        <ele>13.3</ele>
        <time>2012-01-13T14:35:18Z</time>
      </trkpt>
      <trkpt lat="49.16843" lon="-0.39931">
        <ele>13.8</ele>
        <time>2012-01-13T14:35:19Z</time>
      </trkpt>
      <trkpt lat="49.16843" lon="-0.39932">
        <ele>13.6</ele>
        <time>2012-01-13T14:35:20Z</time>
      </trkpt>
      <trkpt lat="49.16843" lon="-0.39934">
        <ele>14</ele>
        <time>2012-01-13T14:35:21Z</time>
      </trkpt>
      <trkpt lat="49.16842" lon="-0.39935">
        <ele>14.3</ele>
        <time>2012-01-13T14:35:22Z</time>
      </trkpt>
      <trkpt lat="49.16842" lon="-0.39937">
        <ele>14.6</ele>
        <time>2012-01-13T14:35:23Z</time>
      </trkpt>
      <trkpt lat="49.16842" lon="-0.39938">
        <ele>15.1</ele>
        <time>2012-01-13T14:35:24Z</time>
      </trkpt>
      <trkpt lat="49.16842" lon="-0.3994">
        <ele>15.5</ele>
        <time>2012-01-13T14:35:25Z</time>
      </trkpt>
      <trkpt lat="49.16842" lon="-0.39941">
        <ele>16.1</ele>
        <time>2012-01-13T14:35:26Z</time>
      </trkpt>
      <trkpt lat="49.16842" lon="-0.39943">
        <ele>16.1</ele>
        <time>2012-01-13T14:35:27Z</time>
      </trkpt>
      <trkpt lat="49.16842" lon="-0.39944">
        <ele>16.2</ele>
        <time>2012-01-13T14:35:28Z</time>
      </trkpt>
      <trkpt lat="49.16842" lon="-0.39946">
        <ele>16.7</ele>
        <time>2012-01-13T14:35:29Z</time>
      </trkpt>
      <trkpt lat="49.16842" lon="-0.39948">
        <ele>17.2</ele>
        <time>2012-01-13T14:35:30Z</time>
      </trkpt>
      <trkpt lat="49.16842" lon="-0.39949">
        <ele>17.1</ele>
        <time>2012-01-13T14:35:31Z</time>
      </trkpt>
      <trkpt lat="49.16842" lon="-0.39951">
        <ele>17.5</ele>
        <time>2012-01-13T14:35:32Z</time>
      </trkpt>
      <trkpt lat="49.16842" lon="-0.39952">
        <ele>17.2</ele>
        <time>2012-01-13T14:35:33Z</time>
      </trkpt>
      <trkpt lat="49.16842" lon="-0.39954">
        <ele>17.7</ele>
        <time>2012-01-13T14:35:34Z</time>
      </trkpt>
      <trkpt lat="49.16842" lon="-0.39956">
        <ele>17.5</ele>
        <time>2012-01-13T14:35:35Z</time>
      </trkpt>
      <trkpt lat="49.16842" lon="-0.39957">
        <ele>17.2</ele>
        <time>2012-01-13T14:35:36Z</time>
      </trkpt>
      <trkpt lat="49.16842" lon="-0.39959">
        <ele>17.2</ele>
        <time>2012-01-13T14:35:37Z</time>
      </trkpt>
      <trkpt lat="49.16843" lon="-0.3996">
        <ele>17.6</ele>
        <time>2012-01-13T14:35:38Z</time>
      </trkpt>
      <trkpt lat="49.16843" lon="-0.39961">
        <ele>18</ele>
        <time>2012-01-13T14:35:39Z</time>
      </trkpt>
      <trkpt lat="49.16843" lon="-0.39963">
        <ele>18.7</ele>
        <time>2012-01-13T14:35:40Z</time>
      </trkpt>
      <trkpt lat="49.16843" lon="-0.39964">
        <ele>19.1</ele>
        <time>2012-01-13T14:35:41Z</time>
      </trkpt>
      <trkpt lat="49.16843" lon="-0.39965">
        <ele>19.1</ele>
        <time>2012-01-13T14:35:42Z</time>
      </trkpt>
      <trkpt lat="49.16843" lon="-0.39967">
        <ele>18.2</ele>
        <time>2012-01-13T14:35:43Z</time>
      </trkpt>
      <trkpt lat="49.16843" lon="-0.39968">
        <ele>18</ele>
        <time>2012-01-13T14:35:44Z</time>
      </trkpt>
      <trkpt lat="49.16843" lon="-0.3997">
        <ele>17.5</ele>
        <time>2012-01-13T14:35:45Z</time>
      </trkpt>
      <trkpt lat="49.16843" lon="-0.39971">
        <ele>16.6</ele>
        <time>2012-01-13T14:35:46Z</time>
      </trkpt>
      <trkpt lat="49.16843" lon="-0.39972">
        <ele>16.2</ele>
        <time>2012-01-13T14:35:47Z</time>
      </trkpt>
      <trkpt lat="49.16843" lon="-0.39973">
        <ele>16.2</ele>
        <time>2012-01-13T14:35:48Z</time>
      </trkpt>
      <trkpt lat="49.16842" lon="-0.39975">
        <ele>16.6</ele>
        <time>2012-01-13T14:35:49Z</time>
      </trkpt>
      <trkpt lat="49.16842" lon="-0.39976">
        <ele>16.1</ele>
        <time>2012-01-13T14:35:50Z</time>
      </trkpt>
      <trkpt lat="49.16842" lon="-0.39977">
        <ele>16.2</ele>
        <time>2012-01-13T14:35:51Z</time>
      </trkpt>
      <trkpt lat="49.16842" lon="-0.39979">
        <ele>16.7</ele>
        <time>2012-01-13T14:35:52Z</time>
      </trkpt>
      <trkpt lat="49.16842" lon="-0.3998">
        <ele>16.6</ele>
        <time>2012-01-13T14:35:53Z</time>
      </trkpt>
      <trkpt lat="49.16843" lon="-0.39981">
        <ele>16.7</ele>
        <time>2012-01-13T14:35:54Z</time>
      </trkpt>
      <trkpt lat="49.16844" lon="-0.39982">
        <ele>16.7</ele>
        <time>2012-01-13T14:35:55Z</time>
      </trkpt>
      <trkpt lat="49.16844" lon="-0.39983">
        <ele>16.7</ele>
        <time>2012-01-13T14:35:56Z</time>
      </trkpt>
      <trkpt lat="49.16845" lon="-0.39985">
        <ele>16.7</ele>
        <time>2012-01-13T14:35:57Z</time>
      </trkpt>
      <trkpt lat="49.16845" lon="-0.39986">
        <ele>17</ele>
        <time>2012-01-13T14:35:58Z</time>
      </trkpt>
      <trkpt lat="49.16846" lon="-0.39988">
        <ele>17.2</ele>
        <time>2012-01-13T14:35:59Z</time>
      </trkpt>
      <trkpt lat="49.16846" lon="-0.39989">
        <ele>17</ele>
        <time>2012-01-13T14:36:00Z</time>
      </trkpt>
      <trkpt lat="49.16847" lon="-0.39991">
        <ele>17.2</ele>
        <time>2012-01-13T14:36:01Z</time>
      </trkpt>
      <trkpt lat="49.16847" lon="-0.39992">
        <ele>17</ele>
        <time>2012-01-13T14:36:02Z</time>
      </trkpt>
      <trkpt lat="49.16847" lon="-0.39994">
        <ele>16.6</ele>
        <time>2012-01-13T14:36:03Z</time>
      </trkpt>
      <trkpt lat="49.16847" lon="-0.39996">
        <ele>16.1</ele>
        <time>2012-01-13T14:36:04Z</time>
      </trkpt>
      <trkpt lat="49.16848" lon="-0.39998">
        <ele>15.3</ele>
        <time>2012-01-13T14:36:05Z</time>
      </trkpt>
      <trkpt lat="49.16848" lon="-0.4">
        <ele>15.1</ele>
        <time>2012-01-13T14:36:06Z</time>
      </trkpt>
      <trkpt lat="49.16848" lon="-0.40001">
        <ele>14.8</ele>
        <time>2012-01-13T14:36:07Z</time>
      </trkpt>
      <trkpt lat="49.16847" lon="-0.40003">
        <ele>14.5</ele>
        <time>2012-01-13T14:36:08Z</time>
      </trkpt>
      <trkpt lat="49.16847" lon="-0.40004">
        <ele>14.8</ele>
        <time>2012-01-13T14:36:09Z</time>
      </trkpt>
      <trkpt lat="49.16847" lon="-0.40005">
        <ele>15</ele>
        <time>2012-01-13T14:36:10Z</time>
      </trkpt>
      <trkpt lat="49.16848" lon="-0.40006">
        <ele>15.1</ele>
        <time>2012-01-13T14:36:11Z</time>
      </trkpt>
      <trkpt lat="49.16848" lon="-0.40008">
        <ele>15.6</ele>
        <time>2012-01-13T14:36:12Z</time>
      </trkpt>
      <trkpt lat="49.16848" lon="-0.40009">
        <ele>16.1</ele>
        <time>2012-01-13T14:36:13Z</time>
      </trkpt>
      <trkpt lat="49.16848" lon="-0.4001">
        <ele>16.5</ele>
        <time>2012-01-13T14:36:14Z</time>
      </trkpt>
      <trkpt lat="49.16849" lon="-0.40011">
        <ele>16.6</ele>
        <time>2012-01-13T14:36:15Z</time>
      </trkpt>
      <trkpt lat="49.16849" lon="-0.40013">
        <ele>16.7</ele>
        <time>2012-01-13T14:36:16Z</time>
      </trkpt>
      <trkpt lat="49.1685" lon="-0.40014">
        <ele>17</ele>
        <time>2012-01-13T14:36:17Z</time>
      </trkpt>
      <trkpt lat="49.1685" lon="-0.40015">
        <ele>17.2</ele>
        <time>2012-01-13T14:36:18Z</time>
      </trkpt>
      <trkpt lat="49.16851" lon="-0.40017">
        <ele>17.2</ele>
        <time>2012-01-13T14:36:19Z</time>
      </trkpt>
      <trkpt lat="49.16852" lon="-0.40018">
        <ele>17.7</ele>
        <time>2012-01-13T14:36:20Z</time>
      </trkpt>
      <trkpt lat="49.16852" lon="-0.40019">
        <ele>18.2</ele>
        <time>2012-01-13T14:36:21Z</time>
      </trkpt>
      <trkpt lat="49.16853" lon="-0.40019">
        <ele>17.7</ele>
        <time>2012-01-13T14:36:22Z</time>
      </trkpt>
      <trkpt lat="49.16853" lon="-0.4002">
        <ele>18.1</ele>
        <time>2012-01-13T14:36:23Z</time>
      </trkpt>
      <trkpt lat="49.16854" lon="-0.40021">
        <ele>18.7</ele>
        <time>2012-01-13T14:36:24Z</time>
      </trkpt>
      <trkpt lat="49.16854" lon="-0.40023">
        <ele>19</ele>
        <time>2012-01-13T14:36:25Z</time>
      </trkpt>
      <trkpt lat="49.16853" lon="-0.40024">
        <ele>18.7</ele>
        <time>2012-01-13T14:36:26Z</time>
      </trkpt>
      <trkpt lat="49.16853" lon="-0.40026">
        <ele>18.6</ele>
        <time>2012-01-13T14:36:27Z</time>
      </trkpt>
      <trkpt lat="49.16853" lon="-0.40027">
        <ele>18.2</ele>
        <time>2012-01-13T14:36:28Z</time>
      </trkpt>
      <trkpt lat="49.16853" lon="-0.40029">
        <ele>18.2</ele>
        <time>2012-01-13T14:36:29Z</time>
      </trkpt>
      <trkpt lat="49.16853" lon="-0.4003">
        <ele>17.7</ele>
        <time>2012-01-13T14:36:30Z</time>
      </trkpt>
      <trkpt lat="49.16853" lon="-0.40032">
        <ele>17.7</ele>
        <time>2012-01-13T14:36:31Z</time>
      </trkpt>
      <trkpt lat="49.16853" lon="-0.40033">
        <ele>17.6</ele>
        <time>2012-01-13T14:36:32Z</time>
      </trkpt>
      <trkpt lat="49.16854" lon="-0.40035">
        <ele>17.6</ele>
        <time>2012-01-13T14:36:33Z</time>
      </trkpt>
      <trkpt lat="49.16854" lon="-0.40036">
        <ele>17.5</ele>
        <time>2012-01-13T14:36:34Z</time>
      </trkpt>
      <trkpt lat="49.16854" lon="-0.40037">
        <ele>18</ele>
        <time>2012-01-13T14:36:35Z</time>
      </trkpt>
      <trkpt lat="49.16854" lon="-0.40039">
        <ele>17.2</ele>
        <time>2012-01-13T14:36:36Z</time>
      </trkpt>
      <trkpt lat="49.16854" lon="-0.4004">
        <ele>16.7</ele>
        <time>2012-01-13T14:36:37Z</time>
      </trkpt>
      <trkpt lat="49.16854" lon="-0.40042">
        <ele>17.1</ele>
        <time>2012-01-13T14:36:38Z</time>
      </trkpt>
      <trkpt lat="49.16853" lon="-0.40043">
        <ele>17.2</ele>
        <time>2012-01-13T14:36:39Z</time>
      </trkpt>
      <trkpt lat="49.16853" lon="-0.40045">
        <ele>17.1</ele>
        <time>2012-01-13T14:36:40Z</time>
      </trkpt>
      <trkpt lat="49.16853" lon="-0.40046">
        <ele>17.2</ele>
        <time>2012-01-13T14:36:41Z</time>
      </trkpt>
      <trkpt lat="49.16853" lon="-0.40047">
        <ele>17.7</ele>
        <time>2012-01-13T14:36:42Z</time>
      </trkpt>
      <trkpt lat="49.16853" lon="-0.40048">
        <ele>17.7</ele>
        <time>2012-01-13T14:36:43Z</time>
      </trkpt>
      <trkpt lat="49.16853" lon="-0.4005">
        <ele>17.5</ele>
        <time>2012-01-13T14:36:44Z</time>
      </trkpt>
      <trkpt lat="49.16853" lon="-0.40051">
        <ele>17.7</ele>
        <time>2012-01-13T14:36:45Z</time>
      </trkpt>
      <trkpt lat="49.16854" lon="-0.40053">
        <ele>17.7</ele>
        <time>2012-01-13T14:36:46Z</time>
      </trkpt>
      <trkpt lat="49.16854" lon="-0.40054">
        <ele>18</ele>
        <time>2012-01-13T14:36:47Z</time>
      </trkpt>
      <trkpt lat="49.16854" lon="-0.40056">
        <ele>17.7</ele>
        <time>2012-01-13T14:36:48Z</time>
      </trkpt>
      <trkpt lat="49.16854" lon="-0.40058">
        <ele>18.2</ele>
        <time>2012-01-13T14:36:49Z</time>
      </trkpt>
      <trkpt lat="49.16854" lon="-0.40059">
        <ele>18.6</ele>
        <time>2012-01-13T14:36:50Z</time>
      </trkpt>
      <trkpt lat="49.16854" lon="-0.40061">
        <ele>18.2</ele>
        <time>2012-01-13T14:36:51Z</time>
      </trkpt>
      <trkpt lat="49.16855" lon="-0.40062">
        <ele>18.2</ele>
        <time>2012-01-13T14:36:52Z</time>
      </trkpt>
      <trkpt lat="49.16855" lon="-0.40064">
        <ele>18</ele>
        <time>2012-01-13T14:36:53Z</time>
      </trkpt>
      <trkpt lat="49.16855" lon="-0.40066">
        <ele>16.2</ele>
        <time>2012-01-13T14:36:54Z</time>
      </trkpt>
      <trkpt lat="49.16855" lon="-0.40067">
        <ele>14.5</ele>
        <time>2012-01-13T14:36:55Z</time>
      </trkpt>
      <trkpt lat="49.16855" lon="-0.40068">
        <ele>13.3</ele>
        <time>2012-01-13T14:36:56Z</time>
      </trkpt>
      <trkpt lat="49.16856" lon="-0.40068">
        <ele>12.6</ele>
        <time>2012-01-13T14:36:57Z</time>
      </trkpt>
      <trkpt lat="49.16856" lon="-0.40069">
        <ele>12</ele>
        <time>2012-01-13T14:36:58Z</time>
      </trkpt>
      <trkpt lat="49.16856" lon="-0.40069">
        <ele>11.3</ele>
        <time>2012-01-13T14:36:59Z</time>
      </trkpt>
      <trkpt lat="49.16857" lon="-0.4007">
        <ele>10.8</ele>
        <time>2012-01-13T14:37:00Z</time>
      </trkpt>
      <trkpt lat="49.16857" lon="-0.40069">
        <ele>9.5</ele>
        <time>2012-01-13T14:37:01Z</time>
      </trkpt>
      <trkpt lat="49.16858" lon="-0.40069">
        <ele>8.1</ele>
        <time>2012-01-13T14:37:02Z</time>
      </trkpt>
      <trkpt lat="49.16858" lon="-0.40069">
        <ele>6.9</ele>
        <time>2012-01-13T14:37:03Z</time>
      </trkpt>
      <trkpt lat="49.16858" lon="-0.40068">
        <ele>5.5</ele>
        <time>2012-01-13T14:37:04Z</time>
      </trkpt>
      <trkpt lat="49.16859" lon="-0.40068">
        <ele>4.4</ele>
        <time>2012-01-13T14:37:05Z</time>
      </trkpt>
      <trkpt lat="49.16859" lon="-0.40067">
        <ele>3</ele>
        <time>2012-01-13T14:37:06Z</time>
      </trkpt>
      <trkpt lat="49.16859" lon="-0.40067">
        <ele>1.7</ele>
        <time>2012-01-13T14:37:07Z</time>
      </trkpt>
      <trkpt lat="49.1686" lon="-0.40067">
        <ele>1.7</ele>
        <time>2012-01-13T14:37:08Z</time>
      </trkpt>
      <trkpt lat="49.1686" lon="-0.40067">
        <ele>-1</ele>
        <time>2012-01-13T14:37:09Z</time>
      </trkpt>
      <trkpt lat="49.1686" lon="-0.40069">
        <ele>-1.2</ele>
        <time>2012-01-13T14:37:10Z</time>
      </trkpt>
      <trkpt lat="49.1686" lon="-0.4007">
        <ele>-1.7</ele>
        <time>2012-01-13T14:37:11Z</time>
      </trkpt>
      <trkpt lat="49.1686" lon="-0.40072">
        <ele>-2.7</ele>
        <time>2012-01-13T14:37:12Z</time>
      </trkpt>
      <trkpt lat="49.1686" lon="-0.40073">
        <ele>-3</ele>
        <time>2012-01-13T14:37:13Z</time>
      </trkpt>
      <trkpt lat="49.1686" lon="-0.40074">
        <ele>-3.2</ele>
        <time>2012-01-13T14:37:14Z</time>
      </trkpt>
      <trkpt lat="49.1686" lon="-0.40076">
        <ele>-2.9</ele>
        <time>2012-01-13T14:37:15Z</time>
      </trkpt>
      <trkpt lat="49.1686" lon="-0.40077">
        <ele>-2.5</ele>
        <time>2012-01-13T14:37:16Z</time>
      </trkpt>
      <trkpt lat="49.16859" lon="-0.40079">
        <ele>-2.5</ele>
        <time>2012-01-13T14:37:17Z</time>
      </trkpt>
      <trkpt lat="49.16859" lon="-0.4008">
        <ele>-2.5</ele>
        <time>2012-01-13T14:37:18Z</time>
      </trkpt>
      <trkpt lat="49.16858" lon="-0.40082">
        <ele>-1.7</ele>
        <time>2012-01-13T14:37:19Z</time>
      </trkpt>
      <trkpt lat="49.16857" lon="-0.40083">
        <ele>-0.8</ele>
        <time>2012-01-13T14:37:20Z</time>
      </trkpt>
      <trkpt lat="49.16857" lon="-0.40085">
        <ele>-0.5</ele>
        <time>2012-01-13T14:37:21Z</time>
      </trkpt>
      <trkpt lat="49.16857" lon="-0.40087">
        <ele>-0.3</ele>
        <time>2012-01-13T14:37:22Z</time>
      </trkpt>
      <trkpt lat="49.16857" lon="-0.40088">
        <ele>-0.2</ele>
        <time>2012-01-13T14:37:23Z</time>
      </trkpt>
      <trkpt lat="49.16857" lon="-0.4009">
        <ele>10.4</ele>
        <time>2012-01-13T14:37:24Z</time>
      </trkpt>
      <trkpt lat="49.16858" lon="-0.40092">
        <ele>0.5</ele>
        <time>2012-01-13T14:37:25Z</time>
      </trkpt>
      <trkpt lat="49.16858" lon="-0.40094">
        <ele>0.8</ele>
        <time>2012-01-13T14:37:26Z</time>
      </trkpt>
      <trkpt lat="49.16858" lon="-0.40095">
        <ele>1.1</ele>
        <time>2012-01-13T14:37:27Z</time>
      </trkpt>
      <trkpt lat="49.16857" lon="-0.40097">
        <ele>1.6</ele>
        <time>2012-01-13T14:37:28Z</time>
      </trkpt>
      <trkpt lat="49.16857" lon="-0.40098">
        <ele>2</ele>
        <time>2012-01-13T14:37:29Z</time>
      </trkpt>
      <trkpt lat="49.16857" lon="-0.40099">
        <ele>2.5</ele>
        <time>2012-01-13T14:37:30Z</time>
      </trkpt>
      <trkpt lat="49.16856" lon="-0.40101">
        <ele>3</ele>
        <time>2012-01-13T14:37:31Z</time>
      </trkpt>
      <trkpt lat="49.16856" lon="-0.40102">
        <ele>3.7</ele>
        <time>2012-01-13T14:37:32Z</time>
      </trkpt>
      <trkpt lat="49.16855" lon="-0.40103">
        <ele>4</ele>
        <time>2012-01-13T14:37:33Z</time>
      </trkpt>
      <trkpt lat="49.16855" lon="-0.40104">
        <ele>4.8</ele>
        <time>2012-01-13T14:37:34Z</time>
      </trkpt>
      <trkpt lat="49.16855" lon="-0.40105">
        <ele>5</ele>
        <time>2012-01-13T14:37:35Z</time>
      </trkpt>
      <trkpt lat="49.16855" lon="-0.40107">
        <ele>5</ele>
        <time>2012-01-13T14:37:36Z</time>
      </trkpt>
      <trkpt lat="49.16855" lon="-0.40108">
        <ele>6.3</ele>
        <time>2012-01-13T14:37:37Z</time>
      </trkpt>
      <trkpt lat="49.16856" lon="-0.4011">
        <ele>6.5</ele>
        <time>2012-01-13T14:37:38Z</time>
      </trkpt>
      <trkpt lat="49.16856" lon="-0.40111">
        <ele>7</ele>
        <time>2012-01-13T14:37:39Z</time>
      </trkpt>
      <trkpt lat="49.16856" lon="-0.40112">
        <ele>7.5</ele>
        <time>2012-01-13T14:37:40Z</time>
      </trkpt>
      <trkpt lat="49.16857" lon="-0.40114">
        <ele>7.8</ele>
        <time>2012-01-13T14:37:41Z</time>
      </trkpt>
      <trkpt lat="49.16856" lon="-0.40116">
        <ele>8.1</ele>
        <time>2012-01-13T14:37:42Z</time>
      </trkpt>
      <trkpt lat="49.16856" lon="-0.40117">
        <ele>8.6</ele>
        <time>2012-01-13T14:37:43Z</time>
      </trkpt>
      <trkpt lat="49.16855" lon="-0.40118">
        <ele>8.8</ele>
        <time>2012-01-13T14:37:44Z</time>
      </trkpt>
      <trkpt lat="49.16855" lon="-0.4012">
        <ele>8.6</ele>
        <time>2012-01-13T14:37:45Z</time>
      </trkpt>
      <trkpt lat="49.16855" lon="-0.40122">
        <ele>8.6</ele>
        <time>2012-01-13T14:37:46Z</time>
      </trkpt>
      <trkpt lat="49.16855" lon="-0.40123">
        <ele>8.8</ele>
        <time>2012-01-13T14:37:47Z</time>
      </trkpt>
      <trkpt lat="49.16855" lon="-0.40124">
        <ele>9.3</ele>
        <time>2012-01-13T14:37:48Z</time>
      </trkpt>
      <trkpt lat="49.16855" lon="-0.40124">
        <ele>9.3</ele>
        <time>2012-01-13T14:37:49Z</time>
      </trkpt>
      <trkpt lat="49.16854" lon="-0.40124">
        <ele>9.1</ele>
        <time>2012-01-13T14:37:50Z</time>
      </trkpt>
      <trkpt lat="49.16854" lon="-0.40125">
        <ele>9.3</ele>
        <time>2012-01-13T14:37:51Z</time>
      </trkpt>
      <trkpt lat="49.16853" lon="-0.40126">
        <ele>9.3</ele>
        <time>2012-01-13T14:37:52Z</time>
      </trkpt>
      <trkpt lat="49.16854" lon="-0.40125">
        <ele>9.3</ele>
        <time>2012-01-13T14:37:53Z</time>
      </trkpt>
      <trkpt lat="49.16854" lon="-0.40125">
        <ele>9.1</ele>
        <time>2012-01-13T14:37:54Z</time>
      </trkpt>
      <trkpt lat="49.16855" lon="-0.40125">
        <ele>8.6</ele>
        <time>2012-01-13T14:37:55Z</time>
      </trkpt>
      <trkpt lat="49.16855" lon="-0.40125">
        <ele>8.1</ele>
        <time>2012-01-13T14:37:56Z</time>
      </trkpt>
      <trkpt lat="49.16856" lon="-0.40125">
        <ele>7.8</ele>
        <time>2012-01-13T14:37:57Z</time>
      </trkpt>
      <trkpt lat="49.16855" lon="-0.40126">
        <ele>7</ele>
        <time>2012-01-13T14:37:58Z</time>
      </trkpt>
      <trkpt lat="49.16855" lon="-0.40127">
        <ele>7.5</ele>
        <time>2012-01-13T14:37:59Z</time>
      </trkpt>
      <trkpt lat="49.16856" lon="-0.40128">
        <ele>7.5</ele>
        <time>2012-01-13T14:38:00Z</time>
      </trkpt>
      <trkpt lat="49.16856" lon="-0.4013">
        <ele>7.4</ele>
        <time>2012-01-13T14:38:01Z</time>
      </trkpt>
      <trkpt lat="49.16857" lon="-0.40131">
        <ele>7.5</ele>
        <time>2012-01-13T14:38:02Z</time>
      </trkpt>
      <trkpt lat="49.16857" lon="-0.40132">
        <ele>8</ele>
        <time>2012-01-13T14:38:03Z</time>
      </trkpt>
      <trkpt lat="49.16857" lon="-0.40134">
        <ele>8.3</ele>
        <time>2012-01-13T14:38:04Z</time>
      </trkpt>
      <trkpt lat="49.16858" lon="-0.40135">
        <ele>9.1</ele>
        <time>2012-01-13T14:38:05Z</time>
      </trkpt>
      <trkpt lat="49.16857" lon="-0.40136">
        <ele>9.3</ele>
        <time>2012-01-13T14:38:06Z</time>
      </trkpt>
      <trkpt lat="49.16857" lon="-0.40138">
        <ele>10.1</ele>
        <time>2012-01-13T14:38:07Z</time>
      </trkpt>
      <trkpt lat="49.16857" lon="-0.40139">
        <ele>10.6</ele>
        <time>2012-01-13T14:38:08Z</time>
      </trkpt>
      <trkpt lat="49.16857" lon="-0.4014">
        <ele>10.8</ele>
        <time>2012-01-13T14:38:09Z</time>
      </trkpt>
      <trkpt lat="49.16857" lon="-0.40142">
        <ele>11.1</ele>
        <time>2012-01-13T14:38:10Z</time>
      </trkpt>
      <trkpt lat="49.16857" lon="-0.40143">
        <ele>10.8</ele>
        <time>2012-01-13T14:38:11Z</time>
      </trkpt>
      <trkpt lat="49.16857" lon="-0.40144">
        <ele>12</ele>
        <time>2012-01-13T14:38:12Z</time>
      </trkpt>
      <trkpt lat="49.16857" lon="-0.40146">
        <ele>12.1</ele>
        <time>2012-01-13T14:38:13Z</time>
      </trkpt>
      <trkpt lat="49.16857" lon="-0.40147">
        <ele>12.6</ele>
        <time>2012-01-13T14:38:14Z</time>
      </trkpt>
      <trkpt lat="49.16857" lon="-0.40149">
        <ele>13.3</ele>
        <time>2012-01-13T14:38:15Z</time>
      </trkpt>
      <trkpt lat="49.16858" lon="-0.4015">
        <ele>13.3</ele>
        <time>2012-01-13T14:38:16Z</time>
      </trkpt>
      <trkpt lat="49.16858" lon="-0.4015">
        <ele>14.3</ele>
        <time>2012-01-13T14:38:17Z</time>
      </trkpt>
      <trkpt lat="49.16858" lon="-0.40151">
        <ele>15.3</ele>
        <time>2012-01-13T14:38:18Z</time>
      </trkpt>
      <trkpt lat="49.16857" lon="-0.40151">
        <ele>15.8</ele>
        <time>2012-01-13T14:38:19Z</time>
      </trkpt>
      <trkpt lat="49.16857" lon="-0.40152">
        <ele>16.5</ele>
        <time>2012-01-13T14:38:20Z</time>
      </trkpt>
      <trkpt lat="49.16855" lon="-0.40154">
        <ele>15.8</ele>
        <time>2012-01-13T14:38:21Z</time>
      </trkpt>
      <trkpt lat="49.16855" lon="-0.40155">
        <ele>15.6</ele>
        <time>2012-01-13T14:38:22Z</time>
      </trkpt>
      <trkpt lat="49.16854" lon="-0.40156">
        <ele>15.1</ele>
        <time>2012-01-13T14:38:23Z</time>
      </trkpt>
      <trkpt lat="49.16854" lon="-0.40157">
        <ele>13.8</ele>
        <time>2012-01-13T14:38:24Z</time>
      </trkpt>
      <trkpt lat="49.16853" lon="-0.40158">
        <ele>13</ele>
        <time>2012-01-13T14:38:25Z</time>
      </trkpt>
      <trkpt lat="49.16853" lon="-0.40159">
        <ele>12.3</ele>
        <time>2012-01-13T14:38:26Z</time>
      </trkpt>
      <trkpt lat="49.16852" lon="-0.40159">
        <ele>11.6</ele>
        <time>2012-01-13T14:38:27Z</time>
      </trkpt>
      <trkpt lat="49.16851" lon="-0.4016">
        <ele>11.6</ele>
        <time>2012-01-13T14:38:28Z</time>
      </trkpt>
      <trkpt lat="49.16851" lon="-0.40161">
        <ele>10.8</ele>
        <time>2012-01-13T14:38:29Z</time>
      </trkpt>
      <trkpt lat="49.16851" lon="-0.40162">
        <ele>9.8</ele>
        <time>2012-01-13T14:38:30Z</time>
      </trkpt>
      <trkpt lat="49.16851" lon="-0.40164">
        <ele>8.8</ele>
        <time>2012-01-13T14:38:31Z</time>
      </trkpt>
      <trkpt lat="49.1685" lon="-0.40165">
        <ele>7.9</ele>
        <time>2012-01-13T14:38:32Z</time>
      </trkpt>
      <trkpt lat="49.1685" lon="-0.40166">
        <ele>6.9</ele>
        <time>2012-01-13T14:38:33Z</time>
      </trkpt>
      <trkpt lat="49.1685" lon="-0.40168">
        <ele>7.4</ele>
        <time>2012-01-13T14:38:34Z</time>
      </trkpt>
      <trkpt lat="49.1685" lon="-0.40169">
        <ele>7.8</ele>
        <time>2012-01-13T14:38:35Z</time>
      </trkpt>
      <trkpt lat="49.1685" lon="-0.40171">
        <ele>8.1</ele>
        <time>2012-01-13T14:38:36Z</time>
      </trkpt>
      <trkpt lat="49.1685" lon="-0.40173">
        <ele>8.1</ele>
        <time>2012-01-13T14:38:37Z</time>
      </trkpt>
      <trkpt lat="49.1685" lon="-0.40175">
        <ele>8.1</ele>
        <time>2012-01-13T14:38:38Z</time>
      </trkpt>
      <trkpt lat="49.1685" lon="-0.40176">
        <ele>8</ele>
        <time>2012-01-13T14:38:39Z</time>
      </trkpt>
      <trkpt lat="49.16849" lon="-0.40178">
        <ele>7</ele>
        <time>2012-01-13T14:38:40Z</time>
      </trkpt>
      <trkpt lat="49.16849" lon="-0.4018">
        <ele>7</ele>
        <time>2012-01-13T14:38:41Z</time>
      </trkpt>
      <trkpt lat="49.16848" lon="-0.40182">
        <ele>7</ele>
        <time>2012-01-13T14:38:42Z</time>
      </trkpt>
      <trkpt lat="49.16849" lon="-0.40184">
        <ele>6.5</ele>
        <time>2012-01-13T14:38:43Z</time>
      </trkpt>
      <trkpt lat="49.16849" lon="-0.40185">
        <ele>6.4</ele>
        <time>2012-01-13T14:38:44Z</time>
      </trkpt>
      <trkpt lat="49.16849" lon="-0.40187">
        <ele>6.8</ele>
        <time>2012-01-13T14:38:45Z</time>
      </trkpt>
      <trkpt lat="49.1685" lon="-0.40189">
        <ele>7.4</ele>
        <time>2012-01-13T14:38:46Z</time>
      </trkpt>
      <trkpt lat="49.1685" lon="-0.40191">
        <ele>7.5</ele>
        <time>2012-01-13T14:38:47Z</time>
      </trkpt>
      <trkpt lat="49.1685" lon="-0.40192">
        <ele>7.8</ele>
        <time>2012-01-13T14:38:48Z</time>
      </trkpt>
      <trkpt lat="49.1685" lon="-0.40193">
        <ele>8.1</ele>
        <time>2012-01-13T14:38:49Z</time>
      </trkpt>
      <trkpt lat="49.1685" lon="-0.40194">
        <ele>9.3</ele>
        <time>2012-01-13T14:38:50Z</time>
      </trkpt>
      <trkpt lat="49.1685" lon="-0.40195">
        <ele>10.1</ele>
        <time>2012-01-13T14:38:51Z</time>
      </trkpt>
      <trkpt lat="49.16849" lon="-0.40196">
        <ele>9.3</ele>
        <time>2012-01-13T14:38:52Z</time>
      </trkpt>
      <trkpt lat="49.16848" lon="-0.40198">
        <ele>8.1</ele>
        <time>2012-01-13T14:38:53Z</time>
      </trkpt>
      <trkpt lat="49.16848" lon="-0.40199">
        <ele>7.3</ele>
        <time>2012-01-13T14:38:54Z</time>
      </trkpt>
      <trkpt lat="49.16847" lon="-0.40201">
        <ele>7.5</ele>
        <time>2012-01-13T14:38:55Z</time>
      </trkpt>
      <trkpt lat="49.16847" lon="-0.40202">
        <ele>7.9</ele>
        <time>2012-01-13T14:38:56Z</time>
      </trkpt>
      <trkpt lat="49.16847" lon="-0.40204">
        <ele>8.3</ele>
        <time>2012-01-13T14:38:57Z</time>
      </trkpt>
      <trkpt lat="49.16846" lon="-0.40205">
        <ele>8.3</ele>
        <time>2012-01-13T14:38:58Z</time>
      </trkpt>
      <trkpt lat="49.16845" lon="-0.40206">
        <ele>8</ele>
        <time>2012-01-13T14:38:59Z</time>
      </trkpt>
      <trkpt lat="49.16845" lon="-0.40207">
        <ele>7.5</ele>
        <time>2012-01-13T14:39:00Z</time>
      </trkpt>
      <trkpt lat="49.16845" lon="-0.40209">
        <ele>7.5</ele>
        <time>2012-01-13T14:39:01Z</time>
      </trkpt>
      <trkpt lat="49.16844" lon="-0.4021">
        <ele>7.8</ele>
        <time>2012-01-13T14:39:02Z</time>
      </trkpt>
      <trkpt lat="49.16844" lon="-0.40212">
        <ele>8.1</ele>
        <time>2012-01-13T14:39:03Z</time>
      </trkpt>
      <trkpt lat="49.16843" lon="-0.40212">
        <ele>7.9</ele>
        <time>2012-01-13T14:39:04Z</time>
      </trkpt>
      <trkpt lat="49.16843" lon="-0.40213">
        <ele>8.1</ele>
        <time>2012-01-13T14:39:05Z</time>
      </trkpt>
      <trkpt lat="49.16843" lon="-0.40214">
        <ele>8.1</ele>
        <time>2012-01-13T14:39:06Z</time>
      </trkpt>
      <trkpt lat="49.16843" lon="-0.40215">
        <ele>9.3</ele>
        <time>2012-01-13T14:39:07Z</time>
      </trkpt>
      <trkpt lat="49.16843" lon="-0.40215">
        <ele>10.3</ele>
        <time>2012-01-13T14:39:08Z</time>
      </trkpt>
      <trkpt lat="49.16843" lon="-0.40215">
        <ele>10.6</ele>
        <time>2012-01-13T14:39:09Z</time>
      </trkpt>
      <trkpt lat="49.16842" lon="-0.40216">
        <ele>10.8</ele>
        <time>2012-01-13T14:39:10Z</time>
      </trkpt>
      <trkpt lat="49.16842" lon="-0.40216">
        <ele>11.6</ele>
        <time>2012-01-13T14:39:11Z</time>
      </trkpt>
      <trkpt lat="49.16842" lon="-0.40217">
        <ele>12.1</ele>
        <time>2012-01-13T14:39:12Z</time>
      </trkpt>
      <trkpt lat="49.16841" lon="-0.40218">
        <ele>13</ele>
        <time>2012-01-13T14:39:13Z</time>
      </trkpt>
      <trkpt lat="49.16841" lon="-0.40218">
        <ele>13.6</ele>
        <time>2012-01-13T14:39:14Z</time>
      </trkpt>
      <trkpt lat="49.1684" lon="-0.4022">
        <ele>13.8</ele>
        <time>2012-01-13T14:39:15Z</time>
      </trkpt>
      <trkpt lat="49.1684" lon="-0.40221">
        <ele>14.1</ele>
        <time>2012-01-13T14:39:16Z</time>
      </trkpt>
      <trkpt lat="49.1684" lon="-0.40221">
        <ele>14.1</ele>
        <time>2012-01-13T14:39:17Z</time>
      </trkpt>
      <trkpt lat="49.16839" lon="-0.40222">
        <ele>13.8</ele>
        <time>2012-01-13T14:39:18Z</time>
      </trkpt>
      <trkpt lat="49.16839" lon="-0.40223">
        <ele>14.5</ele>
        <time>2012-01-13T14:39:19Z</time>
      </trkpt>
      <trkpt lat="49.16838" lon="-0.40225">
        <ele>14.8</ele>
        <time>2012-01-13T14:39:20Z</time>
      </trkpt>
      <trkpt lat="49.16839" lon="-0.40226">
        <ele>16</ele>
        <time>2012-01-13T14:39:21Z</time>
      </trkpt>
      <trkpt lat="49.16839" lon="-0.40227">
        <ele>15.8</ele>
        <time>2012-01-13T14:39:22Z</time>
      </trkpt>
      <trkpt lat="49.16838" lon="-0.40228">
        <ele>15.6</ele>
        <time>2012-01-13T14:39:23Z</time>
      </trkpt>
      <trkpt lat="49.16837" lon="-0.40229">
        <ele>15.1</ele>
        <time>2012-01-13T14:39:24Z</time>
      </trkpt>
      <trkpt lat="49.16837" lon="-0.40229">
        <ele>15</ele>
        <time>2012-01-13T14:39:25Z</time>
      </trkpt>
      <trkpt lat="49.16836" lon="-0.40231">
        <ele>15.5</ele>
        <time>2012-01-13T14:39:26Z</time>
      </trkpt>
      <trkpt lat="49.16836" lon="-0.40232">
        <ele>15.6</ele>
        <time>2012-01-13T14:39:27Z</time>
      </trkpt>
      <trkpt lat="49.16836" lon="-0.40233">
        <ele>16.1</ele>
        <time>2012-01-13T14:39:28Z</time>
      </trkpt>
      <trkpt lat="49.16836" lon="-0.40235">
        <ele>16.6</ele>
        <time>2012-01-13T14:39:29Z</time>
      </trkpt>
      <trkpt lat="49.16836" lon="-0.40236">
        <ele>17.2</ele>
        <time>2012-01-13T14:39:30Z</time>
      </trkpt>
      <trkpt lat="49.16835" lon="-0.40238">
        <ele>16.7</ele>
        <time>2012-01-13T14:39:31Z</time>
      </trkpt>
      <trkpt lat="49.16835" lon="-0.40239">
        <ele>16.7</ele>
        <time>2012-01-13T14:39:32Z</time>
      </trkpt>
      <trkpt lat="49.16835" lon="-0.4024">
        <ele>16.2</ele>
        <time>2012-01-13T14:39:33Z</time>
      </trkpt>
      <trkpt lat="49.16834" lon="-0.40241">
        <ele>15.6</ele>
        <time>2012-01-13T14:39:34Z</time>
      </trkpt>
      <trkpt lat="49.16833" lon="-0.40241">
        <ele>15.5</ele>
        <time>2012-01-13T14:39:35Z</time>
      </trkpt>
      <trkpt lat="49.16833" lon="-0.40243">
        <ele>15.3</ele>
        <time>2012-01-13T14:39:36Z</time>
      </trkpt>
      <trkpt lat="49.16833" lon="-0.40245">
        <ele>15.5</ele>
        <time>2012-01-13T14:39:37Z</time>
      </trkpt>
      <trkpt lat="49.16834" lon="-0.40247">
        <ele>15.8</ele>
        <time>2012-01-13T14:39:38Z</time>
      </trkpt>
      <trkpt lat="49.16833" lon="-0.40248">
        <ele>15.8</ele>
        <time>2012-01-13T14:39:39Z</time>
      </trkpt>
      <trkpt lat="49.16833" lon="-0.40249">
        <ele>15.8</ele>
        <time>2012-01-13T14:39:40Z</time>
      </trkpt>
      <trkpt lat="49.16832" lon="-0.4025">
        <ele>15.8</ele>
        <time>2012-01-13T14:39:41Z</time>
      </trkpt>
      <trkpt lat="49.16832" lon="-0.40251">
        <ele>15.6</ele>
        <time>2012-01-13T14:39:42Z</time>
      </trkpt>
      <trkpt lat="49.16831" lon="-0.40252">
        <ele>15</ele>
        <time>2012-01-13T14:39:43Z</time>
      </trkpt>
      <trkpt lat="49.16831" lon="-0.40253">
        <ele>14.6</ele>
        <time>2012-01-13T14:39:44Z</time>
      </trkpt>
      <trkpt lat="49.1683" lon="-0.40253">
        <ele>14</ele>
        <time>2012-01-13T14:39:45Z</time>
      </trkpt>
      <trkpt lat="49.1683" lon="-0.40254">
        <ele>13.5</ele>
        <time>2012-01-13T14:39:46Z</time>
      </trkpt>
      <trkpt lat="49.16829" lon="-0.40256">
        <ele>13.3</ele>
        <time>2012-01-13T14:39:47Z</time>
      </trkpt>
      <trkpt lat="49.16829" lon="-0.40256">
        <ele>13.6</ele>
        <time>2012-01-13T14:39:48Z</time>
      </trkpt>
      <trkpt lat="49.16828" lon="-0.40257">
        <ele>13.6</ele>
        <time>2012-01-13T14:39:49Z</time>
      </trkpt>
      <trkpt lat="49.16828" lon="-0.40258">
        <ele>14.1</ele>
        <time>2012-01-13T14:39:50Z</time>
      </trkpt>
      <trkpt lat="49.16828" lon="-0.4026">
        <ele>14.1</ele>
        <time>2012-01-13T14:39:51Z</time>
      </trkpt>
      <trkpt lat="49.16827" lon="-0.40261">
        <ele>13.6</ele>
        <time>2012-01-13T14:39:52Z</time>
      </trkpt>
      <trkpt lat="49.16827" lon="-0.40263">
        <ele>14</ele>
        <time>2012-01-13T14:39:53Z</time>
      </trkpt>
      <trkpt lat="49.16826" lon="-0.40264">
        <ele>13.8</ele>
        <time>2012-01-13T14:39:54Z</time>
      </trkpt>
      <trkpt lat="49.16826" lon="-0.40265">
        <ele>13.3</ele>
        <time>2012-01-13T14:39:55Z</time>
      </trkpt>
      <trkpt lat="49.16825" lon="-0.40266">
        <ele>13.3</ele>
        <time>2012-01-13T14:39:56Z</time>
      </trkpt>
      <trkpt lat="49.16824" lon="-0.40267">
        <ele>12.8</ele>
        <time>2012-01-13T14:39:57Z</time>
      </trkpt>
      <trkpt lat="49.16823" lon="-0.40269">
        <ele>12.8</ele>
        <time>2012-01-13T14:39:58Z</time>
      </trkpt>
      <trkpt lat="49.16822" lon="-0.4027">
        <ele>12.1</ele>
        <time>2012-01-13T14:39:59Z</time>
      </trkpt>
      <trkpt lat="49.16822" lon="-0.40271">
        <ele>11.3</ele>
        <time>2012-01-13T14:40:00Z</time>
      </trkpt>
      <trkpt lat="49.16821" lon="-0.40273">
        <ele>11</ele>
        <time>2012-01-13T14:40:01Z</time>
      </trkpt>
      <trkpt lat="49.16821" lon="-0.40275">
        <ele>10.8</ele>
        <time>2012-01-13T14:40:02Z</time>
      </trkpt>
      <trkpt lat="49.1682" lon="-0.40276">
        <ele>10.8</ele>
        <time>2012-01-13T14:40:03Z</time>
      </trkpt>
      <trkpt lat="49.1682" lon="-0.40277">
        <ele>11.3</ele>
        <time>2012-01-13T14:40:04Z</time>
      </trkpt>
      <trkpt lat="49.1682" lon="-0.40278">
        <ele>11.6</ele>
        <time>2012-01-13T14:40:05Z</time>
      </trkpt>
      <trkpt lat="49.1682" lon="-0.40279">
        <ele>12.3</ele>
        <time>2012-01-13T14:40:06Z</time>
      </trkpt>
      <trkpt lat="49.1682" lon="-0.4028">
        <ele>12.3</ele>
        <time>2012-01-13T14:40:07Z</time>
      </trkpt>
      <trkpt lat="49.1682" lon="-0.40281">
        <ele>12.6</ele>
        <time>2012-01-13T14:40:08Z</time>
      </trkpt>
      <trkpt lat="49.1682" lon="-0.40283">
        <ele>13.1</ele>
        <time>2012-01-13T14:40:09Z</time>
      </trkpt>
      <trkpt lat="49.1682" lon="-0.40284">
        <ele>13.1</ele>
        <time>2012-01-13T14:40:10Z</time>
      </trkpt>
      <trkpt lat="49.16819" lon="-0.40285">
        <ele>13.3</ele>
        <time>2012-01-13T14:40:11Z</time>
      </trkpt>
      <trkpt lat="49.16819" lon="-0.40287">
        <ele>12.5</ele>
        <time>2012-01-13T14:40:12Z</time>
      </trkpt>
      <trkpt lat="49.16819" lon="-0.40288">
        <ele>12.1</ele>
        <time>2012-01-13T14:40:13Z</time>
      </trkpt>
      <trkpt lat="49.16818" lon="-0.4029">
        <ele>11.8</ele>
        <time>2012-01-13T14:40:14Z</time>
      </trkpt>
      <trkpt lat="49.16818" lon="-0.40292">
        <ele>12.1</ele>
        <time>2012-01-13T14:40:15Z</time>
      </trkpt>
      <trkpt lat="49.16818" lon="-0.40293">
        <ele>12.3</ele>
        <time>2012-01-13T14:40:16Z</time>
      </trkpt>
      <trkpt lat="49.16818" lon="-0.40295">
        <ele>12.5</ele>
        <time>2012-01-13T14:40:17Z</time>
      </trkpt>
      <trkpt lat="49.16818" lon="-0.40296">
        <ele>12.3</ele>
        <time>2012-01-13T14:40:18Z</time>
      </trkpt>
      <trkpt lat="49.16818" lon="-0.40297">
        <ele>12.3</ele>
        <time>2012-01-13T14:40:19Z</time>
      </trkpt>
      <trkpt lat="49.16818" lon="-0.40299">
        <ele>12.1</ele>
        <time>2012-01-13T14:40:20Z</time>
      </trkpt>
      <trkpt lat="49.16818" lon="-0.403">
        <ele>11.6</ele>
        <time>2012-01-13T14:40:21Z</time>
      </trkpt>
      <trkpt lat="49.16817" lon="-0.40302">
        <ele>11.6</ele>
        <time>2012-01-13T14:40:22Z</time>
      </trkpt>
      <trkpt lat="49.16817" lon="-0.40303">
        <ele>11.6</ele>
        <time>2012-01-13T14:40:23Z</time>
      </trkpt>
      <trkpt lat="49.16817" lon="-0.40305">
        <ele>11.8</ele>
        <time>2012-01-13T14:40:24Z</time>
      </trkpt>
      <trkpt lat="49.16816" lon="-0.40305">
        <ele>12.8</ele>
        <time>2012-01-13T14:40:25Z</time>
      </trkpt>
      <trkpt lat="49.16816" lon="-0.40307">
        <ele>13.6</ele>
        <time>2012-01-13T14:40:26Z</time>
      </trkpt>
      <trkpt lat="49.16816" lon="-0.40308">
        <ele>14.8</ele>
        <time>2012-01-13T14:40:27Z</time>
      </trkpt>
      <trkpt lat="49.16816" lon="-0.40309">
        <ele>15.3</ele>
        <time>2012-01-13T14:40:28Z</time>
      </trkpt>
      <trkpt lat="49.16816" lon="-0.40311">
        <ele>15.5</ele>
        <time>2012-01-13T14:40:29Z</time>
      </trkpt>
      <trkpt lat="49.16816" lon="-0.40312">
        <ele>15.5</ele>
        <time>2012-01-13T14:40:30Z</time>
      </trkpt>
      <trkpt lat="49.16815" lon="-0.40313">
        <ele>15.3</ele>
        <time>2012-01-13T14:40:31Z</time>
      </trkpt>
      <trkpt lat="49.16816" lon="-0.40314">
        <ele>15.5</ele>
        <time>2012-01-13T14:40:32Z</time>
      </trkpt>
      <trkpt lat="49.16816" lon="-0.40315">
        <ele>15.6</ele>
        <time>2012-01-13T14:40:33Z</time>
      </trkpt>
      <trkpt lat="49.16815" lon="-0.40316">
        <ele>15</ele>
        <time>2012-01-13T14:40:34Z</time>
      </trkpt>
      <trkpt lat="49.16815" lon="-0.40317">
        <ele>14.1</ele>
        <time>2012-01-13T14:40:35Z</time>
      </trkpt>
      <trkpt lat="49.16814" lon="-0.40318">
        <ele>13.1</ele>
        <time>2012-01-13T14:40:36Z</time>
      </trkpt>
      <trkpt lat="49.16813" lon="-0.40319">
        <ele>12.1</ele>
        <time>2012-01-13T14:40:37Z</time>
      </trkpt>
      <trkpt lat="49.16813" lon="-0.4032">
        <ele>11.8</ele>
        <time>2012-01-13T14:40:38Z</time>
      </trkpt>
      <trkpt lat="49.16813" lon="-0.40322">
        <ele>11.8</ele>
        <time>2012-01-13T14:40:39Z</time>
      </trkpt>
      <trkpt lat="49.16813" lon="-0.40323">
        <ele>12.1</ele>
        <time>2012-01-13T14:40:40Z</time>
      </trkpt>
      <trkpt lat="49.16813" lon="-0.40325">
        <ele>12.1</ele>
        <time>2012-01-13T14:40:41Z</time>
      </trkpt>
      <trkpt lat="49.16813" lon="-0.40327">
        <ele>11.5</ele>
        <time>2012-01-13T14:40:42Z</time>
      </trkpt>
      <trkpt lat="49.16813" lon="-0.40328">
        <ele>11.5</ele>
        <time>2012-01-13T14:40:43Z</time>
      </trkpt>
      <trkpt lat="49.16813" lon="-0.4033">
        <ele>11.6</ele>
        <time>2012-01-13T14:40:44Z</time>
      </trkpt>
      <trkpt lat="49.16813" lon="-0.40332">
        <ele>11.8</ele>
        <time>2012-01-13T14:40:45Z</time>
      </trkpt>
      <trkpt lat="49.16812" lon="-0.40333">
        <ele>11.1</ele>
        <time>2012-01-13T14:40:46Z</time>
      </trkpt>
      <trkpt lat="49.16812" lon="-0.40334">
        <ele>10.6</ele>
        <time>2012-01-13T14:40:47Z</time>
      </trkpt>
      <trkpt lat="49.16812" lon="-0.40335">
        <ele>10.6</ele>
        <time>2012-01-13T14:40:48Z</time>
      </trkpt>
      <trkpt lat="49.16811" lon="-0.40336">
        <ele>10.3</ele>
        <time>2012-01-13T14:40:49Z</time>
      </trkpt>
      <trkpt lat="49.16811" lon="-0.40336">
        <ele>10.3</ele>
        <time>2012-01-13T14:40:50Z</time>
      </trkpt>
      <trkpt lat="49.16811" lon="-0.40336">
        <ele>9.8</ele>
        <time>2012-01-13T14:40:51Z</time>
      </trkpt>
      <trkpt lat="49.16811" lon="-0.40336">
        <ele>9.1</ele>
        <time>2012-01-13T14:40:52Z</time>
      </trkpt>
      <trkpt lat="49.16811" lon="-0.40337">
        <ele>8.6</ele>
        <time>2012-01-13T14:40:53Z</time>
      </trkpt>
      <trkpt lat="49.16811" lon="-0.40337">
        <ele>8.1</ele>
        <time>2012-01-13T14:40:54Z</time>
      </trkpt>
      <trkpt lat="49.16811" lon="-0.40337">
        <ele>7.5</ele>
        <time>2012-01-13T14:40:55Z</time>
      </trkpt>
      <trkpt lat="49.16811" lon="-0.40337">
        <ele>6.9</ele>
        <time>2012-01-13T14:40:56Z</time>
      </trkpt>
      <trkpt lat="49.16811" lon="-0.40338">
        <ele>6.4</ele>
        <time>2012-01-13T14:40:57Z</time>
      </trkpt>
      <trkpt lat="49.16811" lon="-0.40338">
        <ele>5.9</ele>
        <time>2012-01-13T14:40:58Z</time>
      </trkpt>
      <trkpt lat="49.16811" lon="-0.40338">
        <ele>5.5</ele>
        <time>2012-01-13T14:40:59Z</time>
      </trkpt>
      <trkpt lat="49.16811" lon="-0.40338">
        <ele>5.4</ele>
        <time>2012-01-13T14:41:00Z</time>
      </trkpt>
      <trkpt lat="49.16811" lon="-0.40338">
        <ele>5</ele>
        <time>2012-01-13T14:41:01Z</time>
      </trkpt>
      <trkpt lat="49.16811" lon="-0.40339">
        <ele>4.8</ele>
        <time>2012-01-13T14:41:02Z</time>
      </trkpt>
      <trkpt lat="49.16811" lon="-0.40341">
        <ele>5</ele>
        <time>2012-01-13T14:41:03Z</time>
      </trkpt>
      <trkpt lat="49.16811" lon="-0.40341">
        <ele>5.5</ele>
        <time>2012-01-13T14:41:04Z</time>
      </trkpt>
      <trkpt lat="49.16811" lon="-0.40342">
        <ele>6.9</ele>
        <time>2012-01-13T14:41:05Z</time>
      </trkpt>
      <trkpt lat="49.1681" lon="-0.40345">
        <ele>7</ele>
        <time>2012-01-13T14:41:06Z</time>
      </trkpt>
      <trkpt lat="49.1681" lon="-0.40346">
        <ele>7.4</ele>
        <time>2012-01-13T14:41:07Z</time>
      </trkpt>
      <trkpt lat="49.1681" lon="-0.40347">
        <ele>7.5</ele>
        <time>2012-01-13T14:41:08Z</time>
      </trkpt>
      <trkpt lat="49.1681" lon="-0.40349">
        <ele>7.4</ele>
        <time>2012-01-13T14:41:09Z</time>
      </trkpt>
      <trkpt lat="49.1681" lon="-0.40351">
        <ele>7.8</ele>
        <time>2012-01-13T14:41:10Z</time>
      </trkpt>
      <trkpt lat="49.1681" lon="-0.40354">
        <ele>7.9</ele>
        <time>2012-01-13T14:41:11Z</time>
      </trkpt>
      <trkpt lat="49.1681" lon="-0.40355">
        <ele>8.8</ele>
        <time>2012-01-13T14:41:12Z</time>
      </trkpt>
      <trkpt lat="49.16809" lon="-0.40355">
        <ele>9.8</ele>
        <time>2012-01-13T14:41:13Z</time>
      </trkpt>
      <trkpt lat="49.1681" lon="-0.40357">
        <ele>10.5</ele>
        <time>2012-01-13T14:41:14Z</time>
      </trkpt>
      <trkpt lat="49.1681" lon="-0.40358">
        <ele>11.1</ele>
        <time>2012-01-13T14:41:15Z</time>
      </trkpt>
      <trkpt lat="49.16809" lon="-0.4036">
        <ele>11.5</ele>
        <time>2012-01-13T14:41:16Z</time>
      </trkpt>
      <trkpt lat="49.16809" lon="-0.40361">
        <ele>12.5</ele>
        <time>2012-01-13T14:41:17Z</time>
      </trkpt>
      <trkpt lat="49.16809" lon="-0.40362">
        <ele>13.1</ele>
        <time>2012-01-13T14:41:18Z</time>
      </trkpt>
      <trkpt lat="49.16809" lon="-0.40363">
        <ele>13.6</ele>
        <time>2012-01-13T14:41:19Z</time>
      </trkpt>
      <trkpt lat="49.16808" lon="-0.40365">
        <ele>14.3</ele>
        <time>2012-01-13T14:41:20Z</time>
      </trkpt>
      <trkpt lat="49.16807" lon="-0.40366">
        <ele>14.8</ele>
        <time>2012-01-13T14:41:21Z</time>
      </trkpt>
      <trkpt lat="49.16806" lon="-0.40367">
        <ele>14.6</ele>
        <time>2012-01-13T14:41:22Z</time>
      </trkpt>
      <trkpt lat="49.16805" lon="-0.40368">
        <ele>14.6</ele>
        <time>2012-01-13T14:41:23Z</time>
      </trkpt>
      <trkpt lat="49.16805" lon="-0.40368">
        <ele>14.8</ele>
        <time>2012-01-13T14:41:24Z</time>
      </trkpt>
      <trkpt lat="49.16804" lon="-0.4037">
        <ele>14.8</ele>
        <time>2012-01-13T14:41:25Z</time>
      </trkpt>
      <trkpt lat="49.16804" lon="-0.40371">
        <ele>15.1</ele>
        <time>2012-01-13T14:41:26Z</time>
      </trkpt>
      <trkpt lat="49.16804" lon="-0.40372">
        <ele>15.6</ele>
        <time>2012-01-13T14:41:27Z</time>
      </trkpt>
      <trkpt lat="49.16804" lon="-0.40373">
        <ele>16</ele>
        <time>2012-01-13T14:41:28Z</time>
      </trkpt>
      <trkpt lat="49.16804" lon="-0.40374">
        <ele>16.1</ele>
        <time>2012-01-13T14:41:29Z</time>
      </trkpt>
      <trkpt lat="49.16804" lon="-0.40376">
        <ele>16.2</ele>
        <time>2012-01-13T14:41:30Z</time>
      </trkpt>
      <trkpt lat="49.16804" lon="-0.40377">
        <ele>16.2</ele>
        <time>2012-01-13T14:41:31Z</time>
      </trkpt>
      <trkpt lat="49.16803" lon="-0.40377">
        <ele>16.6</ele>
        <time>2012-01-13T14:41:32Z</time>
      </trkpt>
      <trkpt lat="49.16803" lon="-0.40379">
        <ele>16.7</ele>
        <time>2012-01-13T14:41:33Z</time>
      </trkpt>
      <trkpt lat="49.16802" lon="-0.4038">
        <ele>16.5</ele>
        <time>2012-01-13T14:41:34Z</time>
      </trkpt>
      <trkpt lat="49.16802" lon="-0.40382">
        <ele>16</ele>
        <time>2012-01-13T14:41:35Z</time>
      </trkpt>
      <trkpt lat="49.16801" lon="-0.40384">
        <ele>15.6</ele>
        <time>2012-01-13T14:41:36Z</time>
      </trkpt>
      <trkpt lat="49.16801" lon="-0.40385">
        <ele>15.5</ele>
        <time>2012-01-13T14:41:37Z</time>
      </trkpt>
      <trkpt lat="49.16801" lon="-0.40387">
        <ele>15.3</ele>
        <time>2012-01-13T14:41:38Z</time>
      </trkpt>
      <trkpt lat="49.16801" lon="-0.40388">
        <ele>15.1</ele>
        <time>2012-01-13T14:41:39Z</time>
      </trkpt>
      <trkpt lat="49.16801" lon="-0.40389">
        <ele>15.3</ele>
        <time>2012-01-13T14:41:40Z</time>
      </trkpt>
      <trkpt lat="49.16801" lon="-0.40391">
        <ele>15.6</ele>
        <time>2012-01-13T14:41:41Z</time>
      </trkpt>
      <trkpt lat="49.16801" lon="-0.40393">
        <ele>15.3</ele>
        <time>2012-01-13T14:41:42Z</time>
      </trkpt>
      <trkpt lat="49.16801" lon="-0.40394">
        <ele>15</ele>
        <time>2012-01-13T14:41:43Z</time>
      </trkpt>
      <trkpt lat="49.16801" lon="-0.40396">
        <ele>14.8</ele>
        <time>2012-01-13T14:41:44Z</time>
      </trkpt>
      <trkpt lat="49.16801" lon="-0.40397">
        <ele>14.6</ele>
        <time>2012-01-13T14:41:45Z</time>
      </trkpt>
      <trkpt lat="49.16801" lon="-0.40399">
        <ele>14.6</ele>
        <time>2012-01-13T14:41:46Z</time>
      </trkpt>
      <trkpt lat="49.16801" lon="-0.404">
        <ele>14.5</ele>
        <time>2012-01-13T14:41:47Z</time>
      </trkpt>
      <trkpt lat="49.16801" lon="-0.40402">
        <ele>14.3</ele>
        <time>2012-01-13T14:41:48Z</time>
      </trkpt>
      <trkpt lat="49.16801" lon="-0.40404">
        <ele>14.5</ele>
        <time>2012-01-13T14:41:49Z</time>
      </trkpt>
      <trkpt lat="49.16801" lon="-0.40405">
        <ele>14.8</ele>
        <time>2012-01-13T14:41:50Z</time>
      </trkpt>
      <trkpt lat="49.16801" lon="-0.40406">
        <ele>14.8</ele>
        <time>2012-01-13T14:41:51Z</time>
      </trkpt>
      <trkpt lat="49.16802" lon="-0.40408">
        <ele>14.6</ele>
        <time>2012-01-13T14:41:52Z</time>
      </trkpt>
      <trkpt lat="49.16802" lon="-0.4041">
        <ele>14.6</ele>
        <time>2012-01-13T14:41:53Z</time>
      </trkpt>
      <trkpt lat="49.16802" lon="-0.40412">
        <ele>14.6</ele>
        <time>2012-01-13T14:41:54Z</time>
      </trkpt>
      <trkpt lat="49.16802" lon="-0.40413">
        <ele>15</ele>
        <time>2012-01-13T14:41:55Z</time>
      </trkpt>
      <trkpt lat="49.16802" lon="-0.40415">
        <ele>15.3</ele>
        <time>2012-01-13T14:41:56Z</time>
      </trkpt>
      <trkpt lat="49.16803" lon="-0.40416">
        <ele>15.6</ele>
        <time>2012-01-13T14:41:57Z</time>
      </trkpt>
      <trkpt lat="49.16803" lon="-0.40418">
        <ele>15.1</ele>
        <time>2012-01-13T14:41:58Z</time>
      </trkpt>
      <trkpt lat="49.16803" lon="-0.40419">
        <ele>15.5</ele>
        <time>2012-01-13T14:41:59Z</time>
      </trkpt>
      <trkpt lat="49.16803" lon="-0.40421">
        <ele>15.6</ele>
        <time>2012-01-13T14:42:00Z</time>
      </trkpt>
      <trkpt lat="49.16803" lon="-0.40422">
        <ele>15.3</ele>
        <time>2012-01-13T14:42:01Z</time>
      </trkpt>
      <trkpt lat="49.16803" lon="-0.40424">
        <ele>15.3</ele>
        <time>2012-01-13T14:42:02Z</time>
      </trkpt>
      <trkpt lat="49.16803" lon="-0.40426">
        <ele>15.1</ele>
        <time>2012-01-13T14:42:03Z</time>
      </trkpt>
      <trkpt lat="49.16803" lon="-0.40427">
        <ele>14.8</ele>
        <time>2012-01-13T14:42:04Z</time>
      </trkpt>
      <trkpt lat="49.16804" lon="-0.40429">
        <ele>14.8</ele>
        <time>2012-01-13T14:42:05Z</time>
      </trkpt>
      <trkpt lat="49.16804" lon="-0.40431">
        <ele>14.8</ele>
        <time>2012-01-13T14:42:06Z</time>
      </trkpt>
      <trkpt lat="49.16804" lon="-0.40432">
        <ele>14.6</ele>
        <time>2012-01-13T14:42:07Z</time>
      </trkpt>
      <trkpt lat="49.16804" lon="-0.40434">
        <ele>14.6</ele>
        <time>2012-01-13T14:42:08Z</time>
      </trkpt>
      <trkpt lat="49.16803" lon="-0.40435">
        <ele>14.6</ele>
        <time>2012-01-13T14:42:09Z</time>
      </trkpt>
      <trkpt lat="49.16803" lon="-0.40437">
        <ele>14.5</ele>
        <time>2012-01-13T14:42:10Z</time>
      </trkpt>
      <trkpt lat="49.16803" lon="-0.40438">
        <ele>14.6</ele>
        <time>2012-01-13T14:42:11Z</time>
      </trkpt>
      <trkpt lat="49.16803" lon="-0.4044">
        <ele>14.6</ele>
        <time>2012-01-13T14:42:12Z</time>
      </trkpt>
      <trkpt lat="49.16803" lon="-0.40442">
        <ele>14.8</ele>
        <time>2012-01-13T14:42:13Z</time>
      </trkpt>
      <trkpt lat="49.16803" lon="-0.40443">
        <ele>14.8</ele>
        <time>2012-01-13T14:42:14Z</time>
      </trkpt>
      <trkpt lat="49.16803" lon="-0.40445">
        <ele>14.6</ele>
        <time>2012-01-13T14:42:15Z</time>
      </trkpt>
      <trkpt lat="49.16802" lon="-0.40446">
        <ele>14.3</ele>
        <time>2012-01-13T14:42:16Z</time>
      </trkpt>
      <trkpt lat="49.16802" lon="-0.40448">
        <ele>13.8</ele>
        <time>2012-01-13T14:42:17Z</time>
      </trkpt>
      <trkpt lat="49.16802" lon="-0.40449">
        <ele>14</ele>
        <time>2012-01-13T14:42:18Z</time>
      </trkpt>
      <trkpt lat="49.16802" lon="-0.40451">
        <ele>14</ele>
        <time>2012-01-13T14:42:19Z</time>
      </trkpt>
      <trkpt lat="49.16801" lon="-0.40452">
        <ele>14</ele>
        <time>2012-01-13T14:42:20Z</time>
      </trkpt>
      <trkpt lat="49.16801" lon="-0.40454">
        <ele>14</ele>
        <time>2012-01-13T14:42:21Z</time>
      </trkpt>
      <trkpt lat="49.16801" lon="-0.40455">
        <ele>13.8</ele>
        <time>2012-01-13T14:42:22Z</time>
      </trkpt>
      <trkpt lat="49.168" lon="-0.40457">
        <ele>13.6</ele>
        <time>2012-01-13T14:42:23Z</time>
      </trkpt>
      <trkpt lat="49.168" lon="-0.40458">
        <ele>13.8</ele>
        <time>2012-01-13T14:42:24Z</time>
      </trkpt>
      <trkpt lat="49.16799" lon="-0.40459">
        <ele>14</ele>
        <time>2012-01-13T14:42:25Z</time>
      </trkpt>
      <trkpt lat="49.16799" lon="-0.40461">
        <ele>14.3</ele>
        <time>2012-01-13T14:42:26Z</time>
      </trkpt>
      <trkpt lat="49.16798" lon="-0.40462">
        <ele>14.3</ele>
        <time>2012-01-13T14:42:27Z</time>
      </trkpt>
      <trkpt lat="49.16798" lon="-0.40464">
        <ele>14.5</ele>
        <time>2012-01-13T14:42:28Z</time>
      </trkpt>
      <trkpt lat="49.16798" lon="-0.40465">
        <ele>14.6</ele>
        <time>2012-01-13T14:42:29Z</time>
      </trkpt>
      <trkpt lat="49.16797" lon="-0.40466">
        <ele>14.8</ele>
        <time>2012-01-13T14:42:30Z</time>
      </trkpt>
      <trkpt lat="49.16797" lon="-0.40467">
        <ele>15.1</ele>
        <time>2012-01-13T14:42:31Z</time>
      </trkpt>
      <trkpt lat="49.16796" lon="-0.40469">
        <ele>15.3</ele>
        <time>2012-01-13T14:42:32Z</time>
      </trkpt>
      <trkpt lat="49.16796" lon="-0.4047">
        <ele>15.1</ele>
        <time>2012-01-13T14:42:33Z</time>
      </trkpt>
      <trkpt lat="49.16795" lon="-0.40472">
        <ele>14.8</ele>
        <time>2012-01-13T14:42:34Z</time>
      </trkpt>
      <trkpt lat="49.16794" lon="-0.40473">
        <ele>14.3</ele>
        <time>2012-01-13T14:42:35Z</time>
      </trkpt>
      <trkpt lat="49.16793" lon="-0.40475">
        <ele>13.8</ele>
        <time>2012-01-13T14:42:36Z</time>
      </trkpt>
      <trkpt lat="49.16793" lon="-0.40476">
        <ele>13.3</ele>
        <time>2012-01-13T14:42:37Z</time>
      </trkpt>
      <trkpt lat="49.16792" lon="-0.40477">
        <ele>13.6</ele>
        <time>2012-01-13T14:42:38Z</time>
      </trkpt>
      <trkpt lat="49.16792" lon="-0.40478">
        <ele>13.5</ele>
        <time>2012-01-13T14:42:39Z</time>
      </trkpt>
      <trkpt lat="49.16792" lon="-0.4048">
        <ele>13.3</ele>
        <time>2012-01-13T14:42:40Z</time>
      </trkpt>
      <trkpt lat="49.16791" lon="-0.40481">
        <ele>13.1</ele>
        <time>2012-01-13T14:42:41Z</time>
      </trkpt>
      <trkpt lat="49.16791" lon="-0.40482">
        <ele>12.6</ele>
        <time>2012-01-13T14:42:42Z</time>
      </trkpt>
      <trkpt lat="49.1679" lon="-0.40484">
        <ele>12.6</ele>
        <time>2012-01-13T14:42:43Z</time>
      </trkpt>
      <trkpt lat="49.1679" lon="-0.40485">
        <ele>12.8</ele>
        <time>2012-01-13T14:42:44Z</time>
      </trkpt>
      <trkpt lat="49.16789" lon="-0.40487">
        <ele>13</ele>
        <time>2012-01-13T14:42:45Z</time>
      </trkpt>
      <trkpt lat="49.16789" lon="-0.40488">
        <ele>12.6</ele>
        <time>2012-01-13T14:42:46Z</time>
      </trkpt>
      <trkpt lat="49.16788" lon="-0.4049">
        <ele>12.8</ele>
        <time>2012-01-13T14:42:47Z</time>
      </trkpt>
      <trkpt lat="49.16788" lon="-0.40491">
        <ele>13.3</ele>
        <time>2012-01-13T14:42:48Z</time>
      </trkpt>
      <trkpt lat="49.16788" lon="-0.40492">
        <ele>13.1</ele>
        <time>2012-01-13T14:42:49Z</time>
      </trkpt>
      <trkpt lat="49.16787" lon="-0.40494">
        <ele>12.5</ele>
        <time>2012-01-13T14:42:50Z</time>
      </trkpt>
      <trkpt lat="49.16787" lon="-0.40496">
        <ele>12</ele>
        <time>2012-01-13T14:42:51Z</time>
      </trkpt>
      <trkpt lat="49.16787" lon="-0.40497">
        <ele>11.3</ele>
        <time>2012-01-13T14:42:52Z</time>
      </trkpt>
      <trkpt lat="49.16787" lon="-0.40499">
        <ele>11.3</ele>
        <time>2012-01-13T14:42:53Z</time>
      </trkpt>
      <trkpt lat="49.16786" lon="-0.40501">
        <ele>11</ele>
        <time>2012-01-13T14:42:54Z</time>
      </trkpt>
      <trkpt lat="49.16786" lon="-0.40502">
        <ele>11</ele>
        <time>2012-01-13T14:42:55Z</time>
      </trkpt>
      <trkpt lat="49.16786" lon="-0.40504">
        <ele>10.1</ele>
        <time>2012-01-13T14:42:56Z</time>
      </trkpt>
      <trkpt lat="49.16786" lon="-0.40505">
        <ele>9.6</ele>
        <time>2012-01-13T14:42:57Z</time>
      </trkpt>
      <trkpt lat="49.16785" lon="-0.40507">
        <ele>9.1</ele>
        <time>2012-01-13T14:42:58Z</time>
      </trkpt>
      <trkpt lat="49.16785" lon="-0.40509">
        <ele>9.1</ele>
        <time>2012-01-13T14:42:59Z</time>
      </trkpt>
      <trkpt lat="49.16785" lon="-0.40511">
        <ele>8.6</ele>
        <time>2012-01-13T14:43:00Z</time>
      </trkpt>
      <trkpt lat="49.16785" lon="-0.40512">
        <ele>8.3</ele>
        <time>2012-01-13T14:43:01Z</time>
      </trkpt>
      <trkpt lat="49.16785" lon="-0.40514">
        <ele>8.5</ele>
        <time>2012-01-13T14:43:02Z</time>
      </trkpt>
      <trkpt lat="49.16785" lon="-0.40515">
        <ele>8.6</ele>
        <time>2012-01-13T14:43:03Z</time>
      </trkpt>
      <trkpt lat="49.16784" lon="-0.40517">
        <ele>8.8</ele>
        <time>2012-01-13T14:43:04Z</time>
      </trkpt>
      <trkpt lat="49.16784" lon="-0.40518">
        <ele>9.1</ele>
        <time>2012-01-13T14:43:05Z</time>
      </trkpt>
      <trkpt lat="49.16784" lon="-0.4052">
        <ele>9.3</ele>
        <time>2012-01-13T14:43:06Z</time>
      </trkpt>
      <trkpt lat="49.16784" lon="-0.40521">
        <ele>9.6</ele>
        <time>2012-01-13T14:43:07Z</time>
      </trkpt>
      <trkpt lat="49.16784" lon="-0.40523">
        <ele>10.6</ele>
        <time>2012-01-13T14:43:08Z</time>
      </trkpt>
      <trkpt lat="49.16785" lon="-0.40524">
        <ele>11</ele>
        <time>2012-01-13T14:43:09Z</time>
      </trkpt>
      <trkpt lat="49.16785" lon="-0.40525">
        <ele>10.8</ele>
        <time>2012-01-13T14:43:10Z</time>
      </trkpt>
      <trkpt lat="49.16785" lon="-0.40527">
        <ele>10.6</ele>
        <time>2012-01-13T14:43:11Z</time>
      </trkpt>
      <trkpt lat="49.16784" lon="-0.40529">
        <ele>10.8</ele>
        <time>2012-01-13T14:43:12Z</time>
      </trkpt>
      <trkpt lat="49.16784" lon="-0.4053">
        <ele>11</ele>
        <time>2012-01-13T14:43:13Z</time>
      </trkpt>
      <trkpt lat="49.16784" lon="-0.40531">
        <ele>11.3</ele>
        <time>2012-01-13T14:43:14Z</time>
      </trkpt>
      <trkpt lat="49.16784" lon="-0.40533">
        <ele>11.5</ele>
        <time>2012-01-13T14:43:15Z</time>
      </trkpt>
      <trkpt lat="49.16784" lon="-0.40534">
        <ele>11.8</ele>
        <time>2012-01-13T14:43:16Z</time>
      </trkpt>
      <trkpt lat="49.16785" lon="-0.40536">
        <ele>12</ele>
        <time>2012-01-13T14:43:17Z</time>
      </trkpt>
      <trkpt lat="49.16785" lon="-0.40537">
        <ele>12.1</ele>
        <time>2012-01-13T14:43:18Z</time>
      </trkpt>
      <trkpt lat="49.16785" lon="-0.40539">
        <ele>11.8</ele>
        <time>2012-01-13T14:43:19Z</time>
      </trkpt>
      <trkpt lat="49.16785" lon="-0.4054">
        <ele>11.5</ele>
        <time>2012-01-13T14:43:20Z</time>
      </trkpt>
      <trkpt lat="49.16786" lon="-0.40542">
        <ele>11.3</ele>
        <time>2012-01-13T14:43:21Z</time>
      </trkpt>
      <trkpt lat="49.16786" lon="-0.40544">
        <ele>11.3</ele>
        <time>2012-01-13T14:43:22Z</time>
      </trkpt>
      <trkpt lat="49.16786" lon="-0.40545">
        <ele>11.8</ele>
        <time>2012-01-13T14:43:23Z</time>
      </trkpt>
      <trkpt lat="49.16786" lon="-0.40547">
        <ele>11.8</ele>
        <time>2012-01-13T14:43:24Z</time>
      </trkpt>
      <trkpt lat="49.16786" lon="-0.40548">
        <ele>12.1</ele>
        <time>2012-01-13T14:43:25Z</time>
      </trkpt>
      <trkpt lat="49.16786" lon="-0.4055">
        <ele>12.3</ele>
        <time>2012-01-13T14:43:26Z</time>
      </trkpt>
      <trkpt lat="49.16786" lon="-0.40551">
        <ele>12.6</ele>
        <time>2012-01-13T14:43:27Z</time>
      </trkpt>
      <trkpt lat="49.16786" lon="-0.40553">
        <ele>12.6</ele>
        <time>2012-01-13T14:43:28Z</time>
      </trkpt>
      <trkpt lat="49.16787" lon="-0.40554">
        <ele>12.6</ele>
        <time>2012-01-13T14:43:29Z</time>
      </trkpt>
      <trkpt lat="49.16787" lon="-0.40555">
        <ele>13.1</ele>
        <time>2012-01-13T14:43:30Z</time>
      </trkpt>
      <trkpt lat="49.16787" lon="-0.40557">
        <ele>13.1</ele>
        <time>2012-01-13T14:43:31Z</time>
      </trkpt>
      <trkpt lat="49.16787" lon="-0.40558">
        <ele>13</ele>
        <time>2012-01-13T14:43:32Z</time>
      </trkpt>
      <trkpt lat="49.16788" lon="-0.40559">
        <ele>13.3</ele>
        <time>2012-01-13T14:43:33Z</time>
      </trkpt>
      <trkpt lat="49.16788" lon="-0.40561">
        <ele>13.3</ele>
        <time>2012-01-13T14:43:34Z</time>
      </trkpt>
      <trkpt lat="49.16788" lon="-0.40563">
        <ele>13.3</ele>
        <time>2012-01-13T14:43:35Z</time>
      </trkpt>
      <trkpt lat="49.16788" lon="-0.40565">
        <ele>13.3</ele>
        <time>2012-01-13T14:43:36Z</time>
      </trkpt>
      <trkpt lat="49.16789" lon="-0.40566">
        <ele>12.8</ele>
        <time>2012-01-13T14:43:37Z</time>
      </trkpt>
      <trkpt lat="49.16789" lon="-0.40568">
        <ele>12.8</ele>
        <time>2012-01-13T14:43:38Z</time>
      </trkpt>
      <trkpt lat="49.16789" lon="-0.40569">
        <ele>12.8</ele>
        <time>2012-01-13T14:43:39Z</time>
      </trkpt>
      <trkpt lat="49.16789" lon="-0.4057">
        <ele>13</ele>
        <time>2012-01-13T14:43:40Z</time>
      </trkpt>
      <trkpt lat="49.16789" lon="-0.40572">
        <ele>13.1</ele>
        <time>2012-01-13T14:43:41Z</time>
      </trkpt>
      <trkpt lat="49.16789" lon="-0.40573">
        <ele>13.3</ele>
        <time>2012-01-13T14:43:42Z</time>
      </trkpt>
      <trkpt lat="49.16789" lon="-0.40575">
        <ele>13.6</ele>
        <time>2012-01-13T14:43:43Z</time>
      </trkpt>
      <trkpt lat="49.16789" lon="-0.40576">
        <ele>13.6</ele>
        <time>2012-01-13T14:43:44Z</time>
      </trkpt>
      <trkpt lat="49.1679" lon="-0.40577">
        <ele>13.8</ele>
        <time>2012-01-13T14:43:45Z</time>
      </trkpt>
      <trkpt lat="49.1679" lon="-0.40579">
        <ele>14.1</ele>
        <time>2012-01-13T14:43:46Z</time>
      </trkpt>
      <trkpt lat="49.16791" lon="-0.4058">
        <ele>13.8</ele>
        <time>2012-01-13T14:43:47Z</time>
      </trkpt>
      <trkpt lat="49.16792" lon="-0.40581">
        <ele>13.8</ele>
        <time>2012-01-13T14:43:48Z</time>
      </trkpt>
      <trkpt lat="49.16792" lon="-0.40582">
        <ele>13.3</ele>
        <time>2012-01-13T14:43:49Z</time>
      </trkpt>
      <trkpt lat="49.16793" lon="-0.40584">
        <ele>12.8</ele>
        <time>2012-01-13T14:43:50Z</time>
      </trkpt>
      <trkpt lat="49.16794" lon="-0.40585">
        <ele>12.5</ele>
        <time>2012-01-13T14:43:51Z</time>
      </trkpt>
      <trkpt lat="49.16794" lon="-0.40586">
        <ele>12.6</ele>
        <time>2012-01-13T14:43:52Z</time>
      </trkpt>
      <trkpt lat="49.16794" lon="-0.40588">
        <ele>12.5</ele>
        <time>2012-01-13T14:43:53Z</time>
      </trkpt>
      <trkpt lat="49.16794" lon="-0.40589">
        <ele>12.8</ele>
        <time>2012-01-13T14:43:54Z</time>
      </trkpt>
      <trkpt lat="49.16793" lon="-0.40591">
        <ele>13.5</ele>
        <time>2012-01-13T14:43:55Z</time>
      </trkpt>
      <trkpt lat="49.16793" lon="-0.40592">
        <ele>13.8</ele>
        <time>2012-01-13T14:43:56Z</time>
      </trkpt>
      <trkpt lat="49.16793" lon="-0.40594">
        <ele>13.8</ele>
        <time>2012-01-13T14:43:57Z</time>
      </trkpt>
      <trkpt lat="49.16793" lon="-0.40595">
        <ele>14.1</ele>
        <time>2012-01-13T14:43:58Z</time>
      </trkpt>
      <trkpt lat="49.16793" lon="-0.40597">
        <ele>14.1</ele>
        <time>2012-01-13T14:43:59Z</time>
      </trkpt>
      <trkpt lat="49.16793" lon="-0.40598">
        <ele>14.3</ele>
        <time>2012-01-13T14:44:00Z</time>
      </trkpt>
      <trkpt lat="49.16793" lon="-0.406">
        <ele>14.6</ele>
        <time>2012-01-13T14:44:01Z</time>
      </trkpt>
      <trkpt lat="49.16793" lon="-0.40601">
        <ele>14.8</ele>
        <time>2012-01-13T14:44:02Z</time>
      </trkpt>
      <trkpt lat="49.16794" lon="-0.40602">
        <ele>15</ele>
        <time>2012-01-13T14:44:03Z</time>
      </trkpt>
      <trkpt lat="49.16794" lon="-0.40602">
        <ele>15.1</ele>
        <time>2012-01-13T14:44:04Z</time>
      </trkpt>
      <trkpt lat="49.16795" lon="-0.40603">
        <ele>15.3</ele>
        <time>2012-01-13T14:44:05Z</time>
      </trkpt>
      <trkpt lat="49.16796" lon="-0.40603">
        <ele>15.3</ele>
        <time>2012-01-13T14:44:06Z</time>
      </trkpt>
      <trkpt lat="49.16797" lon="-0.40604">
        <ele>15</ele>
        <time>2012-01-13T14:44:07Z</time>
      </trkpt>
      <trkpt lat="49.16797" lon="-0.40604">
        <ele>14.8</ele>
        <time>2012-01-13T14:44:08Z</time>
      </trkpt>
      <trkpt lat="49.16797" lon="-0.40605">
        <ele>14.6</ele>
        <time>2012-01-13T14:44:09Z</time>
      </trkpt>
      <trkpt lat="49.16796" lon="-0.40605">
        <ele>14.3</ele>
        <time>2012-01-13T14:44:10Z</time>
      </trkpt>
      <trkpt lat="49.16797" lon="-0.40606">
        <ele>14.1</ele>
        <time>2012-01-13T14:44:11Z</time>
      </trkpt>
      <trkpt lat="49.16796" lon="-0.40606">
        <ele>13.5</ele>
        <time>2012-01-13T14:44:12Z</time>
      </trkpt>
      <trkpt lat="49.16796" lon="-0.40607">
        <ele>12.8</ele>
        <time>2012-01-13T14:44:13Z</time>
      </trkpt>
      <trkpt lat="49.16795" lon="-0.40607">
        <ele>12.3</ele>
        <time>2012-01-13T14:44:14Z</time>
      </trkpt>
      <trkpt lat="49.16795" lon="-0.40607">
        <ele>12.3</ele>
        <time>2012-01-13T14:44:15Z</time>
      </trkpt>
      <trkpt lat="49.16794" lon="-0.40607">
        <ele>12.3</ele>
        <time>2012-01-13T14:44:16Z</time>
      </trkpt>
      <trkpt lat="49.16794" lon="-0.40607">
        <ele>12.3</ele>
        <time>2012-01-13T14:44:17Z</time>
      </trkpt>
      <trkpt lat="49.16794" lon="-0.40607">
        <ele>11.8</ele>
        <time>2012-01-13T14:44:18Z</time>
      </trkpt>
      <trkpt lat="49.16793" lon="-0.40606">
        <ele>11.5</ele>
        <time>2012-01-13T14:44:19Z</time>
      </trkpt>
      <trkpt lat="49.16793" lon="-0.40607">
        <ele>11.1</ele>
        <time>2012-01-13T14:44:20Z</time>
      </trkpt>
      <trkpt lat="49.16792" lon="-0.40607">
        <ele>10.6</ele>
        <time>2012-01-13T14:44:21Z</time>
      </trkpt>
      <trkpt lat="49.16793" lon="-0.40607">
        <ele>10</ele>
        <time>2012-01-13T14:44:22Z</time>
      </trkpt>
      <trkpt lat="49.16792" lon="-0.40607">
        <ele>9.8</ele>
        <time>2012-01-13T14:44:23Z</time>
      </trkpt>
      <trkpt lat="49.16792" lon="-0.40607">
        <ele>9.6</ele>
        <time>2012-01-13T14:44:24Z</time>
      </trkpt>
      <trkpt lat="49.16792" lon="-0.40607">
        <ele>9.3</ele>
        <time>2012-01-13T14:44:25Z</time>
      </trkpt>
      <trkpt lat="49.16792" lon="-0.40607">
        <ele>9.1</ele>
        <time>2012-01-13T14:44:26Z</time>
      </trkpt>
      <trkpt lat="49.16792" lon="-0.40607">
        <ele>8.8</ele>
        <time>2012-01-13T14:44:27Z</time>
      </trkpt>
      <trkpt lat="49.16792" lon="-0.40607">
        <ele>8.6</ele>
        <time>2012-01-13T14:44:28Z</time>
      </trkpt>
      <trkpt lat="49.16792" lon="-0.40607">
        <ele>8.5</ele>
        <time>2012-01-13T14:44:29Z</time>
      </trkpt>
      <trkpt lat="49.16791" lon="-0.40607">
        <ele>8.3</ele>
        <time>2012-01-13T14:44:30Z</time>
      </trkpt>
      <trkpt lat="49.16791" lon="-0.40607">
        <ele>8.1</ele>
        <time>2012-01-13T14:44:31Z</time>
      </trkpt>
      <trkpt lat="49.16791" lon="-0.40607">
        <ele>8.1</ele>
        <time>2012-01-13T14:44:32Z</time>
      </trkpt>
      <trkpt lat="49.16791" lon="-0.40607">
        <ele>8</ele>
        <time>2012-01-13T14:44:33Z</time>
      </trkpt>
      <trkpt lat="49.16791" lon="-0.40607">
        <ele>7.8</ele>
        <time>2012-01-13T14:44:34Z</time>
      </trkpt>
      <trkpt lat="49.16791" lon="-0.40607">
        <ele>7.5</ele>
        <time>2012-01-13T14:44:35Z</time>
      </trkpt>
      <trkpt lat="49.1679" lon="-0.40607">
        <ele>7.5</ele>
        <time>2012-01-13T14:44:36Z</time>
      </trkpt>
      <trkpt lat="49.1679" lon="-0.40607">
        <ele>7.5</ele>
        <time>2012-01-13T14:44:37Z</time>
      </trkpt>
      <trkpt lat="49.1679" lon="-0.40607">
        <ele>7.4</ele>
        <time>2012-01-13T14:44:38Z</time>
      </trkpt>
      <trkpt lat="49.1679" lon="-0.40607">
        <ele>7.3</ele>
        <time>2012-01-13T14:44:39Z</time>
      </trkpt>
      <trkpt lat="49.1679" lon="-0.40607">
        <ele>7.3</ele>
        <time>2012-01-13T14:44:40Z</time>
      </trkpt>
      <trkpt lat="49.1679" lon="-0.40607">
        <ele>7.3</ele>
        <time>2012-01-13T14:44:41Z</time>
      </trkpt>
      <trkpt lat="49.1679" lon="-0.40607">
        <ele>7.3</ele>
        <time>2012-01-13T14:44:42Z</time>
      </trkpt>
      <trkpt lat="49.1679" lon="-0.40607">
        <ele>7.5</ele>
        <time>2012-01-13T14:44:43Z</time>
      </trkpt>
      <trkpt lat="49.16791" lon="-0.40607">
        <ele>8.1</ele>
        <time>2012-01-13T14:44:44Z</time>
      </trkpt>
      <trkpt lat="49.16791" lon="-0.40607">
        <ele>8.1</ele>
        <time>2012-01-13T14:44:45Z</time>
      </trkpt>
      <trkpt lat="49.16792" lon="-0.40607">
        <ele>8.3</ele>
        <time>2012-01-13T14:44:46Z</time>
      </trkpt>
      <trkpt lat="49.16793" lon="-0.40607">
        <ele>8.3</ele>
        <time>2012-01-13T14:44:47Z</time>
      </trkpt>
      <trkpt lat="49.16794" lon="-0.40607">
        <ele>8.5</ele>
        <time>2012-01-13T14:44:48Z</time>
      </trkpt>
      <trkpt lat="49.16794" lon="-0.40607">
        <ele>8.5</ele>
        <time>2012-01-13T14:44:49Z</time>
      </trkpt>
      <trkpt lat="49.16794" lon="-0.40607">
        <ele>8.8</ele>
        <time>2012-01-13T14:44:50Z</time>
      </trkpt>
      <trkpt lat="49.16795" lon="-0.40606">
        <ele>9.1</ele>
        <time>2012-01-13T14:44:51Z</time>
      </trkpt>
      <trkpt lat="49.16796" lon="-0.40607">
        <ele>9.3</ele>
        <time>2012-01-13T14:44:52Z</time>
      </trkpt>
      <trkpt lat="49.16796" lon="-0.40606">
        <ele>9.6</ele>
        <time>2012-01-13T14:44:53Z</time>
      </trkpt>
      <trkpt lat="49.16797" lon="-0.40606">
        <ele>9.5</ele>
        <time>2012-01-13T14:44:54Z</time>
      </trkpt>
      <trkpt lat="49.16799" lon="-0.40606">
        <ele>9.6</ele>
        <time>2012-01-13T14:44:55Z</time>
      </trkpt>
      <trkpt lat="49.168" lon="-0.40606">
        <ele>9.6</ele>
        <time>2012-01-13T14:44:56Z</time>
      </trkpt>
      <trkpt lat="49.16801" lon="-0.40606">
        <ele>9.5</ele>
        <time>2012-01-13T14:44:57Z</time>
      </trkpt>
      <trkpt lat="49.16801" lon="-0.40607">
        <ele>9.6</ele>
        <time>2012-01-13T14:44:58Z</time>
      </trkpt>
      <trkpt lat="49.16802" lon="-0.40607">
        <ele>9.6</ele>
        <time>2012-01-13T14:44:59Z</time>
      </trkpt>
      <trkpt lat="49.16803" lon="-0.40607">
        <ele>9.8</ele>
        <time>2012-01-13T14:45:00Z</time>
      </trkpt>
      <trkpt lat="49.16804" lon="-0.40607">
        <ele>9.8</ele>
        <time>2012-01-13T14:45:01Z</time>
      </trkpt>
      <trkpt lat="49.16805" lon="-0.40607">
        <ele>10.1</ele>
        <time>2012-01-13T14:45:02Z</time>
      </trkpt>
      <trkpt lat="49.16806" lon="-0.40608">
        <ele>10.6</ele>
        <time>2012-01-13T14:45:03Z</time>
      </trkpt>
      <trkpt lat="49.16807" lon="-0.40608">
        <ele>11.1</ele>
        <time>2012-01-13T14:45:04Z</time>
      </trkpt>
      <trkpt lat="49.16808" lon="-0.40609">
        <ele>11.1</ele>
        <time>2012-01-13T14:45:05Z</time>
      </trkpt>
      <trkpt lat="49.16809" lon="-0.40609">
        <ele>11</ele>
        <time>2012-01-13T14:45:06Z</time>
      </trkpt>
      <trkpt lat="49.16809" lon="-0.4061">
        <ele>11.1</ele>
        <time>2012-01-13T14:45:07Z</time>
      </trkpt>
      <trkpt lat="49.1681" lon="-0.4061">
        <ele>11</ele>
        <time>2012-01-13T14:45:08Z</time>
      </trkpt>
      <trkpt lat="49.16811" lon="-0.40611">
        <ele>11.1</ele>
        <time>2012-01-13T14:45:09Z</time>
      </trkpt>
      <trkpt lat="49.16812" lon="-0.40611">
        <ele>11.3</ele>
        <time>2012-01-13T14:45:10Z</time>
      </trkpt>
      <trkpt lat="49.16813" lon="-0.40612">
        <ele>12</ele>
        <time>2012-01-13T14:45:11Z</time>
      </trkpt>
      <trkpt lat="49.16815" lon="-0.40612">
        <ele>12.8</ele>
        <time>2012-01-13T14:45:12Z</time>
      </trkpt>
      <trkpt lat="49.16816" lon="-0.40612">
        <ele>13.3</ele>
        <time>2012-01-13T14:45:13Z</time>
      </trkpt>
      <trkpt lat="49.16817" lon="-0.40612">
        <ele>14</ele>
        <time>2012-01-13T14:45:14Z</time>
      </trkpt>
      <trkpt lat="49.16818" lon="-0.40612">
        <ele>13.8</ele>
        <time>2012-01-13T14:45:15Z</time>
      </trkpt>
      <trkpt lat="49.16819" lon="-0.40612">
        <ele>14.8</ele>
        <time>2012-01-13T14:45:16Z</time>
      </trkpt>
      <trkpt lat="49.1682" lon="-0.40612">
        <ele>15.3</ele>
        <time>2012-01-13T14:45:17Z</time>
      </trkpt>
      <trkpt lat="49.16821" lon="-0.40612">
        <ele>15.3</ele>
        <time>2012-01-13T14:45:18Z</time>
      </trkpt>
      <trkpt lat="49.16822" lon="-0.40612">
        <ele>16.2</ele>
        <time>2012-01-13T14:45:19Z</time>
      </trkpt>
      <trkpt lat="49.16824" lon="-0.40612">
        <ele>17.2</ele>
        <time>2012-01-13T14:45:20Z</time>
      </trkpt>
      <trkpt lat="49.16825" lon="-0.40612">
        <ele>18.5</ele>
        <time>2012-01-13T14:45:21Z</time>
      </trkpt>
      <trkpt lat="49.16827" lon="-0.40612">
        <ele>19.2</ele>
        <time>2012-01-13T14:45:22Z</time>
      </trkpt>
      <trkpt lat="49.16829" lon="-0.40612">
        <ele>20.2</ele>
        <time>2012-01-13T14:45:23Z</time>
      </trkpt>
      <trkpt lat="49.16829" lon="-0.40611">
        <ele>20.7</ele>
        <time>2012-01-13T14:45:24Z</time>
      </trkpt>
      <trkpt lat="49.1683" lon="-0.40612">
        <ele>20.6</ele>
        <time>2012-01-13T14:45:25Z</time>
      </trkpt>
      <trkpt lat="49.16831" lon="-0.40612">
        <ele>20.5</ele>
        <time>2012-01-13T14:45:26Z</time>
      </trkpt>
      <trkpt lat="49.16832" lon="-0.40613">
        <ele>20.2</ele>
        <time>2012-01-13T14:45:27Z</time>
      </trkpt>
      <trkpt lat="49.16833" lon="-0.40613">
        <ele>20.2</ele>
        <time>2012-01-13T14:45:28Z</time>
      </trkpt>
      <trkpt lat="49.16834" lon="-0.40614">
        <ele>20.1</ele>
        <time>2012-01-13T14:45:29Z</time>
      </trkpt>
      <trkpt lat="49.16835" lon="-0.40615">
        <ele>19.7</ele>
        <time>2012-01-13T14:45:30Z</time>
      </trkpt>
      <trkpt lat="49.16836" lon="-0.40616">
        <ele>19.7</ele>
        <time>2012-01-13T14:45:31Z</time>
      </trkpt>
      <trkpt lat="49.16837" lon="-0.40617">
        <ele>19.7</ele>
        <time>2012-01-13T14:45:32Z</time>
      </trkpt>
      <trkpt lat="49.16837" lon="-0.40617">
        <ele>19.7</ele>
        <time>2012-01-13T14:45:33Z</time>
      </trkpt>
      <trkpt lat="49.16838" lon="-0.40618">
        <ele>19.7</ele>
        <time>2012-01-13T14:45:34Z</time>
      </trkpt>
      <trkpt lat="49.16839" lon="-0.40618">
        <ele>19.7</ele>
        <time>2012-01-13T14:45:35Z</time>
      </trkpt>
      <trkpt lat="49.1684" lon="-0.40619">
        <ele>20.1</ele>
        <time>2012-01-13T14:45:36Z</time>
      </trkpt>
      <trkpt lat="49.16841" lon="-0.40619">
        <ele>20.1</ele>
        <time>2012-01-13T14:45:37Z</time>
      </trkpt>
      <trkpt lat="49.16842" lon="-0.4062">
        <ele>20.1</ele>
        <time>2012-01-13T14:45:38Z</time>
      </trkpt>
      <trkpt lat="49.16843" lon="-0.4062">
        <ele>20.2</ele>
        <time>2012-01-13T14:45:39Z</time>
      </trkpt>
      <trkpt lat="49.16844" lon="-0.40621">
        <ele>20.2</ele>
        <time>2012-01-13T14:45:40Z</time>
      </trkpt>
      <trkpt lat="49.16845" lon="-0.40621">
        <ele>20.6</ele>
        <time>2012-01-13T14:45:41Z</time>
      </trkpt>
      <trkpt lat="49.16846" lon="-0.40622">
        <ele>20.7</ele>
        <time>2012-01-13T14:45:42Z</time>
      </trkpt>
      <trkpt lat="49.16846" lon="-0.40622">
        <ele>21.2</ele>
        <time>2012-01-13T14:45:43Z</time>
      </trkpt>
      <trkpt lat="49.16846" lon="-0.40622">
        <ele>21.5</ele>
        <time>2012-01-13T14:45:44Z</time>
      </trkpt>
      <trkpt lat="49.16847" lon="-0.40622">
        <ele>21.7</ele>
        <time>2012-01-13T14:45:45Z</time>
      </trkpt>
      <trkpt lat="49.16847" lon="-0.40622">
        <ele>22.1</ele>
        <time>2012-01-13T14:45:46Z</time>
      </trkpt>
      <trkpt lat="49.16849" lon="-0.40622">
        <ele>21.7</ele>
        <time>2012-01-13T14:45:47Z</time>
      </trkpt>
      <trkpt lat="49.16849" lon="-0.40622">
        <ele>22.5</ele>
        <time>2012-01-13T14:45:48Z</time>
      </trkpt>
      <trkpt lat="49.1685" lon="-0.40622">
        <ele>22.7</ele>
        <time>2012-01-13T14:45:49Z</time>
      </trkpt>
      <trkpt lat="49.1685" lon="-0.40621">
        <ele>22.7</ele>
        <time>2012-01-13T14:45:50Z</time>
      </trkpt>
      <trkpt lat="49.16851" lon="-0.40622">
        <ele>22.7</ele>
        <time>2012-01-13T14:45:51Z</time>
      </trkpt>
      <trkpt lat="49.16852" lon="-0.40622">
        <ele>21.7</ele>
        <time>2012-01-13T14:45:52Z</time>
      </trkpt>
      <trkpt lat="49.16854" lon="-0.40623">
        <ele>21.5</ele>
        <time>2012-01-13T14:45:53Z</time>
      </trkpt>
      <trkpt lat="49.16855" lon="-0.40624">
        <ele>21.1</ele>
        <time>2012-01-13T14:45:54Z</time>
      </trkpt>
      <trkpt lat="49.16856" lon="-0.40624">
        <ele>20.6</ele>
        <time>2012-01-13T14:45:55Z</time>
      </trkpt>
      <trkpt lat="49.16858" lon="-0.40625">
        <ele>19.7</ele>
        <time>2012-01-13T14:45:56Z</time>
      </trkpt>
      <trkpt lat="49.16859" lon="-0.40625">
        <ele>19.2</ele>
        <time>2012-01-13T14:45:57Z</time>
      </trkpt>
      <trkpt lat="49.1686" lon="-0.40626">
        <ele>19.5</ele>
        <time>2012-01-13T14:45:58Z</time>
      </trkpt>
      <trkpt lat="49.16861" lon="-0.40626">
        <ele>18.7</ele>
        <time>2012-01-13T14:45:59Z</time>
      </trkpt>
      <trkpt lat="49.16861" lon="-0.40627">
        <ele>19.2</ele>
        <time>2012-01-13T14:46:00Z</time>
      </trkpt>
      <trkpt lat="49.16862" lon="-0.40627">
        <ele>19.7</ele>
        <time>2012-01-13T14:46:01Z</time>
      </trkpt>
      <trkpt lat="49.16862" lon="-0.40628">
        <ele>19.7</ele>
        <time>2012-01-13T14:46:02Z</time>
      </trkpt>
      <trkpt lat="49.16863" lon="-0.40627">
        <ele>20.7</ele>
        <time>2012-01-13T14:46:03Z</time>
      </trkpt>
      <trkpt lat="49.16863" lon="-0.40628">
        <ele>20.2</ele>
        <time>2012-01-13T14:46:04Z</time>
      </trkpt>
      <trkpt lat="49.16864" lon="-0.40628">
        <ele>20.1</ele>
        <time>2012-01-13T14:46:05Z</time>
      </trkpt>
      <trkpt lat="49.16864" lon="-0.40628">
        <ele>20.5</ele>
        <time>2012-01-13T14:46:06Z</time>
      </trkpt>
      <trkpt lat="49.16864" lon="-0.40629">
        <ele>20.7</ele>
        <time>2012-01-13T14:46:07Z</time>
      </trkpt>
      <trkpt lat="49.16864" lon="-0.4063">
        <ele>20.1</ele>
        <time>2012-01-13T14:46:08Z</time>
      </trkpt>
      <trkpt lat="49.16865" lon="-0.40631">
        <ele>19.2</ele>
        <time>2012-01-13T14:46:09Z</time>
      </trkpt>
      <trkpt lat="49.16866" lon="-0.4063">
        <ele>20.2</ele>
        <time>2012-01-13T14:46:10Z</time>
      </trkpt>
      <trkpt lat="49.16867" lon="-0.40632">
        <ele>20.2</ele>
        <time>2012-01-13T14:46:11Z</time>
      </trkpt>
      <trkpt lat="49.16868" lon="-0.40632">
        <ele>20.7</ele>
        <time>2012-01-13T14:46:12Z</time>
      </trkpt>
      <trkpt lat="49.1687" lon="-0.40632">
        <ele>20.7</ele>
        <time>2012-01-13T14:46:13Z</time>
      </trkpt>
      <trkpt lat="49.16871" lon="-0.40632">
        <ele>21</ele>
        <time>2012-01-13T14:46:14Z</time>
      </trkpt>
      <trkpt lat="49.16872" lon="-0.40631">
        <ele>21.2</ele>
        <time>2012-01-13T14:46:15Z</time>
      </trkpt>
      <trkpt lat="49.16873" lon="-0.40632">
        <ele>21.7</ele>
        <time>2012-01-13T14:46:16Z</time>
      </trkpt>
      <trkpt lat="49.16874" lon="-0.40633">
        <ele>21.7</ele>
        <time>2012-01-13T14:46:17Z</time>
      </trkpt>
      <trkpt lat="49.16875" lon="-0.40634">
        <ele>21.7</ele>
        <time>2012-01-13T14:46:18Z</time>
      </trkpt>
      <trkpt lat="49.16875" lon="-0.40634">
        <ele>22.2</ele>
        <time>2012-01-13T14:46:19Z</time>
      </trkpt>
      <trkpt lat="49.16876" lon="-0.40635">
        <ele>22.7</ele>
        <time>2012-01-13T14:46:20Z</time>
      </trkpt>
      <trkpt lat="49.16876" lon="-0.40637">
        <ele>22.2</ele>
        <time>2012-01-13T14:46:21Z</time>
      </trkpt>
      <trkpt lat="49.16876" lon="-0.40639">
        <ele>22.5</ele>
        <time>2012-01-13T14:46:22Z</time>
      </trkpt>
      <trkpt lat="49.16877" lon="-0.40641">
        <ele>22</ele>
        <time>2012-01-13T14:46:23Z</time>
      </trkpt>
      <trkpt lat="49.16877" lon="-0.40643">
        <ele>21.5</ele>
        <time>2012-01-13T14:46:24Z</time>
      </trkpt>
      <trkpt lat="49.16877" lon="-0.40644">
        <ele>21.2</ele>
        <time>2012-01-13T14:46:25Z</time>
      </trkpt>
      <trkpt lat="49.16877" lon="-0.40645">
        <ele>21</ele>
        <time>2012-01-13T14:46:26Z</time>
      </trkpt>
      <trkpt lat="49.16877" lon="-0.40646">
        <ele>20.7</ele>
        <time>2012-01-13T14:46:27Z</time>
      </trkpt>
      <trkpt lat="49.16877" lon="-0.40646">
        <ele>20.2</ele>
        <time>2012-01-13T14:46:28Z</time>
      </trkpt>
      <trkpt lat="49.16877" lon="-0.40646">
        <ele>19.7</ele>
        <time>2012-01-13T14:46:29Z</time>
      </trkpt>
      <trkpt lat="49.16877" lon="-0.40646">
        <ele>19.2</ele>
        <time>2012-01-13T14:46:30Z</time>
      </trkpt>
      <trkpt lat="49.16877" lon="-0.40647">
        <ele>18.7</ele>
        <time>2012-01-13T14:46:31Z</time>
      </trkpt>
      <trkpt lat="49.16877" lon="-0.40647">
        <ele>18.2</ele>
        <time>2012-01-13T14:46:32Z</time>
      </trkpt>
      <trkpt lat="49.16877" lon="-0.40647">
        <ele>17.2</ele>
        <time>2012-01-13T14:46:33Z</time>
      </trkpt>
      <trkpt lat="49.16878" lon="-0.40648">
        <ele>17</ele>
        <time>2012-01-13T14:46:34Z</time>
      </trkpt>
      <trkpt lat="49.16879" lon="-0.40648">
        <ele>16.7</ele>
        <time>2012-01-13T14:46:35Z</time>
      </trkpt>
      <trkpt lat="49.1688" lon="-0.4065">
        <ele>16.7</ele>
        <time>2012-01-13T14:46:36Z</time>
      </trkpt>
      <trkpt lat="49.1688" lon="-0.40651">
        <ele>15.8</ele>
        <time>2012-01-13T14:46:37Z</time>
      </trkpt>
      <trkpt lat="49.16881" lon="-0.40651">
        <ele>15.6</ele>
        <time>2012-01-13T14:46:38Z</time>
      </trkpt>
      <trkpt lat="49.16882" lon="-0.40652">
        <ele>15.6</ele>
        <time>2012-01-13T14:46:39Z</time>
      </trkpt>
      <trkpt lat="49.16883" lon="-0.40653">
        <ele>15.5</ele>
        <time>2012-01-13T14:46:40Z</time>
      </trkpt>
      <trkpt lat="49.16884" lon="-0.40654">
        <ele>16</ele>
        <time>2012-01-13T14:46:41Z</time>
      </trkpt>
      <trkpt lat="49.16884" lon="-0.40654">
        <ele>16.2</ele>
        <time>2012-01-13T14:46:42Z</time>
      </trkpt>
      <trkpt lat="49.16884" lon="-0.40654">
        <ele>15.8</ele>
        <time>2012-01-13T14:46:43Z</time>
      </trkpt>
      <trkpt lat="49.16883" lon="-0.40653">
        <ele>17.7</ele>
        <time>2012-01-13T14:46:44Z</time>
      </trkpt>
      <trkpt lat="49.16883" lon="-0.40652">
        <ele>18.1</ele>
        <time>2012-01-13T14:46:45Z</time>
      </trkpt>
      <trkpt lat="49.16883" lon="-0.40651">
        <ele>18</ele>
        <time>2012-01-13T14:46:46Z</time>
      </trkpt>
      <trkpt lat="49.16883" lon="-0.4065">
        <ele>18.7</ele>
        <time>2012-01-13T14:46:47Z</time>
      </trkpt>
      <trkpt lat="49.16884" lon="-0.4065">
        <ele>19.6</ele>
        <time>2012-01-13T14:46:48Z</time>
      </trkpt>
      <trkpt lat="49.16884" lon="-0.40651">
        <ele>20.2</ele>
        <time>2012-01-13T14:46:49Z</time>
      </trkpt>
      <trkpt lat="49.16885" lon="-0.40651">
        <ele>20.7</ele>
        <time>2012-01-13T14:46:50Z</time>
      </trkpt>
      <trkpt lat="49.16885" lon="-0.40651">
        <ele>21.5</ele>
        <time>2012-01-13T14:46:51Z</time>
      </trkpt>
      <trkpt lat="49.16886" lon="-0.40651">
        <ele>21.2</ele>
        <time>2012-01-13T14:46:52Z</time>
      </trkpt>
      <trkpt lat="49.16888" lon="-0.40651">
        <ele>21.2</ele>
        <time>2012-01-13T14:46:53Z</time>
      </trkpt>
      <trkpt lat="49.16889" lon="-0.40651">
        <ele>21.2</ele>
        <time>2012-01-13T14:46:54Z</time>
      </trkpt>
      <trkpt lat="49.1689" lon="-0.40653">
        <ele>22.2</ele>
        <time>2012-01-13T14:46:55Z</time>
      </trkpt>
      <trkpt lat="49.16891" lon="-0.40654">
        <ele>22.5</ele>
        <time>2012-01-13T14:46:56Z</time>
      </trkpt>
      <trkpt lat="49.16892" lon="-0.40656">
        <ele>22.2</ele>
        <time>2012-01-13T14:46:57Z</time>
      </trkpt>
      <trkpt lat="49.16895" lon="-0.40654">
        <ele>21.7</ele>
        <time>2012-01-13T14:46:58Z</time>
      </trkpt>
      <trkpt lat="49.16899" lon="-0.40654">
        <ele>20.5</ele>
        <time>2012-01-13T14:46:59Z</time>
      </trkpt>
      <trkpt lat="49.16901" lon="-0.40656">
        <ele>17.5</ele>
        <time>2012-01-13T14:47:00Z</time>
      </trkpt>
      <trkpt lat="49.16903" lon="-0.40658">
        <ele>16</ele>
        <time>2012-01-13T14:47:01Z</time>
      </trkpt>
      <trkpt lat="49.16904" lon="-0.40659">
        <ele>15.3</ele>
        <time>2012-01-13T14:47:02Z</time>
      </trkpt>
      <trkpt lat="49.16905" lon="-0.40661">
        <ele>14.1</ele>
        <time>2012-01-13T14:47:03Z</time>
      </trkpt>
      <trkpt lat="49.16908" lon="-0.4066">
        <ele>14</ele>
        <time>2012-01-13T14:47:04Z</time>
      </trkpt>
      <trkpt lat="49.1691" lon="-0.40661">
        <ele>13.1</ele>
        <time>2012-01-13T14:47:05Z</time>
      </trkpt>
      <trkpt lat="49.1691" lon="-0.40661">
        <ele>13.5</ele>
        <time>2012-01-13T14:47:06Z</time>
      </trkpt>
      <trkpt lat="49.16912" lon="-0.4066">
        <ele>12.8</ele>
        <time>2012-01-13T14:47:07Z</time>
      </trkpt>
      <trkpt lat="49.16912" lon="-0.40661">
        <ele>12.6</ele>
        <time>2012-01-13T14:47:08Z</time>
      </trkpt>
      <trkpt lat="49.16911" lon="-0.40664">
        <ele>13</ele>
        <time>2012-01-13T14:47:09Z</time>
      </trkpt>
      <trkpt lat="49.16912" lon="-0.40664">
        <ele>13.3</ele>
        <time>2012-01-13T14:47:10Z</time>
      </trkpt>
      <trkpt lat="49.16913" lon="-0.40663">
        <ele>13.6</ele>
        <time>2012-01-13T14:47:11Z</time>
      </trkpt>
      <trkpt lat="49.16914" lon="-0.40661">
        <ele>13</ele>
        <time>2012-01-13T14:47:12Z</time>
      </trkpt>
      <trkpt lat="49.16915" lon="-0.4066">
        <ele>13.1</ele>
        <time>2012-01-13T14:47:13Z</time>
      </trkpt>
      <trkpt lat="49.16915" lon="-0.40659">
        <ele>13.5</ele>
        <time>2012-01-13T14:47:14Z</time>
      </trkpt>
      <trkpt lat="49.16917" lon="-0.40658">
        <ele>12.8</ele>
        <time>2012-01-13T14:47:15Z</time>
      </trkpt>
      <trkpt lat="49.16918" lon="-0.40657">
        <ele>13</ele>
        <time>2012-01-13T14:47:16Z</time>
      </trkpt>
      <trkpt lat="49.16919" lon="-0.40656">
        <ele>13</ele>
        <time>2012-01-13T14:47:17Z</time>
      </trkpt>
      <trkpt lat="49.16919" lon="-0.40655">
        <ele>12.8</ele>
        <time>2012-01-13T14:47:18Z</time>
      </trkpt>
      <trkpt lat="49.1692" lon="-0.40654">
        <ele>12.6</ele>
        <time>2012-01-13T14:47:19Z</time>
      </trkpt>
      <trkpt lat="49.16921" lon="-0.40652">
        <ele>13.3</ele>
        <time>2012-01-13T14:47:20Z</time>
      </trkpt>
      <trkpt lat="49.16922" lon="-0.40651">
        <ele>12.8</ele>
        <time>2012-01-13T14:47:21Z</time>
      </trkpt>
      <trkpt lat="49.16923" lon="-0.4065">
        <ele>12.6</ele>
        <time>2012-01-13T14:47:22Z</time>
      </trkpt>
      <trkpt lat="49.16923" lon="-0.40648">
        <ele>11.6</ele>
        <time>2012-01-13T14:47:23Z</time>
      </trkpt>
      <trkpt lat="49.16924" lon="-0.40647">
        <ele>11</ele>
        <time>2012-01-13T14:47:24Z</time>
      </trkpt>
      <trkpt lat="49.16925" lon="-0.40645">
        <ele>11</ele>
        <time>2012-01-13T14:47:25Z</time>
      </trkpt>
      <trkpt lat="49.16926" lon="-0.40644">
        <ele>11.3</ele>
        <time>2012-01-13T14:47:26Z</time>
      </trkpt>
      <trkpt lat="49.16927" lon="-0.40643">
        <ele>11.1</ele>
        <time>2012-01-13T14:47:27Z</time>
      </trkpt>
      <trkpt lat="49.16927" lon="-0.40642">
        <ele>10.6</ele>
        <time>2012-01-13T14:47:28Z</time>
      </trkpt>
      <trkpt lat="49.16928" lon="-0.4064">
        <ele>11.3</ele>
        <time>2012-01-13T14:47:29Z</time>
      </trkpt>
      <trkpt lat="49.16929" lon="-0.40639">
        <ele>11.8</ele>
        <time>2012-01-13T14:47:30Z</time>
      </trkpt>
      <trkpt lat="49.1693" lon="-0.40639">
        <ele>12.5</ele>
        <time>2012-01-13T14:47:31Z</time>
      </trkpt>
      <trkpt lat="49.16931" lon="-0.40639">
        <ele>13.8</ele>
        <time>2012-01-13T14:47:32Z</time>
      </trkpt>
      <trkpt lat="49.16931" lon="-0.4064">
        <ele>14.8</ele>
        <time>2012-01-13T14:47:33Z</time>
      </trkpt>
      <trkpt lat="49.16932" lon="-0.40639">
        <ele>14.8</ele>
        <time>2012-01-13T14:47:34Z</time>
      </trkpt>
      <trkpt lat="49.16933" lon="-0.40638">
        <ele>15.3</ele>
        <time>2012-01-13T14:47:35Z</time>
      </trkpt>
      <trkpt lat="49.16935" lon="-0.40637">
        <ele>15.6</ele>
        <time>2012-01-13T14:47:36Z</time>
      </trkpt>
      <trkpt lat="49.16935" lon="-0.40636">
        <ele>15.5</ele>
        <time>2012-01-13T14:47:37Z</time>
      </trkpt>
      <trkpt lat="49.16936" lon="-0.40634">
        <ele>14.8</ele>
        <time>2012-01-13T14:47:38Z</time>
      </trkpt>
      <trkpt lat="49.16937" lon="-0.40632">
        <ele>13.8</ele>
        <time>2012-01-13T14:47:39Z</time>
      </trkpt>
      <trkpt lat="49.16938" lon="-0.40631">
        <ele>13.3</ele>
        <time>2012-01-13T14:47:40Z</time>
      </trkpt>
      <trkpt lat="49.16939" lon="-0.4063">
        <ele>13.6</ele>
        <time>2012-01-13T14:47:41Z</time>
      </trkpt>
      <trkpt lat="49.16939" lon="-0.40628">
        <ele>13.6</ele>
        <time>2012-01-13T14:47:42Z</time>
      </trkpt>
      <trkpt lat="49.1694" lon="-0.40627">
        <ele>13.3</ele>
        <time>2012-01-13T14:47:43Z</time>
      </trkpt>
      <trkpt lat="49.1694" lon="-0.40626">
        <ele>14.1</ele>
        <time>2012-01-13T14:47:44Z</time>
      </trkpt>
      <trkpt lat="49.16941" lon="-0.40624">
        <ele>13.8</ele>
        <time>2012-01-13T14:47:45Z</time>
      </trkpt>
      <trkpt lat="49.16941" lon="-0.40622">
        <ele>14.1</ele>
        <time>2012-01-13T14:47:46Z</time>
      </trkpt>
      <trkpt lat="49.16942" lon="-0.40621">
        <ele>14.8</ele>
        <time>2012-01-13T14:47:47Z</time>
      </trkpt>
      <trkpt lat="49.16943" lon="-0.40621">
        <ele>15.1</ele>
        <time>2012-01-13T14:47:48Z</time>
      </trkpt>
      <trkpt lat="49.16943" lon="-0.40621">
        <ele>15.6</ele>
        <time>2012-01-13T14:47:49Z</time>
      </trkpt>
      <trkpt lat="49.16943" lon="-0.4062">
        <ele>16</ele>
        <time>2012-01-13T14:47:50Z</time>
      </trkpt>
      <trkpt lat="49.16944" lon="-0.4062">
        <ele>16</ele>
        <time>2012-01-13T14:47:51Z</time>
      </trkpt>
      <trkpt lat="49.16944" lon="-0.4062">
        <ele>17.2</ele>
        <time>2012-01-13T14:47:52Z</time>
      </trkpt>
      <trkpt lat="49.16945" lon="-0.4062">
        <ele>17.7</ele>
        <time>2012-01-13T14:47:53Z</time>
      </trkpt>
      <trkpt lat="49.16946" lon="-0.4062">
        <ele>19.2</ele>
        <time>2012-01-13T14:47:54Z</time>
      </trkpt>
      <trkpt lat="49.16947" lon="-0.40619">
        <ele>19.7</ele>
        <time>2012-01-13T14:47:55Z</time>
      </trkpt>
      <trkpt lat="49.16948" lon="-0.40619">
        <ele>19.6</ele>
        <time>2012-01-13T14:47:56Z</time>
      </trkpt>
      <trkpt lat="49.16949" lon="-0.40619">
        <ele>19.7</ele>
        <time>2012-01-13T14:47:57Z</time>
      </trkpt>
      <trkpt lat="49.16951" lon="-0.40619">
        <ele>21.1</ele>
        <time>2012-01-13T14:47:58Z</time>
      </trkpt>
      <trkpt lat="49.16952" lon="-0.40619">
        <ele>21.2</ele>
        <time>2012-01-13T14:47:59Z</time>
      </trkpt>
      <trkpt lat="49.16953" lon="-0.4062">
        <ele>21.2</ele>
        <time>2012-01-13T14:48:00Z</time>
      </trkpt>
      <trkpt lat="49.16954" lon="-0.4062">
        <ele>20.5</ele>
        <time>2012-01-13T14:48:01Z</time>
      </trkpt>
      <trkpt lat="49.16955" lon="-0.40618">
        <ele>20.5</ele>
        <time>2012-01-13T14:48:02Z</time>
      </trkpt>
      <trkpt lat="49.16957" lon="-0.40617">
        <ele>21.2</ele>
        <time>2012-01-13T14:48:03Z</time>
      </trkpt>
      <trkpt lat="49.16958" lon="-0.40616">
        <ele>21.2</ele>
        <time>2012-01-13T14:48:04Z</time>
      </trkpt>
      <trkpt lat="49.16959" lon="-0.40616">
        <ele>20.6</ele>
        <time>2012-01-13T14:48:05Z</time>
      </trkpt>
      <trkpt lat="49.1696" lon="-0.40616">
        <ele>20.2</ele>
        <time>2012-01-13T14:48:06Z</time>
      </trkpt>
      <trkpt lat="49.1696" lon="-0.40615">
        <ele>21.2</ele>
        <time>2012-01-13T14:48:07Z</time>
      </trkpt>
      <trkpt lat="49.16961" lon="-0.40615">
        <ele>21.1</ele>
        <time>2012-01-13T14:48:08Z</time>
      </trkpt>
      <trkpt lat="49.16963" lon="-0.40615">
        <ele>20.6</ele>
        <time>2012-01-13T14:48:09Z</time>
      </trkpt>
      <trkpt lat="49.16964" lon="-0.40616">
        <ele>20.1</ele>
        <time>2012-01-13T14:48:10Z</time>
      </trkpt>
      <trkpt lat="49.16965" lon="-0.40616">
        <ele>19.7</ele>
        <time>2012-01-13T14:48:11Z</time>
      </trkpt>
      <trkpt lat="49.16966" lon="-0.40616">
        <ele>20</ele>
        <time>2012-01-13T14:48:12Z</time>
      </trkpt>
      <trkpt lat="49.16967" lon="-0.40616">
        <ele>19.5</ele>
        <time>2012-01-13T14:48:13Z</time>
      </trkpt>
      <trkpt lat="49.16968" lon="-0.40616">
        <ele>19.1</ele>
        <time>2012-01-13T14:48:14Z</time>
      </trkpt>
      <trkpt lat="49.16971" lon="-0.40615">
        <ele>18.7</ele>
        <time>2012-01-13T14:48:15Z</time>
      </trkpt>
      <trkpt lat="49.16972" lon="-0.40614">
        <ele>19.2</ele>
        <time>2012-01-13T14:48:16Z</time>
      </trkpt>
      <trkpt lat="49.16973" lon="-0.40613">
        <ele>18.2</ele>
        <time>2012-01-13T14:48:17Z</time>
      </trkpt>
      <trkpt lat="49.16975" lon="-0.40613">
        <ele>17.7</ele>
        <time>2012-01-13T14:48:18Z</time>
      </trkpt>
      <trkpt lat="49.16977" lon="-0.40612">
        <ele>18.1</ele>
        <time>2012-01-13T14:48:19Z</time>
      </trkpt>
      <trkpt lat="49.16978" lon="-0.40611">
        <ele>18.2</ele>
        <time>2012-01-13T14:48:20Z</time>
      </trkpt>
      <trkpt lat="49.16979" lon="-0.40611">
        <ele>18.2</ele>
        <time>2012-01-13T14:48:21Z</time>
      </trkpt>
      <trkpt lat="49.1698" lon="-0.40612">
        <ele>17.2</ele>
        <time>2012-01-13T14:48:22Z</time>
      </trkpt>
      <trkpt lat="49.16982" lon="-0.40611">
        <ele>17.2</ele>
        <time>2012-01-13T14:48:23Z</time>
      </trkpt>
      <trkpt lat="49.16982" lon="-0.40611">
        <ele>16.7</ele>
        <time>2012-01-13T14:48:24Z</time>
      </trkpt>
      <trkpt lat="49.16983" lon="-0.40611">
        <ele>17.7</ele>
        <time>2012-01-13T14:48:25Z</time>
      </trkpt>
      <trkpt lat="49.16985" lon="-0.4061">
        <ele>18.7</ele>
        <time>2012-01-13T14:48:26Z</time>
      </trkpt>
      <trkpt lat="49.16986" lon="-0.4061">
        <ele>19.7</ele>
        <time>2012-01-13T14:48:27Z</time>
      </trkpt>
      <trkpt lat="49.16987" lon="-0.40609">
        <ele>20.2</ele>
        <time>2012-01-13T14:48:28Z</time>
      </trkpt>
      <trkpt lat="49.16988" lon="-0.40609">
        <ele>20.7</ele>
        <time>2012-01-13T14:48:29Z</time>
      </trkpt>
      <trkpt lat="49.16989" lon="-0.40609">
        <ele>21.1</ele>
        <time>2012-01-13T14:48:30Z</time>
      </trkpt>
      <trkpt lat="49.1699" lon="-0.40608">
        <ele>21.2</ele>
        <time>2012-01-13T14:48:31Z</time>
      </trkpt>
      <trkpt lat="49.16991" lon="-0.40608">
        <ele>21.7</ele>
        <time>2012-01-13T14:48:32Z</time>
      </trkpt>
      <trkpt lat="49.16992" lon="-0.40608">
        <ele>22.1</ele>
        <time>2012-01-13T14:48:33Z</time>
      </trkpt>
      <trkpt lat="49.16993" lon="-0.40607">
        <ele>22.6</ele>
        <time>2012-01-13T14:48:34Z</time>
      </trkpt>
      <trkpt lat="49.16994" lon="-0.40607">
        <ele>23.1</ele>
        <time>2012-01-13T14:48:35Z</time>
      </trkpt>
      <trkpt lat="49.16995" lon="-0.40607">
        <ele>23.2</ele>
        <time>2012-01-13T14:48:36Z</time>
      </trkpt>
      <trkpt lat="49.16996" lon="-0.40606">
        <ele>23.5</ele>
        <time>2012-01-13T14:48:37Z</time>
      </trkpt>
      <trkpt lat="49.16997" lon="-0.40606">
        <ele>23.7</ele>
        <time>2012-01-13T14:48:38Z</time>
      </trkpt>
      <trkpt lat="49.16998" lon="-0.40606">
        <ele>24</ele>
        <time>2012-01-13T14:48:39Z</time>
      </trkpt>
      <trkpt lat="49.16999" lon="-0.40605">
        <ele>24.2</ele>
        <time>2012-01-13T14:48:40Z</time>
      </trkpt>
      <trkpt lat="49.17" lon="-0.40605">
        <ele>24.2</ele>
        <time>2012-01-13T14:48:41Z</time>
      </trkpt>
      <trkpt lat="49.17001" lon="-0.40605">
        <ele>24.7</ele>
        <time>2012-01-13T14:48:42Z</time>
      </trkpt>
      <trkpt lat="49.17002" lon="-0.40604">
        <ele>24.7</ele>
        <time>2012-01-13T14:48:43Z</time>
      </trkpt>
      <trkpt lat="49.17003" lon="-0.40604">
        <ele>25.1</ele>
        <time>2012-01-13T14:48:44Z</time>
      </trkpt>
      <trkpt lat="49.17004" lon="-0.40604">
        <ele>25.2</ele>
        <time>2012-01-13T14:48:45Z</time>
      </trkpt>
      <trkpt lat="49.17005" lon="-0.40604">
        <ele>25.7</ele>
        <time>2012-01-13T14:48:46Z</time>
      </trkpt>
      <trkpt lat="49.17007" lon="-0.40603">
        <ele>25.7</ele>
        <time>2012-01-13T14:48:47Z</time>
      </trkpt>
      <trkpt lat="49.17008" lon="-0.40603">
        <ele>26</ele>
        <time>2012-01-13T14:48:48Z</time>
      </trkpt>
      <trkpt lat="49.17009" lon="-0.40603">
        <ele>26.6</ele>
        <time>2012-01-13T14:48:49Z</time>
      </trkpt>
      <trkpt lat="49.1701" lon="-0.40603">
        <ele>27.1</ele>
        <time>2012-01-13T14:48:50Z</time>
      </trkpt>
      <trkpt lat="49.17012" lon="-0.40602">
        <ele>27.5</ele>
        <time>2012-01-13T14:48:51Z</time>
      </trkpt>
      <trkpt lat="49.17012" lon="-0.40602">
        <ele>27.2</ele>
        <time>2012-01-13T14:48:52Z</time>
      </trkpt>
      <trkpt lat="49.17014" lon="-0.40602">
        <ele>27.5</ele>
        <time>2012-01-13T14:48:53Z</time>
      </trkpt>
      <trkpt lat="49.17015" lon="-0.40602">
        <ele>28</ele>
        <time>2012-01-13T14:48:54Z</time>
      </trkpt>
      <trkpt lat="49.17016" lon="-0.40602">
        <ele>27.7</ele>
        <time>2012-01-13T14:48:55Z</time>
      </trkpt>
      <trkpt lat="49.17017" lon="-0.40602">
        <ele>28.2</ele>
        <time>2012-01-13T14:48:56Z</time>
      </trkpt>
      <trkpt lat="49.17018" lon="-0.40602">
        <ele>28</ele>
        <time>2012-01-13T14:48:57Z</time>
      </trkpt>
      <trkpt lat="49.17019" lon="-0.40602">
        <ele>27.7</ele>
        <time>2012-01-13T14:48:58Z</time>
      </trkpt>
      <trkpt lat="49.17019" lon="-0.40601">
        <ele>27.7</ele>
        <time>2012-01-13T14:48:59Z</time>
      </trkpt>
      <trkpt lat="49.1702" lon="-0.40601">
        <ele>27.7</ele>
        <time>2012-01-13T14:49:00Z</time>
      </trkpt>
      <trkpt lat="49.17021" lon="-0.406">
        <ele>27.6</ele>
        <time>2012-01-13T14:49:01Z</time>
      </trkpt>
      <trkpt lat="49.17022" lon="-0.406">
        <ele>27.5</ele>
        <time>2012-01-13T14:49:02Z</time>
      </trkpt>
      <trkpt lat="49.17023" lon="-0.406">
        <ele>27.6</ele>
        <time>2012-01-13T14:49:03Z</time>
      </trkpt>
      <trkpt lat="49.17024" lon="-0.406">
        <ele>27.7</ele>
        <time>2012-01-13T14:49:04Z</time>
      </trkpt>
      <trkpt lat="49.17024" lon="-0.406">
        <ele>27.7</ele>
        <time>2012-01-13T14:49:05Z</time>
      </trkpt>
      <trkpt lat="49.17025" lon="-0.40599">
        <ele>28</ele>
        <time>2012-01-13T14:49:06Z</time>
      </trkpt>
      <trkpt lat="49.17026" lon="-0.40599">
        <ele>28.1</ele>
        <time>2012-01-13T14:49:07Z</time>
      </trkpt>
      <trkpt lat="49.17027" lon="-0.40599">
        <ele>28.2</ele>
        <time>2012-01-13T14:49:08Z</time>
      </trkpt>
      <trkpt lat="49.17028" lon="-0.40599">
        <ele>28.2</ele>
        <time>2012-01-13T14:49:09Z</time>
      </trkpt>
      <trkpt lat="49.17029" lon="-0.40599">
        <ele>28.2</ele>
        <time>2012-01-13T14:49:10Z</time>
      </trkpt>
      <trkpt lat="49.1703" lon="-0.40598">
        <ele>28.5</ele>
        <time>2012-01-13T14:49:11Z</time>
      </trkpt>
      <trkpt lat="49.17031" lon="-0.40598">
        <ele>28.1</ele>
        <time>2012-01-13T14:49:12Z</time>
      </trkpt>
      <trkpt lat="49.17032" lon="-0.40597">
        <ele>27.7</ele>
        <time>2012-01-13T14:49:13Z</time>
      </trkpt>
      <trkpt lat="49.17033" lon="-0.40597">
        <ele>27.7</ele>
        <time>2012-01-13T14:49:14Z</time>
      </trkpt>
      <trkpt lat="49.17033" lon="-0.40597">
        <ele>27.7</ele>
        <time>2012-01-13T14:49:15Z</time>
      </trkpt>
      <trkpt lat="49.17035" lon="-0.40597">
        <ele>29.2</ele>
        <time>2012-01-13T14:49:16Z</time>
      </trkpt>
      <trkpt lat="49.17035" lon="-0.40597">
        <ele>29.1</ele>
        <time>2012-01-13T14:49:17Z</time>
      </trkpt>
      <trkpt lat="49.17036" lon="-0.40597">
        <ele>28.7</ele>
        <time>2012-01-13T14:49:18Z</time>
      </trkpt>
      <trkpt lat="49.17037" lon="-0.40597">
        <ele>28.2</ele>
        <time>2012-01-13T14:49:19Z</time>
      </trkpt>
      <trkpt lat="49.17038" lon="-0.40597">
        <ele>28.2</ele>
        <time>2012-01-13T14:49:20Z</time>
      </trkpt>
      <trkpt lat="49.17039" lon="-0.40596">
        <ele>27.7</ele>
        <time>2012-01-13T14:49:21Z</time>
      </trkpt>
      <trkpt lat="49.1704" lon="-0.40596">
        <ele>27.7</ele>
        <time>2012-01-13T14:49:22Z</time>
      </trkpt>
      <trkpt lat="49.1704" lon="-0.40595">
        <ele>27.5</ele>
        <time>2012-01-13T14:49:23Z</time>
      </trkpt>
      <trkpt lat="49.17041" lon="-0.40595">
        <ele>27.2</ele>
        <time>2012-01-13T14:49:24Z</time>
      </trkpt>
      <trkpt lat="49.17042" lon="-0.40594">
        <ele>27.2</ele>
        <time>2012-01-13T14:49:25Z</time>
      </trkpt>
      <trkpt lat="49.17043" lon="-0.40594">
        <ele>26.7</ele>
        <time>2012-01-13T14:49:26Z</time>
      </trkpt>
      <trkpt lat="49.17044" lon="-0.40593">
        <ele>26.7</ele>
        <time>2012-01-13T14:49:27Z</time>
      </trkpt>
      <trkpt lat="49.17045" lon="-0.40593">
        <ele>26.2</ele>
        <time>2012-01-13T14:49:28Z</time>
      </trkpt>
      <trkpt lat="49.17046" lon="-0.40593">
        <ele>26.2</ele>
        <time>2012-01-13T14:49:29Z</time>
      </trkpt>
      <trkpt lat="49.17047" lon="-0.40592">
        <ele>26.2</ele>
        <time>2012-01-13T14:49:30Z</time>
      </trkpt>
      <trkpt lat="49.17048" lon="-0.40592">
        <ele>26.2</ele>
        <time>2012-01-13T14:49:31Z</time>
      </trkpt>
      <trkpt lat="49.17049" lon="-0.40592">
        <ele>26.5</ele>
        <time>2012-01-13T14:49:32Z</time>
      </trkpt>
      <trkpt lat="49.17049" lon="-0.40591">
        <ele>26.6</ele>
        <time>2012-01-13T14:49:33Z</time>
      </trkpt>
      <trkpt lat="49.1705" lon="-0.40591">
        <ele>26.7</ele>
        <time>2012-01-13T14:49:34Z</time>
      </trkpt>
      <trkpt lat="49.17051" lon="-0.40591">
        <ele>26.7</ele>
        <time>2012-01-13T14:49:35Z</time>
      </trkpt>
      <trkpt lat="49.17052" lon="-0.40591">
        <ele>26.7</ele>
        <time>2012-01-13T14:49:36Z</time>
      </trkpt>
      <trkpt lat="49.17053" lon="-0.40591">
        <ele>26.7</ele>
        <time>2012-01-13T14:49:37Z</time>
      </trkpt>
      <trkpt lat="49.17054" lon="-0.40591">
        <ele>26.7</ele>
        <time>2012-01-13T14:49:38Z</time>
      </trkpt>
      <trkpt lat="49.17055" lon="-0.40592">
        <ele>26.7</ele>
        <time>2012-01-13T14:49:39Z</time>
      </trkpt>
      <trkpt lat="49.17055" lon="-0.40592">
        <ele>26.7</ele>
        <time>2012-01-13T14:49:40Z</time>
      </trkpt>
      <trkpt lat="49.17056" lon="-0.40592">
        <ele>27</ele>
        <time>2012-01-13T14:49:41Z</time>
      </trkpt>
      <trkpt lat="49.17057" lon="-0.40592">
        <ele>27</ele>
        <time>2012-01-13T14:49:42Z</time>
      </trkpt>
      <trkpt lat="49.17058" lon="-0.40593">
        <ele>26.7</ele>
        <time>2012-01-13T14:49:43Z</time>
      </trkpt>
      <trkpt lat="49.17059" lon="-0.40593">
        <ele>27.6</ele>
        <time>2012-01-13T14:49:44Z</time>
      </trkpt>
      <trkpt lat="49.1706" lon="-0.40593">
        <ele>27.2</ele>
        <time>2012-01-13T14:49:45Z</time>
      </trkpt>
      <trkpt lat="49.17061" lon="-0.40594">
        <ele>27</ele>
        <time>2012-01-13T14:49:46Z</time>
      </trkpt>
      <trkpt lat="49.17061" lon="-0.40594">
        <ele>26.7</ele>
        <time>2012-01-13T14:49:47Z</time>
      </trkpt>
      <trkpt lat="49.17062" lon="-0.40594">
        <ele>26.7</ele>
        <time>2012-01-13T14:49:48Z</time>
      </trkpt>
      <trkpt lat="49.17062" lon="-0.40594">
        <ele>26.7</ele>
        <time>2012-01-13T14:49:49Z</time>
      </trkpt>
      <trkpt lat="49.17063" lon="-0.40594">
        <ele>26.7</ele>
        <time>2012-01-13T14:49:50Z</time>
      </trkpt>
      <trkpt lat="49.17063" lon="-0.40594">
        <ele>26.7</ele>
        <time>2012-01-13T14:49:51Z</time>
      </trkpt>
      <trkpt lat="49.17063" lon="-0.40594">
        <ele>26.7</ele>
        <time>2012-01-13T14:49:52Z</time>
      </trkpt>
      <trkpt lat="49.17063" lon="-0.40593">
        <ele>26.5</ele>
        <time>2012-01-13T14:49:53Z</time>
      </trkpt>
      <trkpt lat="49.17063" lon="-0.40593">
        <ele>26.1</ele>
        <time>2012-01-13T14:49:54Z</time>
      </trkpt>
      <trkpt lat="49.17064" lon="-0.40593">
        <ele>25.7</ele>
        <time>2012-01-13T14:49:55Z</time>
      </trkpt>
      <trkpt lat="49.17065" lon="-0.40593">
        <ele>25.5</ele>
        <time>2012-01-13T14:49:56Z</time>
      </trkpt>
      <trkpt lat="49.17066" lon="-0.40593">
        <ele>25.2</ele>
        <time>2012-01-13T14:49:57Z</time>
      </trkpt>
      <trkpt lat="49.17066" lon="-0.40594">
        <ele>25</ele>
        <time>2012-01-13T14:49:58Z</time>
      </trkpt>
      <trkpt lat="49.17067" lon="-0.40594">
        <ele>24.7</ele>
        <time>2012-01-13T14:49:59Z</time>
      </trkpt>
      <trkpt lat="49.17068" lon="-0.40594">
        <ele>24.6</ele>
        <time>2012-01-13T14:50:00Z</time>
      </trkpt>
      <trkpt lat="49.17069" lon="-0.40594">
        <ele>24.2</ele>
        <time>2012-01-13T14:50:01Z</time>
      </trkpt>
      <trkpt lat="49.17069" lon="-0.40594">
        <ele>23.7</ele>
        <time>2012-01-13T14:50:02Z</time>
      </trkpt>
      <trkpt lat="49.1707" lon="-0.40595">
        <ele>23.6</ele>
        <time>2012-01-13T14:50:03Z</time>
      </trkpt>
      <trkpt lat="49.17071" lon="-0.40595">
        <ele>23.5</ele>
        <time>2012-01-13T14:50:04Z</time>
      </trkpt>
      <trkpt lat="49.17072" lon="-0.40595">
        <ele>23.2</ele>
        <time>2012-01-13T14:50:05Z</time>
      </trkpt>
      <trkpt lat="49.17073" lon="-0.40595">
        <ele>23.1</ele>
        <time>2012-01-13T14:50:06Z</time>
      </trkpt>
      <trkpt lat="49.17074" lon="-0.40595">
        <ele>23.2</ele>
        <time>2012-01-13T14:50:07Z</time>
      </trkpt>
      <trkpt lat="49.17075" lon="-0.40596">
        <ele>23</ele>
        <time>2012-01-13T14:50:08Z</time>
      </trkpt>
      <trkpt lat="49.17076" lon="-0.40596">
        <ele>23</ele>
        <time>2012-01-13T14:50:09Z</time>
      </trkpt>
      <trkpt lat="49.17077" lon="-0.40596">
        <ele>22.7</ele>
        <time>2012-01-13T14:50:10Z</time>
      </trkpt>
      <trkpt lat="49.17078" lon="-0.40597">
        <ele>23</ele>
        <time>2012-01-13T14:50:11Z</time>
      </trkpt>
      <trkpt lat="49.17079" lon="-0.40597">
        <ele>23.2</ele>
        <time>2012-01-13T14:50:12Z</time>
      </trkpt>
      <trkpt lat="49.1708" lon="-0.40597">
        <ele>23.7</ele>
        <time>2012-01-13T14:50:13Z</time>
      </trkpt>
      <trkpt lat="49.1708" lon="-0.40597">
        <ele>24.1</ele>
        <time>2012-01-13T14:50:14Z</time>
      </trkpt>
      <trkpt lat="49.17081" lon="-0.40597">
        <ele>24.2</ele>
        <time>2012-01-13T14:50:15Z</time>
      </trkpt>
      <trkpt lat="49.17082" lon="-0.40597">
        <ele>24.2</ele>
        <time>2012-01-13T14:50:16Z</time>
      </trkpt>
      <trkpt lat="49.17083" lon="-0.40597">
        <ele>23.7</ele>
        <time>2012-01-13T14:50:17Z</time>
      </trkpt>
      <trkpt lat="49.17084" lon="-0.40597">
        <ele>23.2</ele>
        <time>2012-01-13T14:50:18Z</time>
      </trkpt>
      <trkpt lat="49.17085" lon="-0.40596">
        <ele>23.1</ele>
        <time>2012-01-13T14:50:19Z</time>
      </trkpt>
      <trkpt lat="49.17085" lon="-0.40596">
        <ele>22.7</ele>
        <time>2012-01-13T14:50:20Z</time>
      </trkpt>
      <trkpt lat="49.17086" lon="-0.40596">
        <ele>22.7</ele>
        <time>2012-01-13T14:50:21Z</time>
      </trkpt>
      <trkpt lat="49.17087" lon="-0.40597">
        <ele>22.5</ele>
        <time>2012-01-13T14:50:22Z</time>
      </trkpt>
      <trkpt lat="49.17088" lon="-0.40596">
        <ele>22.2</ele>
        <time>2012-01-13T14:50:23Z</time>
      </trkpt>
      <trkpt lat="49.17089" lon="-0.40596">
        <ele>21.7</ele>
        <time>2012-01-13T14:50:24Z</time>
      </trkpt>
      <trkpt lat="49.1709" lon="-0.40596">
        <ele>21.5</ele>
        <time>2012-01-13T14:50:25Z</time>
      </trkpt>
      <trkpt lat="49.1709" lon="-0.40596">
        <ele>21.1</ele>
        <time>2012-01-13T14:50:26Z</time>
      </trkpt>
      <trkpt lat="49.17091" lon="-0.40595">
        <ele>20.7</ele>
        <time>2012-01-13T14:50:27Z</time>
      </trkpt>
      <trkpt lat="49.17092" lon="-0.40595">
        <ele>20.7</ele>
        <time>2012-01-13T14:50:28Z</time>
      </trkpt>
      <trkpt lat="49.17092" lon="-0.40594">
        <ele>20.6</ele>
        <time>2012-01-13T14:50:29Z</time>
      </trkpt>
      <trkpt lat="49.17093" lon="-0.40593">
        <ele>20.7</ele>
        <time>2012-01-13T14:50:30Z</time>
      </trkpt>
      <trkpt lat="49.17095" lon="-0.40592">
        <ele>21.5</ele>
        <time>2012-01-13T14:50:31Z</time>
      </trkpt>
      <trkpt lat="49.17096" lon="-0.40591">
        <ele>21.7</ele>
        <time>2012-01-13T14:50:32Z</time>
      </trkpt>
      <trkpt lat="49.17097" lon="-0.4059">
        <ele>22</ele>
        <time>2012-01-13T14:50:33Z</time>
      </trkpt>
      <trkpt lat="49.17098" lon="-0.40589">
        <ele>21.7</ele>
        <time>2012-01-13T14:50:34Z</time>
      </trkpt>
      <trkpt lat="49.17099" lon="-0.40588">
        <ele>21.2</ele>
        <time>2012-01-13T14:50:35Z</time>
      </trkpt>
      <trkpt lat="49.17099" lon="-0.40586">
        <ele>20.5</ele>
        <time>2012-01-13T14:50:36Z</time>
      </trkpt>
      <trkpt lat="49.171" lon="-0.40585">
        <ele>19.7</ele>
        <time>2012-01-13T14:50:37Z</time>
      </trkpt>
      <trkpt lat="49.171" lon="-0.40584">
        <ele>19.2</ele>
        <time>2012-01-13T14:50:38Z</time>
      </trkpt>
      <trkpt lat="49.17101" lon="-0.40582">
        <ele>18.7</ele>
        <time>2012-01-13T14:50:39Z</time>
      </trkpt>
      <trkpt lat="49.17101" lon="-0.40581">
        <ele>19.2</ele>
        <time>2012-01-13T14:50:40Z</time>
      </trkpt>
      <trkpt lat="49.17101" lon="-0.40578">
        <ele>18.2</ele>
        <time>2012-01-13T14:50:41Z</time>
      </trkpt>
      <trkpt lat="49.17102" lon="-0.40577">
        <ele>18.1</ele>
        <time>2012-01-13T14:50:42Z</time>
      </trkpt>
      <trkpt lat="49.17102" lon="-0.40576">
        <ele>17.6</ele>
        <time>2012-01-13T14:50:43Z</time>
      </trkpt>
      <trkpt lat="49.17103" lon="-0.40574">
        <ele>17.2</ele>
        <time>2012-01-13T14:50:44Z</time>
      </trkpt>
      <trkpt lat="49.17104" lon="-0.40573">
        <ele>17</ele>
        <time>2012-01-13T14:50:45Z</time>
      </trkpt>
      <trkpt lat="49.17105" lon="-0.40572">
        <ele>17</ele>
        <time>2012-01-13T14:50:46Z</time>
      </trkpt>
      <trkpt lat="49.17105" lon="-0.40571">
        <ele>16.7</ele>
        <time>2012-01-13T14:50:47Z</time>
      </trkpt>
      <trkpt lat="49.17106" lon="-0.4057">
        <ele>16.7</ele>
        <time>2012-01-13T14:50:48Z</time>
      </trkpt>
      <trkpt lat="49.17107" lon="-0.4057">
        <ele>16.6</ele>
        <time>2012-01-13T14:50:49Z</time>
      </trkpt>
      <trkpt lat="49.17108" lon="-0.40569">
        <ele>16.2</ele>
        <time>2012-01-13T14:50:50Z</time>
      </trkpt>
      <trkpt lat="49.17109" lon="-0.40568">
        <ele>16</ele>
        <time>2012-01-13T14:50:51Z</time>
      </trkpt>
      <trkpt lat="49.17109" lon="-0.40568">
        <ele>15.6</ele>
        <time>2012-01-13T14:50:52Z</time>
      </trkpt>
      <trkpt lat="49.1711" lon="-0.40567">
        <ele>15.6</ele>
        <time>2012-01-13T14:50:53Z</time>
      </trkpt>
      <trkpt lat="49.17111" lon="-0.40567">
        <ele>15.6</ele>
        <time>2012-01-13T14:50:54Z</time>
      </trkpt>
      <trkpt lat="49.17112" lon="-0.40566">
        <ele>15.8</ele>
        <time>2012-01-13T14:50:55Z</time>
      </trkpt>
      <trkpt lat="49.17113" lon="-0.40565">
        <ele>16</ele>
        <time>2012-01-13T14:50:56Z</time>
      </trkpt>
      <trkpt lat="49.17114" lon="-0.40565">
        <ele>16.7</ele>
        <time>2012-01-13T14:50:57Z</time>
      </trkpt>
      <trkpt lat="49.17116" lon="-0.40565">
        <ele>17.2</ele>
        <time>2012-01-13T14:50:58Z</time>
      </trkpt>
      <trkpt lat="49.17117" lon="-0.40565">
        <ele>17.7</ele>
        <time>2012-01-13T14:50:59Z</time>
      </trkpt>
      <trkpt lat="49.17118" lon="-0.40564">
        <ele>17.7</ele>
        <time>2012-01-13T14:51:00Z</time>
      </trkpt>
      <trkpt lat="49.17119" lon="-0.40564">
        <ele>18</ele>
        <time>2012-01-13T14:51:01Z</time>
      </trkpt>
      <trkpt lat="49.1712" lon="-0.40564">
        <ele>17.7</ele>
        <time>2012-01-13T14:51:02Z</time>
      </trkpt>
      <trkpt lat="49.17121" lon="-0.40564">
        <ele>17.7</ele>
        <time>2012-01-13T14:51:03Z</time>
      </trkpt>
      <trkpt lat="49.17122" lon="-0.40564">
        <ele>17.7</ele>
        <time>2012-01-13T14:51:04Z</time>
      </trkpt>
      <trkpt lat="49.17123" lon="-0.40564">
        <ele>17.7</ele>
        <time>2012-01-13T14:51:05Z</time>
      </trkpt>
      <trkpt lat="49.17124" lon="-0.40564">
        <ele>17.6</ele>
        <time>2012-01-13T14:51:06Z</time>
      </trkpt>
      <trkpt lat="49.17125" lon="-0.40564">
        <ele>17.7</ele>
        <time>2012-01-13T14:51:07Z</time>
      </trkpt>
      <trkpt lat="49.17126" lon="-0.40564">
        <ele>17.7</ele>
        <time>2012-01-13T14:51:08Z</time>
      </trkpt>
      <trkpt lat="49.17127" lon="-0.40564">
        <ele>17.6</ele>
        <time>2012-01-13T14:51:09Z</time>
      </trkpt>
      <trkpt lat="49.17127" lon="-0.40564">
        <ele>17.6</ele>
        <time>2012-01-13T14:51:10Z</time>
      </trkpt>
      <trkpt lat="49.17129" lon="-0.40564">
        <ele>18.2</ele>
        <time>2012-01-13T14:51:11Z</time>
      </trkpt>
      <trkpt lat="49.1713" lon="-0.40564">
        <ele>18.7</ele>
        <time>2012-01-13T14:51:12Z</time>
      </trkpt>
      <trkpt lat="49.17131" lon="-0.40563">
        <ele>19.2</ele>
        <time>2012-01-13T14:51:13Z</time>
      </trkpt>
      <trkpt lat="49.17132" lon="-0.40563">
        <ele>19.6</ele>
        <time>2012-01-13T14:51:14Z</time>
      </trkpt>
      <trkpt lat="49.17134" lon="-0.40563">
        <ele>20</ele>
        <time>2012-01-13T14:51:15Z</time>
      </trkpt>
      <trkpt lat="49.17135" lon="-0.40562">
        <ele>20.2</ele>
        <time>2012-01-13T14:51:16Z</time>
      </trkpt>
      <trkpt lat="49.17136" lon="-0.40562">
        <ele>20.5</ele>
        <time>2012-01-13T14:51:17Z</time>
      </trkpt>
      <trkpt lat="49.17137" lon="-0.40562">
        <ele>20.7</ele>
        <time>2012-01-13T14:51:18Z</time>
      </trkpt>
      <trkpt lat="49.17138" lon="-0.40561">
        <ele>20.7</ele>
        <time>2012-01-13T14:51:19Z</time>
      </trkpt>
      <trkpt lat="49.17139" lon="-0.40561">
        <ele>21</ele>
        <time>2012-01-13T14:51:20Z</time>
      </trkpt>
      <trkpt lat="49.1714" lon="-0.4056">
        <ele>21</ele>
        <time>2012-01-13T14:51:21Z</time>
      </trkpt>
      <trkpt lat="49.17141" lon="-0.4056">
        <ele>21.1</ele>
        <time>2012-01-13T14:51:22Z</time>
      </trkpt>
      <trkpt lat="49.17142" lon="-0.40559">
        <ele>21.1</ele>
        <time>2012-01-13T14:51:23Z</time>
      </trkpt>
      <trkpt lat="49.17143" lon="-0.40559">
        <ele>21.1</ele>
        <time>2012-01-13T14:51:24Z</time>
      </trkpt>
      <trkpt lat="49.17144" lon="-0.40558">
        <ele>21.1</ele>
        <time>2012-01-13T14:51:25Z</time>
      </trkpt>
      <trkpt lat="49.17145" lon="-0.40558">
        <ele>21.1</ele>
        <time>2012-01-13T14:51:26Z</time>
      </trkpt>
      <trkpt lat="49.17146" lon="-0.40558">
        <ele>21.2</ele>
        <time>2012-01-13T14:51:27Z</time>
      </trkpt>
      <trkpt lat="49.17147" lon="-0.40558">
        <ele>21.1</ele>
        <time>2012-01-13T14:51:28Z</time>
      </trkpt>
      <trkpt lat="49.17148" lon="-0.40557">
        <ele>21.1</ele>
        <time>2012-01-13T14:51:29Z</time>
      </trkpt>
      <trkpt lat="49.17149" lon="-0.40557">
        <ele>21.1</ele>
        <time>2012-01-13T14:51:30Z</time>
      </trkpt>
      <trkpt lat="49.1715" lon="-0.40556">
        <ele>21.2</ele>
        <time>2012-01-13T14:51:31Z</time>
      </trkpt>
      <trkpt lat="49.17151" lon="-0.40555">
        <ele>21.2</ele>
        <time>2012-01-13T14:51:32Z</time>
      </trkpt>
      <trkpt lat="49.17152" lon="-0.40555">
        <ele>21.2</ele>
        <time>2012-01-13T14:51:33Z</time>
      </trkpt>
      <trkpt lat="49.17153" lon="-0.40555">
        <ele>21.1</ele>
        <time>2012-01-13T14:51:34Z</time>
      </trkpt>
      <trkpt lat="49.17154" lon="-0.40554">
        <ele>21.1</ele>
        <time>2012-01-13T14:51:35Z</time>
      </trkpt>
      <trkpt lat="49.17154" lon="-0.40554">
        <ele>20.7</ele>
        <time>2012-01-13T14:51:36Z</time>
      </trkpt>
      <trkpt lat="49.17155" lon="-0.40554">
        <ele>20.7</ele>
        <time>2012-01-13T14:51:37Z</time>
      </trkpt>
      <trkpt lat="49.17156" lon="-0.40553">
        <ele>20.7</ele>
        <time>2012-01-13T14:51:38Z</time>
      </trkpt>
      <trkpt lat="49.17157" lon="-0.40553">
        <ele>20.7</ele>
        <time>2012-01-13T14:51:39Z</time>
      </trkpt>
      <trkpt lat="49.17158" lon="-0.40552">
        <ele>20.7</ele>
        <time>2012-01-13T14:51:40Z</time>
      </trkpt>
      <trkpt lat="49.17159" lon="-0.40552">
        <ele>21</ele>
        <time>2012-01-13T14:51:41Z</time>
      </trkpt>
      <trkpt lat="49.1716" lon="-0.40552">
        <ele>20.7</ele>
        <time>2012-01-13T14:51:42Z</time>
      </trkpt>
      <trkpt lat="49.17161" lon="-0.40551">
        <ele>20.7</ele>
        <time>2012-01-13T14:51:43Z</time>
      </trkpt>
      <trkpt lat="49.17161" lon="-0.4055">
        <ele>21</ele>
        <time>2012-01-13T14:51:44Z</time>
      </trkpt>
      <trkpt lat="49.17162" lon="-0.4055">
        <ele>21</ele>
        <time>2012-01-13T14:51:45Z</time>
      </trkpt>
      <trkpt lat="49.17162" lon="-0.40549">
        <ele>20.7</ele>
        <time>2012-01-13T14:51:46Z</time>
      </trkpt>
      <trkpt lat="49.17163" lon="-0.40549">
        <ele>20.7</ele>
        <time>2012-01-13T14:51:47Z</time>
      </trkpt>
      <trkpt lat="49.17164" lon="-0.40548">
        <ele>21</ele>
        <time>2012-01-13T14:51:48Z</time>
      </trkpt>
      <trkpt lat="49.17165" lon="-0.40548">
        <ele>20.7</ele>
        <time>2012-01-13T14:51:49Z</time>
      </trkpt>
      <trkpt lat="49.17165" lon="-0.40547">
        <ele>20.7</ele>
        <time>2012-01-13T14:51:50Z</time>
      </trkpt>
      <trkpt lat="49.17166" lon="-0.40547">
        <ele>20.6</ele>
        <time>2012-01-13T14:51:51Z</time>
      </trkpt>
      <trkpt lat="49.17167" lon="-0.40546">
        <ele>20.7</ele>
        <time>2012-01-13T14:51:52Z</time>
      </trkpt>
      <trkpt lat="49.17168" lon="-0.40546">
        <ele>20.7</ele>
        <time>2012-01-13T14:51:53Z</time>
      </trkpt>
      <trkpt lat="49.17169" lon="-0.40546">
        <ele>20.7</ele>
        <time>2012-01-13T14:51:54Z</time>
      </trkpt>
      <trkpt lat="49.1717" lon="-0.40545">
        <ele>21.1</ele>
        <time>2012-01-13T14:51:55Z</time>
      </trkpt>
      <trkpt lat="49.17171" lon="-0.40545">
        <ele>21.2</ele>
        <time>2012-01-13T14:51:56Z</time>
      </trkpt>
      <trkpt lat="49.17172" lon="-0.40545">
        <ele>21.2</ele>
        <time>2012-01-13T14:51:57Z</time>
      </trkpt>
      <trkpt lat="49.17173" lon="-0.40545">
        <ele>21.2</ele>
        <time>2012-01-13T14:51:58Z</time>
      </trkpt>
      <trkpt lat="49.17174" lon="-0.40544">
        <ele>21.5</ele>
        <time>2012-01-13T14:51:59Z</time>
      </trkpt>
      <trkpt lat="49.17175" lon="-0.40544">
        <ele>21.2</ele>
        <time>2012-01-13T14:52:00Z</time>
      </trkpt>
      <trkpt lat="49.17176" lon="-0.40543">
        <ele>21.1</ele>
        <time>2012-01-13T14:52:01Z</time>
      </trkpt>
      <trkpt lat="49.17177" lon="-0.40542">
        <ele>20.7</ele>
        <time>2012-01-13T14:52:02Z</time>
      </trkpt>
      <trkpt lat="49.17178" lon="-0.40542">
        <ele>20.1</ele>
        <time>2012-01-13T14:52:03Z</time>
      </trkpt>
      <trkpt lat="49.17179" lon="-0.40543">
        <ele>19.2</ele>
        <time>2012-01-13T14:52:04Z</time>
      </trkpt>
      <trkpt lat="49.1718" lon="-0.40542">
        <ele>18.7</ele>
        <time>2012-01-13T14:52:05Z</time>
      </trkpt>
      <trkpt lat="49.17181" lon="-0.40541">
        <ele>18.5</ele>
        <time>2012-01-13T14:52:06Z</time>
      </trkpt>
      <trkpt lat="49.17182" lon="-0.4054">
        <ele>17.7</ele>
        <time>2012-01-13T14:52:07Z</time>
      </trkpt>
      <trkpt lat="49.17182" lon="-0.4054">
        <ele>17.7</ele>
        <time>2012-01-13T14:52:08Z</time>
      </trkpt>
      <trkpt lat="49.17183" lon="-0.40541">
        <ele>18.1</ele>
        <time>2012-01-13T14:52:09Z</time>
      </trkpt>
      <trkpt lat="49.17185" lon="-0.40541">
        <ele>18.2</ele>
        <time>2012-01-13T14:52:10Z</time>
      </trkpt>
      <trkpt lat="49.17186" lon="-0.40541">
        <ele>18.6</ele>
        <time>2012-01-13T14:52:11Z</time>
      </trkpt>
      <trkpt lat="49.17187" lon="-0.4054">
        <ele>18.2</ele>
        <time>2012-01-13T14:52:12Z</time>
      </trkpt>
      <trkpt lat="49.17188" lon="-0.4054">
        <ele>18.2</ele>
        <time>2012-01-13T14:52:13Z</time>
      </trkpt>
      <trkpt lat="49.17189" lon="-0.40538">
        <ele>18.2</ele>
        <time>2012-01-13T14:52:14Z</time>
      </trkpt>
      <trkpt lat="49.1719" lon="-0.40538">
        <ele>18.7</ele>
        <time>2012-01-13T14:52:15Z</time>
      </trkpt>
      <trkpt lat="49.17191" lon="-0.40537">
        <ele>18.7</ele>
        <time>2012-01-13T14:52:16Z</time>
      </trkpt>
      <trkpt lat="49.17191" lon="-0.40537">
        <ele>18.5</ele>
        <time>2012-01-13T14:52:17Z</time>
      </trkpt>
      <trkpt lat="49.17192" lon="-0.40536">
        <ele>18.2</ele>
        <time>2012-01-13T14:52:18Z</time>
      </trkpt>
      <trkpt lat="49.17193" lon="-0.40536">
        <ele>18.2</ele>
        <time>2012-01-13T14:52:19Z</time>
      </trkpt>
      <trkpt lat="49.17194" lon="-0.40535">
        <ele>18.2</ele>
        <time>2012-01-13T14:52:20Z</time>
      </trkpt>
      <trkpt lat="49.17195" lon="-0.40535">
        <ele>18.2</ele>
        <time>2012-01-13T14:52:21Z</time>
      </trkpt>
      <trkpt lat="49.17195" lon="-0.40534">
        <ele>17.7</ele>
        <time>2012-01-13T14:52:22Z</time>
      </trkpt>
      <trkpt lat="49.17196" lon="-0.40533">
        <ele>16.7</ele>
        <time>2012-01-13T14:52:23Z</time>
      </trkpt>
      <trkpt lat="49.17197" lon="-0.40532">
        <ele>16.1</ele>
        <time>2012-01-13T14:52:24Z</time>
      </trkpt>
      <trkpt lat="49.17198" lon="-0.40532">
        <ele>16.1</ele>
        <time>2012-01-13T14:52:25Z</time>
      </trkpt>
      <trkpt lat="49.17199" lon="-0.40531">
        <ele>16.2</ele>
        <time>2012-01-13T14:52:26Z</time>
      </trkpt>
      <trkpt lat="49.17199" lon="-0.4053">
        <ele>16</ele>
        <time>2012-01-13T14:52:27Z</time>
      </trkpt>
      <trkpt lat="49.172" lon="-0.40529">
        <ele>16.1</ele>
        <time>2012-01-13T14:52:28Z</time>
      </trkpt>
      <trkpt lat="49.17201" lon="-0.4053">
        <ele>16.7</ele>
        <time>2012-01-13T14:52:29Z</time>
      </trkpt>
      <trkpt lat="49.17202" lon="-0.4053">
        <ele>17.1</ele>
        <time>2012-01-13T14:52:30Z</time>
      </trkpt>
      <trkpt lat="49.17203" lon="-0.4053">
        <ele>17.2</ele>
        <time>2012-01-13T14:52:31Z</time>
      </trkpt>
      <trkpt lat="49.17204" lon="-0.4053">
        <ele>17.2</ele>
        <time>2012-01-13T14:52:32Z</time>
      </trkpt>
      <trkpt lat="49.17205" lon="-0.4053">
        <ele>16.6</ele>
        <time>2012-01-13T14:52:33Z</time>
      </trkpt>
      <trkpt lat="49.17206" lon="-0.4053">
        <ele>17.2</ele>
        <time>2012-01-13T14:52:34Z</time>
      </trkpt>
      <trkpt lat="49.17207" lon="-0.40529">
        <ele>17.5</ele>
        <time>2012-01-13T14:52:35Z</time>
      </trkpt>
      <trkpt lat="49.17208" lon="-0.40528">
        <ele>17.2</ele>
        <time>2012-01-13T14:52:36Z</time>
      </trkpt>
      <trkpt lat="49.17209" lon="-0.40528">
        <ele>16.6</ele>
        <time>2012-01-13T14:52:37Z</time>
      </trkpt>
      <trkpt lat="49.1721" lon="-0.40528">
        <ele>16.1</ele>
        <time>2012-01-13T14:52:38Z</time>
      </trkpt>
      <trkpt lat="49.17211" lon="-0.40527">
        <ele>17.2</ele>
        <time>2012-01-13T14:52:39Z</time>
      </trkpt>
      <trkpt lat="49.17212" lon="-0.40526">
        <ele>17.2</ele>
        <time>2012-01-13T14:52:40Z</time>
      </trkpt>
      <trkpt lat="49.17213" lon="-0.40525">
        <ele>17.5</ele>
        <time>2012-01-13T14:52:41Z</time>
      </trkpt>
      <trkpt lat="49.17213" lon="-0.40525">
        <ele>16.5</ele>
        <time>2012-01-13T14:52:42Z</time>
      </trkpt>
      <trkpt lat="49.17214" lon="-0.40524">
        <ele>16.5</ele>
        <time>2012-01-13T14:52:43Z</time>
      </trkpt>
      <trkpt lat="49.17216" lon="-0.40524">
        <ele>17</ele>
        <time>2012-01-13T14:52:44Z</time>
      </trkpt>
      <trkpt lat="49.17217" lon="-0.40523">
        <ele>17.2</ele>
        <time>2012-01-13T14:52:45Z</time>
      </trkpt>
      <trkpt lat="49.17218" lon="-0.40523">
        <ele>17.2</ele>
        <time>2012-01-13T14:52:46Z</time>
      </trkpt>
      <trkpt lat="49.17219" lon="-0.40522">
        <ele>17.2</ele>
        <time>2012-01-13T14:52:47Z</time>
      </trkpt>
      <trkpt lat="49.17219" lon="-0.40521">
        <ele>17.1</ele>
        <time>2012-01-13T14:52:48Z</time>
      </trkpt>
      <trkpt lat="49.1722" lon="-0.40519">
        <ele>16.6</ele>
        <time>2012-01-13T14:52:49Z</time>
      </trkpt>
      <trkpt lat="49.17221" lon="-0.40517">
        <ele>14.6</ele>
        <time>2012-01-13T14:52:50Z</time>
      </trkpt>
      <trkpt lat="49.17222" lon="-0.40516">
        <ele>14.6</ele>
        <time>2012-01-13T14:52:51Z</time>
      </trkpt>
      <trkpt lat="49.17223" lon="-0.40516">
        <ele>14.3</ele>
        <time>2012-01-13T14:52:52Z</time>
      </trkpt>
      <trkpt lat="49.17225" lon="-0.40516">
        <ele>15.1</ele>
        <time>2012-01-13T14:52:53Z</time>
      </trkpt>
      <trkpt lat="49.17226" lon="-0.40515">
        <ele>14.6</ele>
        <time>2012-01-13T14:52:54Z</time>
      </trkpt>
      <trkpt lat="49.17227" lon="-0.40515">
        <ele>15.6</ele>
        <time>2012-01-13T14:52:55Z</time>
      </trkpt>
      <trkpt lat="49.17228" lon="-0.40515">
        <ele>17.7</ele>
        <time>2012-01-13T14:52:56Z</time>
      </trkpt>
      <trkpt lat="49.1723" lon="-0.40515">
        <ele>17.7</ele>
        <time>2012-01-13T14:52:57Z</time>
      </trkpt>
      <trkpt lat="49.17231" lon="-0.40515">
        <ele>17.5</ele>
        <time>2012-01-13T14:52:58Z</time>
      </trkpt>
      <trkpt lat="49.17232" lon="-0.40515">
        <ele>17.7</ele>
        <time>2012-01-13T14:52:59Z</time>
      </trkpt>
      <trkpt lat="49.17233" lon="-0.40515">
        <ele>18</ele>
        <time>2012-01-13T14:53:00Z</time>
      </trkpt>
      <trkpt lat="49.17234" lon="-0.40514">
        <ele>18.2</ele>
        <time>2012-01-13T14:53:01Z</time>
      </trkpt>
      <trkpt lat="49.17235" lon="-0.40513">
        <ele>17.7</ele>
        <time>2012-01-13T14:53:02Z</time>
      </trkpt>
      <trkpt lat="49.17236" lon="-0.40513">
        <ele>18.6</ele>
        <time>2012-01-13T14:53:03Z</time>
      </trkpt>
      <trkpt lat="49.17237" lon="-0.40512">
        <ele>18.7</ele>
        <time>2012-01-13T14:53:04Z</time>
      </trkpt>
      <trkpt lat="49.17238" lon="-0.4051">
        <ele>19.1</ele>
        <time>2012-01-13T14:53:05Z</time>
      </trkpt>
      <trkpt lat="49.17239" lon="-0.40508">
        <ele>18.5</ele>
        <time>2012-01-13T14:53:06Z</time>
      </trkpt>
      <trkpt lat="49.1724" lon="-0.40507">
        <ele>18.7</ele>
        <time>2012-01-13T14:53:07Z</time>
      </trkpt>
      <trkpt lat="49.17241" lon="-0.40508">
        <ele>18.7</ele>
        <time>2012-01-13T14:53:08Z</time>
      </trkpt>
      <trkpt lat="49.17241" lon="-0.40507">
        <ele>18.7</ele>
        <time>2012-01-13T14:53:09Z</time>
      </trkpt>
      <trkpt lat="49.17242" lon="-0.40506">
        <ele>19.6</ele>
        <time>2012-01-13T14:53:10Z</time>
      </trkpt>
      <trkpt lat="49.17243" lon="-0.40506">
        <ele>20.2</ele>
        <time>2012-01-13T14:53:11Z</time>
      </trkpt>
      <trkpt lat="49.17244" lon="-0.40506">
        <ele>20.6</ele>
        <time>2012-01-13T14:53:12Z</time>
      </trkpt>
      <trkpt lat="49.17245" lon="-0.40506">
        <ele>21.5</ele>
        <time>2012-01-13T14:53:13Z</time>
      </trkpt>
      <trkpt lat="49.17246" lon="-0.40506">
        <ele>21.7</ele>
        <time>2012-01-13T14:53:14Z</time>
      </trkpt>
      <trkpt lat="49.17247" lon="-0.40505">
        <ele>22.1</ele>
        <time>2012-01-13T14:53:15Z</time>
      </trkpt>
      <trkpt lat="49.17248" lon="-0.40505">
        <ele>22.2</ele>
        <time>2012-01-13T14:53:16Z</time>
      </trkpt>
      <trkpt lat="49.17249" lon="-0.40504">
        <ele>22.2</ele>
        <time>2012-01-13T14:53:17Z</time>
      </trkpt>
      <trkpt lat="49.1725" lon="-0.40503">
        <ele>21.7</ele>
        <time>2012-01-13T14:53:18Z</time>
      </trkpt>
      <trkpt lat="49.17251" lon="-0.40503">
        <ele>21.7</ele>
        <time>2012-01-13T14:53:19Z</time>
      </trkpt>
      <trkpt lat="49.17252" lon="-0.40502">
        <ele>21.6</ele>
        <time>2012-01-13T14:53:20Z</time>
      </trkpt>
      <trkpt lat="49.17253" lon="-0.40502">
        <ele>21.7</ele>
        <time>2012-01-13T14:53:21Z</time>
      </trkpt>
      <trkpt lat="49.17254" lon="-0.40501">
        <ele>21.5</ele>
        <time>2012-01-13T14:53:22Z</time>
      </trkpt>
      <trkpt lat="49.17255" lon="-0.40501">
        <ele>22.2</ele>
        <time>2012-01-13T14:53:23Z</time>
      </trkpt>
      <trkpt lat="49.17256" lon="-0.40501">
        <ele>22.2</ele>
        <time>2012-01-13T14:53:24Z</time>
      </trkpt>
      <trkpt lat="49.17257" lon="-0.405">
        <ele>22.7</ele>
        <time>2012-01-13T14:53:25Z</time>
      </trkpt>
      <trkpt lat="49.17258" lon="-0.405">
        <ele>22.5</ele>
        <time>2012-01-13T14:53:26Z</time>
      </trkpt>
      <trkpt lat="49.17259" lon="-0.40499">
        <ele>22.5</ele>
        <time>2012-01-13T14:53:27Z</time>
      </trkpt>
      <trkpt lat="49.17259" lon="-0.40499">
        <ele>22.6</ele>
        <time>2012-01-13T14:53:28Z</time>
      </trkpt>
      <trkpt lat="49.1726" lon="-0.40499">
        <ele>22.7</ele>
        <time>2012-01-13T14:53:29Z</time>
      </trkpt>
      <trkpt lat="49.17261" lon="-0.40499">
        <ele>23.1</ele>
        <time>2012-01-13T14:53:30Z</time>
      </trkpt>
      <trkpt lat="49.17262" lon="-0.40499">
        <ele>23.2</ele>
        <time>2012-01-13T14:53:31Z</time>
      </trkpt>
      <trkpt lat="49.17262" lon="-0.40498">
        <ele>23.2</ele>
        <time>2012-01-13T14:53:32Z</time>
      </trkpt>
      <trkpt lat="49.17263" lon="-0.40498">
        <ele>23.2</ele>
        <time>2012-01-13T14:53:33Z</time>
      </trkpt>
      <trkpt lat="49.17264" lon="-0.40497">
        <ele>23.1</ele>
        <time>2012-01-13T14:53:34Z</time>
      </trkpt>
      <trkpt lat="49.17265" lon="-0.40497">
        <ele>22.7</ele>
        <time>2012-01-13T14:53:35Z</time>
      </trkpt>
      <trkpt lat="49.17266" lon="-0.40496">
        <ele>22.5</ele>
        <time>2012-01-13T14:53:36Z</time>
      </trkpt>
      <trkpt lat="49.17268" lon="-0.40495">
        <ele>22.7</ele>
        <time>2012-01-13T14:53:37Z</time>
      </trkpt>
      <trkpt lat="49.17269" lon="-0.40495">
        <ele>23</ele>
        <time>2012-01-13T14:53:38Z</time>
      </trkpt>
      <trkpt lat="49.1727" lon="-0.40495">
        <ele>23.1</ele>
        <time>2012-01-13T14:53:39Z</time>
      </trkpt>
      <trkpt lat="49.17271" lon="-0.40494">
        <ele>23.2</ele>
        <time>2012-01-13T14:53:40Z</time>
      </trkpt>
      <trkpt lat="49.17273" lon="-0.40494">
        <ele>23.5</ele>
        <time>2012-01-13T14:53:41Z</time>
      </trkpt>
      <trkpt lat="49.17274" lon="-0.40494">
        <ele>23.7</ele>
        <time>2012-01-13T14:53:42Z</time>
      </trkpt>
      <trkpt lat="49.17275" lon="-0.40493">
        <ele>23.7</ele>
        <time>2012-01-13T14:53:43Z</time>
      </trkpt>
      <trkpt lat="49.17276" lon="-0.40492">
        <ele>23.7</ele>
        <time>2012-01-13T14:53:44Z</time>
      </trkpt>
      <trkpt lat="49.17277" lon="-0.40491">
        <ele>23.7</ele>
        <time>2012-01-13T14:53:45Z</time>
      </trkpt>
      <trkpt lat="49.17278" lon="-0.40491">
        <ele>23.7</ele>
        <time>2012-01-13T14:53:46Z</time>
      </trkpt>
      <trkpt lat="49.17279" lon="-0.4049">
        <ele>24.1</ele>
        <time>2012-01-13T14:53:47Z</time>
      </trkpt>
      <trkpt lat="49.1728" lon="-0.4049">
        <ele>24.2</ele>
        <time>2012-01-13T14:53:48Z</time>
      </trkpt>
      <trkpt lat="49.1728" lon="-0.40489">
        <ele>24.2</ele>
        <time>2012-01-13T14:53:49Z</time>
      </trkpt>
      <trkpt lat="49.17281" lon="-0.40489">
        <ele>24.5</ele>
        <time>2012-01-13T14:53:50Z</time>
      </trkpt>
      <trkpt lat="49.17282" lon="-0.40488">
        <ele>24.6</ele>
        <time>2012-01-13T14:53:51Z</time>
      </trkpt>
      <trkpt lat="49.17282" lon="-0.40488">
        <ele>24.6</ele>
        <time>2012-01-13T14:53:52Z</time>
      </trkpt>
      <trkpt lat="49.17283" lon="-0.40487">
        <ele>24.6</ele>
        <time>2012-01-13T14:53:53Z</time>
      </trkpt>
      <trkpt lat="49.17284" lon="-0.40487">
        <ele>24.7</ele>
        <time>2012-01-13T14:53:54Z</time>
      </trkpt>
      <trkpt lat="49.17284" lon="-0.40486">
        <ele>24.7</ele>
        <time>2012-01-13T14:53:55Z</time>
      </trkpt>
      <trkpt lat="49.17285" lon="-0.40485">
        <ele>24.7</ele>
        <time>2012-01-13T14:53:56Z</time>
      </trkpt>
      <trkpt lat="49.17285" lon="-0.40485">
        <ele>24.7</ele>
        <time>2012-01-13T14:53:57Z</time>
      </trkpt>
      <trkpt lat="49.17286" lon="-0.40484">
        <ele>24.7</ele>
        <time>2012-01-13T14:53:58Z</time>
      </trkpt>
      <trkpt lat="49.17287" lon="-0.40483">
        <ele>24.7</ele>
        <time>2012-01-13T14:53:59Z</time>
      </trkpt>
      <trkpt lat="49.17288" lon="-0.40483">
        <ele>24.7</ele>
        <time>2012-01-13T14:54:00Z</time>
      </trkpt>
      <trkpt lat="49.17289" lon="-0.40482">
        <ele>25.2</ele>
        <time>2012-01-13T14:54:01Z</time>
      </trkpt>
      <trkpt lat="49.1729" lon="-0.40481">
        <ele>25.2</ele>
        <time>2012-01-13T14:54:02Z</time>
      </trkpt>
      <trkpt lat="49.1729" lon="-0.40481">
        <ele>25.6</ele>
        <time>2012-01-13T14:54:03Z</time>
      </trkpt>
      <trkpt lat="49.17291" lon="-0.4048">
        <ele>25.6</ele>
        <time>2012-01-13T14:54:04Z</time>
      </trkpt>
      <trkpt lat="49.17292" lon="-0.4048">
        <ele>25.7</ele>
        <time>2012-01-13T14:54:05Z</time>
      </trkpt>
      <trkpt lat="49.17292" lon="-0.40479">
        <ele>25.7</ele>
        <time>2012-01-13T14:54:06Z</time>
      </trkpt>
      <trkpt lat="49.17293" lon="-0.40479">
        <ele>25.7</ele>
        <time>2012-01-13T14:54:07Z</time>
      </trkpt>
      <trkpt lat="49.17294" lon="-0.40478">
        <ele>25.7</ele>
        <time>2012-01-13T14:54:08Z</time>
      </trkpt>
      <trkpt lat="49.17295" lon="-0.40478">
        <ele>25.7</ele>
        <time>2012-01-13T14:54:09Z</time>
      </trkpt>
      <trkpt lat="49.17295" lon="-0.40477">
        <ele>26.1</ele>
        <time>2012-01-13T14:54:10Z</time>
      </trkpt>
      <trkpt lat="49.17295" lon="-0.40477">
        <ele>26.2</ele>
        <time>2012-01-13T14:54:11Z</time>
      </trkpt>
      <trkpt lat="49.17295" lon="-0.40477">
        <ele>26.2</ele>
        <time>2012-01-13T14:54:12Z</time>
      </trkpt>
      <trkpt lat="49.17295" lon="-0.40477">
        <ele>26.6</ele>
        <time>2012-01-13T14:54:13Z</time>
      </trkpt>
      <trkpt lat="49.17296" lon="-0.40476">
        <ele>27</ele>
        <time>2012-01-13T14:54:14Z</time>
      </trkpt>
      <trkpt lat="49.17296" lon="-0.40476">
        <ele>27.2</ele>
        <time>2012-01-13T14:54:15Z</time>
      </trkpt>
      <trkpt lat="49.17297" lon="-0.40475">
        <ele>27.5</ele>
        <time>2012-01-13T14:54:16Z</time>
      </trkpt>
      <trkpt lat="49.17298" lon="-0.40475">
        <ele>27.5</ele>
        <time>2012-01-13T14:54:17Z</time>
      </trkpt>
      <trkpt lat="49.17299" lon="-0.40474">
        <ele>27.5</ele>
        <time>2012-01-13T14:54:18Z</time>
      </trkpt>
      <trkpt lat="49.17299" lon="-0.40474">
        <ele>27.2</ele>
        <time>2012-01-13T14:54:19Z</time>
      </trkpt>
      <trkpt lat="49.173" lon="-0.40473">
        <ele>27.2</ele>
        <time>2012-01-13T14:54:20Z</time>
      </trkpt>
      <trkpt lat="49.173" lon="-0.40473">
        <ele>27.5</ele>
        <time>2012-01-13T14:54:21Z</time>
      </trkpt>
      <trkpt lat="49.17301" lon="-0.40472">
        <ele>27.2</ele>
        <time>2012-01-13T14:54:22Z</time>
      </trkpt>
      <trkpt lat="49.17302" lon="-0.40472">
        <ele>27.6</ele>
        <time>2012-01-13T14:54:23Z</time>
      </trkpt>
      <trkpt lat="49.17302" lon="-0.40471">
        <ele>27.2</ele>
        <time>2012-01-13T14:54:24Z</time>
      </trkpt>
      <trkpt lat="49.17303" lon="-0.40471">
        <ele>27.2</ele>
        <time>2012-01-13T14:54:25Z</time>
      </trkpt>
      <trkpt lat="49.17304" lon="-0.4047">
        <ele>27.2</ele>
        <time>2012-01-13T14:54:26Z</time>
      </trkpt>
      <trkpt lat="49.17305" lon="-0.40469">
        <ele>27.1</ele>
        <time>2012-01-13T14:54:27Z</time>
      </trkpt>
      <trkpt lat="49.17305" lon="-0.40468">
        <ele>26.7</ele>
        <time>2012-01-13T14:54:28Z</time>
      </trkpt>
      <trkpt lat="49.17305" lon="-0.40468">
        <ele>26.6</ele>
        <time>2012-01-13T14:54:29Z</time>
      </trkpt>
      <trkpt lat="49.17306" lon="-0.40467">
        <ele>26.1</ele>
        <time>2012-01-13T14:54:30Z</time>
      </trkpt>
      <trkpt lat="49.17306" lon="-0.40466">
        <ele>26.1</ele>
        <time>2012-01-13T14:54:31Z</time>
      </trkpt>
      <trkpt lat="49.17306" lon="-0.40464">
        <ele>25.7</ele>
        <time>2012-01-13T14:54:32Z</time>
      </trkpt>
      <trkpt lat="49.17307" lon="-0.40463">
        <ele>25.7</ele>
        <time>2012-01-13T14:54:33Z</time>
      </trkpt>
      <trkpt lat="49.17307" lon="-0.40462">
        <ele>25.7</ele>
        <time>2012-01-13T14:54:34Z</time>
      </trkpt>
      <trkpt lat="49.17307" lon="-0.4046">
        <ele>26</ele>
        <time>2012-01-13T14:54:35Z</time>
      </trkpt>
      <trkpt lat="49.17307" lon="-0.40458">
        <ele>25.7</ele>
        <time>2012-01-13T14:54:36Z</time>
      </trkpt>
      <trkpt lat="49.17307" lon="-0.40457">
        <ele>25.7</ele>
        <time>2012-01-13T14:54:37Z</time>
      </trkpt>
      <trkpt lat="49.17306" lon="-0.40456">
        <ele>25.2</ele>
        <time>2012-01-13T14:54:38Z</time>
      </trkpt>
      <trkpt lat="49.17306" lon="-0.40454">
        <ele>25.2</ele>
        <time>2012-01-13T14:54:39Z</time>
      </trkpt>
      <trkpt lat="49.17305" lon="-0.40453">
        <ele>25.2</ele>
        <time>2012-01-13T14:54:40Z</time>
      </trkpt>
      <trkpt lat="49.17305" lon="-0.40452">
        <ele>25.7</ele>
        <time>2012-01-13T14:54:41Z</time>
      </trkpt>
      <trkpt lat="49.17305" lon="-0.40452">
        <ele>26.5</ele>
        <time>2012-01-13T14:54:42Z</time>
      </trkpt>
      <trkpt lat="49.17305" lon="-0.4045">
        <ele>27.5</ele>
        <time>2012-01-13T14:54:43Z</time>
      </trkpt>
      <trkpt lat="49.17305" lon="-0.40449">
        <ele>28</ele>
        <time>2012-01-13T14:54:44Z</time>
      </trkpt>
      <trkpt lat="49.17306" lon="-0.40448">
        <ele>28.7</ele>
        <time>2012-01-13T14:54:45Z</time>
      </trkpt>
      <trkpt lat="49.17307" lon="-0.40447">
        <ele>29</ele>
        <time>2012-01-13T14:54:46Z</time>
      </trkpt>
      <trkpt lat="49.17307" lon="-0.40446">
        <ele>29.2</ele>
        <time>2012-01-13T14:54:47Z</time>
      </trkpt>
      <trkpt lat="49.17306" lon="-0.40445">
        <ele>29.7</ele>
        <time>2012-01-13T14:54:48Z</time>
      </trkpt>
      <trkpt lat="49.17306" lon="-0.40443">
        <ele>30</ele>
        <time>2012-01-13T14:54:49Z</time>
      </trkpt>
      <trkpt lat="49.17306" lon="-0.40442">
        <ele>30.2</ele>
        <time>2012-01-13T14:54:50Z</time>
      </trkpt>
      <trkpt lat="49.17306" lon="-0.40441">
        <ele>30.7</ele>
        <time>2012-01-13T14:54:51Z</time>
      </trkpt>
      <trkpt lat="49.17306" lon="-0.4044">
        <ele>31.2</ele>
        <time>2012-01-13T14:54:52Z</time>
      </trkpt>
      <trkpt lat="49.17306" lon="-0.40439">
        <ele>31.6</ele>
        <time>2012-01-13T14:54:53Z</time>
      </trkpt>
      <trkpt lat="49.17306" lon="-0.40437">
        <ele>31.7</ele>
        <time>2012-01-13T14:54:54Z</time>
      </trkpt>
      <trkpt lat="49.17306" lon="-0.40436">
        <ele>32</ele>
        <time>2012-01-13T14:54:55Z</time>
      </trkpt>
      <trkpt lat="49.17306" lon="-0.40435">
        <ele>32.2</ele>
        <time>2012-01-13T14:54:56Z</time>
      </trkpt>
      <trkpt lat="49.17306" lon="-0.40434">
        <ele>32.5</ele>
        <time>2012-01-13T14:54:57Z</time>
      </trkpt>
      <trkpt lat="49.17306" lon="-0.40432">
        <ele>32.5</ele>
        <time>2012-01-13T14:54:58Z</time>
      </trkpt>
      <trkpt lat="49.17306" lon="-0.40431">
        <ele>32.7</ele>
        <time>2012-01-13T14:54:59Z</time>
      </trkpt>
      <trkpt lat="49.17306" lon="-0.4043">
        <ele>32.7</ele>
        <time>2012-01-13T14:55:00Z</time>
      </trkpt>
      <trkpt lat="49.17305" lon="-0.40429">
        <ele>33</ele>
        <time>2012-01-13T14:55:01Z</time>
      </trkpt>
      <trkpt lat="49.17305" lon="-0.40428">
        <ele>33</ele>
        <time>2012-01-13T14:55:02Z</time>
      </trkpt>
      <trkpt lat="49.17305" lon="-0.40426">
        <ele>33.2</ele>
        <time>2012-01-13T14:55:03Z</time>
      </trkpt>
      <trkpt lat="49.17305" lon="-0.40424">
        <ele>33</ele>
        <time>2012-01-13T14:55:04Z</time>
      </trkpt>
      <trkpt lat="49.17305" lon="-0.40422">
        <ele>33.2</ele>
        <time>2012-01-13T14:55:05Z</time>
      </trkpt>
      <trkpt lat="49.17305" lon="-0.40421">
        <ele>33.5</ele>
        <time>2012-01-13T14:55:06Z</time>
      </trkpt>
      <trkpt lat="49.17305" lon="-0.40421">
        <ele>33.9</ele>
        <time>2012-01-13T14:55:07Z</time>
      </trkpt>
      <trkpt lat="49.17305" lon="-0.4042">
        <ele>34</ele>
        <time>2012-01-13T14:55:08Z</time>
      </trkpt>
      <trkpt lat="49.17305" lon="-0.40419">
        <ele>34.2</ele>
        <time>2012-01-13T14:55:09Z</time>
      </trkpt>
      <trkpt lat="49.17305" lon="-0.40418">
        <ele>34.5</ele>
        <time>2012-01-13T14:55:10Z</time>
      </trkpt>
      <trkpt lat="49.17305" lon="-0.40417">
        <ele>34.5</ele>
        <time>2012-01-13T14:55:11Z</time>
      </trkpt>
      <trkpt lat="49.17305" lon="-0.40414">
        <ele>35.2</ele>
        <time>2012-01-13T14:55:12Z</time>
      </trkpt>
      <trkpt lat="49.17305" lon="-0.40413">
        <ele>35.4</ele>
        <time>2012-01-13T14:55:13Z</time>
      </trkpt>
      <trkpt lat="49.17305" lon="-0.40412">
        <ele>35.2</ele>
        <time>2012-01-13T14:55:14Z</time>
      </trkpt>
      <trkpt lat="49.17305" lon="-0.40411">
        <ele>35.2</ele>
        <time>2012-01-13T14:55:15Z</time>
      </trkpt>
      <trkpt lat="49.17306" lon="-0.40411">
        <ele>35.7</ele>
        <time>2012-01-13T14:55:16Z</time>
      </trkpt>
      <trkpt lat="49.17306" lon="-0.40411">
        <ele>36</ele>
        <time>2012-01-13T14:55:17Z</time>
      </trkpt>
      <trkpt lat="49.17306" lon="-0.4041">
        <ele>36</ele>
        <time>2012-01-13T14:55:18Z</time>
      </trkpt>
      <trkpt lat="49.17305" lon="-0.40409">
        <ele>36.2</ele>
        <time>2012-01-13T14:55:19Z</time>
      </trkpt>
      <trkpt lat="49.17305" lon="-0.40408">
        <ele>36.2</ele>
        <time>2012-01-13T14:55:20Z</time>
      </trkpt>
      <trkpt lat="49.17304" lon="-0.40408">
        <ele>36.2</ele>
        <time>2012-01-13T14:55:21Z</time>
      </trkpt>
      <trkpt lat="49.17304" lon="-0.40407">
        <ele>36.2</ele>
        <time>2012-01-13T14:55:22Z</time>
      </trkpt>
      <trkpt lat="49.17303" lon="-0.40406">
        <ele>36.2</ele>
        <time>2012-01-13T14:55:23Z</time>
      </trkpt>
      <trkpt lat="49.17302" lon="-0.40405">
        <ele>36.5</ele>
        <time>2012-01-13T14:55:24Z</time>
      </trkpt>
      <trkpt lat="49.17301" lon="-0.40404">
        <ele>36.9</ele>
        <time>2012-01-13T14:55:25Z</time>
      </trkpt>
      <trkpt lat="49.173" lon="-0.40404">
        <ele>36.7</ele>
        <time>2012-01-13T14:55:26Z</time>
      </trkpt>
      <trkpt lat="49.173" lon="-0.40404">
        <ele>36.5</ele>
        <time>2012-01-13T14:55:27Z</time>
      </trkpt>
      <trkpt lat="49.17299" lon="-0.40404">
        <ele>36.4</ele>
        <time>2012-01-13T14:55:28Z</time>
      </trkpt>
      <trkpt lat="49.17298" lon="-0.40403">
        <ele>36</ele>
        <time>2012-01-13T14:55:29Z</time>
      </trkpt>
      <trkpt lat="49.17297" lon="-0.40404">
        <ele>35.7</ele>
        <time>2012-01-13T14:55:30Z</time>
      </trkpt>
      <trkpt lat="49.17297" lon="-0.40404">
        <ele>35</ele>
        <time>2012-01-13T14:55:31Z</time>
      </trkpt>
      <trkpt lat="49.17296" lon="-0.40404">
        <ele>35</ele>
        <time>2012-01-13T14:55:32Z</time>
      </trkpt>
      <trkpt lat="49.17295" lon="-0.40404">
        <ele>34.7</ele>
        <time>2012-01-13T14:55:33Z</time>
      </trkpt>
      <trkpt lat="49.17295" lon="-0.40405">
        <ele>34.5</ele>
        <time>2012-01-13T14:55:34Z</time>
      </trkpt>
      <trkpt lat="49.17295" lon="-0.40405">
        <ele>33.9</ele>
        <time>2012-01-13T14:55:35Z</time>
      </trkpt>
      <trkpt lat="49.17294" lon="-0.40405">
        <ele>33.7</ele>
        <time>2012-01-13T14:55:36Z</time>
      </trkpt>
      <trkpt lat="49.17293" lon="-0.40405">
        <ele>33.5</ele>
        <time>2012-01-13T14:55:37Z</time>
      </trkpt>
      <trkpt lat="49.17292" lon="-0.40405">
        <ele>33.5</ele>
        <time>2012-01-13T14:55:38Z</time>
      </trkpt>
      <trkpt lat="49.17291" lon="-0.40406">
        <ele>32.2</ele>
        <time>2012-01-13T14:55:39Z</time>
      </trkpt>
      <trkpt lat="49.1729" lon="-0.40406">
        <ele>31.5</ele>
        <time>2012-01-13T14:55:40Z</time>
      </trkpt>
      <trkpt lat="49.1729" lon="-0.40407">
        <ele>31.1</ele>
        <time>2012-01-13T14:55:41Z</time>
      </trkpt>
      <trkpt lat="49.17289" lon="-0.40407">
        <ele>30.6</ele>
        <time>2012-01-13T14:55:42Z</time>
      </trkpt>
      <trkpt lat="49.17289" lon="-0.40408">
        <ele>28.7</ele>
        <time>2012-01-13T14:55:43Z</time>
      </trkpt>
      <trkpt lat="49.17287" lon="-0.40407">
        <ele>28</ele>
        <time>2012-01-13T14:55:44Z</time>
      </trkpt>
      <trkpt lat="49.17286" lon="-0.40407">
        <ele>28.2</ele>
        <time>2012-01-13T14:55:45Z</time>
      </trkpt>
      <trkpt lat="49.17285" lon="-0.40406">
        <ele>28.1</ele>
        <time>2012-01-13T14:55:46Z</time>
      </trkpt>
      <trkpt lat="49.17284" lon="-0.40405">
        <ele>28.2</ele>
        <time>2012-01-13T14:55:47Z</time>
      </trkpt>
      <trkpt lat="49.17283" lon="-0.40405">
        <ele>28.7</ele>
        <time>2012-01-13T14:55:48Z</time>
      </trkpt>
      <trkpt lat="49.17282" lon="-0.40404">
        <ele>28.7</ele>
        <time>2012-01-13T14:55:49Z</time>
      </trkpt>
      <trkpt lat="49.17281" lon="-0.40403">
        <ele>28.7</ele>
        <time>2012-01-13T14:55:50Z</time>
      </trkpt>
      <trkpt lat="49.1728" lon="-0.40402">
        <ele>28.6</ele>
        <time>2012-01-13T14:55:51Z</time>
      </trkpt>
      <trkpt lat="49.17279" lon="-0.40401">
        <ele>28.5</ele>
        <time>2012-01-13T14:55:52Z</time>
      </trkpt>
      <trkpt lat="49.17278" lon="-0.404">
        <ele>28.5</ele>
        <time>2012-01-13T14:55:53Z</time>
      </trkpt>
      <trkpt lat="49.17277" lon="-0.40399">
        <ele>28.7</ele>
        <time>2012-01-13T14:55:54Z</time>
      </trkpt>
      <trkpt lat="49.17277" lon="-0.40398">
        <ele>28.7</ele>
        <time>2012-01-13T14:55:55Z</time>
      </trkpt>
      <trkpt lat="49.17276" lon="-0.40398">
        <ele>28.7</ele>
        <time>2012-01-13T14:55:56Z</time>
      </trkpt>
      <trkpt lat="49.17276" lon="-0.40397">
        <ele>28.7</ele>
        <time>2012-01-13T14:55:57Z</time>
      </trkpt>
      <trkpt lat="49.17275" lon="-0.40395">
        <ele>28.7</ele>
        <time>2012-01-13T14:55:58Z</time>
      </trkpt>
      <trkpt lat="49.17275" lon="-0.40394">
        <ele>28.7</ele>
        <time>2012-01-13T14:55:59Z</time>
      </trkpt>
      <trkpt lat="49.17274" lon="-0.40393">
        <ele>29.1</ele>
        <time>2012-01-13T14:56:00Z</time>
      </trkpt>
      <trkpt lat="49.17274" lon="-0.40392">
        <ele>29.2</ele>
        <time>2012-01-13T14:56:01Z</time>
      </trkpt>
      <trkpt lat="49.17274" lon="-0.40391">
        <ele>29.2</ele>
        <time>2012-01-13T14:56:02Z</time>
      </trkpt>
      <trkpt lat="49.17273" lon="-0.40389">
        <ele>29.2</ele>
        <time>2012-01-13T14:56:03Z</time>
      </trkpt>
      <trkpt lat="49.17273" lon="-0.40388">
        <ele>29.2</ele>
        <time>2012-01-13T14:56:04Z</time>
      </trkpt>
      <trkpt lat="49.17273" lon="-0.40387">
        <ele>29.5</ele>
        <time>2012-01-13T14:56:05Z</time>
      </trkpt>
      <trkpt lat="49.17273" lon="-0.40385">
        <ele>29.2</ele>
        <time>2012-01-13T14:56:06Z</time>
      </trkpt>
      <trkpt lat="49.17272" lon="-0.40384">
        <ele>29.5</ele>
        <time>2012-01-13T14:56:07Z</time>
      </trkpt>
      <trkpt lat="49.17272" lon="-0.40383">
        <ele>29.7</ele>
        <time>2012-01-13T14:56:08Z</time>
      </trkpt>
      <trkpt lat="49.17272" lon="-0.40381">
        <ele>30.5</ele>
        <time>2012-01-13T14:56:09Z</time>
      </trkpt>
      <trkpt lat="49.17273" lon="-0.4038">
        <ele>30.7</ele>
        <time>2012-01-13T14:56:10Z</time>
      </trkpt>
      <trkpt lat="49.17273" lon="-0.40378">
        <ele>31.2</ele>
        <time>2012-01-13T14:56:11Z</time>
      </trkpt>
      <trkpt lat="49.17273" lon="-0.40377">
        <ele>31.6</ele>
        <time>2012-01-13T14:56:12Z</time>
      </trkpt>
      <trkpt lat="49.17273" lon="-0.40376">
        <ele>31.5</ele>
        <time>2012-01-13T14:56:13Z</time>
      </trkpt>
      <trkpt lat="49.17273" lon="-0.40374">
        <ele>31.6</ele>
        <time>2012-01-13T14:56:14Z</time>
      </trkpt>
      <trkpt lat="49.17273" lon="-0.40373">
        <ele>31.2</ele>
        <time>2012-01-13T14:56:15Z</time>
      </trkpt>
      <trkpt lat="49.17273" lon="-0.40371">
        <ele>31.2</ele>
        <time>2012-01-13T14:56:16Z</time>
      </trkpt>
      <trkpt lat="49.17273" lon="-0.40369">
        <ele>31.2</ele>
        <time>2012-01-13T14:56:17Z</time>
      </trkpt>
      <trkpt lat="49.17273" lon="-0.40367">
        <ele>31.1</ele>
        <time>2012-01-13T14:56:18Z</time>
      </trkpt>
      <trkpt lat="49.17272" lon="-0.40366">
        <ele>31.2</ele>
        <time>2012-01-13T14:56:19Z</time>
      </trkpt>
      <trkpt lat="49.17273" lon="-0.40364">
        <ele>31.5</ele>
        <time>2012-01-13T14:56:20Z</time>
      </trkpt>
      <trkpt lat="49.17273" lon="-0.40362">
        <ele>31.7</ele>
        <time>2012-01-13T14:56:21Z</time>
      </trkpt>
      <trkpt lat="49.17272" lon="-0.40361">
        <ele>32</ele>
        <time>2012-01-13T14:56:22Z</time>
      </trkpt>
      <trkpt lat="49.17272" lon="-0.40359">
        <ele>32</ele>
        <time>2012-01-13T14:56:23Z</time>
      </trkpt>
      <trkpt lat="49.17272" lon="-0.40357">
        <ele>32.7</ele>
        <time>2012-01-13T14:56:24Z</time>
      </trkpt>
      <trkpt lat="49.17272" lon="-0.40356">
        <ele>32.7</ele>
        <time>2012-01-13T14:56:25Z</time>
      </trkpt>
      <trkpt lat="49.17272" lon="-0.40354">
        <ele>32.7</ele>
        <time>2012-01-13T14:56:26Z</time>
      </trkpt>
      <trkpt lat="49.17272" lon="-0.40352">
        <ele>33</ele>
        <time>2012-01-13T14:56:27Z</time>
      </trkpt>
      <trkpt lat="49.17272" lon="-0.4035">
        <ele>33.2</ele>
        <time>2012-01-13T14:56:28Z</time>
      </trkpt>
      <trkpt lat="49.17272" lon="-0.40348">
        <ele>33</ele>
        <time>2012-01-13T14:56:29Z</time>
      </trkpt>
      <trkpt lat="49.17272" lon="-0.40346">
        <ele>32.9</ele>
        <time>2012-01-13T14:56:30Z</time>
      </trkpt>
      <trkpt lat="49.17272" lon="-0.40344">
        <ele>32</ele>
        <time>2012-01-13T14:56:31Z</time>
      </trkpt>
      <trkpt lat="49.17272" lon="-0.40343">
        <ele>31.2</ele>
        <time>2012-01-13T14:56:32Z</time>
      </trkpt>
      <trkpt lat="49.17272" lon="-0.40341">
        <ele>31.6</ele>
        <time>2012-01-13T14:56:33Z</time>
      </trkpt>
      <trkpt lat="49.17272" lon="-0.40339">
        <ele>31.7</ele>
        <time>2012-01-13T14:56:34Z</time>
      </trkpt>
      <trkpt lat="49.17272" lon="-0.40337">
        <ele>31.2</ele>
        <time>2012-01-13T14:56:35Z</time>
      </trkpt>
      <trkpt lat="49.17271" lon="-0.40336">
        <ele>31</ele>
        <time>2012-01-13T14:56:36Z</time>
      </trkpt>
      <trkpt lat="49.17271" lon="-0.40334">
        <ele>30.7</ele>
        <time>2012-01-13T14:56:37Z</time>
      </trkpt>
      <trkpt lat="49.1727" lon="-0.40333">
        <ele>30.6</ele>
        <time>2012-01-13T14:56:38Z</time>
      </trkpt>
      <trkpt lat="49.1727" lon="-0.40331">
        <ele>31.1</ele>
        <time>2012-01-13T14:56:39Z</time>
      </trkpt>
      <trkpt lat="49.17269" lon="-0.40329">
        <ele>30.7</ele>
        <time>2012-01-13T14:56:40Z</time>
      </trkpt>
      <trkpt lat="49.17269" lon="-0.40327">
        <ele>30.1</ele>
        <time>2012-01-13T14:56:41Z</time>
      </trkpt>
      <trkpt lat="49.17268" lon="-0.40326">
        <ele>29.2</ele>
        <time>2012-01-13T14:56:42Z</time>
      </trkpt>
      <trkpt lat="49.17268" lon="-0.40325">
        <ele>29.1</ele>
        <time>2012-01-13T14:56:43Z</time>
      </trkpt>
      <trkpt lat="49.17268" lon="-0.40323">
        <ele>29.2</ele>
        <time>2012-01-13T14:56:44Z</time>
      </trkpt>
      <trkpt lat="49.17268" lon="-0.40321">
        <ele>29.7</ele>
        <time>2012-01-13T14:56:45Z</time>
      </trkpt>
      <trkpt lat="49.17268" lon="-0.40319">
        <ele>29.2</ele>
        <time>2012-01-13T14:56:46Z</time>
      </trkpt>
      <trkpt lat="49.17268" lon="-0.40317">
        <ele>28.2</ele>
        <time>2012-01-13T14:56:47Z</time>
      </trkpt>
      <trkpt lat="49.17268" lon="-0.40315">
        <ele>28.1</ele>
        <time>2012-01-13T14:56:48Z</time>
      </trkpt>
      <trkpt lat="49.17268" lon="-0.40314">
        <ele>27.7</ele>
        <time>2012-01-13T14:56:49Z</time>
      </trkpt>
      <trkpt lat="49.17268" lon="-0.40312">
        <ele>27.5</ele>
        <time>2012-01-13T14:56:50Z</time>
      </trkpt>
      <trkpt lat="49.17267" lon="-0.4031">
        <ele>26.1</ele>
        <time>2012-01-13T14:56:51Z</time>
      </trkpt>
      <trkpt lat="49.17267" lon="-0.40309">
        <ele>24.7</ele>
        <time>2012-01-13T14:56:52Z</time>
      </trkpt>
      <trkpt lat="49.17268" lon="-0.40307">
        <ele>24.7</ele>
        <time>2012-01-13T14:56:53Z</time>
      </trkpt>
      <trkpt lat="49.17268" lon="-0.40306">
        <ele>24.7</ele>
        <time>2012-01-13T14:56:54Z</time>
      </trkpt>
      <trkpt lat="49.17268" lon="-0.40306">
        <ele>24</ele>
        <time>2012-01-13T14:56:55Z</time>
      </trkpt>
      <trkpt lat="49.17268" lon="-0.40305">
        <ele>23.7</ele>
        <time>2012-01-13T14:56:56Z</time>
      </trkpt>
      <trkpt lat="49.17268" lon="-0.40303">
        <ele>24.1</ele>
        <time>2012-01-13T14:56:57Z</time>
      </trkpt>
      <trkpt lat="49.17268" lon="-0.40302">
        <ele>23.6</ele>
        <time>2012-01-13T14:56:58Z</time>
      </trkpt>
      <trkpt lat="49.17268" lon="-0.40301">
        <ele>23.2</ele>
        <time>2012-01-13T14:56:59Z</time>
      </trkpt>
      <trkpt lat="49.17269" lon="-0.40299">
        <ele>23.6</ele>
        <time>2012-01-13T14:57:00Z</time>
      </trkpt>
      <trkpt lat="49.17269" lon="-0.40298">
        <ele>24.2</ele>
        <time>2012-01-13T14:57:01Z</time>
      </trkpt>
      <trkpt lat="49.17269" lon="-0.40296">
        <ele>24.5</ele>
        <time>2012-01-13T14:57:02Z</time>
      </trkpt>
      <trkpt lat="49.1727" lon="-0.40294">
        <ele>25.7</ele>
        <time>2012-01-13T14:57:03Z</time>
      </trkpt>
      <trkpt lat="49.17271" lon="-0.40293">
        <ele>26.1</ele>
        <time>2012-01-13T14:57:04Z</time>
      </trkpt>
      <trkpt lat="49.17271" lon="-0.40291">
        <ele>26.5</ele>
        <time>2012-01-13T14:57:05Z</time>
      </trkpt>
      <trkpt lat="49.17271" lon="-0.4029">
        <ele>27.1</ele>
        <time>2012-01-13T14:57:06Z</time>
      </trkpt>
      <trkpt lat="49.17272" lon="-0.40288">
        <ele>28.1</ele>
        <time>2012-01-13T14:57:07Z</time>
      </trkpt>
      <trkpt lat="49.17272" lon="-0.40288">
        <ele>29.1</ele>
        <time>2012-01-13T14:57:08Z</time>
      </trkpt>
      <trkpt lat="49.17272" lon="-0.40288">
        <ele>31</ele>
        <time>2012-01-13T14:57:09Z</time>
      </trkpt>
      <trkpt lat="49.17271" lon="-0.40288">
        <ele>31.7</ele>
        <time>2012-01-13T14:57:10Z</time>
      </trkpt>
      <trkpt lat="49.1727" lon="-0.40289">
        <ele>31.7</ele>
        <time>2012-01-13T14:57:11Z</time>
      </trkpt>
      <trkpt lat="49.1727" lon="-0.40289">
        <ele>31.7</ele>
        <time>2012-01-13T14:57:12Z</time>
      </trkpt>
      <trkpt lat="49.1727" lon="-0.4029">
        <ele>31.1</ele>
        <time>2012-01-13T14:57:13Z</time>
      </trkpt>
      <trkpt lat="49.1727" lon="-0.4029">
        <ele>30.7</ele>
        <time>2012-01-13T14:57:14Z</time>
      </trkpt>
      <trkpt lat="49.17269" lon="-0.4029">
        <ele>31.2</ele>
        <time>2012-01-13T14:57:15Z</time>
      </trkpt>
      <trkpt lat="49.17268" lon="-0.40291">
        <ele>31.2</ele>
        <time>2012-01-13T14:57:16Z</time>
      </trkpt>
      <trkpt lat="49.17268" lon="-0.40291">
        <ele>31.7</ele>
        <time>2012-01-13T14:57:17Z</time>
      </trkpt>
      <trkpt lat="49.17267" lon="-0.40292">
        <ele>32</ele>
        <time>2012-01-13T14:57:18Z</time>
      </trkpt>
      <trkpt lat="49.17268" lon="-0.40291">
        <ele>32.5</ele>
        <time>2012-01-13T14:57:19Z</time>
      </trkpt>
      <trkpt lat="49.17269" lon="-0.40291">
        <ele>32.2</ele>
        <time>2012-01-13T14:57:20Z</time>
      </trkpt>
      <trkpt lat="49.17268" lon="-0.4029">
        <ele>31.7</ele>
        <time>2012-01-13T14:57:21Z</time>
      </trkpt>
      <trkpt lat="49.17268" lon="-0.40289">
        <ele>31.2</ele>
        <time>2012-01-13T14:57:22Z</time>
      </trkpt>
      <trkpt lat="49.17268" lon="-0.40289">
        <ele>31.1</ele>
        <time>2012-01-13T14:57:23Z</time>
      </trkpt>
      <trkpt lat="49.17267" lon="-0.4029">
        <ele>32.2</ele>
        <time>2012-01-13T14:57:24Z</time>
      </trkpt>
      <trkpt lat="49.17267" lon="-0.40291">
        <ele>33.5</ele>
        <time>2012-01-13T14:57:25Z</time>
      </trkpt>
      <trkpt lat="49.17267" lon="-0.40291">
        <ele>33.2</ele>
        <time>2012-01-13T14:57:26Z</time>
      </trkpt>
      <trkpt lat="49.17268" lon="-0.40292">
        <ele>33.2</ele>
        <time>2012-01-13T14:57:27Z</time>
      </trkpt>
      <trkpt lat="49.1727" lon="-0.40292">
        <ele>33.7</ele>
        <time>2012-01-13T14:57:28Z</time>
      </trkpt>
      <trkpt lat="49.17272" lon="-0.40293">
        <ele>34.7</ele>
        <time>2012-01-13T14:57:29Z</time>
      </trkpt>
      <trkpt lat="49.17273" lon="-0.40293">
        <ele>35.2</ele>
        <time>2012-01-13T14:57:30Z</time>
      </trkpt>
      <trkpt lat="49.17274" lon="-0.40293">
        <ele>35.4</ele>
        <time>2012-01-13T14:57:31Z</time>
      </trkpt>
      <trkpt lat="49.17275" lon="-0.40293">
        <ele>35.5</ele>
        <time>2012-01-13T14:57:32Z</time>
      </trkpt>
      <trkpt lat="49.17276" lon="-0.40293">
        <ele>35.7</ele>
        <time>2012-01-13T14:57:33Z</time>
      </trkpt>
      <trkpt lat="49.17277" lon="-0.40293">
        <ele>36</ele>
        <time>2012-01-13T14:57:34Z</time>
      </trkpt>
      <trkpt lat="49.17278" lon="-0.40293">
        <ele>36.2</ele>
        <time>2012-01-13T14:57:35Z</time>
      </trkpt>
      <trkpt lat="49.17279" lon="-0.40292">
        <ele>36.2</ele>
        <time>2012-01-13T14:57:36Z</time>
      </trkpt>
      <trkpt lat="49.1728" lon="-0.40292">
        <ele>36.5</ele>
        <time>2012-01-13T14:57:37Z</time>
      </trkpt>
      <trkpt lat="49.17281" lon="-0.40292">
        <ele>36.7</ele>
        <time>2012-01-13T14:57:38Z</time>
      </trkpt>
      <trkpt lat="49.17282" lon="-0.40292">
        <ele>36.9</ele>
        <time>2012-01-13T14:57:39Z</time>
      </trkpt>
      <trkpt lat="49.17283" lon="-0.40292">
        <ele>37</ele>
        <time>2012-01-13T14:57:40Z</time>
      </trkpt>
      <trkpt lat="49.17284" lon="-0.40292">
        <ele>37.2</ele>
        <time>2012-01-13T14:57:41Z</time>
      </trkpt>
      <trkpt lat="49.17285" lon="-0.40292">
        <ele>37.4</ele>
        <time>2012-01-13T14:57:42Z</time>
      </trkpt>
      <trkpt lat="49.17285" lon="-0.40292">
        <ele>37.5</ele>
        <time>2012-01-13T14:57:43Z</time>
      </trkpt>
      <trkpt lat="49.17286" lon="-0.40292">
        <ele>37.7</ele>
        <time>2012-01-13T14:57:44Z</time>
      </trkpt>
      <trkpt lat="49.17287" lon="-0.40292">
        <ele>38</ele>
        <time>2012-01-13T14:57:45Z</time>
      </trkpt>
      <trkpt lat="49.1729" lon="-0.403">
        <ele>43</ele>
        <time>2012-01-13T14:58:18Z</time>
      </trkpt>
    </trkseg>
  </trk>
</gpx>